GFSMW_prec_precacc_018.txt.gz
Total_Precipitation_Accumulation
0.00 0.00 0.00 0.00 0.00 0.00 0.00 0.00 0.00 0.00 0.00 0.00 0.00 0.00 0.00 0.00 0.00 0.00 0.00 0.00 0.00 0.00 0.00 0.00 0.00 0.00 0.00 0.00 0.00 0.00 0.00 0.00 0.00 0.00 0.00 0.00 0.00 0.00 0.00 0.00 0.00 0.00 0.00
0.00 0.00 0.00 0.00 0.00 0.00 0.00 0.00 0.00 0.00 0.00 0.00 0.00 0.00 0.00 0.00 0.00 0.00 0.00 0.00 0.00 0.00 0.00 0.00 0.00 0.00 0.00 0.00 0.00 0.00 0.00 0.00 0.00 0.01 0.01 0.01 0.00 0.00 0.00 0.00 0.00 0.00 0.00
0.00 0.00 0.00 0.00 0.00 0.00 0.00 0.00 0.00 0.00 0.00 0.00 0.00 0.00 0.00 0.00 0.00 0.00 0.00 0.00 0.00 0.00 0.00 0.00 0.00 0.00 0.00 0.00 0.00 0.00 0.00 0.00 0.00 0.00 0.02 0.02 0.01 0.01 0.00 0.00 0.00 0.00 0.00
0.00 0.00 0.00 0.00 0.00 0.00 0.00 0.00 0.00 0.00 0.00 0.00 0.00 0.00 0.00 0.00 0.00 0.00 0.00 0.00 0.00 0.00 0.00 0.00 0.00 0.00 0.00 0.00 0.00 0.00 0.00 0.00 0.00 0.00 0.00 0.01 0.02 0.02 0.01 0.01 0.01 0.01 0.00
0.00 0.00 0.00 0.00 0.00 0.00 0.00 0.00 0.00 0.00 0.00 0.00 0.00 0.00 0.00 0.00 0.00 0.00 0.00 0.00 0.00 0.00 0.00 0.00 0.00 0.00 0.00 0.00 0.00 0.00 0.00 0.00 0.00 0.00 0.00 0.00 0.00 0.00 0.01 0.00 0.00 0.00 0.00
0.00 0.00 0.00 0.00 0.00 0.00 0.00 0.00 0.00 0.00 0.00 0.00 0.00 0.00 0.00 0.00 0.00 0.00 0.00 0.00 0.00 0.00 0.00 0.00 0.00 0.00 0.00 0.00 0.00 0.00 0.00 0.00 0.00 0.00 0.00 0.00 0.00 0.01 0.01 0.01 0.00 0.00 0.00
0.00 0.00 0.00 0.00 0.00 0.00 0.00 0.00 0.00 0.00 0.00 0.00 0.00 0.00 0.00 0.00 0.00 0.00 0.00 0.00 0.00 0.00 0.00 0.00 0.00 0.00 0.00 0.00 0.00 0.00 0.00 0.00 0.00 0.00 0.00 0.00 0.00 0.00 0.00 0.01 0.00 0.00 0.00
0.00 0.00 0.00 0.00 0.00 0.00 0.00 0.00 0.00 0.00 0.00 0.00 0.00 0.00 0.00 0.00 0.00 0.00 0.00 0.00 0.00 0.00 0.00 0.00 0.00 0.00 0.00 0.00 0.00 0.00 0.00 0.00 0.00 0.00 0.00 0.00 0.00 0.00 0.00 0.00 0.03 0.02 0.00
0.00 0.00 0.00 0.00 0.00 0.00 0.00 0.00 0.00 0.00 0.00 0.00 0.00 0.00 0.00 0.00 0.00 0.00 0.00 0.00 0.00 0.00 0.00 0.00 0.00 0.00 0.00 0.00 0.00 0.00 0.00 0.00 0.00 0.00 0.00 0.00 0.00 0.00 0.00 0.01 0.04 0.04 0.03
0.00 0.00 0.00 0.00 0.00 0.00 0.00 0.00 0.00 0.00 0.00 0.00 0.00 0.00 0.00 0.00 0.00 0.00 0.00 0.00 0.00 0.00 0.00 0.00 0.00 0.00 0.00 0.00 0.00 0.00 0.00 0.00 0.00 0.00 0.00 0.00 0.00 0.00 0.01 0.01 0.00 0.01 0.01
0.00 0.00 0.00 0.00 0.00 0.00 0.00 0.00 0.00 0.00 0.00 0.00 0.00 0.00 0.00 0.00 0.00 0.00 0.00 0.00 0.00 0.00 0.00 0.00 0.00 0.00 0.00 0.00 0.00 0.00 0.00 0.00 0.00 0.00 0.00 0.00 0.00 0.00 0.00 0.00 0.00 0.00 0.00
0.00 0.00 0.00 0.00 0.00 0.00 0.00 0.00 0.00 0.00 0.00 0.00 0.00 0.00 0.00 0.00 0.00 0.00 0.00 0.00 0.00 0.00 0.00 0.00 0.00 0.00 0.00 0.00 0.00 0.00 0.00 0.00 0.00 0.00 0.00 0.00 0.00 0.00 0.00 0.00 0.00 0.00 0.00
0.00 0.00 0.00 0.00 0.00 0.00 0.00 0.00 0.00 0.00 0.00 0.00 0.00 0.00 0.00 0.00 0.00 0.00 0.00 0.00 0.00 0.00 0.00 0.00 0.00 0.00 0.00 0.00 0.00 0.00 0.00 0.00 0.00 0.00 0.00 0.00 0.00 0.00 0.00 0.00 0.00 0.00 0.02
0.00 0.00 0.00 0.00 0.00 0.00 0.00 0.00 0.00 0.00 0.00 0.00 0.00 0.00 0.00 0.00 0.00 0.00 0.00 0.00 0.00 0.00 0.00 0.00 0.00 0.00 0.00 0.00 0.00 0.00 0.00 0.00 0.00 0.00 0.00 0.00 0.00 0.00 0.00 0.00 0.01 0.02 0.03
0.00 0.00 0.00 0.00 0.00 0.00 0.00 0.00 0.00 0.00 0.00 0.00 0.00 0.00 0.00 0.00 0.00 0.00 0.00 0.00 0.00 0.00 0.00 0.00 0.00 0.00 0.00 0.00 0.00 0.00 0.00 0.00 0.00 0.00 0.00 0.00 0.00 0.00 0.00 0.02 0.03 0.04 0.05
0.00 0.00 0.00 0.00 0.00 0.00 0.00 0.00 0.00 0.00 0.00 0.00 0.00 0.00 0.00 0.00 0.00 0.00 0.00 0.00 0.00 0.00 0.00 0.00 0.00 0.00 0.00 0.00 0.00 0.00 0.00 0.00 0.00 0.00 0.00 0.00 0.00 0.00 0.00 0.02 0.03 0.08 0.16
0.00 0.00 0.00 0.00 0.00 0.00 0.00 0.00 0.00 0.00 0.00 0.00 0.00 0.00 0.00 0.00 0.00 0.00 0.00 0.00 0.00 0.00 0.00 0.00 0.00 0.00 0.00 0.00 0.00 0.00 0.00 0.00 0.00 0.00 0.00 0.00 0.00 0.00 0.01 0.01 0.06 0.15 0.21
0.00 0.00 0.00 0.00 0.00 0.00 0.00 0.00 0.00 0.00 0.00 0.00 0.00 0.00 0.00 0.00 0.00 0.00 0.00 0.00 0.00 0.00 0.00 0.00 0.00 0.00 0.00 0.00 0.00 0.00 0.00 0.00 0.00 0.00 0.00 0.00 0.01 0.02 0.02 0.06 0.18 0.13 0.04
0.00 0.00 0.00 0.00 0.00 0.00 0.00 0.00 0.00 0.00 0.00 0.00 0.00 0.00 0.00 0.00 0.00 0.00 0.00 0.00 0.00 0.00 0.00 0.00 0.00 0.00 0.00 0.00 0.00 0.00 0.00 0.00 0.00 0.00 0.00 0.03 0.02 0.01 0.12 0.20 0.17 0.02 0.00
0.00 0.00 0.00 0.00 0.00 0.00 0.00 0.00 0.00 0.00 0.00 0.00 0.00 0.00 0.00 0.00 0.00 0.00 0.00 0.00 0.00 0.00 0.00 0.00 0.00 0.00 0.00 0.00 0.00 0.00 0.00 0.00 0.00 0.00 0.02 0.01 0.01 0.08 0.30 0.09 0.02 0.02 0.01
0.00 0.00 0.00 0.00 0.00 0.00 0.00 0.00 0.00 0.00 0.00 0.00 0.00 0.00 0.00 0.00 0.00 0.00 0.00 0.00 0.00 0.00 0.00 0.00 0.00 0.00 0.00 0.00 0.00 0.00 0.01 0.01 0.03 0.05 0.01 0.00 0.09 0.25 0.09 0.01 0.01 0.02 0.02
0.00 0.00 0.00 0.00 0.00 0.00 0.00 0.00 0.00 0.00 0.00 0.00 0.00 0.00 0.00 0.00 0.00 0.00 0.00 0.00 0.00 0.00 0.00 0.00 0.00 0.00 0.00 0.00 0.00 0.00 0.01 0.03 0.05 0.03 0.02 0.10 0.19 0.03 0.00 0.00 0.01 0.02 0.01
0.00 0.00 0.00 0.00 0.00 0.00 0.00 0.00 0.00 0.00 0.00 0.00 0.00 0.00 0.00 0.00 0.00 0.00 0.00 0.00 0.00 0.00 0.00 0.00 0.00 0.00 0.00 0.00 0.00 0.00 0.03 0.04 0.03 0.04 0.15 0.13 0.01 0.00 0.00 0.00 0.01 0.00 0.00
0.00 0.00 0.00 0.00 0.00 0.00 0.00 0.00 0.00 0.00 0.00 0.00 0.00 0.00 0.00 0.00 0.00 0.00 0.00 0.00 0.00 0.00 0.00 0.00 0.00 0.00 0.00 0.00 0.00 0.01 0.03 0.02 0.07 0.13 0.10 0.01 0.00 0.00 0.00 0.00 0.00 0.00 0.01
0.00 0.00 0.00 0.00 0.00 0.00 0.00 0.00 0.00 0.00 0.00 0.00 0.00 0.00 0.00 0.00 0.00 0.00 0.00 0.00 0.00 0.00 0.00 0.00 0.00 0.00 0.00 0.00 0.02 0.03 0.02 0.05 0.09 0.03 0.00 0.00 0.00 0.00 0.00 0.00 0.00 0.00 0.01
0.00 0.00 0.00 0.00 0.00 0.00 0.00 0.00 0.00 0.00 0.00 0.00 0.00 0.00 0.00 0.00 0.00 0.00 0.00 0.00 0.00 0.00 0.00 0.00 0.00 0.00 0.01 0.01 0.01 0.01 0.06 0.07 0.02 0.00 0.00 0.01 0.01 0.02 0.01 0.01 0.01 0.01 0.02

GFSMW_prec_precacc_021.txt.gz
Total_Precipitation_Accumulation
0.00 0.00 0.00 0.00 0.00 0.00 0.00 0.00 0.00 0.00 0.00 0.00 0.00 0.00 0.00 0.00 0.00 0.00 0.00 0.00 0.00 0.00 0.00 0.00 0.00 0.00 0.00 0.00 0.00 0.00 0.00 0.00 0.00 0.00 0.00 0.00 0.00 0.00 0.00 0.00 0.00 0.00 0.00
0.00 0.00 0.00 0.00 0.00 0.00 0.00 0.00 0.00 0.00 0.00 0.00 0.00 0.00 0.00 0.00 0.00 0.00 0.00 0.00 0.00 0.00 0.00 0.00 0.00 0.00 0.00 0.00 0.00 0.00 0.00 0.00 0.00 0.01 0.01 0.01 0.00 0.00 0.00 0.00 0.00 0.00 0.00
0.00 0.00 0.00 0.00 0.00 0.00 0.00 0.00 0.00 0.00 0.00 0.00 0.00 0.00 0.00 0.00 0.00 0.00 0.00 0.00 0.00 0.00 0.00 0.00 0.00 0.00 0.00 0.00 0.00 0.00 0.00 0.00 0.00 0.00 0.02 0.02 0.01 0.01 0.00 0.00 0.00 0.00 0.00
0.00 0.00 0.00 0.00 0.00 0.00 0.00 0.00 0.00 0.00 0.00 0.00 0.00 0.00 0.00 0.00 0.00 0.00 0.00 0.00 0.00 0.00 0.00 0.00 0.00 0.00 0.00 0.00 0.00 0.00 0.00 0.00 0.00 0.00 0.00 0.01 0.02 0.02 0.01 0.01 0.01 0.01 0.00
0.00 0.00 0.00 0.00 0.00 0.00 0.00 0.00 0.00 0.00 0.00 0.00 0.00 0.00 0.00 0.00 0.00 0.00 0.00 0.00 0.00 0.00 0.00 0.00 0.00 0.00 0.00 0.00 0.00 0.00 0.00 0.00 0.00 0.00 0.00 0.00 0.00 0.00 0.01 0.00 0.00 0.00 0.00
0.00 0.00 0.00 0.00 0.00 0.00 0.00 0.00 0.00 0.00 0.00 0.00 0.00 0.00 0.00 0.00 0.00 0.00 0.00 0.00 0.00 0.00 0.00 0.00 0.00 0.00 0.00 0.00 0.00 0.00 0.00 0.00 0.00 0.00 0.00 0.00 0.00 0.01 0.01 0.01 0.00 0.00 0.00
0.00 0.00 0.00 0.00 0.00 0.00 0.00 0.00 0.00 0.00 0.00 0.00 0.00 0.00 0.00 0.00 0.00 0.00 0.00 0.00 0.00 0.00 0.00 0.00 0.00 0.00 0.00 0.00 0.00 0.00 0.00 0.00 0.00 0.00 0.00 0.00 0.00 0.00 0.00 0.01 0.00 0.00 0.00
0.00 0.00 0.00 0.00 0.00 0.00 0.00 0.00 0.00 0.00 0.00 0.00 0.00 0.00 0.00 0.00 0.00 0.00 0.00 0.00 0.00 0.00 0.00 0.00 0.00 0.00 0.00 0.00 0.00 0.00 0.00 0.00 0.00 0.00 0.00 0.00 0.00 0.00 0.00 0.00 0.03 0.02 0.00
0.00 0.00 0.00 0.00 0.00 0.00 0.00 0.00 0.00 0.00 0.00 0.00 0.00 0.00 0.00 0.00 0.00 0.00 0.00 0.00 0.00 0.00 0.00 0.00 0.00 0.00 0.00 0.00 0.00 0.00 0.00 0.00 0.00 0.00 0.00 0.00 0.00 0.00 0.00 0.01 0.04 0.04 0.03
0.00 0.00 0.00 0.00 0.00 0.00 0.00 0.00 0.00 0.00 0.00 0.00 0.00 0.00 0.00 0.00 0.00 0.00 0.00 0.00 0.00 0.00 0.00 0.00 0.00 0.00 0.00 0.00 0.00 0.00 0.00 0.00 0.00 0.00 0.00 0.00 0.00 0.00 0.01 0.01 0.00 0.01 0.01
0.00 0.00 0.00 0.00 0.00 0.00 0.00 0.00 0.00 0.00 0.00 0.00 0.00 0.00 0.00 0.00 0.00 0.00 0.00 0.00 0.00 0.00 0.00 0.00 0.00 0.00 0.00 0.00 0.00 0.00 0.00 0.00 0.00 0.00 0.00 0.00 0.00 0.00 0.00 0.00 0.00 0.00 0.00
0.00 0.00 0.00 0.00 0.00 0.00 0.00 0.00 0.00 0.00 0.00 0.00 0.00 0.00 0.00 0.00 0.00 0.00 0.00 0.00 0.00 0.00 0.00 0.00 0.00 0.00 0.00 0.00 0.00 0.00 0.00 0.00 0.00 0.00 0.00 0.00 0.00 0.00 0.00 0.00 0.00 0.00 0.00
0.00 0.00 0.00 0.00 0.00 0.00 0.00 0.00 0.00 0.00 0.00 0.00 0.00 0.00 0.00 0.00 0.00 0.00 0.00 0.00 0.00 0.00 0.00 0.00 0.00 0.00 0.00 0.00 0.00 0.00 0.00 0.00 0.00 0.00 0.00 0.00 0.00 0.00 0.00 0.00 0.00 0.00 0.02
0.00 0.00 0.00 0.00 0.00 0.00 0.00 0.00 0.00 0.00 0.00 0.00 0.00 0.00 0.00 0.00 0.00 0.00 0.00 0.00 0.00 0.00 0.00 0.00 0.00 0.00 0.00 0.00 0.00 0.00 0.00 0.00 0.00 0.00 0.00 0.00 0.00 0.00 0.00 0.00 0.01 0.02 0.03
0.00 0.00 0.00 0.00 0.00 0.00 0.00 0.00 0.00 0.00 0.00 0.00 0.00 0.00 0.00 0.00 0.00 0.00 0.00 0.00 0.00 0.00 0.00 0.00 0.00 0.00 0.00 0.00 0.00 0.00 0.00 0.00 0.00 0.00 0.00 0.00 0.00 0.00 0.00 0.02 0.03 0.04 0.06
0.00 0.00 0.00 0.00 0.00 0.00 0.00 0.00 0.00 0.00 0.00 0.00 0.00 0.00 0.00 0.00 0.00 0.00 0.00 0.00 0.00 0.00 0.00 0.00 0.00 0.00 0.00 0.00 0.00 0.00 0.00 0.00 0.00 0.00 0.00 0.00 0.00 0.00 0.01 0.02 0.04 0.09 0.17
0.00 0.00 0.00 0.00 0.00 0.00 0.00 0.00 0.00 0.00 0.00 0.00 0.00 0.00 0.00 0.00 0.00 0.00 0.00 0.00 0.00 0.00 0.00 0.00 0.00 0.00 0.00 0.00 0.00 0.00 0.00 0.00 0.00 0.00 0.00 0.00 0.00 0.00 0.01 0.01 0.06 0.18 0.26
0.00 0.00 0.00 0.00 0.00 0.00 0.00 0.00 0.00 0.00 0.00 0.00 0.00 0.00 0.00 0.00 0.00 0.00 0.00 0.00 0.00 0.00 0.00 0.00 0.00 0.00 0.00 0.00 0.00 0.00 0.00 0.00 0.00 0.00 0.00 0.00 0.01 0.02 0.03 0.07 0.24 0.16 0.04
0.00 0.00 0.00 0.00 0.00 0.00 0.00 0.00 0.00 0.00 0.00 0.00 0.00 0.00 0.00 0.00 0.00 0.00 0.00 0.00 0.00 0.00 0.00 0.00 0.00 0.00 0.00 0.00 0.00 0.00 0.00 0.00 0.00 0.00 0.00 0.03 0.02 0.01 0.14 0.22 0.17 0.02 0.00
0.00 0.00 0.00 0.00 0.00 0.00 0.00 0.00 0.00 0.00 0.00 0.00 0.00 0.00 0.00 0.00 0.00 0.00 0.00 0.00 0.00 0.00 0.00 0.00 0.00 0.00 0.00 0.00 0.00 0.00 0.00 0.00 0.00 0.00 0.02 0.02 0.01 0.09 0.32 0.10 0.02 0.02 0.01
0.00 0.00 0.00 0.00 0.00 0.00 0.00 0.00 0.00 0.00 0.00 0.00 0.00 0.00 0.00 0.00 0.00 0.00 0.00 0.00 0.00 0.00 0.00 0.00 0.00 0.00 0.00 0.00 0.00 0.00 0.01 0.01 0.03 0.05 0.01 0.00 0.10 0.27 0.09 0.01 0.01 0.02 0.03
0.00 0.00 0.00 0.00 0.00 0.00 0.00 0.00 0.00 0.00 0.00 0.00 0.00 0.00 0.00 0.00 0.00 0.00 0.00 0.00 0.00 0.00 0.00 0.00 0.00 0.00 0.00 0.00 0.00 0.00 0.01 0.04 0.05 0.03 0.02 0.11 0.20 0.03 0.00 0.00 0.01 0.02 0.02
0.00 0.00 0.00 0.00 0.00 0.00 0.00 0.00 0.00 0.00 0.00 0.00 0.00 0.00 0.00 0.00 0.00 0.00 0.00 0.00 0.00 0.00 0.00 0.00 0.00 0.00 0.00 0.00 0.00 0.00 0.03 0.04 0.04 0.04 0.15 0.13 0.01 0.00 0.00 0.00 0.01 0.00 0.00
0.00 0.00 0.00 0.00 0.00 0.00 0.00 0.00 0.00 0.00 0.00 0.00 0.00 0.00 0.00 0.00 0.00 0.00 0.00 0.00 0.00 0.00 0.00 0.00 0.00 0.00 0.00 0.00 0.00 0.01 0.03 0.02 0.07 0.13 0.10 0.01 0.00 0.00 0.00 0.00 0.00 0.00 0.01
0.00 0.00 0.00 0.00 0.00 0.00 0.00 0.00 0.00 0.00 0.00 0.00 0.00 0.00 0.00 0.00 0.00 0.00 0.00 0.00 0.00 0.00 0.00 0.00 0.00 0.00 0.00 0.00 0.02 0.03 0.02 0.05 0.09 0.03 0.00 0.00 0.00 0.00 0.00 0.00 0.00 0.00 0.01
0.00 0.00 0.00 0.00 0.00 0.00 0.00 0.00 0.00 0.00 0.00 0.00 0.00 0.00 0.00 0.00 0.00 0.00 0.00 0.00 0.00 0.00 0.00 0.00 0.00 0.00 0.01 0.01 0.01 0.01 0.06 0.07 0.03 0.00 0.00 0.01 0.01 0.02 0.01 0.01 0.02 0.01 0.02

GFSMW_prec_precacc_024.txt.gz
Total_Precipitation_Accumulation
0.00 0.00 0.00 0.00 0.00 0.00 0.00 0.00 0.00 0.00 0.00 0.00 0.00 0.00 0.00 0.00 0.00 0.00 0.00 0.00 0.00 0.00 0.00 0.00 0.00 0.00 0.00 0.00 0.00 0.00 0.00 0.00 0.00 0.00 0.00 0.00 0.00 0.00 0.00 0.00 0.00 0.00 0.00
0.00 0.00 0.00 0.00 0.00 0.00 0.00 0.00 0.00 0.00 0.00 0.00 0.00 0.02 0.00 0.00 0.00 0.00 0.00 0.00 0.00 0.00 0.00 0.00 0.00 0.00 0.00 0.00 0.00 0.00 0.00 0.00 0.00 0.01 0.01 0.01 0.00 0.00 0.00 0.00 0.00 0.00 0.00
0.00 0.00 0.00 0.00 0.00 0.00 0.00 0.00 0.00 0.00 0.00 0.00 0.00 0.01 0.00 0.00 0.00 0.00 0.00 0.00 0.00 0.00 0.00 0.00 0.00 0.00 0.00 0.00 0.00 0.00 0.00 0.00 0.00 0.00 0.02 0.02 0.01 0.01 0.00 0.00 0.00 0.00 0.00
0.00 0.00 0.00 0.00 0.00 0.00 0.00 0.00 0.00 0.00 0.00 0.00 0.00 0.00 0.00 0.00 0.00 0.00 0.00 0.00 0.00 0.00 0.00 0.00 0.00 0.00 0.00 0.00 0.00 0.00 0.00 0.00 0.00 0.00 0.00 0.01 0.02 0.02 0.01 0.01 0.01 0.01 0.00
0.00 0.00 0.00 0.00 0.00 0.00 0.00 0.00 0.00 0.00 0.00 0.00 0.00 0.00 0.00 0.00 0.00 0.00 0.00 0.00 0.00 0.00 0.00 0.00 0.00 0.00 0.00 0.00 0.00 0.00 0.00 0.00 0.00 0.00 0.00 0.00 0.00 0.00 0.01 0.00 0.00 0.00 0.00
0.00 0.00 0.00 0.00 0.00 0.00 0.00 0.00 0.00 0.00 0.00 0.00 0.00 0.00 0.00 0.00 0.00 0.00 0.00 0.00 0.00 0.00 0.00 0.00 0.00 0.00 0.00 0.00 0.00 0.00 0.00 0.00 0.00 0.00 0.00 0.00 0.00 0.01 0.01 0.01 0.00 0.00 0.00
0.00 0.00 0.00 0.00 0.00 0.00 0.00 0.00 0.00 0.00 0.00 0.00 0.00 0.00 0.00 0.00 0.00 0.00 0.00 0.00 0.00 0.00 0.00 0.00 0.00 0.00 0.00 0.00 0.00 0.00 0.00 0.00 0.00 0.00 0.00 0.00 0.00 0.00 0.00 0.01 0.00 0.00 0.00
0.00 0.00 0.00 0.00 0.00 0.00 0.00 0.00 0.00 0.00 0.00 0.00 0.00 0.00 0.00 0.00 0.00 0.00 0.00 0.00 0.00 0.00 0.00 0.00 0.00 0.00 0.00 0.00 0.00 0.00 0.00 0.00 0.00 0.00 0.00 0.00 0.00 0.00 0.00 0.00 0.03 0.02 0.00
0.00 0.00 0.00 0.00 0.00 0.00 0.00 0.00 0.00 0.00 0.00 0.00 0.00 0.00 0.00 0.00 0.00 0.00 0.00 0.00 0.00 0.00 0.00 0.00 0.00 0.00 0.00 0.00 0.00 0.00 0.00 0.00 0.00 0.00 0.00 0.00 0.00 0.00 0.00 0.01 0.04 0.04 0.03
0.00 0.00 0.00 0.00 0.00 0.00 0.00 0.00 0.00 0.00 0.00 0.00 0.00 0.00 0.00 0.00 0.00 0.00 0.00 0.00 0.00 0.00 0.00 0.00 0.00 0.00 0.00 0.00 0.00 0.00 0.00 0.00 0.00 0.00 0.00 0.00 0.00 0.00 0.01 0.01 0.00 0.01 0.01
0.00 0.00 0.00 0.00 0.00 0.00 0.00 0.00 0.00 0.00 0.00 0.00 0.00 0.00 0.00 0.00 0.00 0.00 0.00 0.00 0.00 0.00 0.00 0.00 0.00 0.00 0.00 0.00 0.00 0.00 0.00 0.00 0.00 0.00 0.00 0.00 0.00 0.00 0.00 0.00 0.00 0.00 0.00
0.00 0.00 0.00 0.00 0.00 0.00 0.00 0.00 0.00 0.00 0.00 0.00 0.00 0.00 0.00 0.00 0.00 0.00 0.00 0.00 0.00 0.00 0.00 0.00 0.00 0.00 0.00 0.00 0.00 0.00 0.00 0.00 0.00 0.00 0.00 0.00 0.00 0.00 0.00 0.00 0.00 0.00 0.00
0.00 0.00 0.00 0.00 0.00 0.00 0.00 0.00 0.00 0.00 0.00 0.00 0.00 0.00 0.00 0.00 0.00 0.00 0.00 0.00 0.00 0.00 0.00 0.00 0.00 0.00 0.00 0.00 0.00 0.00 0.00 0.00 0.00 0.00 0.00 0.00 0.00 0.00 0.00 0.00 0.00 0.00 0.02
0.01 0.00 0.00 0.00 0.00 0.00 0.00 0.00 0.00 0.00 0.00 0.00 0.00 0.00 0.00 0.00 0.00 0.00 0.00 0.00 0.00 0.00 0.00 0.00 0.00 0.00 0.00 0.00 0.00 0.00 0.00 0.00 0.00 0.00 0.00 0.00 0.00 0.00 0.00 0.00 0.01 0.02 0.03
0.00 0.00 0.00 0.00 0.00 0.00 0.00 0.00 0.00 0.00 0.00 0.00 0.00 0.00 0.00 0.00 0.00 0.00 0.00 0.00 0.00 0.00 0.00 0.00 0.00 0.00 0.00 0.00 0.00 0.00 0.00 0.00 0.00 0.00 0.00 0.00 0.00 0.00 0.00 0.02 0.04 0.05 0.06
0.00 0.00 0.00 0.00 0.00 0.00 0.00 0.00 0.00 0.00 0.00 0.00 0.00 0.00 0.00 0.00 0.00 0.00 0.00 0.00 0.00 0.00 0.00 0.00 0.00 0.00 0.00 0.00 0.00 0.00 0.00 0.00 0.00 0.00 0.00 0.00 0.00 0.00 0.01 0.02 0.04 0.09 0.22
0.00 0.00 0.00 0.00 0.00 0.00 0.00 0.00 0.00 0.00 0.00 0.00 0.00 0.00 0.00 0.00 0.00 0.00 0.00 0.00 0.00 0.00 0.00 0.00 0.00 0.00 0.00 0.00 0.00 0.00 0.00 0.00 0.00 0.00 0.00 0.00 0.00 0.00 0.01 0.01 0.07 0.23 0.28
0.00 0.00 0.00 0.00 0.00 0.00 0.00 0.00 0.00 0.00 0.00 0.00 0.00 0.00 0.00 0.00 0.00 0.00 0.00 0.00 0.00 0.00 0.00 0.00 0.00 0.00 0.00 0.00 0.00 0.00 0.00 0.00 0.00 0.00 0.00 0.00 0.01 0.02 0.03 0.09 0.29 0.16 0.04
0.00 0.00 0.00 0.00 0.00 0.00 0.00 0.00 0.00 0.00 0.00 0.00 0.00 0.00 0.00 0.00 0.00 0.00 0.00 0.00 0.00 0.00 0.00 0.00 0.00 0.00 0.00 0.00 0.00 0.00 0.00 0.00 0.00 0.00 0.00 0.03 0.03 0.02 0.15 0.24 0.18 0.02 0.00
0.00 0.00 0.00 0.00 0.00 0.00 0.00 0.00 0.00 0.00 0.00 0.00 0.00 0.00 0.00 0.00 0.00 0.00 0.00 0.00 0.00 0.00 0.00 0.00 0.00 0.00 0.00 0.00 0.00 0.00 0.00 0.00 0.00 0.00 0.02 0.02 0.02 0.10 0.34 0.10 0.02 0.02 0.01
0.00 0.00 0.00 0.00 0.00 0.00 0.00 0.00 0.00 0.00 0.00 0.00 0.00 0.00 0.00 0.00 0.00 0.00 0.00 0.00 0.00 0.00 0.00 0.00 0.00 0.00 0.00 0.00 0.00 0.00 0.01 0.01 0.04 0.05 0.01 0.00 0.10 0.27 0.09 0.01 0.01 0.02 0.04
0.00 0.00 0.00 0.00 0.00 0.00 0.00 0.00 0.00 0.00 0.00 0.00 0.00 0.00 0.00 0.00 0.00 0.00 0.00 0.00 0.00 0.00 0.00 0.00 0.00 0.00 0.00 0.00 0.00 0.00 0.01 0.04 0.05 0.03 0.02 0.11 0.21 0.03 0.00 0.00 0.01 0.03 0.02
0.00 0.00 0.00 0.00 0.00 0.00 0.00 0.00 0.00 0.00 0.00 0.00 0.00 0.00 0.00 0.00 0.00 0.00 0.00 0.00 0.00 0.00 0.00 0.00 0.00 0.00 0.00 0.00 0.00 0.00 0.03 0.05 0.04 0.04 0.16 0.13 0.01 0.00 0.00 0.00 0.01 0.01 0.00
0.00 0.00 0.00 0.00 0.00 0.00 0.00 0.00 0.00 0.00 0.00 0.00 0.00 0.00 0.00 0.00 0.00 0.00 0.00 0.00 0.00 0.00 0.00 0.00 0.00 0.00 0.00 0.00 0.00 0.01 0.03 0.02 0.07 0.13 0.10 0.01 0.00 0.00 0.00 0.00 0.00 0.00 0.01
0.00 0.00 0.00 0.00 0.00 0.00 0.00 0.00 0.00 0.00 0.00 0.00 0.00 0.00 0.00 0.00 0.00 0.00 0.00 0.00 0.00 0.00 0.00 0.00 0.00 0.00 0.00 0.00 0.02 0.03 0.02 0.05 0.09 0.03 0.00 0.00 0.00 0.00 0.00 0.00 0.00 0.00 0.01
0.00 0.00 0.00 0.00 0.00 0.00 0.00 0.00 0.00 0.00 0.00 0.00 0.00 0.00 0.00 0.00 0.00 0.00 0.00 0.00 0.00 0.00 0.00 0.00 0.00 0.00 0.01 0.01 0.01 0.01 0.06 0.08 0.03 0.00 0.00 0.01 0.01 0.02 0.01 0.01 0.02 0.01 0.02

GFSMW_prec_precacc_027.txt.gz
Total_Precipitation_Accumulation
0.00 0.00 0.00 0.00 0.00 0.00 0.00 0.00 0.00 0.00 0.00 0.00 0.00 0.04 0.02 0.01 0.01 0.00 0.00 0.00 0.00 0.00 0.00 0.00 0.00 0.00 0.00 0.00 0.00 0.00 0.00 0.00 0.00 0.00 0.00 0.00 0.00 0.00 0.00 0.00 0.00 0.00 0.00
0.00 0.00 0.00 0.00 0.00 0.00 0.00 0.00 0.00 0.00 0.00 0.00 0.01 0.09 0.07 0.02 0.00 0.00 0.01 0.00 0.00 0.00 0.00 0.00 0.00 0.00 0.00 0.00 0.00 0.00 0.00 0.00 0.00 0.01 0.01 0.01 0.00 0.00 0.00 0.00 0.00 0.00 0.00
0.00 0.00 0.00 0.00 0.00 0.00 0.00 0.00 0.00 0.00 0.00 0.00 0.01 0.05 0.05 0.02 0.00 0.00 0.00 0.00 0.00 0.00 0.00 0.00 0.00 0.00 0.00 0.00 0.00 0.00 0.00 0.00 0.00 0.00 0.02 0.02 0.01 0.01 0.00 0.00 0.00 0.00 0.00
0.00 0.00 0.00 0.00 0.00 0.00 0.00 0.00 0.00 0.00 0.00 0.00 0.00 0.04 0.04 0.02 0.00 0.00 0.00 0.00 0.00 0.00 0.00 0.00 0.00 0.00 0.00 0.00 0.00 0.00 0.00 0.00 0.00 0.00 0.00 0.01 0.02 0.02 0.01 0.01 0.01 0.01 0.00
0.00 0.00 0.00 0.00 0.00 0.00 0.00 0.00 0.00 0.00 0.00 0.00 0.00 0.02 0.04 0.01 0.00 0.00 0.00 0.00 0.00 0.00 0.00 0.00 0.00 0.00 0.00 0.00 0.00 0.00 0.00 0.00 0.00 0.00 0.00 0.00 0.00 0.00 0.01 0.00 0.00 0.00 0.00
0.00 0.00 0.00 0.00 0.00 0.00 0.00 0.00 0.00 0.00 0.00 0.00 0.00 0.00 0.02 0.00 0.00 0.00 0.00 0.00 0.00 0.00 0.00 0.00 0.00 0.00 0.00 0.00 0.00 0.00 0.00 0.00 0.00 0.00 0.00 0.00 0.00 0.01 0.01 0.01 0.00 0.00 0.00
0.00 0.00 0.00 0.00 0.00 0.00 0.00 0.00 0.00 0.00 0.00 0.00 0.00 0.00 0.00 0.00 0.00 0.00 0.00 0.00 0.00 0.00 0.00 0.00 0.00 0.00 0.00 0.00 0.00 0.00 0.00 0.00 0.00 0.00 0.00 0.00 0.00 0.00 0.00 0.01 0.00 0.00 0.00
0.00 0.00 0.00 0.00 0.00 0.00 0.00 0.00 0.00 0.00 0.00 0.00 0.00 0.00 0.00 0.00 0.00 0.00 0.00 0.00 0.00 0.00 0.00 0.00 0.00 0.00 0.00 0.00 0.00 0.00 0.00 0.00 0.00 0.00 0.00 0.00 0.00 0.00 0.00 0.00 0.03 0.02 0.00
0.00 0.00 0.00 0.00 0.00 0.00 0.00 0.00 0.00 0.00 0.00 0.00 0.00 0.00 0.00 0.00 0.00 0.00 0.00 0.00 0.00 0.00 0.00 0.00 0.00 0.00 0.00 0.00 0.00 0.00 0.00 0.00 0.00 0.00 0.00 0.00 0.00 0.00 0.00 0.01 0.04 0.04 0.03
0.00 0.00 0.00 0.00 0.00 0.00 0.00 0.00 0.00 0.00 0.00 0.00 0.00 0.00 0.00 0.00 0.00 0.00 0.00 0.00 0.00 0.00 0.00 0.00 0.00 0.00 0.00 0.00 0.00 0.00 0.00 0.00 0.00 0.00 0.00 0.00 0.00 0.00 0.01 0.01 0.00 0.01 0.01
0.00 0.00 0.00 0.00 0.00 0.00 0.00 0.00 0.00 0.00 0.00 0.00 0.00 0.00 0.00 0.00 0.00 0.00 0.00 0.00 0.00 0.00 0.00 0.00 0.00 0.00 0.00 0.00 0.00 0.00 0.00 0.00 0.00 0.00 0.00 0.00 0.00 0.00 0.00 0.00 0.00 0.00 0.00
0.00 0.00 0.00 0.00 0.00 0.00 0.00 0.00 0.00 0.00 0.00 0.00 0.00 0.00 0.00 0.00 0.00 0.00 0.00 0.00 0.00 0.00 0.00 0.00 0.00 0.00 0.00 0.00 0.00 0.00 0.00 0.00 0.00 0.00 0.00 0.00 0.00 0.00 0.00 0.00 0.00 0.00 0.00
0.00 0.00 0.00 0.00 0.00 0.00 0.00 0.00 0.00 0.00 0.00 0.00 0.00 0.00 0.00 0.00 0.00 0.00 0.00 0.00 0.00 0.00 0.00 0.00 0.00 0.00 0.00 0.00 0.00 0.00 0.00 0.00 0.00 0.00 0.00 0.00 0.00 0.00 0.00 0.00 0.00 0.00 0.02
0.01 0.00 0.00 0.00 0.00 0.00 0.00 0.00 0.00 0.00 0.00 0.00 0.00 0.00 0.00 0.00 0.00 0.00 0.00 0.00 0.00 0.00 0.00 0.00 0.00 0.00 0.00 0.00 0.00 0.00 0.00 0.00 0.00 0.00 0.00 0.00 0.00 0.00 0.00 0.00 0.01 0.02 0.03
0.00 0.00 0.00 0.00 0.00 0.00 0.00 0.00 0.00 0.00 0.00 0.00 0.00 0.00 0.00 0.00 0.00 0.00 0.00 0.00 0.00 0.00 0.00 0.00 0.00 0.00 0.00 0.00 0.00 0.00 0.00 0.00 0.00 0.00 0.00 0.00 0.00 0.00 0.00 0.02 0.04 0.05 0.06
0.00 0.00 0.00 0.00 0.00 0.00 0.00 0.00 0.00 0.00 0.00 0.00 0.00 0.00 0.00 0.00 0.00 0.00 0.00 0.00 0.00 0.00 0.00 0.00 0.00 0.00 0.00 0.00 0.00 0.00 0.00 0.00 0.00 0.00 0.00 0.00 0.00 0.00 0.01 0.02 0.04 0.10 0.25
0.00 0.00 0.00 0.00 0.00 0.00 0.00 0.00 0.00 0.00 0.00 0.00 0.00 0.00 0.00 0.00 0.00 0.00 0.00 0.00 0.00 0.00 0.00 0.00 0.00 0.00 0.00 0.00 0.00 0.00 0.00 0.00 0.00 0.00 0.00 0.00 0.00 0.00 0.01 0.01 0.07 0.25 0.30
0.00 0.00 0.00 0.00 0.00 0.00 0.00 0.00 0.00 0.00 0.00 0.00 0.00 0.00 0.00 0.00 0.00 0.00 0.00 0.00 0.00 0.00 0.00 0.00 0.00 0.00 0.00 0.00 0.00 0.00 0.00 0.00 0.00 0.00 0.00 0.00 0.01 0.02 0.03 0.10 0.32 0.18 0.04
0.00 0.00 0.00 0.00 0.00 0.00 0.00 0.00 0.00 0.00 0.00 0.00 0.00 0.00 0.00 0.00 0.00 0.00 0.00 0.00 0.00 0.00 0.00 0.00 0.00 0.00 0.00 0.00 0.00 0.00 0.00 0.00 0.00 0.00 0.00 0.03 0.03 0.02 0.16 0.26 0.18 0.02 0.00
0.00 0.00 0.00 0.00 0.00 0.00 0.00 0.00 0.00 0.00 0.00 0.00 0.00 0.00 0.00 0.00 0.00 0.00 0.00 0.00 0.00 0.00 0.00 0.00 0.00 0.00 0.00 0.00 0.00 0.00 0.00 0.00 0.00 0.00 0.02 0.02 0.02 0.10 0.35 0.11 0.02 0.02 0.01
0.00 0.00 0.00 0.00 0.00 0.00 0.00 0.00 0.00 0.00 0.00 0.00 0.00 0.00 0.00 0.00 0.00 0.00 0.00 0.00 0.00 0.00 0.00 0.00 0.00 0.00 0.00 0.00 0.00 0.00 0.01 0.01 0.04 0.05 0.01 0.00 0.11 0.28 0.09 0.02 0.01 0.02 0.05
0.00 0.00 0.00 0.00 0.00 0.00 0.00 0.00 0.00 0.00 0.00 0.00 0.00 0.00 0.00 0.00 0.00 0.00 0.00 0.00 0.00 0.00 0.00 0.00 0.00 0.00 0.00 0.00 0.00 0.00 0.01 0.04 0.05 0.03 0.02 0.11 0.21 0.03 0.00 0.00 0.02 0.03 0.02
0.00 0.00 0.00 0.00 0.00 0.00 0.00 0.00 0.00 0.00 0.00 0.00 0.00 0.00 0.00 0.00 0.00 0.00 0.00 0.00 0.00 0.00 0.00 0.00 0.00 0.00 0.00 0.00 0.00 0.00 0.03 0.05 0.04 0.04 0.16 0.13 0.01 0.00 0.00 0.00 0.01 0.01 0.00
0.00 0.00 0.00 0.00 0.00 0.00 0.00 0.00 0.00 0.00 0.00 0.00 0.00 0.00 0.00 0.00 0.00 0.00 0.00 0.00 0.00 0.00 0.00 0.00 0.00 0.00 0.00 0.00 0.00 0.01 0.03 0.02 0.07 0.13 0.10 0.01 0.00 0.00 0.00 0.00 0.00 0.00 0.01
0.00 0.00 0.00 0.00 0.00 0.00 0.00 0.00 0.00 0.00 0.00 0.00 0.00 0.00 0.00 0.00 0.00 0.00 0.00 0.00 0.00 0.00 0.00 0.00 0.00 0.00 0.00 0.00 0.02 0.03 0.03 0.06 0.10 0.03 0.00 0.00 0.00 0.00 0.00 0.00 0.00 0.00 0.01
0.00 0.00 0.00 0.00 0.00 0.00 0.00 0.00 0.00 0.00 0.00 0.00 0.00 0.00 0.00 0.00 0.00 0.00 0.00 0.00 0.00 0.00 0.00 0.00 0.00 0.00 0.01 0.01 0.01 0.02 0.06 0.08 0.03 0.00 0.00 0.01 0.01 0.02 0.01 0.01 0.02 0.01 0.02

GFSMW_prec_precacc_030.txt.gz
Total_Precipitation_Accumulation
0.00 0.00 0.00 0.00 0.00 0.00 0.00 0.00 0.00 0.00 0.00 0.00 0.00 0.04 0.07 0.06 0.04 0.05 0.06 0.01 0.01 0.01 0.00 0.00 0.00 0.00 0.00 0.00 0.00 0.00 0.00 0.00 0.00 0.00 0.00 0.00 0.00 0.00 0.00 0.00 0.00 0.00 0.00
0.00 0.00 0.00 0.00 0.00 0.00 0.00 0.00 0.00 0.00 0.00 0.00 0.01 0.09 0.10 0.07 0.07 0.04 0.04 0.03 0.01 0.00 0.00 0.00 0.00 0.00 0.00 0.00 0.00 0.00 0.00 0.00 0.00 0.01 0.01 0.01 0.00 0.00 0.00 0.00 0.00 0.00 0.00
0.00 0.00 0.00 0.00 0.00 0.00 0.00 0.00 0.00 0.00 0.00 0.00 0.01 0.05 0.05 0.04 0.03 0.02 0.03 0.03 0.02 0.00 0.00 0.00 0.00 0.00 0.00 0.00 0.00 0.00 0.00 0.00 0.00 0.00 0.02 0.02 0.01 0.01 0.00 0.00 0.00 0.00 0.00
0.00 0.00 0.00 0.00 0.00 0.00 0.00 0.00 0.00 0.00 0.00 0.00 0.00 0.04 0.05 0.06 0.03 0.02 0.02 0.02 0.01 0.01 0.00 0.00 0.00 0.00 0.00 0.00 0.00 0.00 0.00 0.00 0.00 0.00 0.00 0.01 0.02 0.02 0.01 0.01 0.01 0.01 0.00
0.00 0.00 0.00 0.00 0.00 0.00 0.00 0.00 0.00 0.00 0.00 0.00 0.00 0.03 0.07 0.05 0.04 0.02 0.01 0.00 0.00 0.00 0.00 0.00 0.00 0.00 0.00 0.00 0.00 0.00 0.00 0.00 0.00 0.00 0.00 0.00 0.00 0.00 0.01 0.00 0.00 0.00 0.00
0.00 0.00 0.00 0.00 0.00 0.00 0.00 0.00 0.00 0.00 0.00 0.00 0.01 0.01 0.07 0.05 0.01 0.00 0.01 0.01 0.00 0.00 0.00 0.00 0.00 0.00 0.00 0.00 0.00 0.00 0.00 0.00 0.00 0.00 0.00 0.00 0.00 0.01 0.01 0.01 0.00 0.00 0.00
0.00 0.00 0.00 0.00 0.00 0.00 0.00 0.00 0.00 0.00 0.00 0.00 0.00 0.00 0.02 0.05 0.01 0.00 0.00 0.00 0.00 0.00 0.00 0.00 0.00 0.00 0.00 0.00 0.00 0.00 0.00 0.00 0.00 0.00 0.00 0.00 0.00 0.00 0.00 0.01 0.00 0.00 0.00
0.00 0.00 0.00 0.00 0.00 0.00 0.00 0.00 0.00 0.00 0.00 0.00 0.00 0.00 0.00 0.02 0.00 0.00 0.00 0.00 0.00 0.00 0.00 0.00 0.00 0.00 0.00 0.00 0.00 0.00 0.00 0.00 0.00 0.00 0.00 0.00 0.00 0.00 0.00 0.00 0.03 0.02 0.00
0.00 0.00 0.00 0.00 0.00 0.00 0.00 0.00 0.00 0.00 0.00 0.00 0.00 0.00 0.00 0.01 0.01 0.00 0.00 0.00 0.00 0.00 0.00 0.00 0.00 0.00 0.00 0.00 0.00 0.00 0.00 0.00 0.00 0.00 0.00 0.00 0.00 0.00 0.00 0.01 0.04 0.04 0.03
0.00 0.00 0.00 0.00 0.00 0.00 0.00 0.00 0.00 0.00 0.00 0.00 0.00 0.00 0.00 0.01 0.01 0.00 0.00 0.00 0.00 0.00 0.00 0.00 0.00 0.00 0.00 0.00 0.00 0.00 0.00 0.00 0.00 0.00 0.00 0.00 0.00 0.00 0.01 0.01 0.00 0.01 0.01
0.00 0.00 0.00 0.00 0.00 0.00 0.00 0.00 0.00 0.00 0.00 0.00 0.00 0.00 0.00 0.00 0.00 0.00 0.00 0.00 0.00 0.00 0.00 0.00 0.00 0.00 0.00 0.00 0.00 0.00 0.00 0.00 0.00 0.00 0.00 0.00 0.00 0.00 0.00 0.00 0.00 0.00 0.00
0.00 0.00 0.00 0.00 0.00 0.00 0.00 0.00 0.00 0.00 0.00 0.00 0.00 0.00 0.00 0.00 0.00 0.00 0.00 0.00 0.00 0.00 0.00 0.00 0.00 0.00 0.00 0.00 0.00 0.00 0.00 0.00 0.00 0.00 0.00 0.00 0.00 0.00 0.00 0.00 0.00 0.00 0.00
0.00 0.00 0.00 0.00 0.00 0.00 0.00 0.00 0.00 0.00 0.00 0.00 0.00 0.00 0.00 0.00 0.00 0.00 0.00 0.00 0.00 0.00 0.00 0.00 0.00 0.00 0.00 0.00 0.00 0.00 0.00 0.00 0.00 0.00 0.00 0.00 0.00 0.00 0.00 0.00 0.00 0.00 0.02
0.01 0.00 0.00 0.00 0.00 0.00 0.00 0.00 0.01 0.01 0.01 0.00 0.00 0.00 0.00 0.00 0.00 0.00 0.00 0.00 0.00 0.00 0.00 0.00 0.00 0.00 0.00 0.00 0.00 0.00 0.00 0.00 0.00 0.00 0.00 0.00 0.00 0.00 0.00 0.00 0.01 0.02 0.03
0.00 0.00 0.00 0.00 0.00 0.00 0.00 0.00 0.01 0.00 0.00 0.00 0.00 0.00 0.00 0.00 0.00 0.00 0.00 0.00 0.00 0.00 0.00 0.00 0.00 0.00 0.00 0.00 0.00 0.00 0.00 0.00 0.00 0.00 0.00 0.00 0.00 0.00 0.00 0.02 0.04 0.05 0.06
0.00 0.00 0.00 0.00 0.00 0.00 0.00 0.00 0.00 0.00 0.02 0.01 0.00 0.00 0.00 0.00 0.00 0.00 0.00 0.00 0.00 0.00 0.00 0.00 0.00 0.00 0.00 0.00 0.00 0.00 0.00 0.00 0.00 0.00 0.00 0.00 0.00 0.00 0.01 0.02 0.04 0.10 0.26
0.00 0.00 0.00 0.00 0.00 0.00 0.00 0.00 0.01 0.01 0.01 0.00 0.00 0.00 0.00 0.00 0.00 0.00 0.00 0.00 0.00 0.00 0.00 0.00 0.00 0.00 0.00 0.00 0.00 0.00 0.00 0.00 0.00 0.00 0.00 0.00 0.00 0.00 0.01 0.01 0.08 0.26 0.32
0.00 0.00 0.00 0.00 0.00 0.00 0.00 0.00 0.00 0.00 0.00 0.00 0.00 0.00 0.00 0.00 0.00 0.00 0.00 0.00 0.00 0.00 0.00 0.00 0.00 0.00 0.00 0.00 0.00 0.00 0.00 0.00 0.00 0.00 0.00 0.00 0.01 0.02 0.03 0.10 0.34 0.19 0.04
0.01 0.00 0.00 0.00 0.00 0.00 0.00 0.00 0.00 0.00 0.00 0.00 0.00 0.00 0.00 0.00 0.00 0.00 0.00 0.00 0.00 0.00 0.00 0.00 0.00 0.00 0.00 0.00 0.00 0.00 0.00 0.00 0.00 0.00 0.00 0.03 0.03 0.02 0.16 0.27 0.19 0.03 0.00
0.00 0.00 0.00 0.00 0.00 0.00 0.00 0.00 0.00 0.00 0.00 0.00 0.00 0.00 0.00 0.00 0.00 0.00 0.00 0.00 0.00 0.00 0.00 0.00 0.00 0.00 0.00 0.00 0.00 0.00 0.00 0.00 0.00 0.00 0.02 0.02 0.02 0.11 0.36 0.11 0.02 0.02 0.01
0.00 0.00 0.00 0.00 0.00 0.00 0.00 0.00 0.00 0.00 0.00 0.00 0.00 0.00 0.00 0.00 0.00 0.00 0.00 0.00 0.00 0.00 0.00 0.00 0.00 0.00 0.00 0.00 0.00 0.00 0.01 0.01 0.04 0.05 0.01 0.00 0.11 0.28 0.10 0.02 0.01 0.02 0.05
0.00 0.00 0.00 0.00 0.00 0.00 0.00 0.00 0.00 0.00 0.00 0.00 0.00 0.00 0.00 0.00 0.00 0.00 0.00 0.00 0.00 0.00 0.00 0.00 0.00 0.00 0.00 0.00 0.00 0.00 0.01 0.04 0.05 0.03 0.02 0.11 0.21 0.03 0.00 0.00 0.02 0.04 0.02
0.00 0.00 0.00 0.00 0.00 0.00 0.00 0.00 0.00 0.00 0.00 0.00 0.00 0.00 0.00 0.00 0.00 0.00 0.00 0.00 0.00 0.00 0.00 0.00 0.00 0.00 0.00 0.00 0.00 0.00 0.03 0.05 0.05 0.04 0.16 0.13 0.01 0.00 0.00 0.00 0.01 0.01 0.00
0.00 0.00 0.00 0.00 0.00 0.00 0.00 0.00 0.00 0.00 0.00 0.00 0.00 0.00 0.00 0.00 0.00 0.00 0.00 0.00 0.00 0.00 0.00 0.00 0.00 0.00 0.00 0.00 0.00 0.01 0.03 0.03 0.08 0.13 0.10 0.01 0.00 0.00 0.00 0.00 0.00 0.00 0.01
0.00 0.00 0.00 0.00 0.00 0.00 0.00 0.00 0.00 0.00 0.00 0.00 0.00 0.00 0.00 0.00 0.00 0.00 0.00 0.00 0.00 0.00 0.00 0.00 0.00 0.00 0.00 0.00 0.02 0.03 0.03 0.06 0.10 0.04 0.00 0.00 0.00 0.00 0.00 0.00 0.00 0.00 0.01
0.00 0.00 0.00 0.00 0.00 0.00 0.00 0.00 0.00 0.00 0.00 0.00 0.00 0.00 0.00 0.00 0.00 0.00 0.00 0.00 0.00 0.00 0.00 0.00 0.00 0.00 0.01 0.01 0.01 0.02 0.06 0.08 0.03 0.00 0.00 0.01 0.01 0.02 0.01 0.01 0.02 0.01 0.02

GFSMW_prec_precacc_033.txt.gz
Total_Precipitation_Accumulation
0.00 0.00 0.00 0.00 0.00 0.00 0.00 0.00 0.00 0.00 0.00 0.00 0.00 0.04 0.07 0.10 0.09 0.10 0.09 0.02 0.01 0.01 0.00 0.00 0.00 0.00 0.00 0.00 0.00 0.00 0.00 0.00 0.00 0.00 0.00 0.00 0.00 0.00 0.00 0.00 0.00 0.00 0.00
0.00 0.00 0.00 0.00 0.00 0.00 0.00 0.00 0.00 0.00 0.00 0.00 0.01 0.09 0.10 0.09 0.10 0.10 0.10 0.08 0.05 0.01 0.00 0.00 0.00 0.00 0.00 0.00 0.00 0.00 0.00 0.00 0.00 0.01 0.01 0.01 0.00 0.00 0.00 0.00 0.00 0.00 0.00
0.00 0.00 0.00 0.00 0.00 0.00 0.00 0.00 0.00 0.00 0.00 0.00 0.01 0.05 0.05 0.04 0.04 0.05 0.09 0.10 0.08 0.04 0.00 0.00 0.00 0.00 0.00 0.00 0.00 0.00 0.00 0.00 0.00 0.00 0.02 0.02 0.01 0.01 0.00 0.00 0.00 0.00 0.00
0.00 0.00 0.00 0.00 0.00 0.00 0.00 0.00 0.00 0.00 0.00 0.00 0.00 0.04 0.05 0.06 0.06 0.07 0.07 0.07 0.06 0.03 0.01 0.01 0.00 0.00 0.00 0.00 0.00 0.00 0.00 0.00 0.00 0.00 0.00 0.01 0.02 0.02 0.01 0.01 0.01 0.01 0.00
0.00 0.00 0.00 0.00 0.00 0.00 0.00 0.00 0.00 0.00 0.00 0.00 0.00 0.03 0.07 0.05 0.04 0.05 0.05 0.03 0.01 0.01 0.00 0.01 0.00 0.00 0.00 0.00 0.00 0.00 0.00 0.00 0.00 0.00 0.00 0.00 0.00 0.00 0.01 0.00 0.00 0.00 0.00
0.00 0.00 0.00 0.00 0.00 0.00 0.00 0.00 0.00 0.00 0.00 0.00 0.01 0.01 0.07 0.06 0.02 0.01 0.02 0.02 0.01 0.00 0.00 0.00 0.00 0.00 0.00 0.00 0.00 0.00 0.00 0.00 0.00 0.00 0.00 0.00 0.00 0.01 0.01 0.01 0.00 0.00 0.00
0.00 0.00 0.00 0.00 0.00 0.00 0.00 0.00 0.00 0.00 0.00 0.00 0.00 0.00 0.02 0.07 0.03 0.02 0.03 0.03 0.02 0.00 0.00 0.00 0.00 0.00 0.00 0.00 0.00 0.00 0.00 0.00 0.00 0.00 0.00 0.00 0.00 0.00 0.00 0.01 0.00 0.00 0.00
0.00 0.00 0.00 0.00 0.00 0.00 0.00 0.00 0.00 0.00 0.00 0.00 0.00 0.00 0.00 0.02 0.01 0.01 0.01 0.01 0.01 0.00 0.00 0.00 0.00 0.00 0.00 0.00 0.00 0.00 0.00 0.00 0.00 0.00 0.00 0.00 0.00 0.00 0.00 0.00 0.03 0.02 0.00
0.00 0.00 0.00 0.00 0.00 0.00 0.00 0.00 0.00 0.00 0.00 0.00 0.00 0.00 0.00 0.01 0.01 0.01 0.01 0.00 0.00 0.00 0.00 0.00 0.00 0.00 0.00 0.00 0.00 0.00 0.00 0.00 0.00 0.00 0.00 0.00 0.00 0.00 0.00 0.01 0.04 0.04 0.03
0.00 0.00 0.00 0.00 0.00 0.00 0.00 0.00 0.00 0.00 0.00 0.00 0.00 0.00 0.00 0.01 0.01 0.01 0.01 0.00 0.00 0.00 0.00 0.00 0.00 0.00 0.00 0.00 0.00 0.00 0.00 0.00 0.00 0.00 0.00 0.00 0.00 0.00 0.01 0.01 0.00 0.01 0.01
0.00 0.00 0.00 0.00 0.00 0.00 0.00 0.00 0.00 0.00 0.00 0.00 0.00 0.00 0.00 0.00 0.00 0.01 0.00 0.00 0.00 0.00 0.00 0.00 0.00 0.00 0.00 0.00 0.00 0.00 0.00 0.00 0.00 0.00 0.00 0.00 0.00 0.00 0.00 0.00 0.00 0.00 0.00
0.00 0.00 0.00 0.00 0.00 0.00 0.00 0.00 0.00 0.00 0.00 0.00 0.00 0.00 0.00 0.00 0.00 0.00 0.00 0.00 0.00 0.00 0.00 0.00 0.00 0.00 0.00 0.00 0.00 0.00 0.00 0.00 0.00 0.00 0.00 0.00 0.00 0.00 0.00 0.00 0.00 0.00 0.00
0.00 0.00 0.00 0.00 0.00 0.00 0.00 0.00 0.00 0.00 0.00 0.00 0.00 0.00 0.00 0.00 0.00 0.00 0.00 0.00 0.00 0.00 0.00 0.00 0.00 0.00 0.00 0.00 0.00 0.00 0.00 0.00 0.00 0.00 0.00 0.00 0.00 0.00 0.00 0.00 0.00 0.00 0.02
0.01 0.00 0.00 0.00 0.00 0.00 0.00 0.00 0.01 0.02 0.01 0.00 0.00 0.01 0.00 0.00 0.00 0.00 0.00 0.00 0.00 0.00 0.00 0.00 0.00 0.00 0.00 0.00 0.00 0.00 0.00 0.00 0.00 0.00 0.00 0.00 0.00 0.00 0.00 0.00 0.01 0.02 0.03
0.00 0.00 0.00 0.00 0.00 0.00 0.00 0.00 0.01 0.02 0.01 0.00 0.00 0.00 0.00 0.00 0.00 0.00 0.00 0.00 0.00 0.00 0.00 0.00 0.00 0.00 0.00 0.00 0.00 0.00 0.00 0.00 0.00 0.00 0.00 0.00 0.00 0.00 0.00 0.02 0.04 0.05 0.07
0.00 0.00 0.00 0.00 0.00 0.00 0.00 0.00 0.00 0.01 0.02 0.02 0.01 0.00 0.00 0.00 0.00 0.00 0.00 0.00 0.00 0.00 0.00 0.00 0.00 0.00 0.00 0.00 0.00 0.00 0.00 0.00 0.00 0.00 0.00 0.00 0.00 0.00 0.01 0.02 0.04 0.10 0.27
0.00 0.00 0.00 0.00 0.00 0.00 0.00 0.00 0.01 0.02 0.02 0.02 0.01 0.00 0.00 0.00 0.01 0.00 0.00 0.00 0.00 0.00 0.00 0.00 0.00 0.00 0.00 0.00 0.00 0.00 0.00 0.00 0.00 0.00 0.00 0.00 0.00 0.00 0.01 0.01 0.08 0.27 0.33
0.00 0.00 0.00 0.00 0.00 0.00 0.00 0.01 0.02 0.02 0.02 0.03 0.08 0.03 0.00 0.01 0.00 0.00 0.00 0.00 0.00 0.00 0.00 0.00 0.00 0.00 0.00 0.00 0.00 0.00 0.00 0.00 0.00 0.00 0.00 0.00 0.01 0.02 0.03 0.10 0.34 0.20 0.05
0.01 0.00 0.00 0.00 0.00 0.00 0.00 0.00 0.01 0.02 0.02 0.01 0.06 0.05 0.00 0.00 0.00 0.00 0.00 0.00 0.00 0.00 0.00 0.00 0.00 0.00 0.00 0.00 0.00 0.00 0.00 0.00 0.00 0.00 0.00 0.03 0.03 0.02 0.16 0.27 0.20 0.03 0.00
0.01 0.01 0.00 0.00 0.00 0.00 0.02 0.04 0.02 0.03 0.04 0.02 0.00 0.00 0.00 0.00 0.00 0.00 0.00 0.00 0.00 0.00 0.00 0.00 0.00 0.00 0.00 0.00 0.00 0.00 0.00 0.00 0.00 0.00 0.02 0.02 0.02 0.11 0.36 0.12 0.02 0.02 0.01
0.01 0.01 0.01 0.01 0.02 0.02 0.05 0.09 0.03 0.01 0.02 0.00 0.00 0.00 0.00 0.00 0.00 0.00 0.00 0.00 0.00 0.00 0.00 0.00 0.00 0.00 0.00 0.00 0.00 0.00 0.01 0.01 0.04 0.05 0.01 0.00 0.11 0.28 0.10 0.02 0.01 0.02 0.06
0.00 0.01 0.01 0.00 0.00 0.00 0.00 0.00 0.00 0.00 0.00 0.00 0.00 0.00 0.00 0.00 0.00 0.00 0.00 0.00 0.00 0.00 0.00 0.00 0.00 0.00 0.00 0.00 0.00 0.00 0.01 0.04 0.05 0.03 0.02 0.11 0.21 0.04 0.00 0.00 0.02 0.04 0.03
0.00 0.00 0.00 0.00 0.00 0.00 0.00 0.00 0.00 0.00 0.00 0.00 0.00 0.00 0.00 0.00 0.00 0.00 0.00 0.00 0.00 0.00 0.00 0.00 0.00 0.00 0.00 0.00 0.00 0.00 0.03 0.05 0.05 0.04 0.16 0.13 0.01 0.00 0.00 0.00 0.01 0.01 0.00
0.00 0.00 0.00 0.00 0.00 0.00 0.00 0.00 0.00 0.00 0.00 0.00 0.00 0.00 0.00 0.00 0.00 0.00 0.00 0.00 0.00 0.00 0.00 0.00 0.00 0.00 0.00 0.00 0.00 0.01 0.03 0.03 0.08 0.13 0.10 0.01 0.00 0.00 0.00 0.00 0.00 0.00 0.01
0.00 0.00 0.00 0.00 0.00 0.00 0.00 0.00 0.00 0.00 0.00 0.00 0.00 0.00 0.00 0.00 0.00 0.00 0.00 0.00 0.00 0.00 0.00 0.00 0.00 0.00 0.00 0.00 0.02 0.03 0.03 0.06 0.10 0.04 0.00 0.00 0.00 0.00 0.00 0.00 0.00 0.00 0.01
0.00 0.00 0.00 0.00 0.00 0.00 0.00 0.00 0.00 0.00 0.00 0.00 0.00 0.00 0.00 0.00 0.00 0.00 0.00 0.00 0.00 0.00 0.00 0.00 0.00 0.00 0.01 0.01 0.01 0.02 0.07 0.08 0.03 0.00 0.00 0.01 0.01 0.02 0.01 0.01 0.02 0.01 0.02

GFSMW_prec_precacc_036.txt.gz
Total_Precipitation_Accumulation
0.00 0.00 0.00 0.00 0.00 0.00 0.00 0.00 0.00 0.00 0.00 0.00 0.00 0.04 0.08 0.10 0.10 0.11 0.10 0.04 0.02 0.01 0.00 0.00 0.00 0.00 0.00 0.00 0.00 0.00 0.00 0.00 0.00 0.00 0.00 0.00 0.00 0.00 0.00 0.00 0.00 0.00 0.00
0.00 0.00 0.00 0.00 0.00 0.00 0.00 0.00 0.00 0.00 0.00 0.00 0.01 0.09 0.12 0.14 0.10 0.12 0.12 0.10 0.07 0.02 0.00 0.00 0.00 0.00 0.00 0.00 0.00 0.00 0.00 0.00 0.00 0.01 0.01 0.01 0.00 0.00 0.00 0.00 0.00 0.00 0.00
0.00 0.00 0.00 0.00 0.00 0.00 0.00 0.00 0.00 0.00 0.00 0.00 0.01 0.05 0.06 0.06 0.04 0.06 0.10 0.13 0.13 0.07 0.03 0.02 0.01 0.00 0.00 0.00 0.00 0.00 0.00 0.00 0.00 0.00 0.02 0.02 0.01 0.01 0.00 0.00 0.00 0.00 0.00
0.00 0.00 0.00 0.00 0.00 0.00 0.00 0.00 0.00 0.00 0.00 0.00 0.00 0.04 0.05 0.07 0.07 0.08 0.08 0.09 0.10 0.05 0.03 0.03 0.02 0.00 0.00 0.00 0.00 0.00 0.00 0.00 0.00 0.00 0.00 0.01 0.02 0.02 0.01 0.01 0.01 0.01 0.00
0.00 0.00 0.00 0.00 0.00 0.00 0.00 0.00 0.00 0.00 0.00 0.00 0.00 0.03 0.08 0.06 0.05 0.05 0.06 0.05 0.05 0.02 0.01 0.02 0.01 0.00 0.00 0.00 0.00 0.00 0.00 0.00 0.00 0.00 0.00 0.00 0.00 0.00 0.01 0.00 0.00 0.00 0.00
0.00 0.00 0.00 0.00 0.00 0.00 0.00 0.00 0.00 0.00 0.00 0.00 0.01 0.01 0.08 0.06 0.03 0.01 0.02 0.04 0.04 0.02 0.01 0.01 0.00 0.00 0.00 0.00 0.00 0.00 0.00 0.00 0.00 0.00 0.00 0.00 0.00 0.01 0.01 0.01 0.00 0.00 0.00
0.00 0.00 0.00 0.00 0.00 0.00 0.00 0.00 0.00 0.00 0.00 0.00 0.00 0.00 0.02 0.07 0.03 0.02 0.03 0.03 0.03 0.02 0.01 0.01 0.00 0.00 0.00 0.00 0.00 0.00 0.00 0.00 0.00 0.00 0.00 0.00 0.00 0.00 0.00 0.01 0.00 0.00 0.00
0.00 0.00 0.00 0.00 0.00 0.00 0.00 0.00 0.00 0.00 0.00 0.00 0.00 0.00 0.00 0.02 0.01 0.02 0.03 0.03 0.03 0.02 0.01 0.00 0.00 0.00 0.00 0.00 0.00 0.00 0.00 0.00 0.00 0.00 0.00 0.00 0.00 0.00 0.00 0.00 0.03 0.02 0.00
0.00 0.00 0.00 0.00 0.00 0.00 0.00 0.00 0.00 0.00 0.00 0.00 0.00 0.00 0.00 0.01 0.01 0.01 0.01 0.01 0.01 0.01 0.00 0.00 0.00 0.00 0.00 0.00 0.00 0.00 0.00 0.00 0.00 0.00 0.00 0.00 0.00 0.00 0.00 0.01 0.04 0.04 0.03
0.00 0.00 0.00 0.00 0.00 0.00 0.00 0.00 0.00 0.00 0.00 0.00 0.00 0.00 0.00 0.01 0.01 0.01 0.01 0.01 0.01 0.00 0.00 0.00 0.00 0.00 0.00 0.00 0.00 0.00 0.00 0.00 0.00 0.00 0.00 0.00 0.00 0.00 0.01 0.01 0.00 0.01 0.01
0.00 0.00 0.00 0.00 0.00 0.00 0.00 0.00 0.00 0.00 0.00 0.00 0.00 0.00 0.00 0.01 0.01 0.01 0.00 0.00 0.00 0.00 0.00 0.00 0.00 0.00 0.00 0.00 0.00 0.00 0.00 0.00 0.00 0.00 0.00 0.00 0.00 0.00 0.00 0.00 0.00 0.00 0.00
0.00 0.00 0.00 0.00 0.00 0.00 0.00 0.00 0.00 0.00 0.00 0.00 0.00 0.00 0.00 0.00 0.00 0.00 0.01 0.01 0.01 0.00 0.00 0.00 0.00 0.00 0.00 0.00 0.00 0.00 0.00 0.00 0.00 0.00 0.00 0.00 0.00 0.00 0.00 0.00 0.00 0.00 0.00
0.00 0.00 0.00 0.00 0.00 0.00 0.01 0.00 0.00 0.00 0.00 0.00 0.00 0.00 0.00 0.00 0.00 0.00 0.00 0.00 0.01 0.00 0.00 0.00 0.00 0.00 0.00 0.00 0.00 0.00 0.00 0.00 0.00 0.00 0.00 0.00 0.00 0.00 0.00 0.00 0.00 0.00 0.02
0.01 0.00 0.00 0.00 0.00 0.00 0.02 0.01 0.01 0.02 0.01 0.00 0.00 0.01 0.00 0.00 0.00 0.00 0.00 0.00 0.01 0.00 0.00 0.00 0.00 0.00 0.00 0.00 0.00 0.00 0.00 0.00 0.00 0.00 0.00 0.00 0.00 0.00 0.00 0.00 0.01 0.02 0.03
0.00 0.00 0.00 0.00 0.00 0.00 0.01 0.00 0.01 0.02 0.01 0.00 0.00 0.00 0.00 0.00 0.00 0.01 0.01 0.00 0.00 0.00 0.00 0.00 0.00 0.00 0.00 0.00 0.00 0.00 0.00 0.00 0.00 0.00 0.00 0.00 0.00 0.00 0.00 0.02 0.04 0.05 0.07
0.00 0.00 0.00 0.00 0.00 0.00 0.00 0.00 0.00 0.01 0.02 0.02 0.01 0.00 0.00 0.00 0.00 0.01 0.01 0.01 0.00 0.00 0.00 0.00 0.00 0.00 0.00 0.00 0.00 0.00 0.00 0.00 0.00 0.00 0.00 0.00 0.00 0.00 0.01 0.02 0.04 0.10 0.27
0.00 0.00 0.00 0.00 0.00 0.00 0.00 0.00 0.01 0.02 0.02 0.02 0.01 0.00 0.00 0.01 0.02 0.01 0.00 0.00 0.00 0.00 0.00 0.00 0.00 0.00 0.00 0.00 0.00 0.00 0.00 0.00 0.00 0.00 0.00 0.00 0.00 0.00 0.01 0.01 0.08 0.27 0.33
0.00 0.00 0.00 0.00 0.00 0.00 0.00 0.01 0.02 0.02 0.03 0.03 0.09 0.07 0.05 0.05 0.04 0.03 0.03 0.01 0.00 0.00 0.00 0.00 0.00 0.00 0.00 0.00 0.00 0.00 0.00 0.00 0.00 0.00 0.00 0.00 0.01 0.02 0.03 0.10 0.34 0.20 0.05
0.01 0.00 0.00 0.00 0.00 0.00 0.00 0.01 0.02 0.02 0.04 0.03 0.13 0.29 0.31 0.23 0.12 0.02 0.00 0.00 0.00 0.00 0.00 0.00 0.00 0.00 0.00 0.00 0.00 0.00 0.00 0.00 0.00 0.00 0.00 0.03 0.03 0.02 0.16 0.27 0.20 0.03 0.00
0.01 0.01 0.00 0.00 0.00 0.00 0.02 0.05 0.04 0.05 0.10 0.11 0.09 0.08 0.09 0.06 0.02 0.00 0.00 0.00 0.00 0.00 0.00 0.00 0.00 0.00 0.00 0.00 0.00 0.00 0.00 0.00 0.00 0.00 0.02 0.02 0.02 0.11 0.36 0.12 0.03 0.02 0.01
0.01 0.01 0.01 0.02 0.04 0.05 0.10 0.23 0.17 0.14 0.13 0.16 0.18 0.07 0.01 0.00 0.00 0.00 0.00 0.00 0.00 0.00 0.00 0.00 0.00 0.00 0.00 0.00 0.00 0.00 0.01 0.01 0.04 0.05 0.01 0.00 0.11 0.28 0.10 0.02 0.01 0.02 0.06
0.18 0.22 0.16 0.12 0.15 0.16 0.20 0.41 0.24 0.14 0.08 0.03 0.01 0.00 0.00 0.00 0.00 0.00 0.00 0.00 0.00 0.00 0.00 0.00 0.00 0.00 0.00 0.00 0.00 0.00 0.01 0.04 0.05 0.03 0.02 0.11 0.22 0.04 0.00 0.00 0.02 0.04 0.03
0.05 0.15 0.14 0.12 0.16 0.10 0.07 0.09 0.04 0.00 0.00 0.00 0.00 0.00 0.00 0.00 0.00 0.00 0.00 0.00 0.00 0.00 0.00 0.00 0.00 0.00 0.00 0.00 0.00 0.00 0.03 0.05 0.05 0.04 0.16 0.13 0.01 0.00 0.00 0.00 0.01 0.01 0.00
0.00 0.00 0.00 0.00 0.00 0.00 0.00 0.00 0.00 0.00 0.00 0.00 0.00 0.00 0.00 0.00 0.00 0.00 0.00 0.00 0.00 0.00 0.00 0.00 0.00 0.00 0.00 0.00 0.00 0.01 0.03 0.03 0.08 0.13 0.10 0.01 0.00 0.00 0.00 0.00 0.00 0.00 0.01
0.00 0.00 0.00 0.00 0.00 0.00 0.00 0.00 0.00 0.00 0.00 0.00 0.00 0.00 0.00 0.00 0.00 0.00 0.00 0.00 0.00 0.00 0.00 0.00 0.00 0.00 0.00 0.00 0.02 0.03 0.03 0.06 0.10 0.04 0.00 0.00 0.00 0.00 0.00 0.00 0.00 0.00 0.01
0.00 0.00 0.00 0.00 0.00 0.00 0.00 0.00 0.00 0.00 0.00 0.00 0.00 0.00 0.00 0.00 0.00 0.00 0.00 0.00 0.00 0.00 0.00 0.00 0.00 0.00 0.01 0.01 0.01 0.02 0.07 0.08 0.03 0.00 0.00 0.01 0.01 0.02 0.01 0.01 0.02 0.01 0.02

GFSMW_prec_precacc_039.txt.gz
Total_Precipitation_Accumulation
0.00 0.00 0.00 0.00 0.00 0.00 0.00 0.00 0.00 0.00 0.00 0.01 0.01 0.07 0.13 0.11 0.10 0.12 0.11 0.04 0.02 0.01 0.00 0.00 0.00 0.00 0.00 0.00 0.00 0.00 0.00 0.00 0.00 0.00 0.00 0.00 0.00 0.00 0.00 0.00 0.00 0.00 0.00
0.00 0.00 0.00 0.00 0.00 0.00 0.00 0.00 0.00 0.00 0.00 0.00 0.01 0.15 0.23 0.21 0.13 0.14 0.13 0.11 0.09 0.06 0.01 0.00 0.00 0.00 0.00 0.00 0.00 0.00 0.00 0.00 0.00 0.01 0.01 0.01 0.00 0.00 0.00 0.00 0.00 0.00 0.00
0.00 0.00 0.00 0.00 0.00 0.00 0.00 0.00 0.00 0.00 0.00 0.00 0.01 0.07 0.13 0.16 0.14 0.08 0.11 0.14 0.16 0.15 0.09 0.02 0.01 0.00 0.00 0.00 0.00 0.00 0.00 0.00 0.00 0.00 0.02 0.02 0.01 0.01 0.00 0.00 0.00 0.00 0.00
0.00 0.00 0.00 0.00 0.00 0.00 0.00 0.00 0.00 0.00 0.00 0.00 0.00 0.04 0.06 0.12 0.10 0.13 0.12 0.13 0.17 0.12 0.09 0.04 0.03 0.03 0.01 0.00 0.00 0.00 0.00 0.00 0.00 0.00 0.00 0.01 0.02 0.02 0.01 0.01 0.01 0.01 0.00
0.00 0.00 0.00 0.00 0.00 0.00 0.00 0.00 0.00 0.00 0.00 0.00 0.00 0.03 0.09 0.08 0.09 0.10 0.10 0.09 0.10 0.07 0.04 0.03 0.02 0.01 0.01 0.01 0.00 0.00 0.00 0.00 0.00 0.00 0.00 0.00 0.00 0.00 0.01 0.00 0.00 0.00 0.00
0.00 0.00 0.00 0.00 0.00 0.00 0.00 0.00 0.00 0.00 0.00 0.00 0.01 0.01 0.08 0.07 0.05 0.03 0.04 0.07 0.08 0.05 0.03 0.02 0.02 0.01 0.01 0.01 0.00 0.00 0.00 0.00 0.00 0.00 0.00 0.00 0.00 0.01 0.01 0.01 0.00 0.00 0.00
0.00 0.00 0.00 0.00 0.00 0.00 0.00 0.00 0.00 0.00 0.00 0.00 0.00 0.00 0.02 0.08 0.05 0.04 0.05 0.05 0.04 0.03 0.02 0.02 0.02 0.02 0.01 0.00 0.00 0.00 0.00 0.00 0.00 0.00 0.00 0.00 0.00 0.00 0.00 0.01 0.00 0.00 0.00
0.00 0.00 0.00 0.00 0.00 0.00 0.00 0.00 0.00 0.00 0.00 0.00 0.00 0.00 0.00 0.04 0.04 0.04 0.05 0.05 0.04 0.03 0.01 0.01 0.01 0.01 0.00 0.00 0.00 0.00 0.00 0.00 0.00 0.00 0.00 0.00 0.00 0.00 0.00 0.00 0.03 0.02 0.00
0.00 0.00 0.00 0.00 0.00 0.00 0.00 0.00 0.00 0.00 0.00 0.00 0.00 0.00 0.00 0.04 0.03 0.03 0.03 0.02 0.02 0.01 0.01 0.01 0.01 0.01 0.00 0.00 0.00 0.00 0.00 0.00 0.00 0.00 0.00 0.00 0.00 0.00 0.00 0.01 0.04 0.04 0.03
0.00 0.00 0.00 0.00 0.00 0.00 0.00 0.00 0.00 0.00 0.00 0.02 0.02 0.01 0.02 0.03 0.02 0.02 0.01 0.01 0.01 0.00 0.00 0.01 0.01 0.01 0.00 0.00 0.00 0.00 0.00 0.00 0.00 0.00 0.00 0.00 0.00 0.00 0.01 0.01 0.00 0.01 0.01
0.00 0.00 0.00 0.00 0.00 0.00 0.00 0.00 0.00 0.00 0.00 0.01 0.00 0.01 0.01 0.02 0.01 0.01 0.00 0.00 0.01 0.01 0.00 0.00 0.00 0.00 0.00 0.00 0.00 0.00 0.00 0.00 0.00 0.00 0.00 0.00 0.00 0.00 0.00 0.00 0.00 0.00 0.00
0.00 0.00 0.00 0.00 0.00 0.00 0.00 0.00 0.00 0.00 0.01 0.00 0.00 0.00 0.00 0.00 0.00 0.00 0.01 0.01 0.01 0.01 0.01 0.01 0.00 0.00 0.00 0.00 0.00 0.00 0.00 0.00 0.00 0.00 0.00 0.00 0.00 0.00 0.00 0.00 0.00 0.00 0.00
0.00 0.00 0.00 0.00 0.00 0.00 0.02 0.04 0.04 0.01 0.01 0.00 0.00 0.00 0.00 0.00 0.00 0.00 0.00 0.01 0.01 0.02 0.00 0.00 0.00 0.00 0.00 0.00 0.00 0.00 0.00 0.00 0.00 0.00 0.00 0.00 0.00 0.00 0.00 0.00 0.00 0.00 0.02
0.01 0.00 0.00 0.00 0.00 0.00 0.05 0.05 0.04 0.02 0.02 0.00 0.00 0.01 0.00 0.00 0.00 0.00 0.00 0.01 0.02 0.01 0.01 0.01 0.01 0.00 0.00 0.00 0.00 0.00 0.00 0.00 0.00 0.00 0.00 0.00 0.00 0.00 0.00 0.00 0.01 0.02 0.03
0.00 0.00 0.00 0.00 0.00 0.00 0.03 0.04 0.07 0.06 0.03 0.01 0.01 0.00 0.00 0.00 0.00 0.01 0.01 0.01 0.01 0.01 0.00 0.02 0.04 0.02 0.00 0.00 0.00 0.00 0.00 0.00 0.00 0.00 0.00 0.00 0.00 0.00 0.00 0.02 0.04 0.05 0.07
0.00 0.00 0.00 0.00 0.00 0.00 0.01 0.02 0.05 0.04 0.04 0.03 0.01 0.00 0.00 0.00 0.00 0.01 0.01 0.03 0.03 0.04 0.05 0.05 0.01 0.00 0.00 0.00 0.00 0.00 0.00 0.00 0.00 0.00 0.00 0.00 0.00 0.00 0.01 0.02 0.04 0.10 0.27
0.00 0.00 0.00 0.00 0.00 0.00 0.01 0.01 0.02 0.03 0.03 0.02 0.01 0.00 0.00 0.02 0.02 0.02 0.01 0.03 0.06 0.10 0.12 0.08 0.02 0.00 0.00 0.00 0.00 0.00 0.00 0.00 0.00 0.00 0.00 0.00 0.00 0.00 0.01 0.01 0.08 0.27 0.33
0.00 0.00 0.00 0.00 0.00 0.00 0.00 0.01 0.02 0.02 0.03 0.03 0.09 0.07 0.05 0.08 0.15 0.14 0.16 0.15 0.10 0.07 0.03 0.00 0.00 0.00 0.00 0.00 0.00 0.00 0.00 0.00 0.00 0.00 0.00 0.00 0.01 0.02 0.03 0.10 0.34 0.20 0.05
0.01 0.00 0.00 0.00 0.00 0.00 0.00 0.01 0.02 0.02 0.05 0.04 0.14 0.33 0.36 0.37 0.41 0.35 0.25 0.20 0.13 0.03 0.00 0.00 0.00 0.00 0.00 0.00 0.00 0.00 0.00 0.00 0.00 0.00 0.00 0.03 0.03 0.02 0.16 0.27 0.20 0.03 0.00
0.01 0.01 0.00 0.00 0.00 0.00 0.03 0.05 0.04 0.08 0.16 0.22 0.16 0.33 0.46 0.43 0.28 0.18 0.09 0.02 0.00 0.00 0.00 0.00 0.00 0.00 0.00 0.00 0.00 0.00 0.00 0.00 0.00 0.00 0.02 0.02 0.02 0.11 0.36 0.12 0.03 0.02 0.01
0.01 0.01 0.01 0.02 0.04 0.05 0.12 0.24 0.21 0.31 0.31 0.57 0.42 0.22 0.27 0.17 0.02 0.00 0.00 0.00 0.00 0.00 0.00 0.00 0.00 0.00 0.00 0.00 0.00 0.00 0.01 0.01 0.04 0.05 0.01 0.00 0.11 0.28 0.11 0.03 0.01 0.02 0.06
0.22 0.25 0.18 0.14 0.18 0.20 0.33 0.68 0.46 0.33 0.23 0.18 0.12 0.07 0.05 0.01 0.00 0.00 0.00 0.00 0.00 0.00 0.00 0.00 0.00 0.00 0.00 0.00 0.00 0.00 0.01 0.04 0.05 0.03 0.02 0.11 0.22 0.04 0.00 0.00 0.02 0.04 0.03
0.25 0.50 0.45 0.41 0.52 0.38 0.31 0.42 0.26 0.15 0.05 0.03 0.00 0.00 0.00 0.00 0.00 0.00 0.00 0.00 0.00 0.00 0.00 0.00 0.00 0.00 0.00 0.00 0.00 0.00 0.03 0.05 0.05 0.04 0.16 0.14 0.01 0.00 0.00 0.00 0.01 0.01 0.00
0.00 0.01 0.01 0.02 0.06 0.08 0.03 0.04 0.02 0.01 0.00 0.00 0.00 0.00 0.00 0.00 0.00 0.00 0.00 0.00 0.00 0.00 0.00 0.00 0.00 0.00 0.00 0.00 0.00 0.01 0.03 0.03 0.08 0.13 0.10 0.01 0.00 0.00 0.00 0.00 0.00 0.00 0.01
0.00 0.00 0.00 0.00 0.00 0.00 0.00 0.00 0.00 0.00 0.00 0.00 0.00 0.00 0.00 0.00 0.00 0.00 0.00 0.00 0.00 0.00 0.00 0.00 0.00 0.00 0.00 0.00 0.02 0.03 0.03 0.06 0.10 0.04 0.00 0.00 0.00 0.00 0.00 0.00 0.00 0.00 0.01
0.00 0.00 0.00 0.00 0.00 0.00 0.00 0.00 0.00 0.00 0.00 0.00 0.00 0.00 0.00 0.00 0.00 0.00 0.00 0.00 0.00 0.00 0.00 0.00 0.00 0.00 0.01 0.01 0.01 0.02 0.07 0.09 0.03 0.00 0.00 0.01 0.01 0.02 0.01 0.01 0.02 0.01 0.02

GFSMW_prec_precacc_042.txt.gz
Total_Precipitation_Accumulation
0.00 0.00 0.00 0.00 0.00 0.00 0.00 0.00 0.00 0.00 0.03 0.04 0.04 0.11 0.19 0.16 0.11 0.12 0.11 0.04 0.02 0.02 0.01 0.00 0.00 0.00 0.00 0.00 0.00 0.00 0.00 0.00 0.00 0.00 0.00 0.00 0.00 0.00 0.00 0.00 0.00 0.00 0.00
0.00 0.00 0.00 0.00 0.00 0.00 0.00 0.00 0.00 0.00 0.00 0.01 0.02 0.17 0.28 0.28 0.20 0.18 0.14 0.11 0.11 0.11 0.07 0.00 0.00 0.00 0.00 0.00 0.00 0.00 0.00 0.00 0.00 0.01 0.01 0.01 0.00 0.00 0.00 0.00 0.00 0.00 0.00
0.00 0.00 0.00 0.00 0.00 0.00 0.00 0.00 0.00 0.00 0.00 0.02 0.06 0.14 0.20 0.23 0.22 0.13 0.12 0.16 0.18 0.31 0.17 0.04 0.03 0.01 0.00 0.00 0.00 0.00 0.00 0.00 0.00 0.00 0.02 0.02 0.01 0.01 0.00 0.00 0.00 0.00 0.00
0.00 0.00 0.00 0.00 0.00 0.00 0.00 0.00 0.00 0.00 0.00 0.00 0.01 0.06 0.07 0.12 0.11 0.14 0.21 0.24 0.24 0.24 0.18 0.09 0.06 0.06 0.02 0.00 0.00 0.00 0.00 0.00 0.00 0.00 0.00 0.01 0.02 0.02 0.01 0.01 0.01 0.01 0.00
0.00 0.00 0.00 0.00 0.00 0.00 0.00 0.00 0.00 0.00 0.00 0.00 0.00 0.03 0.09 0.09 0.10 0.14 0.16 0.18 0.23 0.19 0.14 0.09 0.07 0.04 0.02 0.02 0.01 0.01 0.00 0.00 0.00 0.00 0.00 0.00 0.00 0.00 0.01 0.00 0.00 0.00 0.00
0.00 0.00 0.00 0.00 0.00 0.00 0.00 0.00 0.00 0.00 0.00 0.00 0.01 0.01 0.08 0.07 0.06 0.05 0.07 0.11 0.14 0.12 0.08 0.06 0.05 0.04 0.02 0.02 0.01 0.01 0.01 0.00 0.00 0.00 0.00 0.00 0.00 0.01 0.01 0.01 0.00 0.00 0.00
0.00 0.00 0.00 0.00 0.00 0.00 0.00 0.00 0.00 0.00 0.00 0.00 0.00 0.00 0.02 0.08 0.05 0.05 0.06 0.07 0.07 0.06 0.05 0.04 0.04 0.04 0.02 0.01 0.01 0.01 0.00 0.00 0.00 0.00 0.00 0.00 0.00 0.00 0.00 0.01 0.00 0.00 0.00
0.00 0.00 0.00 0.00 0.00 0.00 0.00 0.00 0.00 0.00 0.00 0.00 0.00 0.00 0.00 0.04 0.05 0.05 0.06 0.06 0.07 0.06 0.04 0.03 0.03 0.02 0.01 0.01 0.01 0.01 0.00 0.00 0.00 0.00 0.00 0.00 0.00 0.00 0.00 0.00 0.03 0.02 0.00
0.00 0.00 0.00 0.00 0.00 0.00 0.00 0.00 0.00 0.00 0.00 0.00 0.00 0.00 0.00 0.05 0.05 0.04 0.04 0.05 0.05 0.04 0.03 0.03 0.02 0.02 0.01 0.00 0.01 0.01 0.00 0.00 0.00 0.00 0.00 0.00 0.00 0.00 0.00 0.01 0.04 0.04 0.03
0.00 0.00 0.00 0.00 0.00 0.00 0.00 0.00 0.00 0.00 0.00 0.02 0.02 0.01 0.04 0.04 0.04 0.03 0.03 0.04 0.03 0.03 0.03 0.02 0.01 0.01 0.01 0.01 0.01 0.00 0.00 0.00 0.00 0.00 0.00 0.00 0.00 0.00 0.01 0.01 0.00 0.01 0.01
0.00 0.00 0.00 0.00 0.00 0.00 0.00 0.00 0.00 0.00 0.00 0.01 0.00 0.01 0.03 0.03 0.03 0.03 0.02 0.02 0.02 0.02 0.02 0.01 0.00 0.01 0.01 0.01 0.01 0.00 0.00 0.00 0.00 0.00 0.00 0.00 0.00 0.00 0.00 0.00 0.00 0.00 0.00
0.00 0.00 0.00 0.00 0.00 0.00 0.00 0.00 0.00 0.00 0.01 0.01 0.00 0.01 0.02 0.04 0.04 0.03 0.02 0.02 0.02 0.02 0.01 0.01 0.00 0.00 0.01 0.01 0.00 0.01 0.01 0.00 0.00 0.00 0.00 0.00 0.00 0.00 0.00 0.00 0.00 0.00 0.00
0.00 0.00 0.00 0.00 0.00 0.00 0.02 0.04 0.04 0.01 0.01 0.00 0.01 0.02 0.04 0.05 0.04 0.03 0.01 0.01 0.02 0.02 0.00 0.01 0.01 0.01 0.01 0.01 0.01 0.00 0.00 0.00 0.00 0.00 0.00 0.00 0.00 0.00 0.00 0.00 0.00 0.00 0.02
0.01 0.00 0.00 0.00 0.00 0.00 0.05 0.05 0.04 0.02 0.05 0.05 0.05 0.05 0.04 0.04 0.03 0.01 0.00 0.01 0.02 0.02 0.02 0.02 0.02 0.02 0.02 0.04 0.02 0.01 0.01 0.02 0.01 0.00 0.00 0.00 0.00 0.00 0.00 0.00 0.01 0.02 0.03
0.01 0.00 0.01 0.01 0.00 0.00 0.03 0.04 0.07 0.08 0.08 0.08 0.06 0.03 0.01 0.01 0.01 0.01 0.01 0.01 0.01 0.01 0.02 0.05 0.07 0.08 0.10 0.10 0.09 0.08 0.05 0.02 0.00 0.00 0.00 0.00 0.00 0.00 0.00 0.02 0.04 0.05 0.07
0.02 0.01 0.01 0.00 0.00 0.00 0.01 0.02 0.06 0.10 0.15 0.11 0.06 0.03 0.03 0.02 0.01 0.01 0.02 0.03 0.04 0.06 0.09 0.09 0.06 0.03 0.02 0.02 0.02 0.02 0.01 0.00 0.00 0.00 0.00 0.00 0.00 0.00 0.01 0.02 0.04 0.10 0.27
0.01 0.00 0.00 0.00 0.00 0.00 0.01 0.01 0.03 0.06 0.06 0.05 0.03 0.03 0.01 0.02 0.02 0.02 0.02 0.05 0.13 0.19 0.20 0.21 0.26 0.25 0.18 0.10 0.04 0.01 0.00 0.00 0.00 0.00 0.00 0.00 0.00 0.00 0.01 0.01 0.08 0.27 0.33
0.00 0.00 0.00 0.00 0.00 0.00 0.00 0.01 0.02 0.04 0.11 0.14 0.13 0.10 0.05 0.09 0.16 0.19 0.26 0.28 0.21 0.17 0.17 0.10 0.04 0.03 0.01 0.01 0.00 0.00 0.00 0.00 0.00 0.00 0.00 0.00 0.01 0.02 0.03 0.10 0.34 0.20 0.05
0.01 0.00 0.00 0.00 0.00 0.00 0.00 0.01 0.02 0.02 0.08 0.07 0.15 0.34 0.38 0.42 0.56 0.74 0.63 0.48 0.44 0.31 0.17 0.07 0.02 0.01 0.00 0.00 0.00 0.00 0.00 0.00 0.00 0.00 0.00 0.03 0.03 0.02 0.16 0.27 0.20 0.03 0.00
0.01 0.01 0.00 0.00 0.00 0.00 0.03 0.05 0.04 0.08 0.18 0.25 0.19 0.56 0.72 0.59 0.47 0.41 0.38 0.22 0.10 0.03 0.01 0.00 0.00 0.00 0.00 0.00 0.00 0.00 0.00 0.00 0.00 0.00 0.02 0.02 0.02 0.11 0.36 0.12 0.03 0.02 0.01
0.01 0.01 0.01 0.02 0.04 0.06 0.13 0.25 0.23 0.40 0.51 0.81 0.57 0.46 0.50 0.40 0.22 0.13 0.04 0.01 0.00 0.00 0.00 0.00 0.00 0.00 0.00 0.00 0.00 0.00 0.01 0.01 0.04 0.05 0.01 0.00 0.11 0.29 0.11 0.03 0.01 0.02 0.06
0.23 0.25 0.18 0.14 0.18 0.22 0.37 0.72 0.62 0.57 0.51 0.43 0.44 0.19 0.10 0.08 0.06 0.01 0.00 0.00 0.00 0.00 0.00 0.00 0.00 0.00 0.00 0.00 0.00 0.00 0.01 0.04 0.05 0.03 0.02 0.11 0.22 0.04 0.00 0.00 0.02 0.04 0.03
0.28 0.54 0.49 0.45 0.55 0.41 0.41 0.56 0.43 0.25 0.09 0.08 0.02 0.01 0.00 0.00 0.00 0.00 0.00 0.00 0.00 0.00 0.00 0.00 0.00 0.00 0.00 0.00 0.00 0.00 0.03 0.05 0.05 0.04 0.16 0.14 0.01 0.00 0.00 0.00 0.01 0.01 0.00
0.01 0.02 0.02 0.06 0.14 0.13 0.11 0.15 0.10 0.05 0.01 0.00 0.00 0.00 0.00 0.00 0.00 0.00 0.00 0.00 0.00 0.00 0.00 0.00 0.00 0.00 0.00 0.00 0.00 0.01 0.03 0.03 0.08 0.13 0.10 0.01 0.00 0.00 0.00 0.00 0.00 0.00 0.01
0.00 0.00 0.00 0.00 0.00 0.00 0.00 0.00 0.00 0.00 0.00 0.00 0.00 0.00 0.00 0.00 0.00 0.00 0.00 0.00 0.00 0.00 0.00 0.00 0.00 0.00 0.00 0.00 0.02 0.03 0.03 0.06 0.10 0.04 0.00 0.00 0.00 0.00 0.00 0.00 0.00 0.00 0.01
0.00 0.00 0.00 0.00 0.00 0.00 0.00 0.00 0.00 0.00 0.00 0.00 0.00 0.00 0.00 0.00 0.00 0.00 0.00 0.00 0.00 0.00 0.00 0.00 0.00 0.00 0.01 0.01 0.01 0.02 0.07 0.09 0.03 0.00 0.00 0.01 0.01 0.02 0.01 0.01 0.02 0.01 0.02

GFSMW_prec_precacc_045.txt.gz
Total_Precipitation_Accumulation
0.00 0.00 0.00 0.00 0.00 0.00 0.00 0.00 0.00 0.00 0.03 0.06 0.06 0.12 0.21 0.20 0.12 0.13 0.12 0.04 0.03 0.06 0.05 0.00 0.00 0.00 0.00 0.00 0.00 0.00 0.00 0.00 0.00 0.00 0.00 0.00 0.00 0.00 0.00 0.00 0.00 0.00 0.00
0.00 0.00 0.00 0.00 0.00 0.00 0.00 0.00 0.00 0.00 0.00 0.01 0.02 0.17 0.28 0.30 0.23 0.21 0.15 0.12 0.13 0.19 0.16 0.02 0.00 0.00 0.00 0.00 0.00 0.00 0.00 0.00 0.00 0.01 0.01 0.01 0.00 0.00 0.00 0.00 0.00 0.00 0.00
0.00 0.00 0.00 0.00 0.00 0.00 0.00 0.00 0.00 0.00 0.00 0.02 0.06 0.16 0.22 0.27 0.26 0.16 0.12 0.16 0.23 0.45 0.28 0.07 0.03 0.01 0.00 0.00 0.00 0.00 0.00 0.00 0.00 0.00 0.02 0.02 0.01 0.01 0.00 0.00 0.00 0.00 0.00
0.00 0.00 0.00 0.00 0.00 0.00 0.00 0.00 0.00 0.00 0.00 0.00 0.01 0.07 0.07 0.13 0.11 0.14 0.23 0.28 0.30 0.40 0.33 0.18 0.08 0.11 0.09 0.06 0.06 0.02 0.01 0.00 0.00 0.00 0.00 0.01 0.02 0.02 0.01 0.01 0.01 0.01 0.00
0.00 0.00 0.00 0.00 0.00 0.00 0.00 0.00 0.00 0.00 0.00 0.00 0.00 0.04 0.10 0.09 0.10 0.14 0.17 0.21 0.27 0.27 0.25 0.20 0.16 0.11 0.10 0.09 0.06 0.04 0.02 0.01 0.00 0.00 0.00 0.00 0.00 0.00 0.01 0.00 0.00 0.00 0.00
0.00 0.00 0.00 0.00 0.00 0.00 0.00 0.00 0.00 0.00 0.00 0.00 0.01 0.01 0.08 0.07 0.06 0.07 0.11 0.14 0.16 0.14 0.13 0.12 0.13 0.10 0.08 0.06 0.04 0.02 0.01 0.01 0.00 0.00 0.00 0.00 0.00 0.01 0.01 0.01 0.00 0.00 0.00
0.00 0.00 0.00 0.00 0.00 0.00 0.00 0.00 0.00 0.00 0.00 0.00 0.00 0.00 0.02 0.08 0.06 0.08 0.12 0.10 0.08 0.07 0.07 0.09 0.09 0.10 0.08 0.05 0.03 0.02 0.01 0.01 0.00 0.00 0.00 0.00 0.00 0.00 0.00 0.01 0.00 0.00 0.00
0.00 0.00 0.00 0.00 0.00 0.00 0.00 0.00 0.00 0.00 0.00 0.00 0.00 0.00 0.00 0.04 0.05 0.06 0.07 0.08 0.10 0.09 0.07 0.07 0.08 0.07 0.05 0.03 0.02 0.01 0.01 0.01 0.00 0.00 0.00 0.00 0.00 0.00 0.00 0.00 0.03 0.02 0.00
0.00 0.00 0.00 0.00 0.00 0.00 0.00 0.00 0.00 0.00 0.00 0.00 0.00 0.00 0.00 0.05 0.05 0.04 0.04 0.06 0.06 0.06 0.06 0.06 0.05 0.04 0.03 0.01 0.01 0.01 0.01 0.00 0.00 0.00 0.00 0.00 0.00 0.00 0.00 0.01 0.04 0.04 0.03
0.00 0.00 0.00 0.00 0.00 0.00 0.00 0.00 0.00 0.00 0.00 0.02 0.02 0.01 0.04 0.04 0.04 0.03 0.03 0.05 0.06 0.06 0.06 0.05 0.04 0.02 0.01 0.01 0.01 0.01 0.00 0.00 0.00 0.00 0.00 0.00 0.00 0.00 0.01 0.01 0.00 0.01 0.01
0.00 0.00 0.00 0.00 0.00 0.00 0.00 0.00 0.00 0.00 0.00 0.01 0.00 0.01 0.03 0.03 0.04 0.04 0.04 0.04 0.04 0.05 0.04 0.03 0.02 0.01 0.01 0.01 0.01 0.00 0.00 0.00 0.00 0.00 0.00 0.00 0.00 0.00 0.00 0.00 0.00 0.00 0.00
0.00 0.00 0.00 0.00 0.00 0.00 0.00 0.00 0.00 0.00 0.01 0.01 0.00 0.01 0.02 0.04 0.05 0.05 0.05 0.06 0.05 0.04 0.03 0.02 0.01 0.00 0.01 0.01 0.01 0.01 0.01 0.02 0.02 0.01 0.01 0.00 0.00 0.00 0.00 0.00 0.00 0.00 0.00
0.00 0.00 0.00 0.00 0.00 0.00 0.02 0.04 0.04 0.01 0.01 0.00 0.01 0.03 0.04 0.06 0.07 0.06 0.06 0.06 0.05 0.04 0.02 0.01 0.01 0.01 0.01 0.01 0.01 0.01 0.02 0.02 0.01 0.01 0.01 0.02 0.02 0.02 0.01 0.00 0.00 0.00 0.02
0.01 0.00 0.00 0.00 0.00 0.01 0.05 0.05 0.04 0.02 0.05 0.05 0.05 0.06 0.06 0.07 0.08 0.07 0.06 0.06 0.06 0.04 0.03 0.02 0.02 0.02 0.04 0.06 0.06 0.06 0.06 0.07 0.08 0.06 0.04 0.03 0.02 0.01 0.00 0.00 0.01 0.02 0.03
0.01 0.00 0.01 0.01 0.01 0.01 0.03 0.04 0.07 0.08 0.08 0.11 0.11 0.09 0.07 0.04 0.03 0.04 0.03 0.02 0.02 0.02 0.02 0.05 0.07 0.09 0.12 0.15 0.17 0.20 0.22 0.17 0.12 0.06 0.03 0.01 0.00 0.00 0.00 0.02 0.04 0.05 0.07
0.02 0.01 0.01 0.00 0.00 0.00 0.01 0.02 0.06 0.10 0.16 0.15 0.10 0.07 0.05 0.05 0.05 0.04 0.03 0.03 0.04 0.06 0.09 0.09 0.07 0.08 0.10 0.13 0.13 0.11 0.09 0.06 0.03 0.02 0.01 0.00 0.00 0.00 0.01 0.02 0.04 0.10 0.27
0.01 0.00 0.00 0.00 0.00 0.00 0.01 0.01 0.03 0.06 0.07 0.06 0.04 0.04 0.06 0.10 0.08 0.05 0.03 0.06 0.14 0.20 0.22 0.25 0.30 0.34 0.36 0.34 0.24 0.14 0.05 0.02 0.01 0.00 0.00 0.00 0.00 0.00 0.01 0.01 0.08 0.27 0.33
0.00 0.00 0.00 0.00 0.00 0.00 0.00 0.01 0.02 0.07 0.16 0.22 0.24 0.19 0.33 0.33 0.20 0.26 0.30 0.32 0.28 0.28 0.29 0.24 0.21 0.20 0.13 0.05 0.01 0.00 0.00 0.00 0.00 0.00 0.00 0.00 0.01 0.02 0.03 0.10 0.34 0.20 0.05
0.01 0.00 0.00 0.00 0.00 0.00 0.00 0.01 0.02 0.04 0.15 0.30 0.52 0.50 0.53 0.46 0.58 0.77 0.69 0.55 0.60 0.51 0.37 0.25 0.15 0.09 0.05 0.01 0.00 0.00 0.00 0.00 0.00 0.00 0.00 0.03 0.03 0.02 0.16 0.27 0.20 0.03 0.00
0.01 0.01 0.00 0.00 0.00 0.00 0.03 0.05 0.04 0.08 0.18 0.26 0.20 0.57 0.75 0.61 0.54 0.51 0.53 0.46 0.27 0.23 0.13 0.07 0.04 0.01 0.00 0.00 0.00 0.00 0.00 0.00 0.00 0.00 0.02 0.02 0.02 0.11 0.36 0.12 0.03 0.02 0.01
0.01 0.01 0.02 0.02 0.04 0.07 0.13 0.25 0.23 0.41 0.53 0.83 0.59 0.61 0.77 0.51 0.30 0.22 0.10 0.07 0.06 0.03 0.02 0.01 0.00 0.00 0.00 0.00 0.00 0.00 0.01 0.01 0.04 0.05 0.01 0.00 0.11 0.29 0.11 0.03 0.01 0.02 0.06
0.23 0.25 0.18 0.14 0.18 0.22 0.37 0.72 0.66 0.65 0.66 0.62 0.60 0.29 0.23 0.15 0.10 0.04 0.03 0.02 0.01 0.00 0.00 0.00 0.00 0.00 0.00 0.00 0.00 0.00 0.01 0.04 0.05 0.03 0.02 0.11 0.22 0.04 0.00 0.00 0.02 0.04 0.03
0.28 0.54 0.49 0.45 0.55 0.41 0.43 0.59 0.46 0.28 0.12 0.13 0.07 0.03 0.00 0.00 0.00 0.00 0.00 0.00 0.00 0.00 0.00 0.00 0.00 0.00 0.00 0.00 0.00 0.00 0.03 0.05 0.05 0.04 0.16 0.14 0.01 0.00 0.00 0.00 0.01 0.01 0.00
0.01 0.02 0.02 0.06 0.14 0.14 0.14 0.18 0.12 0.05 0.01 0.00 0.00 0.00 0.00 0.00 0.00 0.00 0.00 0.00 0.00 0.00 0.00 0.00 0.00 0.00 0.00 0.00 0.00 0.01 0.03 0.03 0.08 0.13 0.10 0.01 0.00 0.00 0.00 0.00 0.00 0.00 0.01
0.00 0.00 0.00 0.00 0.00 0.00 0.00 0.00 0.00 0.00 0.00 0.00 0.00 0.00 0.00 0.00 0.00 0.00 0.00 0.00 0.00 0.00 0.00 0.00 0.00 0.00 0.00 0.00 0.02 0.03 0.03 0.06 0.10 0.04 0.00 0.00 0.00 0.00 0.00 0.00 0.00 0.00 0.01
0.00 0.00 0.00 0.00 0.00 0.00 0.00 0.00 0.00 0.00 0.00 0.00 0.00 0.00 0.00 0.00 0.00 0.00 0.00 0.00 0.00 0.00 0.00 0.00 0.00 0.00 0.01 0.01 0.01 0.02 0.07 0.09 0.03 0.00 0.00 0.01 0.01 0.02 0.01 0.01 0.02 0.01 0.02

GFSMW_prec_precacc_048.txt.gz
Total_Precipitation_Accumulation
0.00 0.00 0.00 0.00 0.00 0.00 0.00 0.00 0.00 0.00 0.04 0.06 0.06 0.12 0.21 0.21 0.13 0.16 0.19 0.05 0.04 0.07 0.07 0.02 0.00 0.00 0.00 0.00 0.00 0.00 0.00 0.00 0.00 0.00 0.00 0.00 0.00 0.00 0.00 0.00 0.00 0.00 0.00
0.00 0.00 0.00 0.00 0.00 0.00 0.00 0.00 0.00 0.00 0.00 0.01 0.02 0.17 0.29 0.30 0.23 0.23 0.19 0.13 0.15 0.22 0.21 0.04 0.02 0.01 0.00 0.00 0.00 0.00 0.00 0.00 0.00 0.01 0.01 0.01 0.00 0.00 0.00 0.00 0.00 0.00 0.00
0.00 0.00 0.00 0.00 0.00 0.00 0.00 0.00 0.00 0.00 0.00 0.02 0.06 0.16 0.22 0.27 0.27 0.16 0.12 0.17 0.26 0.55 0.41 0.16 0.09 0.04 0.01 0.01 0.01 0.01 0.02 0.01 0.00 0.00 0.02 0.02 0.01 0.01 0.00 0.00 0.00 0.00 0.00
0.00 0.00 0.00 0.00 0.00 0.00 0.00 0.00 0.00 0.00 0.00 0.00 0.01 0.07 0.07 0.13 0.11 0.14 0.23 0.28 0.32 0.50 0.46 0.28 0.17 0.15 0.12 0.11 0.11 0.09 0.08 0.05 0.02 0.00 0.00 0.01 0.02 0.02 0.01 0.01 0.01 0.01 0.00
0.00 0.00 0.00 0.00 0.00 0.00 0.00 0.00 0.00 0.00 0.00 0.00 0.00 0.04 0.10 0.09 0.10 0.15 0.17 0.22 0.29 0.32 0.33 0.25 0.22 0.15 0.13 0.13 0.10 0.08 0.06 0.04 0.03 0.01 0.01 0.00 0.00 0.00 0.01 0.00 0.00 0.00 0.00
0.00 0.00 0.00 0.00 0.00 0.00 0.00 0.00 0.00 0.00 0.00 0.00 0.01 0.01 0.08 0.08 0.06 0.08 0.14 0.16 0.18 0.16 0.16 0.16 0.16 0.14 0.12 0.11 0.10 0.06 0.04 0.02 0.02 0.01 0.01 0.00 0.00 0.01 0.01 0.01 0.00 0.00 0.00
0.00 0.00 0.00 0.00 0.00 0.00 0.00 0.00 0.00 0.00 0.00 0.00 0.00 0.00 0.02 0.09 0.07 0.10 0.14 0.14 0.10 0.08 0.08 0.10 0.11 0.13 0.12 0.10 0.08 0.06 0.04 0.02 0.01 0.01 0.01 0.00 0.00 0.00 0.00 0.01 0.00 0.00 0.00
0.00 0.00 0.00 0.00 0.00 0.00 0.00 0.00 0.00 0.00 0.00 0.00 0.00 0.00 0.00 0.04 0.05 0.06 0.07 0.08 0.10 0.11 0.12 0.12 0.12 0.11 0.09 0.07 0.06 0.05 0.03 0.01 0.01 0.00 0.00 0.00 0.00 0.00 0.00 0.00 0.03 0.02 0.00
0.00 0.00 0.00 0.00 0.00 0.00 0.00 0.00 0.00 0.00 0.00 0.00 0.00 0.00 0.00 0.05 0.05 0.04 0.04 0.06 0.06 0.07 0.09 0.12 0.14 0.14 0.10 0.06 0.04 0.02 0.01 0.01 0.00 0.00 0.00 0.00 0.00 0.00 0.00 0.01 0.04 0.04 0.03
0.00 0.00 0.00 0.00 0.00 0.00 0.00 0.00 0.00 0.00 0.00 0.02 0.02 0.01 0.04 0.04 0.04 0.03 0.03 0.05 0.06 0.06 0.07 0.07 0.08 0.07 0.06 0.04 0.03 0.01 0.01 0.00 0.00 0.00 0.00 0.00 0.00 0.00 0.01 0.01 0.00 0.01 0.01
0.00 0.00 0.00 0.00 0.00 0.00 0.00 0.00 0.00 0.00 0.00 0.01 0.00 0.01 0.03 0.03 0.04 0.04 0.04 0.04 0.04 0.05 0.05 0.05 0.04 0.03 0.03 0.01 0.01 0.00 0.00 0.00 0.00 0.00 0.00 0.00 0.00 0.01 0.02 0.02 0.02 0.01 0.00
0.00 0.00 0.00 0.00 0.00 0.00 0.00 0.00 0.00 0.00 0.01 0.01 0.00 0.01 0.02 0.04 0.05 0.05 0.05 0.06 0.05 0.05 0.04 0.05 0.03 0.02 0.02 0.02 0.01 0.01 0.01 0.02 0.02 0.02 0.02 0.02 0.02 0.02 0.02 0.02 0.01 0.01 0.01
0.00 0.00 0.00 0.00 0.00 0.00 0.02 0.04 0.04 0.01 0.01 0.00 0.01 0.03 0.04 0.06 0.07 0.06 0.06 0.06 0.05 0.04 0.02 0.03 0.03 0.02 0.02 0.02 0.01 0.01 0.02 0.02 0.02 0.02 0.02 0.03 0.04 0.07 0.09 0.06 0.03 0.03 0.03
0.01 0.00 0.00 0.00 0.00 0.01 0.05 0.05 0.04 0.02 0.05 0.05 0.05 0.06 0.06 0.07 0.08 0.07 0.06 0.06 0.06 0.05 0.04 0.02 0.03 0.03 0.04 0.06 0.07 0.08 0.08 0.08 0.10 0.10 0.10 0.11 0.13 0.11 0.07 0.03 0.03 0.03 0.03
0.01 0.00 0.01 0.01 0.01 0.01 0.03 0.04 0.07 0.08 0.08 0.11 0.11 0.09 0.07 0.04 0.04 0.04 0.04 0.04 0.04 0.04 0.04 0.05 0.08 0.09 0.12 0.16 0.19 0.23 0.27 0.23 0.18 0.14 0.12 0.08 0.03 0.01 0.01 0.03 0.04 0.05 0.07
0.02 0.01 0.01 0.00 0.00 0.00 0.01 0.02 0.06 0.10 0.16 0.15 0.10 0.07 0.05 0.05 0.05 0.05 0.05 0.07 0.07 0.09 0.12 0.13 0.10 0.09 0.10 0.19 0.18 0.16 0.17 0.18 0.20 0.18 0.13 0.07 0.03 0.01 0.01 0.02 0.04 0.10 0.27
0.01 0.00 0.00 0.00 0.00 0.00 0.01 0.01 0.03 0.06 0.07 0.06 0.04 0.04 0.06 0.10 0.09 0.06 0.04 0.07 0.17 0.22 0.24 0.27 0.34 0.39 0.40 0.43 0.34 0.27 0.20 0.15 0.09 0.05 0.03 0.01 0.00 0.00 0.01 0.01 0.08 0.27 0.33
0.00 0.00 0.00 0.00 0.00 0.00 0.00 0.01 0.02 0.07 0.16 0.23 0.24 0.20 0.38 0.52 0.33 0.36 0.44 0.48 0.32 0.31 0.32 0.29 0.26 0.30 0.30 0.21 0.10 0.03 0.02 0.02 0.01 0.01 0.00 0.00 0.01 0.02 0.03 0.10 0.34 0.20 0.05
0.01 0.00 0.00 0.00 0.00 0.00 0.00 0.01 0.02 0.04 0.15 0.33 0.58 0.60 0.64 0.66 0.68 0.97 0.87 0.89 0.76 0.61 0.48 0.36 0.29 0.19 0.12 0.07 0.04 0.05 0.05 0.03 0.01 0.00 0.00 0.03 0.03 0.02 0.16 0.27 0.20 0.03 0.00
0.01 0.01 0.00 0.00 0.00 0.00 0.03 0.05 0.04 0.08 0.18 0.26 0.22 0.61 0.77 0.62 0.55 0.57 0.57 0.52 0.30 0.30 0.29 0.21 0.12 0.08 0.04 0.02 0.01 0.01 0.00 0.00 0.00 0.00 0.02 0.02 0.02 0.11 0.36 0.12 0.03 0.02 0.01
0.01 0.01 0.02 0.02 0.04 0.07 0.13 0.25 0.23 0.41 0.53 0.83 0.60 0.64 0.79 0.57 0.41 0.44 0.26 0.21 0.18 0.10 0.07 0.05 0.03 0.01 0.00 0.00 0.00 0.00 0.01 0.01 0.04 0.05 0.01 0.00 0.11 0.29 0.11 0.03 0.01 0.02 0.06
0.23 0.25 0.18 0.14 0.18 0.22 0.37 0.72 0.66 0.65 0.70 0.64 0.67 0.41 0.37 0.26 0.19 0.12 0.09 0.06 0.03 0.02 0.01 0.01 0.00 0.00 0.00 0.00 0.00 0.00 0.01 0.04 0.05 0.03 0.02 0.11 0.22 0.04 0.00 0.00 0.02 0.04 0.03
0.28 0.54 0.49 0.45 0.55 0.41 0.43 0.59 0.46 0.28 0.14 0.17 0.12 0.05 0.02 0.01 0.01 0.01 0.00 0.00 0.00 0.00 0.00 0.00 0.00 0.00 0.00 0.00 0.00 0.00 0.03 0.05 0.05 0.04 0.16 0.14 0.01 0.00 0.00 0.00 0.01 0.01 0.00
0.01 0.02 0.02 0.06 0.14 0.14 0.14 0.18 0.12 0.05 0.01 0.00 0.00 0.00 0.00 0.00 0.00 0.00 0.00 0.00 0.00 0.00 0.00 0.00 0.00 0.00 0.00 0.00 0.00 0.01 0.03 0.03 0.08 0.13 0.10 0.01 0.00 0.00 0.00 0.00 0.00 0.00 0.01
0.00 0.00 0.00 0.00 0.00 0.00 0.00 0.00 0.00 0.00 0.00 0.00 0.00 0.00 0.00 0.00 0.00 0.00 0.00 0.00 0.00 0.00 0.00 0.00 0.00 0.00 0.00 0.00 0.02 0.03 0.03 0.06 0.10 0.04 0.00 0.00 0.00 0.00 0.00 0.00 0.00 0.00 0.01
0.00 0.00 0.00 0.00 0.00 0.00 0.00 0.00 0.00 0.00 0.00 0.00 0.00 0.00 0.00 0.00 0.00 0.00 0.00 0.00 0.00 0.00 0.00 0.00 0.00 0.00 0.01 0.01 0.01 0.02 0.07 0.09 0.03 0.00 0.00 0.01 0.01 0.02 0.01 0.01 0.02 0.01 0.02

GFSMW_prec_precacc_051.txt.gz
Total_Precipitation_Accumulation
0.00 0.00 0.00 0.00 0.00 0.00 0.00 0.00 0.00 0.00 0.04 0.06 0.07 0.13 0.22 0.24 0.14 0.16 0.24 0.06 0.07 0.12 0.09 0.02 0.00 0.00 0.00 0.00 0.00 0.00 0.00 0.00 0.00 0.00 0.00 0.00 0.00 0.00 0.00 0.00 0.00 0.00 0.00
0.00 0.00 0.00 0.00 0.00 0.00 0.00 0.00 0.00 0.00 0.00 0.01 0.02 0.17 0.29 0.31 0.24 0.26 0.20 0.14 0.18 0.27 0.25 0.06 0.05 0.01 0.00 0.00 0.00 0.00 0.00 0.00 0.00 0.01 0.01 0.01 0.00 0.00 0.00 0.00 0.00 0.00 0.00
0.00 0.00 0.00 0.00 0.00 0.00 0.00 0.00 0.00 0.00 0.00 0.02 0.06 0.16 0.22 0.27 0.27 0.16 0.12 0.17 0.26 0.58 0.47 0.19 0.15 0.06 0.01 0.02 0.01 0.01 0.02 0.02 0.01 0.00 0.02 0.02 0.01 0.01 0.00 0.00 0.00 0.00 0.00
0.00 0.00 0.00 0.00 0.00 0.00 0.00 0.00 0.00 0.00 0.00 0.00 0.01 0.07 0.07 0.13 0.11 0.14 0.23 0.28 0.33 0.52 0.53 0.33 0.21 0.21 0.16 0.13 0.14 0.10 0.08 0.06 0.04 0.02 0.01 0.02 0.02 0.02 0.01 0.01 0.01 0.01 0.00
0.00 0.00 0.00 0.00 0.00 0.00 0.00 0.00 0.00 0.00 0.00 0.00 0.00 0.04 0.10 0.09 0.10 0.15 0.17 0.22 0.29 0.33 0.38 0.31 0.27 0.18 0.16 0.15 0.12 0.10 0.07 0.05 0.04 0.03 0.02 0.01 0.00 0.00 0.01 0.00 0.00 0.00 0.00
0.00 0.00 0.00 0.00 0.00 0.00 0.00 0.00 0.00 0.00 0.00 0.00 0.01 0.01 0.08 0.08 0.06 0.09 0.15 0.17 0.19 0.17 0.20 0.22 0.19 0.18 0.15 0.13 0.13 0.10 0.08 0.05 0.04 0.02 0.01 0.01 0.01 0.01 0.01 0.01 0.00 0.00 0.00
0.00 0.00 0.00 0.00 0.00 0.00 0.00 0.00 0.00 0.00 0.00 0.00 0.00 0.00 0.02 0.09 0.07 0.10 0.15 0.14 0.10 0.08 0.09 0.15 0.17 0.16 0.17 0.16 0.14 0.11 0.08 0.06 0.04 0.02 0.01 0.01 0.00 0.00 0.01 0.01 0.00 0.00 0.00
0.00 0.00 0.00 0.00 0.00 0.00 0.00 0.00 0.00 0.00 0.00 0.00 0.00 0.00 0.00 0.04 0.05 0.06 0.07 0.08 0.10 0.11 0.12 0.14 0.17 0.19 0.19 0.16 0.13 0.10 0.07 0.04 0.03 0.02 0.01 0.00 0.00 0.00 0.00 0.00 0.03 0.02 0.00
0.00 0.00 0.00 0.00 0.00 0.00 0.00 0.00 0.00 0.00 0.00 0.00 0.00 0.00 0.00 0.05 0.05 0.04 0.04 0.06 0.06 0.07 0.09 0.12 0.14 0.17 0.19 0.19 0.18 0.11 0.06 0.04 0.02 0.00 0.00 0.00 0.00 0.00 0.00 0.02 0.05 0.05 0.03
0.00 0.00 0.00 0.00 0.00 0.00 0.00 0.00 0.00 0.00 0.00 0.02 0.02 0.01 0.04 0.04 0.04 0.03 0.03 0.05 0.06 0.06 0.07 0.07 0.08 0.08 0.09 0.12 0.15 0.15 0.14 0.10 0.02 0.00 0.00 0.00 0.00 0.00 0.01 0.02 0.01 0.01 0.02
0.00 0.00 0.00 0.00 0.00 0.00 0.00 0.00 0.00 0.00 0.00 0.01 0.00 0.01 0.03 0.03 0.04 0.04 0.04 0.04 0.04 0.05 0.05 0.05 0.04 0.03 0.03 0.02 0.02 0.03 0.02 0.01 0.01 0.00 0.00 0.00 0.01 0.01 0.02 0.02 0.03 0.04 0.05
0.00 0.00 0.00 0.00 0.00 0.00 0.00 0.00 0.00 0.00 0.01 0.01 0.00 0.01 0.02 0.04 0.05 0.05 0.05 0.06 0.05 0.05 0.04 0.05 0.03 0.02 0.02 0.02 0.01 0.02 0.02 0.02 0.02 0.02 0.02 0.02 0.02 0.03 0.03 0.04 0.06 0.08 0.08
0.00 0.00 0.00 0.00 0.00 0.00 0.02 0.04 0.04 0.01 0.01 0.00 0.01 0.03 0.04 0.06 0.07 0.06 0.06 0.06 0.05 0.04 0.02 0.03 0.03 0.02 0.02 0.02 0.02 0.02 0.02 0.02 0.02 0.03 0.04 0.06 0.07 0.11 0.15 0.14 0.12 0.11 0.08
0.01 0.00 0.00 0.00 0.00 0.01 0.05 0.05 0.04 0.02 0.05 0.05 0.05 0.06 0.06 0.07 0.08 0.08 0.06 0.06 0.06 0.05 0.04 0.02 0.03 0.03 0.04 0.06 0.07 0.08 0.09 0.10 0.12 0.13 0.15 0.18 0.22 0.24 0.18 0.10 0.07 0.06 0.05
0.01 0.00 0.01 0.01 0.01 0.01 0.03 0.04 0.07 0.08 0.08 0.11 0.11 0.09 0.07 0.05 0.05 0.05 0.05 0.04 0.04 0.04 0.04 0.06 0.08 0.10 0.13 0.17 0.20 0.24 0.31 0.30 0.26 0.23 0.22 0.21 0.17 0.14 0.10 0.09 0.08 0.07 0.07
0.02 0.01 0.01 0.00 0.00 0.00 0.01 0.02 0.06 0.10 0.16 0.15 0.10 0.07 0.06 0.06 0.06 0.06 0.06 0.07 0.08 0.10 0.14 0.16 0.12 0.11 0.12 0.22 0.21 0.18 0.21 0.24 0.28 0.29 0.22 0.17 0.12 0.07 0.04 0.04 0.05 0.10 0.27
0.01 0.00 0.00 0.00 0.00 0.00 0.01 0.01 0.03 0.06 0.07 0.06 0.04 0.04 0.07 0.10 0.09 0.07 0.05 0.08 0.21 0.37 0.31 0.34 0.42 0.52 0.56 0.59 0.42 0.31 0.22 0.18 0.15 0.10 0.07 0.05 0.02 0.01 0.02 0.02 0.08 0.27 0.33
0.00 0.00 0.00 0.00 0.00 0.00 0.00 0.01 0.02 0.07 0.16 0.23 0.24 0.20 0.38 0.53 0.36 0.40 0.47 0.50 0.34 0.39 0.47 0.35 0.37 0.39 0.40 0.32 0.19 0.10 0.07 0.06 0.05 0.04 0.03 0.02 0.02 0.02 0.03 0.10 0.34 0.20 0.05
0.01 0.00 0.00 0.00 0.00 0.00 0.00 0.01 0.02 0.04 0.15 0.33 0.58 0.60 0.65 0.67 0.72 1.06 0.99 1.11 0.99 0.76 0.62 0.50 0.45 0.30 0.21 0.14 0.09 0.09 0.09 0.07 0.05 0.02 0.01 0.03 0.03 0.02 0.16 0.27 0.20 0.03 0.00
0.01 0.01 0.00 0.00 0.00 0.00 0.03 0.05 0.04 0.08 0.18 0.26 0.22 0.61 0.77 0.63 0.57 0.61 0.62 0.64 0.42 0.43 0.46 0.36 0.23 0.17 0.12 0.09 0.07 0.06 0.04 0.02 0.00 0.00 0.02 0.02 0.02 0.11 0.36 0.12 0.03 0.02 0.01
0.01 0.01 0.02 0.02 0.04 0.07 0.13 0.25 0.23 0.41 0.53 0.84 0.62 0.65 0.80 0.63 0.46 0.53 0.34 0.32 0.33 0.25 0.16 0.12 0.09 0.05 0.02 0.01 0.00 0.00 0.01 0.01 0.04 0.05 0.01 0.00 0.11 0.29 0.11 0.03 0.01 0.02 0.06
0.23 0.25 0.18 0.14 0.18 0.22 0.37 0.72 0.66 0.65 0.70 0.64 0.69 0.44 0.40 0.30 0.21 0.14 0.13 0.10 0.05 0.03 0.02 0.01 0.00 0.00 0.00 0.00 0.00 0.00 0.01 0.04 0.05 0.03 0.02 0.11 0.22 0.04 0.00 0.00 0.02 0.04 0.03
0.28 0.54 0.49 0.45 0.55 0.41 0.43 0.59 0.46 0.28 0.14 0.17 0.12 0.05 0.02 0.02 0.01 0.01 0.00 0.00 0.00 0.00 0.00 0.00 0.00 0.00 0.00 0.00 0.00 0.00 0.03 0.05 0.05 0.04 0.16 0.14 0.01 0.00 0.00 0.00 0.01 0.01 0.00
0.01 0.02 0.02 0.06 0.14 0.14 0.14 0.18 0.12 0.05 0.01 0.00 0.00 0.00 0.00 0.00 0.00 0.00 0.00 0.00 0.00 0.00 0.00 0.00 0.00 0.00 0.00 0.00 0.00 0.01 0.03 0.03 0.08 0.13 0.10 0.01 0.00 0.00 0.00 0.00 0.00 0.00 0.01
0.00 0.00 0.00 0.00 0.00 0.00 0.00 0.00 0.00 0.00 0.00 0.00 0.00 0.00 0.00 0.00 0.00 0.00 0.00 0.00 0.00 0.00 0.00 0.00 0.00 0.00 0.00 0.00 0.02 0.03 0.03 0.06 0.10 0.04 0.00 0.00 0.00 0.00 0.00 0.00 0.00 0.00 0.01
0.00 0.00 0.00 0.00 0.00 0.00 0.00 0.00 0.00 0.00 0.00 0.00 0.00 0.00 0.00 0.00 0.00 0.00 0.00 0.00 0.00 0.00 0.00 0.00 0.00 0.00 0.01 0.01 0.01 0.02 0.07 0.09 0.03 0.00 0.00 0.01 0.01 0.02 0.01 0.01 0.02 0.01 0.02

GFSMW_prec_precacc_054.txt.gz
Total_Precipitation_Accumulation
0.00 0.00 0.00 0.00 0.00 0.00 0.00 0.00 0.00 0.00 0.04 0.07 0.07 0.13 0.22 0.24 0.14 0.16 0.26 0.10 0.11 0.14 0.12 0.04 0.01 0.00 0.00 0.00 0.00 0.00 0.00 0.00 0.00 0.00 0.00 0.00 0.00 0.00 0.00 0.00 0.00 0.00 0.00
0.00 0.00 0.00 0.00 0.00 0.00 0.00 0.00 0.00 0.00 0.00 0.01 0.02 0.17 0.29 0.31 0.24 0.28 0.21 0.15 0.19 0.28 0.26 0.07 0.07 0.03 0.01 0.00 0.00 0.00 0.00 0.00 0.00 0.01 0.01 0.01 0.00 0.00 0.00 0.00 0.00 0.00 0.00
0.00 0.00 0.00 0.00 0.00 0.00 0.00 0.00 0.00 0.00 0.00 0.02 0.06 0.16 0.22 0.27 0.28 0.16 0.12 0.17 0.26 0.58 0.49 0.23 0.17 0.13 0.04 0.02 0.01 0.01 0.02 0.02 0.01 0.00 0.02 0.02 0.01 0.01 0.00 0.00 0.00 0.00 0.00
0.00 0.00 0.00 0.00 0.00 0.00 0.00 0.00 0.00 0.00 0.00 0.00 0.01 0.07 0.07 0.13 0.11 0.14 0.23 0.28 0.33 0.53 0.57 0.38 0.24 0.25 0.21 0.15 0.16 0.10 0.08 0.06 0.04 0.02 0.01 0.02 0.02 0.02 0.01 0.01 0.01 0.01 0.00
0.00 0.00 0.00 0.00 0.00 0.00 0.00 0.00 0.00 0.00 0.00 0.00 0.00 0.04 0.10 0.09 0.10 0.15 0.17 0.22 0.29 0.33 0.40 0.35 0.32 0.21 0.19 0.20 0.15 0.12 0.09 0.06 0.04 0.03 0.03 0.01 0.00 0.00 0.01 0.00 0.00 0.00 0.00
0.00 0.00 0.00 0.00 0.00 0.00 0.00 0.00 0.00 0.00 0.00 0.00 0.01 0.01 0.08 0.08 0.06 0.09 0.15 0.17 0.19 0.17 0.22 0.24 0.22 0.22 0.18 0.16 0.16 0.15 0.14 0.09 0.06 0.04 0.02 0.01 0.01 0.01 0.01 0.01 0.00 0.00 0.00
0.00 0.00 0.00 0.00 0.00 0.00 0.00 0.00 0.00 0.00 0.00 0.00 0.00 0.00 0.02 0.09 0.07 0.10 0.15 0.15 0.10 0.08 0.09 0.17 0.18 0.18 0.20 0.22 0.20 0.17 0.14 0.11 0.08 0.05 0.04 0.02 0.01 0.01 0.01 0.01 0.01 0.00 0.00
0.00 0.00 0.00 0.00 0.00 0.00 0.00 0.00 0.00 0.00 0.00 0.00 0.00 0.00 0.00 0.04 0.05 0.06 0.07 0.08 0.11 0.11 0.12 0.14 0.17 0.20 0.20 0.18 0.17 0.16 0.14 0.11 0.08 0.06 0.05 0.02 0.02 0.01 0.01 0.01 0.03 0.02 0.00
0.00 0.00 0.00 0.00 0.00 0.00 0.00 0.00 0.00 0.00 0.00 0.00 0.00 0.00 0.00 0.05 0.05 0.04 0.04 0.06 0.06 0.07 0.09 0.12 0.14 0.17 0.20 0.21 0.21 0.16 0.14 0.12 0.09 0.05 0.02 0.01 0.01 0.01 0.01 0.02 0.05 0.06 0.05
0.00 0.00 0.00 0.00 0.00 0.00 0.00 0.00 0.00 0.00 0.00 0.02 0.02 0.01 0.04 0.04 0.04 0.03 0.03 0.05 0.06 0.06 0.07 0.07 0.08 0.08 0.09 0.12 0.16 0.16 0.19 0.20 0.22 0.21 0.19 0.18 0.11 0.04 0.01 0.02 0.02 0.02 0.03
0.00 0.00 0.00 0.00 0.00 0.00 0.00 0.00 0.00 0.00 0.00 0.01 0.00 0.01 0.03 0.03 0.04 0.04 0.04 0.04 0.04 0.05 0.05 0.05 0.04 0.03 0.03 0.02 0.02 0.03 0.03 0.04 0.04 0.04 0.06 0.09 0.08 0.07 0.05 0.04 0.04 0.06 0.07
0.00 0.00 0.00 0.00 0.00 0.00 0.00 0.00 0.00 0.00 0.01 0.01 0.00 0.01 0.02 0.04 0.05 0.05 0.05 0.06 0.05 0.05 0.04 0.05 0.03 0.02 0.02 0.02 0.02 0.02 0.02 0.03 0.03 0.03 0.03 0.03 0.03 0.04 0.04 0.05 0.08 0.13 0.16
0.00 0.00 0.00 0.00 0.00 0.00 0.02 0.04 0.04 0.01 0.01 0.00 0.01 0.03 0.04 0.06 0.07 0.06 0.06 0.06 0.05 0.04 0.02 0.03 0.03 0.02 0.02 0.02 0.02 0.02 0.02 0.03 0.03 0.04 0.05 0.06 0.08 0.13 0.19 0.22 0.25 0.26 0.24
0.01 0.00 0.00 0.00 0.00 0.01 0.05 0.05 0.04 0.02 0.05 0.05 0.05 0.06 0.06 0.07 0.08 0.08 0.06 0.07 0.07 0.06 0.05 0.04 0.03 0.03 0.04 0.06 0.07 0.08 0.09 0.11 0.14 0.16 0.17 0.21 0.27 0.30 0.29 0.26 0.21 0.16 0.11
0.01 0.00 0.01 0.01 0.01 0.01 0.03 0.04 0.07 0.08 0.08 0.11 0.11 0.09 0.07 0.05 0.05 0.06 0.05 0.05 0.05 0.06 0.06 0.06 0.09 0.10 0.13 0.17 0.20 0.25 0.31 0.33 0.31 0.30 0.30 0.32 0.32 0.28 0.21 0.15 0.12 0.10 0.09
0.02 0.01 0.01 0.00 0.00 0.00 0.01 0.02 0.06 0.10 0.16 0.15 0.10 0.07 0.06 0.06 0.07 0.06 0.06 0.08 0.09 0.11 0.15 0.16 0.13 0.12 0.13 0.26 0.22 0.19 0.22 0.26 0.30 0.33 0.34 0.32 0.25 0.15 0.09 0.06 0.06 0.11 0.27
0.01 0.00 0.00 0.00 0.00 0.00 0.01 0.01 0.03 0.06 0.07 0.06 0.04 0.04 0.07 0.10 0.09 0.07 0.05 0.08 0.23 0.38 0.31 0.36 0.44 0.56 0.61 0.65 0.49 0.38 0.28 0.27 0.24 0.17 0.12 0.07 0.03 0.02 0.02 0.02 0.08 0.27 0.33
0.00 0.00 0.00 0.00 0.00 0.00 0.00 0.01 0.02 0.07 0.16 0.23 0.24 0.20 0.38 0.53 0.37 0.44 0.55 0.61 0.40 0.41 0.52 0.45 0.47 0.58 0.72 0.58 0.33 0.29 0.29 0.23 0.15 0.10 0.05 0.03 0.02 0.02 0.04 0.10 0.34 0.20 0.05
0.01 0.00 0.00 0.00 0.00 0.00 0.00 0.01 0.02 0.04 0.15 0.33 0.58 0.60 0.65 0.67 0.73 1.09 1.03 1.18 1.07 0.83 0.68 0.55 0.52 0.42 0.31 0.21 0.13 0.11 0.11 0.09 0.07 0.03 0.01 0.03 0.03 0.02 0.16 0.27 0.20 0.03 0.00
0.01 0.01 0.00 0.00 0.00 0.00 0.03 0.05 0.04 0.08 0.18 0.26 0.22 0.61 0.77 0.63 0.58 0.63 0.64 0.72 0.50 0.51 0.57 0.49 0.31 0.25 0.17 0.12 0.09 0.08 0.06 0.03 0.01 0.01 0.02 0.02 0.02 0.11 0.36 0.13 0.03 0.02 0.01
0.01 0.01 0.02 0.02 0.04 0.07 0.13 0.25 0.23 0.41 0.53 0.84 0.62 0.66 0.80 0.64 0.47 0.54 0.36 0.35 0.38 0.30 0.20 0.14 0.10 0.05 0.03 0.01 0.00 0.01 0.01 0.01 0.04 0.05 0.01 0.00 0.11 0.29 0.11 0.03 0.01 0.02 0.06
0.23 0.25 0.18 0.14 0.18 0.22 0.37 0.72 0.66 0.65 0.70 0.64 0.69 0.44 0.40 0.30 0.22 0.15 0.14 0.10 0.05 0.03 0.02 0.01 0.00 0.00 0.00 0.00 0.00 0.00 0.01 0.04 0.05 0.03 0.02 0.11 0.22 0.04 0.00 0.00 0.02 0.04 0.03
0.28 0.54 0.49 0.45 0.55 0.41 0.43 0.59 0.46 0.28 0.14 0.17 0.12 0.05 0.02 0.02 0.01 0.01 0.00 0.00 0.00 0.00 0.00 0.00 0.00 0.00 0.00 0.00 0.00 0.00 0.03 0.05 0.05 0.04 0.16 0.14 0.01 0.00 0.00 0.00 0.01 0.01 0.00
0.01 0.02 0.02 0.06 0.14 0.14 0.14 0.18 0.12 0.05 0.01 0.00 0.00 0.00 0.00 0.00 0.00 0.00 0.00 0.00 0.00 0.00 0.00 0.00 0.00 0.00 0.00 0.00 0.00 0.01 0.03 0.03 0.08 0.13 0.10 0.01 0.00 0.00 0.00 0.00 0.00 0.00 0.01
0.00 0.00 0.00 0.00 0.00 0.00 0.00 0.00 0.00 0.00 0.00 0.00 0.00 0.00 0.00 0.00 0.00 0.00 0.00 0.00 0.00 0.00 0.00 0.00 0.00 0.00 0.00 0.00 0.02 0.03 0.03 0.06 0.10 0.04 0.00 0.00 0.00 0.00 0.00 0.00 0.00 0.00 0.01
0.00 0.00 0.00 0.00 0.00 0.00 0.00 0.00 0.00 0.00 0.00 0.00 0.00 0.00 0.00 0.00 0.00 0.00 0.00 0.00 0.00 0.00 0.00 0.00 0.00 0.00 0.01 0.01 0.01 0.02 0.07 0.09 0.03 0.00 0.00 0.01 0.01 0.02 0.01 0.01 0.02 0.01 0.02

GFSMW_prec_precacc_057.txt.gz
Total_Precipitation_Accumulation
0.00 0.00 0.00 0.00 0.00 0.00 0.00 0.00 0.00 0.00 0.04 0.07 0.07 0.14 0.22 0.25 0.15 0.16 0.26 0.10 0.11 0.14 0.12 0.04 0.01 0.00 0.00 0.00 0.00 0.00 0.00 0.00 0.00 0.00 0.00 0.00 0.00 0.00 0.00 0.00 0.00 0.00 0.00
0.00 0.00 0.00 0.00 0.00 0.00 0.00 0.00 0.00 0.00 0.00 0.01 0.02 0.17 0.29 0.31 0.24 0.29 0.21 0.15 0.19 0.28 0.26 0.08 0.07 0.03 0.01 0.00 0.00 0.00 0.00 0.00 0.00 0.01 0.01 0.01 0.00 0.00 0.00 0.00 0.00 0.00 0.00
0.00 0.00 0.00 0.00 0.00 0.00 0.00 0.00 0.00 0.00 0.00 0.02 0.06 0.16 0.22 0.27 0.28 0.16 0.12 0.17 0.27 0.59 0.49 0.24 0.17 0.14 0.04 0.02 0.01 0.01 0.03 0.02 0.01 0.00 0.02 0.02 0.01 0.01 0.00 0.00 0.00 0.00 0.00
0.00 0.00 0.00 0.00 0.00 0.00 0.00 0.00 0.00 0.00 0.00 0.00 0.01 0.07 0.07 0.13 0.11 0.14 0.23 0.28 0.34 0.55 0.62 0.42 0.26 0.27 0.23 0.16 0.16 0.11 0.11 0.07 0.04 0.02 0.01 0.02 0.02 0.02 0.01 0.01 0.01 0.01 0.00
0.00 0.00 0.00 0.00 0.00 0.00 0.00 0.00 0.00 0.00 0.00 0.00 0.00 0.04 0.10 0.09 0.10 0.15 0.17 0.22 0.29 0.33 0.41 0.36 0.35 0.25 0.22 0.23 0.18 0.14 0.12 0.10 0.06 0.05 0.04 0.01 0.00 0.00 0.01 0.00 0.00 0.00 0.00
0.00 0.00 0.00 0.00 0.00 0.00 0.00 0.00 0.00 0.00 0.00 0.00 0.01 0.01 0.08 0.08 0.06 0.09 0.15 0.17 0.19 0.18 0.22 0.24 0.22 0.22 0.19 0.17 0.21 0.21 0.20 0.14 0.10 0.06 0.04 0.03 0.03 0.02 0.02 0.02 0.00 0.00 0.00
0.00 0.00 0.00 0.00 0.00 0.00 0.00 0.00 0.00 0.00 0.00 0.00 0.00 0.00 0.02 0.09 0.07 0.10 0.15 0.15 0.11 0.08 0.09 0.17 0.19 0.19 0.21 0.25 0.24 0.21 0.16 0.16 0.14 0.09 0.06 0.04 0.03 0.02 0.03 0.03 0.01 0.01 0.00
0.00 0.00 0.00 0.00 0.00 0.00 0.00 0.00 0.00 0.00 0.00 0.00 0.00 0.00 0.00 0.04 0.05 0.06 0.07 0.08 0.11 0.11 0.12 0.14 0.17 0.21 0.21 0.20 0.19 0.18 0.16 0.14 0.13 0.12 0.09 0.07 0.07 0.05 0.04 0.05 0.09 0.09 0.03
0.00 0.00 0.00 0.00 0.00 0.00 0.00 0.00 0.00 0.00 0.00 0.00 0.00 0.00 0.00 0.05 0.05 0.04 0.04 0.06 0.06 0.07 0.09 0.12 0.14 0.17 0.20 0.22 0.23 0.20 0.16 0.15 0.12 0.09 0.07 0.05 0.05 0.05 0.05 0.08 0.15 0.23 0.25
0.00 0.00 0.00 0.00 0.00 0.00 0.00 0.00 0.00 0.00 0.00 0.02 0.02 0.01 0.04 0.04 0.04 0.03 0.03 0.05 0.06 0.06 0.07 0.07 0.08 0.08 0.10 0.14 0.19 0.20 0.23 0.25 0.26 0.26 0.24 0.23 0.24 0.24 0.27 0.31 0.33 0.31 0.28
0.00 0.00 0.00 0.00 0.00 0.00 0.00 0.00 0.00 0.00 0.00 0.01 0.00 0.01 0.03 0.03 0.04 0.04 0.04 0.04 0.04 0.05 0.05 0.05 0.04 0.04 0.03 0.03 0.04 0.04 0.05 0.07 0.07 0.07 0.08 0.11 0.15 0.19 0.21 0.20 0.17 0.15 0.15
0.00 0.00 0.00 0.00 0.00 0.00 0.00 0.00 0.00 0.00 0.01 0.01 0.00 0.01 0.02 0.04 0.05 0.05 0.05 0.06 0.05 0.05 0.04 0.05 0.03 0.02 0.02 0.03 0.02 0.03 0.04 0.04 0.06 0.05 0.05 0.04 0.05 0.06 0.06 0.08 0.13 0.16 0.19
0.00 0.00 0.00 0.00 0.00 0.00 0.02 0.04 0.04 0.01 0.01 0.00 0.01 0.03 0.04 0.06 0.07 0.06 0.06 0.06 0.05 0.04 0.02 0.03 0.03 0.02 0.02 0.03 0.02 0.03 0.03 0.03 0.04 0.05 0.06 0.08 0.10 0.15 0.21 0.25 0.29 0.32 0.31
0.01 0.00 0.00 0.00 0.00 0.01 0.05 0.05 0.04 0.02 0.05 0.05 0.05 0.06 0.06 0.07 0.08 0.08 0.06 0.07 0.07 0.06 0.05 0.04 0.04 0.04 0.05 0.07 0.08 0.09 0.10 0.13 0.15 0.17 0.19 0.23 0.29 0.33 0.36 0.36 0.32 0.27 0.22
0.01 0.00 0.01 0.01 0.01 0.01 0.03 0.04 0.07 0.08 0.08 0.11 0.11 0.09 0.07 0.05 0.05 0.06 0.05 0.05 0.05 0.06 0.06 0.06 0.09 0.11 0.13 0.18 0.21 0.25 0.33 0.35 0.33 0.31 0.32 0.35 0.40 0.42 0.37 0.31 0.26 0.21 0.15
0.02 0.01 0.01 0.00 0.00 0.00 0.01 0.02 0.06 0.10 0.16 0.15 0.10 0.07 0.06 0.06 0.07 0.06 0.06 0.08 0.09 0.11 0.15 0.17 0.13 0.13 0.14 0.27 0.23 0.19 0.22 0.27 0.31 0.35 0.36 0.37 0.34 0.22 0.15 0.11 0.09 0.12 0.28
0.01 0.00 0.00 0.00 0.00 0.00 0.01 0.01 0.03 0.06 0.07 0.06 0.04 0.04 0.07 0.10 0.09 0.07 0.05 0.09 0.23 0.40 0.36 0.38 0.47 0.61 0.67 0.70 0.51 0.40 0.29 0.29 0.27 0.24 0.19 0.13 0.06 0.04 0.03 0.02 0.08 0.27 0.33
0.00 0.00 0.00 0.00 0.00 0.00 0.00 0.01 0.02 0.07 0.16 0.23 0.24 0.20 0.38 0.53 0.37 0.44 0.56 0.63 0.43 0.44 0.56 0.50 0.64 0.69 0.81 0.72 0.51 0.42 0.40 0.32 0.25 0.20 0.14 0.09 0.06 0.04 0.04 0.10 0.34 0.20 0.05
0.01 0.00 0.00 0.00 0.00 0.00 0.00 0.01 0.02 0.04 0.15 0.33 0.58 0.61 0.65 0.67 0.73 1.09 1.03 1.18 1.08 0.85 0.71 0.58 0.54 0.45 0.36 0.26 0.19 0.14 0.13 0.10 0.08 0.04 0.02 0.04 0.03 0.02 0.16 0.27 0.20 0.03 0.00
0.01 0.01 0.00 0.00 0.00 0.00 0.03 0.05 0.04 0.08 0.18 0.26 0.22 0.61 0.78 0.63 0.58 0.63 0.64 0.72 0.50 0.52 0.60 0.53 0.35 0.28 0.20 0.14 0.09 0.08 0.06 0.03 0.01 0.01 0.02 0.02 0.02 0.11 0.36 0.13 0.03 0.02 0.01
0.01 0.01 0.02 0.02 0.04 0.07 0.13 0.25 0.23 0.41 0.53 0.84 0.62 0.66 0.80 0.64 0.47 0.54 0.36 0.35 0.38 0.30 0.21 0.14 0.10 0.05 0.03 0.01 0.00 0.01 0.01 0.01 0.04 0.05 0.01 0.00 0.11 0.29 0.11 0.03 0.01 0.02 0.06
0.23 0.25 0.18 0.14 0.18 0.22 0.37 0.72 0.66 0.65 0.70 0.64 0.69 0.44 0.40 0.30 0.22 0.15 0.14 0.10 0.05 0.03 0.02 0.01 0.00 0.00 0.00 0.00 0.00 0.00 0.01 0.04 0.05 0.03 0.02 0.11 0.22 0.04 0.00 0.00 0.02 0.04 0.03
0.28 0.54 0.49 0.45 0.55 0.41 0.43 0.59 0.46 0.28 0.14 0.17 0.12 0.05 0.02 0.02 0.01 0.01 0.00 0.00 0.00 0.00 0.00 0.00 0.00 0.00 0.00 0.00 0.00 0.00 0.03 0.05 0.05 0.04 0.16 0.14 0.01 0.00 0.00 0.00 0.01 0.01 0.00
0.01 0.02 0.02 0.06 0.14 0.14 0.14 0.18 0.12 0.05 0.01 0.00 0.00 0.00 0.00 0.00 0.00 0.00 0.00 0.00 0.00 0.00 0.00 0.00 0.00 0.00 0.00 0.00 0.00 0.01 0.03 0.03 0.08 0.13 0.10 0.01 0.00 0.00 0.00 0.00 0.00 0.00 0.01
0.00 0.00 0.00 0.00 0.00 0.00 0.00 0.00 0.00 0.00 0.00 0.00 0.00 0.00 0.00 0.00 0.00 0.00 0.00 0.00 0.00 0.00 0.00 0.00 0.00 0.00 0.00 0.00 0.02 0.03 0.03 0.06 0.10 0.04 0.00 0.00 0.00 0.00 0.00 0.00 0.00 0.00 0.01
0.00 0.00 0.00 0.00 0.00 0.00 0.00 0.00 0.00 0.00 0.00 0.00 0.00 0.00 0.00 0.00 0.00 0.00 0.00 0.00 0.00 0.00 0.00 0.00 0.00 0.00 0.01 0.01 0.01 0.02 0.07 0.09 0.03 0.00 0.00 0.01 0.01 0.02 0.01 0.01 0.02 0.01 0.02

GFSMW_prec_precacc_060.txt.gz
Total_Precipitation_Accumulation
0.00 0.00 0.00 0.00 0.00 0.00 0.00 0.00 0.00 0.00 0.04 0.07 0.08 0.16 0.23 0.26 0.15 0.16 0.26 0.10 0.12 0.16 0.15 0.05 0.02 0.00 0.00 0.00 0.00 0.00 0.00 0.00 0.00 0.00 0.00 0.00 0.00 0.00 0.00 0.00 0.00 0.00 0.00
0.00 0.00 0.00 0.00 0.00 0.00 0.00 0.00 0.00 0.00 0.00 0.01 0.02 0.18 0.29 0.31 0.25 0.29 0.22 0.19 0.22 0.30 0.28 0.12 0.11 0.07 0.03 0.01 0.00 0.01 0.02 0.00 0.00 0.01 0.01 0.01 0.00 0.00 0.00 0.00 0.00 0.00 0.00
0.00 0.00 0.00 0.00 0.00 0.00 0.00 0.00 0.00 0.00 0.00 0.02 0.06 0.16 0.22 0.27 0.28 0.17 0.13 0.18 0.29 0.63 0.51 0.25 0.21 0.17 0.06 0.06 0.03 0.06 0.10 0.04 0.02 0.00 0.02 0.02 0.01 0.01 0.00 0.00 0.00 0.00 0.00
0.00 0.00 0.00 0.00 0.00 0.00 0.00 0.00 0.00 0.00 0.00 0.00 0.01 0.07 0.07 0.13 0.11 0.14 0.23 0.28 0.34 0.56 0.66 0.46 0.29 0.29 0.24 0.17 0.18 0.13 0.21 0.15 0.06 0.04 0.02 0.03 0.02 0.02 0.01 0.01 0.01 0.01 0.00
0.00 0.00 0.00 0.00 0.00 0.00 0.00 0.00 0.00 0.00 0.00 0.00 0.00 0.04 0.10 0.09 0.10 0.15 0.17 0.22 0.29 0.33 0.41 0.37 0.36 0.25 0.23 0.26 0.20 0.16 0.16 0.18 0.15 0.09 0.09 0.05 0.01 0.00 0.01 0.01 0.00 0.00 0.00
0.00 0.00 0.00 0.00 0.00 0.00 0.00 0.00 0.00 0.00 0.00 0.00 0.01 0.01 0.08 0.08 0.06 0.09 0.15 0.17 0.19 0.18 0.23 0.24 0.22 0.23 0.20 0.18 0.23 0.23 0.23 0.19 0.18 0.12 0.08 0.08 0.07 0.04 0.04 0.03 0.01 0.00 0.00
0.00 0.00 0.00 0.00 0.00 0.00 0.00 0.00 0.00 0.00 0.00 0.00 0.00 0.00 0.02 0.09 0.07 0.10 0.15 0.15 0.11 0.08 0.10 0.20 0.21 0.20 0.22 0.26 0.25 0.22 0.18 0.21 0.22 0.17 0.12 0.11 0.10 0.08 0.07 0.06 0.03 0.01 0.00
0.00 0.00 0.00 0.00 0.00 0.00 0.00 0.00 0.00 0.00 0.00 0.00 0.00 0.00 0.00 0.04 0.05 0.06 0.07 0.08 0.11 0.11 0.13 0.16 0.20 0.24 0.22 0.21 0.21 0.20 0.18 0.17 0.18 0.19 0.19 0.14 0.12 0.11 0.10 0.11 0.14 0.13 0.10
0.00 0.00 0.00 0.00 0.00 0.00 0.00 0.00 0.00 0.00 0.00 0.00 0.00 0.00 0.00 0.05 0.05 0.04 0.04 0.06 0.06 0.07 0.09 0.12 0.15 0.17 0.21 0.23 0.26 0.22 0.19 0.19 0.17 0.16 0.18 0.14 0.10 0.08 0.10 0.13 0.18 0.28 0.35
0.00 0.00 0.00 0.00 0.00 0.00 0.00 0.00 0.00 0.00 0.00 0.02 0.02 0.01 0.04 0.04 0.04 0.03 0.03 0.05 0.06 0.06 0.07 0.07 0.08 0.08 0.10 0.14 0.21 0.22 0.26 0.29 0.31 0.33 0.33 0.32 0.30 0.29 0.30 0.33 0.40 0.50 0.60
0.00 0.00 0.00 0.00 0.00 0.00 0.00 0.00 0.00 0.00 0.00 0.01 0.00 0.01 0.03 0.03 0.04 0.04 0.04 0.04 0.04 0.05 0.05 0.05 0.04 0.04 0.03 0.03 0.04 0.05 0.06 0.08 0.09 0.11 0.13 0.16 0.19 0.24 0.27 0.26 0.29 0.33 0.37
0.00 0.00 0.00 0.00 0.00 0.00 0.00 0.00 0.00 0.00 0.01 0.01 0.00 0.01 0.02 0.04 0.05 0.05 0.05 0.06 0.05 0.05 0.04 0.05 0.03 0.02 0.02 0.03 0.02 0.04 0.04 0.05 0.07 0.06 0.07 0.08 0.07 0.09 0.10 0.14 0.20 0.27 0.32
0.00 0.00 0.00 0.00 0.00 0.00 0.02 0.04 0.04 0.01 0.01 0.00 0.01 0.03 0.04 0.06 0.07 0.06 0.06 0.06 0.05 0.04 0.02 0.03 0.03 0.02 0.02 0.03 0.02 0.03 0.03 0.04 0.05 0.06 0.07 0.10 0.12 0.17 0.22 0.27 0.31 0.34 0.33
0.01 0.00 0.00 0.00 0.00 0.01 0.05 0.05 0.04 0.02 0.05 0.05 0.05 0.06 0.06 0.07 0.08 0.08 0.06 0.07 0.07 0.06 0.05 0.04 0.04 0.04 0.05 0.07 0.08 0.09 0.10 0.13 0.16 0.17 0.20 0.24 0.30 0.34 0.37 0.37 0.35 0.31 0.27
0.01 0.00 0.01 0.01 0.01 0.01 0.03 0.04 0.07 0.08 0.08 0.11 0.11 0.09 0.07 0.05 0.05 0.06 0.05 0.05 0.05 0.06 0.06 0.06 0.09 0.11 0.13 0.18 0.21 0.25 0.33 0.36 0.36 0.35 0.36 0.37 0.43 0.44 0.40 0.35 0.31 0.25 0.20
0.02 0.01 0.01 0.00 0.00 0.00 0.01 0.02 0.06 0.10 0.16 0.15 0.10 0.07 0.06 0.06 0.07 0.06 0.06 0.08 0.09 0.11 0.15 0.17 0.13 0.13 0.14 0.29 0.23 0.20 0.23 0.28 0.33 0.37 0.41 0.44 0.39 0.25 0.19 0.15 0.12 0.15 0.29
0.01 0.00 0.00 0.00 0.00 0.00 0.01 0.01 0.03 0.06 0.07 0.06 0.04 0.04 0.07 0.10 0.09 0.07 0.05 0.09 0.23 0.40 0.36 0.38 0.47 0.61 0.68 0.72 0.55 0.42 0.30 0.31 0.31 0.27 0.23 0.16 0.09 0.06 0.03 0.02 0.08 0.27 0.33
0.00 0.00 0.00 0.00 0.00 0.00 0.00 0.01 0.02 0.07 0.16 0.23 0.24 0.20 0.38 0.53 0.37 0.44 0.56 0.63 0.43 0.44 0.56 0.50 0.64 0.70 0.83 0.75 0.58 0.56 0.54 0.47 0.39 0.27 0.18 0.14 0.09 0.05 0.04 0.10 0.34 0.20 0.05
0.01 0.00 0.00 0.00 0.00 0.00 0.00 0.01 0.02 0.04 0.15 0.33 0.58 0.61 0.65 0.67 0.73 1.09 1.03 1.18 1.08 0.85 0.71 0.58 0.54 0.45 0.36 0.26 0.20 0.15 0.14 0.12 0.09 0.05 0.02 0.04 0.03 0.02 0.16 0.27 0.20 0.03 0.00
0.01 0.01 0.00 0.00 0.00 0.00 0.03 0.05 0.04 0.08 0.18 0.26 0.22 0.62 0.78 0.63 0.58 0.63 0.64 0.72 0.50 0.52 0.60 0.53 0.35 0.28 0.20 0.14 0.09 0.08 0.06 0.03 0.01 0.01 0.02 0.02 0.02 0.11 0.36 0.13 0.03 0.02 0.01
0.01 0.01 0.02 0.02 0.04 0.07 0.13 0.25 0.23 0.41 0.54 0.84 0.62 0.66 0.80 0.64 0.47 0.54 0.36 0.35 0.38 0.30 0.21 0.14 0.10 0.05 0.03 0.01 0.00 0.01 0.01 0.01 0.04 0.05 0.01 0.00 0.11 0.29 0.11 0.03 0.01 0.02 0.06
0.23 0.25 0.18 0.14 0.18 0.22 0.37 0.72 0.66 0.65 0.70 0.64 0.69 0.44 0.40 0.30 0.22 0.15 0.14 0.10 0.05 0.03 0.02 0.01 0.00 0.00 0.00 0.00 0.00 0.00 0.01 0.04 0.05 0.03 0.02 0.11 0.22 0.04 0.00 0.00 0.02 0.04 0.03
0.28 0.54 0.49 0.45 0.55 0.41 0.43 0.59 0.46 0.28 0.14 0.17 0.12 0.05 0.02 0.02 0.01 0.01 0.00 0.00 0.00 0.00 0.00 0.00 0.00 0.00 0.00 0.00 0.00 0.00 0.03 0.05 0.05 0.04 0.16 0.14 0.01 0.00 0.00 0.00 0.01 0.01 0.00
0.01 0.02 0.02 0.06 0.14 0.14 0.14 0.18 0.12 0.05 0.01 0.00 0.00 0.00 0.00 0.00 0.00 0.00 0.00 0.00 0.00 0.00 0.00 0.00 0.00 0.00 0.00 0.00 0.00 0.01 0.03 0.03 0.08 0.13 0.10 0.01 0.00 0.00 0.00 0.00 0.00 0.00 0.01
0.00 0.00 0.00 0.00 0.00 0.00 0.00 0.00 0.00 0.00 0.00 0.00 0.00 0.00 0.00 0.00 0.00 0.00 0.00 0.00 0.00 0.00 0.00 0.00 0.00 0.00 0.00 0.00 0.02 0.03 0.03 0.06 0.10 0.04 0.00 0.00 0.00 0.00 0.00 0.00 0.00 0.00 0.01
0.00 0.00 0.00 0.00 0.00 0.00 0.00 0.00 0.00 0.00 0.00 0.00 0.00 0.00 0.00 0.00 0.00 0.00 0.00 0.00 0.00 0.00 0.00 0.00 0.00 0.00 0.01 0.01 0.01 0.02 0.07 0.09 0.03 0.00 0.00 0.01 0.01 0.02 0.01 0.01 0.02 0.01 0.02

GFSMW_prec_precacc_063.txt.gz
Total_Precipitation_Accumulation
0.00 0.00 0.00 0.00 0.00 0.00 0.00 0.00 0.00 0.00 0.04 0.07 0.08 0.16 0.23 0.31 0.17 0.17 0.27 0.15 0.16 0.22 0.18 0.06 0.03 0.01 0.00 0.00 0.00 0.01 0.01 0.00 0.00 0.00 0.00 0.00 0.00 0.00 0.00 0.00 0.00 0.00 0.00
0.00 0.00 0.00 0.00 0.00 0.00 0.00 0.00 0.00 0.00 0.00 0.01 0.02 0.18 0.29 0.31 0.25 0.29 0.22 0.21 0.26 0.35 0.31 0.15 0.16 0.10 0.04 0.02 0.00 0.01 0.09 0.04 0.03 0.02 0.02 0.01 0.00 0.00 0.00 0.00 0.00 0.00 0.00
0.00 0.00 0.00 0.00 0.00 0.00 0.00 0.00 0.00 0.00 0.00 0.02 0.06 0.16 0.22 0.27 0.28 0.17 0.13 0.18 0.30 0.65 0.55 0.29 0.25 0.22 0.11 0.08 0.07 0.07 0.17 0.15 0.09 0.03 0.03 0.02 0.01 0.01 0.00 0.00 0.00 0.00 0.00
0.00 0.00 0.00 0.00 0.00 0.00 0.00 0.00 0.00 0.00 0.00 0.00 0.01 0.07 0.07 0.13 0.11 0.14 0.23 0.28 0.34 0.56 0.67 0.49 0.36 0.36 0.29 0.20 0.21 0.16 0.23 0.22 0.16 0.11 0.06 0.06 0.03 0.02 0.01 0.01 0.02 0.01 0.00
0.00 0.00 0.00 0.00 0.00 0.00 0.00 0.00 0.00 0.00 0.00 0.00 0.00 0.04 0.10 0.09 0.10 0.15 0.17 0.22 0.30 0.34 0.42 0.37 0.37 0.27 0.26 0.31 0.26 0.24 0.22 0.26 0.23 0.16 0.16 0.13 0.08 0.03 0.02 0.02 0.03 0.02 0.01
0.00 0.00 0.00 0.00 0.00 0.00 0.00 0.00 0.00 0.00 0.00 0.00 0.01 0.01 0.08 0.08 0.06 0.09 0.15 0.17 0.19 0.18 0.24 0.25 0.24 0.24 0.21 0.20 0.27 0.30 0.32 0.28 0.29 0.22 0.18 0.17 0.18 0.13 0.10 0.07 0.04 0.04 0.02
0.00 0.00 0.00 0.00 0.00 0.00 0.00 0.00 0.00 0.00 0.00 0.00 0.00 0.00 0.02 0.09 0.07 0.10 0.15 0.15 0.11 0.08 0.10 0.21 0.23 0.21 0.24 0.28 0.26 0.24 0.21 0.29 0.33 0.31 0.23 0.20 0.20 0.18 0.16 0.13 0.08 0.05 0.02
0.00 0.00 0.00 0.00 0.00 0.00 0.00 0.00 0.00 0.00 0.00 0.00 0.00 0.00 0.00 0.04 0.05 0.06 0.07 0.08 0.11 0.11 0.13 0.16 0.20 0.24 0.23 0.21 0.21 0.21 0.20 0.20 0.25 0.31 0.35 0.28 0.24 0.23 0.19 0.19 0.23 0.18 0.14
0.00 0.00 0.00 0.00 0.00 0.00 0.00 0.00 0.00 0.00 0.00 0.00 0.00 0.00 0.00 0.05 0.05 0.04 0.04 0.06 0.06 0.07 0.09 0.12 0.15 0.17 0.21 0.23 0.26 0.23 0.20 0.21 0.20 0.21 0.29 0.30 0.22 0.20 0.24 0.28 0.31 0.37 0.43
0.00 0.00 0.00 0.00 0.00 0.00 0.00 0.00 0.00 0.00 0.00 0.02 0.02 0.01 0.04 0.04 0.04 0.03 0.03 0.05 0.06 0.06 0.07 0.07 0.08 0.08 0.10 0.14 0.21 0.23 0.26 0.31 0.32 0.35 0.38 0.39 0.36 0.37 0.41 0.46 0.55 0.71 0.82
0.00 0.00 0.00 0.00 0.00 0.00 0.00 0.00 0.00 0.00 0.00 0.01 0.00 0.01 0.03 0.03 0.04 0.04 0.04 0.04 0.04 0.05 0.05 0.05 0.04 0.04 0.03 0.03 0.04 0.05 0.06 0.09 0.09 0.11 0.14 0.17 0.21 0.27 0.30 0.30 0.32 0.41 0.52
0.00 0.00 0.00 0.00 0.00 0.00 0.00 0.00 0.00 0.00 0.01 0.01 0.00 0.01 0.02 0.04 0.05 0.05 0.05 0.06 0.05 0.05 0.04 0.05 0.03 0.02 0.02 0.03 0.02 0.04 0.04 0.05 0.07 0.07 0.08 0.08 0.08 0.10 0.10 0.15 0.22 0.31 0.39
0.00 0.00 0.00 0.00 0.00 0.00 0.02 0.04 0.04 0.01 0.01 0.00 0.01 0.03 0.04 0.06 0.07 0.06 0.06 0.06 0.05 0.04 0.02 0.03 0.03 0.02 0.02 0.03 0.02 0.03 0.03 0.04 0.05 0.07 0.08 0.11 0.13 0.17 0.22 0.28 0.32 0.35 0.34
0.01 0.00 0.00 0.00 0.00 0.01 0.05 0.05 0.04 0.02 0.05 0.05 0.05 0.06 0.06 0.07 0.08 0.08 0.06 0.07 0.07 0.06 0.05 0.04 0.04 0.04 0.05 0.07 0.08 0.09 0.10 0.14 0.16 0.18 0.21 0.25 0.30 0.35 0.37 0.38 0.35 0.31 0.27
0.01 0.00 0.01 0.01 0.01 0.01 0.03 0.04 0.07 0.08 0.08 0.11 0.11 0.09 0.07 0.05 0.05 0.06 0.05 0.05 0.05 0.06 0.06 0.06 0.09 0.11 0.13 0.18 0.21 0.25 0.33 0.36 0.36 0.36 0.37 0.45 0.51 0.48 0.43 0.39 0.32 0.26 0.22
0.02 0.01 0.01 0.00 0.00 0.00 0.01 0.02 0.06 0.10 0.16 0.15 0.10 0.07 0.06 0.06 0.07 0.06 0.06 0.08 0.09 0.11 0.15 0.17 0.13 0.13 0.14 0.29 0.23 0.20 0.23 0.28 0.33 0.41 0.43 0.49 0.50 0.35 0.27 0.22 0.15 0.16 0.30
0.01 0.00 0.00 0.00 0.00 0.00 0.01 0.01 0.03 0.06 0.07 0.06 0.04 0.04 0.07 0.10 0.09 0.07 0.05 0.09 0.23 0.40 0.36 0.38 0.47 0.61 0.68 0.73 0.55 0.42 0.30 0.31 0.31 0.30 0.26 0.20 0.16 0.15 0.10 0.08 0.11 0.27 0.33
0.00 0.00 0.00 0.00 0.00 0.00 0.00 0.01 0.02 0.07 0.16 0.23 0.24 0.20 0.38 0.53 0.37 0.44 0.56 0.63 0.43 0.44 0.56 0.50 0.64 0.70 0.83 0.75 0.58 0.56 0.54 0.47 0.40 0.30 0.20 0.15 0.10 0.06 0.04 0.10 0.34 0.20 0.05
0.01 0.00 0.00 0.00 0.00 0.00 0.00 0.01 0.02 0.04 0.15 0.33 0.58 0.61 0.65 0.67 0.73 1.09 1.03 1.18 1.08 0.85 0.71 0.58 0.54 0.45 0.36 0.26 0.20 0.15 0.14 0.12 0.09 0.05 0.02 0.04 0.03 0.02 0.16 0.27 0.20 0.03 0.00
0.01 0.01 0.00 0.00 0.00 0.00 0.03 0.05 0.04 0.08 0.18 0.26 0.22 0.62 0.78 0.63 0.58 0.63 0.64 0.72 0.50 0.52 0.60 0.53 0.35 0.28 0.20 0.14 0.09 0.08 0.06 0.03 0.01 0.01 0.02 0.02 0.02 0.11 0.36 0.13 0.03 0.02 0.01
0.01 0.01 0.02 0.02 0.04 0.07 0.13 0.25 0.23 0.41 0.54 0.84 0.62 0.66 0.80 0.64 0.47 0.54 0.36 0.35 0.38 0.30 0.21 0.14 0.10 0.05 0.03 0.01 0.00 0.01 0.01 0.01 0.04 0.05 0.01 0.00 0.11 0.29 0.11 0.03 0.01 0.02 0.06
0.23 0.25 0.18 0.14 0.18 0.22 0.37 0.72 0.66 0.65 0.70 0.64 0.69 0.44 0.40 0.30 0.22 0.15 0.14 0.10 0.05 0.03 0.02 0.01 0.00 0.00 0.00 0.00 0.00 0.00 0.01 0.04 0.05 0.03 0.02 0.11 0.22 0.04 0.00 0.00 0.02 0.04 0.03
0.28 0.54 0.49 0.45 0.55 0.41 0.43 0.59 0.46 0.28 0.14 0.17 0.12 0.05 0.02 0.02 0.01 0.01 0.00 0.00 0.00 0.00 0.00 0.00 0.00 0.00 0.00 0.00 0.00 0.00 0.03 0.05 0.05 0.04 0.16 0.14 0.01 0.00 0.00 0.00 0.01 0.01 0.00
0.01 0.02 0.02 0.06 0.14 0.14 0.14 0.18 0.12 0.05 0.01 0.00 0.00 0.00 0.00 0.00 0.00 0.00 0.00 0.00 0.00 0.00 0.00 0.00 0.00 0.00 0.00 0.00 0.00 0.01 0.03 0.03 0.08 0.13 0.10 0.01 0.00 0.00 0.00 0.00 0.00 0.00 0.01
0.00 0.00 0.00 0.00 0.00 0.00 0.00 0.00 0.00 0.00 0.00 0.00 0.00 0.00 0.00 0.00 0.00 0.00 0.00 0.00 0.00 0.00 0.00 0.00 0.00 0.00 0.00 0.00 0.02 0.03 0.03 0.06 0.10 0.04 0.00 0.00 0.00 0.00 0.00 0.00 0.00 0.00 0.01
0.00 0.00 0.00 0.00 0.00 0.00 0.00 0.00 0.00 0.00 0.00 0.00 0.00 0.00 0.00 0.00 0.00 0.00 0.00 0.00 0.00 0.00 0.00 0.00 0.00 0.00 0.01 0.01 0.01 0.02 0.07 0.09 0.03 0.00 0.00 0.01 0.01 0.02 0.01 0.01 0.02 0.01 0.02

GFSMW_prec_precacc_066.txt.gz
Total_Precipitation_Accumulation
0.00 0.00 0.00 0.00 0.00 0.00 0.00 0.00 0.00 0.00 0.04 0.07 0.08 0.16 0.23 0.32 0.19 0.19 0.33 0.21 0.21 0.26 0.21 0.07 0.05 0.05 0.01 0.01 0.00 0.01 0.01 0.00 0.01 0.00 0.00 0.00 0.00 0.00 0.00 0.00 0.00 0.00 0.00
0.00 0.00 0.00 0.00 0.00 0.00 0.00 0.00 0.00 0.00 0.00 0.01 0.02 0.18 0.29 0.31 0.25 0.30 0.24 0.26 0.34 0.42 0.38 0.19 0.17 0.13 0.06 0.03 0.01 0.02 0.10 0.05 0.10 0.09 0.03 0.01 0.00 0.00 0.00 0.00 0.00 0.00 0.00
0.00 0.00 0.00 0.00 0.00 0.00 0.00 0.00 0.00 0.00 0.00 0.02 0.06 0.16 0.22 0.27 0.28 0.17 0.13 0.18 0.32 0.67 0.57 0.31 0.25 0.22 0.12 0.09 0.09 0.10 0.19 0.19 0.20 0.12 0.10 0.04 0.01 0.01 0.00 0.00 0.01 0.01 0.00
0.00 0.00 0.00 0.00 0.00 0.00 0.00 0.00 0.00 0.00 0.00 0.00 0.01 0.07 0.07 0.13 0.11 0.14 0.23 0.28 0.34 0.56 0.67 0.49 0.38 0.39 0.31 0.21 0.23 0.21 0.29 0.28 0.21 0.17 0.11 0.09 0.05 0.04 0.02 0.02 0.04 0.03 0.02
0.00 0.00 0.00 0.00 0.00 0.00 0.00 0.00 0.00 0.00 0.00 0.00 0.00 0.04 0.10 0.09 0.10 0.15 0.17 0.22 0.30 0.34 0.42 0.39 0.38 0.28 0.27 0.31 0.27 0.26 0.26 0.31 0.30 0.23 0.25 0.20 0.15 0.08 0.05 0.03 0.05 0.05 0.04
0.00 0.00 0.00 0.00 0.00 0.00 0.00 0.00 0.00 0.00 0.00 0.00 0.01 0.01 0.08 0.08 0.06 0.09 0.15 0.17 0.19 0.18 0.24 0.25 0.24 0.24 0.21 0.21 0.28 0.32 0.35 0.33 0.35 0.31 0.28 0.28 0.28 0.22 0.17 0.13 0.09 0.08 0.05
0.00 0.00 0.00 0.00 0.00 0.00 0.00 0.00 0.00 0.00 0.00 0.00 0.00 0.00 0.02 0.09 0.07 0.10 0.15 0.15 0.11 0.08 0.10 0.21 0.23 0.21 0.24 0.28 0.27 0.24 0.22 0.32 0.38 0.38 0.29 0.26 0.27 0.27 0.28 0.29 0.27 0.22 0.13
0.00 0.00 0.00 0.00 0.00 0.00 0.00 0.00 0.00 0.00 0.00 0.00 0.00 0.00 0.00 0.04 0.05 0.06 0.07 0.08 0.11 0.11 0.13 0.16 0.20 0.24 0.23 0.21 0.21 0.21 0.20 0.21 0.26 0.33 0.38 0.31 0.28 0.29 0.29 0.32 0.42 0.35 0.24
0.00 0.00 0.00 0.00 0.00 0.00 0.00 0.00 0.00 0.00 0.00 0.00 0.00 0.00 0.00 0.05 0.05 0.04 0.04 0.06 0.06 0.07 0.09 0.12 0.15 0.17 0.21 0.23 0.26 0.23 0.20 0.21 0.20 0.22 0.30 0.32 0.23 0.21 0.25 0.31 0.48 0.70 0.78
0.00 0.00 0.00 0.00 0.00 0.00 0.00 0.00 0.00 0.00 0.00 0.02 0.02 0.01 0.04 0.04 0.04 0.03 0.03 0.05 0.06 0.06 0.07 0.07 0.08 0.08 0.10 0.14 0.21 0.23 0.26 0.31 0.32 0.35 0.38 0.39 0.38 0.40 0.45 0.51 0.62 0.84 1.04
0.00 0.00 0.00 0.00 0.00 0.00 0.00 0.00 0.00 0.00 0.00 0.01 0.00 0.01 0.03 0.03 0.04 0.04 0.04 0.04 0.04 0.05 0.05 0.05 0.04 0.04 0.03 0.03 0.04 0.05 0.06 0.09 0.09 0.11 0.14 0.17 0.21 0.28 0.32 0.33 0.37 0.44 0.56
0.00 0.00 0.00 0.00 0.00 0.00 0.00 0.00 0.00 0.00 0.01 0.01 0.00 0.01 0.02 0.04 0.05 0.05 0.05 0.06 0.05 0.05 0.04 0.05 0.03 0.02 0.02 0.03 0.02 0.04 0.04 0.05 0.07 0.07 0.08 0.09 0.08 0.10 0.10 0.16 0.23 0.33 0.40
0.00 0.00 0.00 0.00 0.00 0.00 0.02 0.04 0.04 0.01 0.01 0.00 0.01 0.03 0.04 0.06 0.07 0.06 0.06 0.06 0.05 0.04 0.02 0.03 0.03 0.02 0.02 0.03 0.02 0.03 0.03 0.04 0.05 0.07 0.08 0.11 0.14 0.19 0.24 0.28 0.32 0.35 0.34
0.01 0.00 0.00 0.00 0.00 0.01 0.05 0.05 0.04 0.02 0.05 0.05 0.05 0.06 0.06 0.07 0.08 0.08 0.06 0.07 0.07 0.06 0.05 0.04 0.04 0.04 0.05 0.07 0.08 0.09 0.10 0.14 0.16 0.19 0.21 0.25 0.31 0.35 0.37 0.38 0.36 0.32 0.27
0.01 0.00 0.01 0.01 0.01 0.01 0.03 0.04 0.07 0.08 0.08 0.11 0.11 0.09 0.07 0.05 0.05 0.06 0.05 0.05 0.05 0.06 0.06 0.06 0.09 0.11 0.13 0.18 0.21 0.25 0.33 0.36 0.36 0.36 0.37 0.45 0.52 0.49 0.44 0.42 0.38 0.29 0.23
0.02 0.01 0.01 0.00 0.00 0.00 0.01 0.02 0.06 0.10 0.16 0.15 0.10 0.07 0.06 0.06 0.07 0.06 0.06 0.08 0.09 0.11 0.15 0.17 0.13 0.13 0.14 0.29 0.23 0.20 0.23 0.28 0.33 0.41 0.43 0.49 0.50 0.36 0.30 0.26 0.19 0.17 0.30
0.01 0.00 0.00 0.00 0.00 0.00 0.01 0.01 0.03 0.06 0.07 0.06 0.04 0.04 0.07 0.10 0.09 0.07 0.05 0.09 0.23 0.40 0.36 0.38 0.47 0.61 0.68 0.73 0.55 0.42 0.30 0.31 0.31 0.30 0.26 0.20 0.17 0.16 0.11 0.09 0.13 0.30 0.36
0.00 0.00 0.00 0.00 0.00 0.00 0.00 0.01 0.02 0.07 0.16 0.23 0.24 0.20 0.38 0.53 0.37 0.44 0.56 0.63 0.43 0.44 0.56 0.50 0.64 0.70 0.83 0.75 0.58 0.56 0.54 0.47 0.40 0.30 0.20 0.15 0.10 0.06 0.04 0.10 0.34 0.20 0.05
0.01 0.00 0.00 0.00 0.00 0.00 0.00 0.01 0.02 0.04 0.15 0.33 0.58 0.61 0.65 0.67 0.73 1.09 1.03 1.18 1.08 0.85 0.71 0.58 0.54 0.45 0.36 0.26 0.20 0.15 0.14 0.12 0.09 0.05 0.02 0.04 0.03 0.02 0.16 0.27 0.20 0.03 0.00
0.01 0.01 0.00 0.00 0.00 0.00 0.03 0.05 0.04 0.08 0.18 0.26 0.22 0.62 0.78 0.63 0.58 0.63 0.64 0.72 0.50 0.52 0.60 0.53 0.35 0.28 0.20 0.14 0.09 0.08 0.06 0.03 0.01 0.01 0.02 0.02 0.02 0.11 0.36 0.13 0.03 0.02 0.01
0.01 0.01 0.02 0.02 0.04 0.07 0.13 0.25 0.23 0.41 0.54 0.84 0.62 0.66 0.80 0.64 0.47 0.54 0.36 0.35 0.38 0.30 0.21 0.14 0.10 0.05 0.03 0.01 0.00 0.01 0.01 0.01 0.04 0.05 0.01 0.00 0.11 0.29 0.11 0.03 0.01 0.02 0.06
0.23 0.25 0.18 0.14 0.18 0.22 0.37 0.72 0.66 0.65 0.70 0.64 0.69 0.44 0.40 0.30 0.22 0.15 0.14 0.10 0.05 0.03 0.02 0.01 0.00 0.00 0.00 0.00 0.00 0.00 0.01 0.04 0.05 0.03 0.02 0.11 0.22 0.04 0.00 0.00 0.02 0.04 0.03
0.28 0.54 0.49 0.45 0.55 0.41 0.43 0.59 0.46 0.28 0.14 0.17 0.12 0.05 0.02 0.02 0.01 0.01 0.00 0.00 0.00 0.00 0.00 0.00 0.00 0.00 0.00 0.00 0.00 0.00 0.03 0.05 0.05 0.04 0.16 0.14 0.01 0.00 0.00 0.00 0.01 0.01 0.00
0.01 0.02 0.02 0.06 0.14 0.14 0.14 0.18 0.12 0.05 0.01 0.00 0.00 0.00 0.00 0.00 0.00 0.00 0.00 0.00 0.00 0.00 0.00 0.00 0.00 0.00 0.00 0.00 0.00 0.01 0.03 0.03 0.08 0.13 0.10 0.01 0.00 0.00 0.00 0.00 0.00 0.00 0.01
0.00 0.00 0.00 0.00 0.00 0.00 0.00 0.00 0.00 0.00 0.00 0.00 0.00 0.00 0.00 0.00 0.00 0.00 0.00 0.00 0.00 0.00 0.00 0.00 0.00 0.00 0.00 0.00 0.02 0.03 0.03 0.06 0.10 0.04 0.00 0.00 0.00 0.00 0.00 0.00 0.00 0.00 0.01
0.00 0.00 0.00 0.00 0.00 0.00 0.00 0.00 0.00 0.00 0.00 0.00 0.00 0.00 0.00 0.00 0.00 0.00 0.00 0.00 0.00 0.00 0.00 0.00 0.00 0.00 0.01 0.01 0.01 0.02 0.07 0.09 0.03 0.00 0.00 0.01 0.01 0.02 0.01 0.01 0.02 0.01 0.02

GFSMW_prec_precacc_069.txt.gz
Total_Precipitation_Accumulation
0.00 0.00 0.00 0.00 0.00 0.00 0.00 0.00 0.00 0.00 0.04 0.07 0.08 0.16 0.23 0.33 0.21 0.20 0.36 0.26 0.25 0.29 0.24 0.09 0.07 0.07 0.02 0.02 0.01 0.01 0.01 0.00 0.01 0.00 0.00 0.00 0.00 0.00 0.00 0.00 0.00 0.00 0.01
0.00 0.00 0.00 0.00 0.00 0.00 0.00 0.00 0.00 0.00 0.00 0.01 0.02 0.18 0.29 0.31 0.25 0.30 0.24 0.27 0.37 0.46 0.43 0.25 0.21 0.14 0.07 0.04 0.02 0.03 0.11 0.06 0.13 0.12 0.04 0.01 0.00 0.00 0.00 0.00 0.00 0.00 0.00
0.00 0.00 0.00 0.00 0.00 0.00 0.00 0.00 0.00 0.00 0.00 0.02 0.06 0.16 0.22 0.27 0.28 0.17 0.13 0.19 0.32 0.68 0.58 0.31 0.25 0.22 0.12 0.09 0.09 0.11 0.21 0.21 0.22 0.15 0.17 0.06 0.02 0.01 0.00 0.00 0.01 0.01 0.01
0.00 0.00 0.00 0.00 0.00 0.00 0.00 0.00 0.00 0.00 0.00 0.00 0.01 0.07 0.07 0.13 0.11 0.14 0.23 0.28 0.34 0.56 0.67 0.49 0.38 0.39 0.31 0.21 0.23 0.22 0.29 0.30 0.22 0.19 0.15 0.13 0.07 0.05 0.02 0.02 0.04 0.03 0.02
0.00 0.00 0.00 0.00 0.00 0.00 0.00 0.00 0.00 0.00 0.00 0.00 0.00 0.04 0.10 0.09 0.10 0.15 0.17 0.22 0.30 0.34 0.42 0.39 0.38 0.28 0.27 0.31 0.27 0.26 0.26 0.31 0.31 0.24 0.27 0.23 0.17 0.11 0.08 0.05 0.05 0.06 0.06
0.00 0.00 0.00 0.00 0.00 0.00 0.00 0.00 0.00 0.00 0.00 0.00 0.01 0.01 0.08 0.08 0.06 0.09 0.15 0.17 0.19 0.18 0.24 0.25 0.24 0.24 0.21 0.21 0.28 0.33 0.36 0.34 0.36 0.32 0.30 0.30 0.31 0.25 0.21 0.16 0.10 0.10 0.07
0.00 0.00 0.00 0.00 0.00 0.00 0.00 0.00 0.00 0.00 0.00 0.00 0.00 0.00 0.02 0.09 0.07 0.10 0.15 0.15 0.11 0.08 0.10 0.21 0.23 0.21 0.24 0.28 0.27 0.24 0.22 0.32 0.38 0.39 0.29 0.26 0.28 0.29 0.31 0.32 0.29 0.24 0.14
0.00 0.00 0.00 0.00 0.00 0.00 0.00 0.00 0.00 0.00 0.00 0.00 0.00 0.00 0.00 0.04 0.05 0.06 0.07 0.08 0.11 0.11 0.13 0.16 0.20 0.24 0.23 0.21 0.21 0.21 0.20 0.21 0.26 0.33 0.38 0.31 0.28 0.30 0.31 0.36 0.46 0.38 0.26
0.00 0.00 0.00 0.00 0.00 0.00 0.00 0.00 0.00 0.00 0.00 0.00 0.00 0.00 0.00 0.05 0.05 0.04 0.04 0.06 0.06 0.07 0.09 0.12 0.15 0.17 0.21 0.23 0.26 0.23 0.20 0.21 0.20 0.22 0.30 0.32 0.23 0.21 0.26 0.32 0.50 0.76 0.84
0.00 0.00 0.00 0.00 0.00 0.00 0.00 0.00 0.00 0.00 0.00 0.02 0.02 0.01 0.04 0.04 0.04 0.03 0.03 0.05 0.06 0.06 0.07 0.07 0.08 0.08 0.10 0.14 0.21 0.23 0.26 0.31 0.32 0.35 0.38 0.39 0.38 0.40 0.45 0.52 0.64 0.88 1.09
0.00 0.00 0.00 0.00 0.00 0.00 0.00 0.00 0.00 0.00 0.00 0.01 0.00 0.01 0.03 0.03 0.04 0.04 0.04 0.04 0.04 0.05 0.05 0.05 0.04 0.04 0.03 0.03 0.04 0.05 0.06 0.09 0.09 0.11 0.14 0.17 0.21 0.28 0.32 0.33 0.37 0.47 0.60
0.00 0.00 0.00 0.00 0.00 0.00 0.00 0.00 0.00 0.00 0.01 0.01 0.00 0.01 0.02 0.04 0.05 0.05 0.05 0.06 0.05 0.05 0.04 0.05 0.03 0.02 0.02 0.03 0.02 0.04 0.04 0.05 0.07 0.07 0.08 0.09 0.08 0.10 0.10 0.16 0.23 0.33 0.41
0.00 0.00 0.00 0.00 0.00 0.00 0.02 0.04 0.04 0.01 0.01 0.00 0.01 0.03 0.04 0.06 0.07 0.06 0.06 0.06 0.05 0.04 0.02 0.03 0.03 0.02 0.02 0.03 0.02 0.03 0.03 0.04 0.05 0.07 0.08 0.11 0.14 0.19 0.24 0.29 0.32 0.36 0.35
0.01 0.00 0.00 0.00 0.00 0.01 0.05 0.05 0.04 0.02 0.05 0.05 0.05 0.06 0.06 0.07 0.08 0.08 0.06 0.07 0.07 0.06 0.05 0.04 0.04 0.04 0.05 0.07 0.08 0.09 0.10 0.14 0.16 0.19 0.21 0.25 0.31 0.35 0.37 0.38 0.36 0.32 0.28
0.01 0.00 0.01 0.01 0.01 0.01 0.03 0.04 0.07 0.08 0.08 0.11 0.11 0.09 0.07 0.05 0.05 0.06 0.05 0.05 0.05 0.06 0.06 0.06 0.09 0.11 0.13 0.18 0.21 0.25 0.33 0.36 0.36 0.36 0.37 0.45 0.52 0.49 0.44 0.42 0.38 0.29 0.23
0.02 0.01 0.01 0.00 0.00 0.00 0.01 0.02 0.06 0.10 0.16 0.15 0.10 0.07 0.06 0.06 0.07 0.06 0.06 0.08 0.09 0.11 0.15 0.17 0.13 0.13 0.14 0.29 0.23 0.20 0.23 0.28 0.33 0.41 0.43 0.49 0.50 0.36 0.31 0.26 0.19 0.17 0.30
0.01 0.00 0.00 0.00 0.00 0.00 0.01 0.01 0.03 0.06 0.07 0.06 0.04 0.04 0.07 0.10 0.09 0.07 0.05 0.09 0.23 0.40 0.36 0.38 0.47 0.61 0.68 0.73 0.55 0.42 0.30 0.31 0.31 0.30 0.26 0.20 0.17 0.16 0.11 0.09 0.13 0.30 0.36
0.00 0.00 0.00 0.00 0.00 0.00 0.00 0.01 0.02 0.07 0.16 0.23 0.24 0.20 0.38 0.53 0.37 0.44 0.56 0.63 0.43 0.44 0.56 0.50 0.64 0.70 0.83 0.75 0.58 0.56 0.54 0.47 0.40 0.30 0.20 0.15 0.10 0.06 0.04 0.10 0.34 0.20 0.05
0.01 0.00 0.00 0.00 0.00 0.00 0.00 0.01 0.02 0.04 0.15 0.33 0.58 0.61 0.65 0.67 0.73 1.09 1.03 1.18 1.08 0.85 0.71 0.58 0.54 0.45 0.36 0.26 0.20 0.15 0.14 0.12 0.09 0.05 0.02 0.04 0.03 0.02 0.16 0.27 0.20 0.03 0.00
0.01 0.01 0.00 0.00 0.00 0.00 0.03 0.05 0.04 0.08 0.18 0.26 0.22 0.62 0.78 0.63 0.58 0.63 0.64 0.72 0.50 0.52 0.60 0.53 0.35 0.28 0.20 0.14 0.09 0.08 0.06 0.03 0.01 0.01 0.02 0.02 0.02 0.11 0.36 0.13 0.03 0.02 0.01
0.01 0.01 0.02 0.02 0.04 0.07 0.13 0.25 0.23 0.41 0.54 0.84 0.62 0.66 0.80 0.64 0.47 0.54 0.36 0.35 0.38 0.30 0.21 0.14 0.10 0.05 0.03 0.01 0.00 0.01 0.01 0.01 0.04 0.05 0.01 0.00 0.11 0.29 0.11 0.03 0.01 0.02 0.06
0.23 0.25 0.18 0.14 0.18 0.22 0.37 0.72 0.66 0.65 0.70 0.64 0.69 0.44 0.40 0.30 0.22 0.15 0.14 0.10 0.05 0.03 0.02 0.01 0.00 0.00 0.00 0.00 0.00 0.00 0.01 0.04 0.05 0.03 0.02 0.11 0.22 0.04 0.00 0.00 0.02 0.04 0.03
0.28 0.54 0.49 0.45 0.55 0.41 0.43 0.59 0.46 0.28 0.14 0.17 0.12 0.05 0.02 0.02 0.01 0.01 0.00 0.00 0.00 0.00 0.00 0.00 0.00 0.00 0.00 0.00 0.00 0.00 0.03 0.05 0.05 0.04 0.16 0.14 0.01 0.00 0.00 0.00 0.01 0.01 0.00
0.01 0.02 0.02 0.06 0.14 0.14 0.14 0.18 0.12 0.05 0.01 0.00 0.00 0.00 0.00 0.00 0.00 0.00 0.00 0.00 0.00 0.00 0.00 0.00 0.00 0.00 0.00 0.00 0.00 0.01 0.03 0.03 0.08 0.13 0.10 0.01 0.00 0.00 0.00 0.00 0.00 0.00 0.01
0.00 0.00 0.00 0.00 0.00 0.00 0.00 0.00 0.00 0.00 0.00 0.00 0.00 0.00 0.00 0.00 0.00 0.00 0.00 0.00 0.00 0.00 0.00 0.00 0.00 0.00 0.00 0.00 0.02 0.03 0.03 0.06 0.10 0.04 0.00 0.00 0.00 0.00 0.00 0.00 0.00 0.00 0.01
0.00 0.00 0.00 0.00 0.00 0.00 0.00 0.00 0.00 0.00 0.00 0.00 0.00 0.00 0.00 0.00 0.00 0.00 0.00 0.00 0.00 0.00 0.00 0.00 0.00 0.00 0.01 0.01 0.01 0.02 0.07 0.09 0.03 0.00 0.00 0.01 0.01 0.02 0.01 0.01 0.02 0.01 0.02

GFSMW_prec_precacc_072.txt.gz
Total_Precipitation_Accumulation
0.00 0.00 0.00 0.00 0.00 0.00 0.00 0.00 0.00 0.00 0.04 0.07 0.08 0.16 0.23 0.33 0.21 0.20 0.36 0.26 0.25 0.29 0.24 0.09 0.07 0.08 0.03 0.04 0.02 0.02 0.01 0.01 0.01 0.00 0.00 0.00 0.00 0.00 0.00 0.00 0.00 0.00 0.01
0.00 0.00 0.00 0.00 0.00 0.00 0.00 0.00 0.00 0.00 0.00 0.01 0.02 0.18 0.29 0.31 0.25 0.30 0.24 0.27 0.37 0.47 0.44 0.25 0.21 0.14 0.07 0.04 0.02 0.03 0.11 0.06 0.13 0.13 0.05 0.02 0.00 0.00 0.00 0.00 0.00 0.00 0.01
0.00 0.00 0.00 0.00 0.00 0.00 0.00 0.00 0.00 0.00 0.00 0.02 0.06 0.16 0.22 0.27 0.28 0.17 0.13 0.19 0.32 0.68 0.58 0.31 0.25 0.22 0.12 0.09 0.09 0.11 0.21 0.21 0.22 0.16 0.18 0.08 0.02 0.01 0.00 0.00 0.01 0.01 0.01
0.00 0.00 0.00 0.00 0.00 0.00 0.00 0.00 0.00 0.00 0.00 0.00 0.01 0.07 0.07 0.13 0.11 0.14 0.23 0.28 0.34 0.56 0.67 0.49 0.38 0.39 0.31 0.21 0.23 0.22 0.29 0.30 0.23 0.20 0.15 0.14 0.07 0.06 0.03 0.02 0.04 0.03 0.02
0.00 0.00 0.00 0.00 0.00 0.00 0.00 0.00 0.00 0.00 0.00 0.00 0.00 0.04 0.10 0.09 0.10 0.15 0.17 0.22 0.30 0.34 0.42 0.39 0.38 0.28 0.27 0.32 0.27 0.26 0.26 0.31 0.31 0.24 0.27 0.23 0.18 0.11 0.09 0.06 0.05 0.06 0.06
0.00 0.00 0.00 0.00 0.00 0.00 0.00 0.00 0.00 0.00 0.00 0.00 0.01 0.01 0.08 0.08 0.06 0.09 0.15 0.17 0.19 0.18 0.24 0.25 0.24 0.24 0.21 0.21 0.28 0.33 0.36 0.34 0.36 0.33 0.31 0.32 0.32 0.25 0.21 0.16 0.10 0.10 0.07
0.00 0.00 0.00 0.00 0.00 0.00 0.00 0.00 0.00 0.00 0.00 0.00 0.00 0.00 0.02 0.09 0.07 0.10 0.15 0.15 0.11 0.08 0.10 0.21 0.23 0.21 0.24 0.28 0.27 0.24 0.22 0.33 0.38 0.39 0.30 0.27 0.28 0.30 0.32 0.34 0.31 0.25 0.15
0.00 0.00 0.00 0.00 0.00 0.00 0.00 0.00 0.00 0.00 0.00 0.00 0.00 0.00 0.00 0.04 0.05 0.06 0.07 0.08 0.11 0.11 0.13 0.16 0.20 0.24 0.23 0.21 0.21 0.21 0.20 0.21 0.27 0.33 0.38 0.32 0.28 0.30 0.31 0.36 0.47 0.39 0.26
0.00 0.00 0.00 0.00 0.00 0.00 0.00 0.00 0.00 0.00 0.00 0.00 0.00 0.00 0.00 0.05 0.05 0.04 0.04 0.06 0.06 0.07 0.09 0.12 0.15 0.17 0.21 0.23 0.26 0.23 0.20 0.21 0.20 0.22 0.30 0.32 0.23 0.21 0.26 0.32 0.50 0.77 0.85
0.00 0.00 0.00 0.00 0.00 0.00 0.00 0.00 0.00 0.00 0.00 0.02 0.02 0.01 0.04 0.04 0.04 0.03 0.03 0.05 0.06 0.06 0.07 0.07 0.08 0.08 0.10 0.14 0.21 0.23 0.26 0.31 0.32 0.35 0.38 0.39 0.38 0.40 0.45 0.52 0.64 0.88 1.10
0.00 0.00 0.00 0.00 0.00 0.00 0.00 0.00 0.00 0.00 0.00 0.01 0.00 0.01 0.03 0.03 0.04 0.04 0.04 0.04 0.04 0.05 0.05 0.05 0.04 0.04 0.03 0.03 0.04 0.05 0.06 0.09 0.09 0.11 0.14 0.17 0.21 0.28 0.32 0.33 0.37 0.47 0.60
0.00 0.00 0.00 0.00 0.00 0.00 0.00 0.00 0.00 0.00 0.01 0.01 0.00 0.01 0.02 0.04 0.05 0.05 0.05 0.06 0.05 0.05 0.04 0.05 0.03 0.02 0.02 0.03 0.02 0.04 0.04 0.05 0.07 0.07 0.08 0.09 0.08 0.10 0.10 0.16 0.23 0.33 0.41
0.00 0.00 0.00 0.00 0.00 0.00 0.02 0.04 0.04 0.01 0.01 0.00 0.01 0.03 0.04 0.06 0.07 0.06 0.06 0.06 0.05 0.04 0.02 0.03 0.03 0.02 0.02 0.03 0.02 0.03 0.03 0.04 0.05 0.07 0.08 0.11 0.14 0.19 0.24 0.29 0.32 0.36 0.35
0.01 0.00 0.00 0.00 0.00 0.01 0.05 0.05 0.04 0.02 0.05 0.05 0.05 0.06 0.06 0.07 0.08 0.08 0.06 0.07 0.07 0.06 0.05 0.04 0.04 0.04 0.05 0.07 0.08 0.09 0.10 0.14 0.16 0.19 0.21 0.25 0.31 0.35 0.37 0.38 0.36 0.32 0.28
0.01 0.00 0.01 0.01 0.01 0.01 0.03 0.04 0.07 0.08 0.08 0.11 0.11 0.09 0.07 0.05 0.05 0.06 0.05 0.05 0.05 0.06 0.06 0.06 0.09 0.11 0.13 0.18 0.21 0.25 0.33 0.36 0.36 0.36 0.37 0.45 0.52 0.50 0.45 0.42 0.38 0.29 0.23
0.02 0.01 0.01 0.00 0.00 0.00 0.01 0.02 0.06 0.10 0.16 0.15 0.10 0.07 0.06 0.06 0.07 0.06 0.06 0.08 0.09 0.11 0.15 0.17 0.13 0.13 0.14 0.30 0.24 0.20 0.23 0.28 0.33 0.41 0.43 0.49 0.50 0.36 0.31 0.26 0.19 0.17 0.30
0.01 0.00 0.00 0.00 0.00 0.00 0.01 0.01 0.03 0.06 0.07 0.06 0.04 0.04 0.07 0.10 0.09 0.07 0.05 0.09 0.23 0.40 0.36 0.38 0.47 0.61 0.68 0.73 0.55 0.42 0.30 0.31 0.31 0.30 0.26 0.20 0.17 0.16 0.11 0.09 0.13 0.30 0.36
0.00 0.00 0.00 0.00 0.00 0.00 0.00 0.01 0.02 0.07 0.16 0.23 0.24 0.20 0.38 0.53 0.37 0.44 0.56 0.63 0.43 0.44 0.56 0.50 0.64 0.70 0.83 0.75 0.58 0.56 0.54 0.47 0.40 0.30 0.20 0.15 0.10 0.06 0.04 0.10 0.34 0.20 0.05
0.01 0.00 0.00 0.00 0.00 0.00 0.00 0.01 0.02 0.04 0.15 0.33 0.58 0.61 0.65 0.67 0.73 1.09 1.03 1.18 1.08 0.85 0.71 0.58 0.54 0.45 0.36 0.26 0.20 0.15 0.14 0.12 0.09 0.05 0.02 0.04 0.03 0.02 0.16 0.27 0.20 0.03 0.00
0.01 0.01 0.00 0.00 0.00 0.00 0.03 0.05 0.04 0.08 0.18 0.26 0.22 0.62 0.78 0.63 0.58 0.63 0.64 0.72 0.50 0.52 0.60 0.53 0.35 0.28 0.20 0.14 0.09 0.08 0.06 0.03 0.01 0.01 0.02 0.02 0.02 0.11 0.36 0.13 0.03 0.02 0.01
0.01 0.01 0.02 0.02 0.04 0.07 0.13 0.25 0.23 0.41 0.54 0.84 0.62 0.66 0.80 0.64 0.47 0.54 0.36 0.35 0.38 0.30 0.21 0.14 0.10 0.05 0.03 0.01 0.00 0.01 0.01 0.01 0.04 0.05 0.01 0.00 0.11 0.29 0.11 0.03 0.01 0.02 0.06
0.23 0.25 0.18 0.14 0.18 0.22 0.37 0.72 0.66 0.65 0.70 0.64 0.69 0.44 0.40 0.30 0.22 0.15 0.14 0.10 0.05 0.03 0.02 0.01 0.00 0.00 0.00 0.00 0.00 0.00 0.01 0.04 0.05 0.03 0.02 0.11 0.22 0.04 0.00 0.00 0.02 0.04 0.03
0.28 0.54 0.49 0.45 0.55 0.41 0.43 0.59 0.46 0.28 0.14 0.17 0.12 0.05 0.02 0.02 0.01 0.01 0.00 0.00 0.00 0.00 0.00 0.00 0.00 0.00 0.00 0.00 0.00 0.00 0.03 0.05 0.05 0.04 0.16 0.14 0.01 0.00 0.00 0.00 0.01 0.01 0.00
0.01 0.02 0.02 0.06 0.14 0.14 0.14 0.18 0.12 0.05 0.01 0.00 0.00 0.00 0.00 0.00 0.00 0.00 0.00 0.00 0.00 0.00 0.00 0.00 0.00 0.00 0.00 0.00 0.00 0.01 0.03 0.03 0.08 0.13 0.10 0.01 0.00 0.00 0.00 0.00 0.00 0.00 0.01
0.03 0.03 0.02 0.00 0.00 0.00 0.00 0.00 0.00 0.00 0.00 0.00 0.00 0.00 0.00 0.00 0.00 0.00 0.00 0.00 0.00 0.00 0.00 0.00 0.00 0.00 0.00 0.00 0.02 0.03 0.03 0.06 0.10 0.04 0.00 0.00 0.00 0.00 0.00 0.00 0.00 0.00 0.01
0.00 0.00 0.00 0.00 0.00 0.00 0.00 0.00 0.00 0.00 0.00 0.00 0.00 0.00 0.00 0.00 0.00 0.00 0.00 0.00 0.00 0.00 0.00 0.00 0.00 0.00 0.01 0.01 0.01 0.02 0.07 0.09 0.03 0.00 0.00 0.01 0.01 0.02 0.01 0.01 0.02 0.01 0.02

GFSMW_prec_precacc_075.txt.gz
Total_Precipitation_Accumulation
0.00 0.00 0.00 0.00 0.00 0.00 0.00 0.00 0.00 0.00 0.04 0.07 0.08 0.16 0.23 0.33 0.21 0.20 0.36 0.26 0.26 0.30 0.24 0.09 0.07 0.08 0.03 0.04 0.02 0.02 0.02 0.01 0.01 0.01 0.00 0.00 0.00 0.00 0.00 0.00 0.00 0.00 0.01
0.00 0.00 0.00 0.00 0.00 0.00 0.00 0.00 0.00 0.00 0.00 0.01 0.02 0.18 0.29 0.31 0.25 0.30 0.24 0.28 0.37 0.47 0.44 0.25 0.21 0.14 0.07 0.04 0.02 0.03 0.11 0.06 0.13 0.13 0.05 0.02 0.00 0.00 0.00 0.00 0.00 0.00 0.01
0.00 0.00 0.00 0.00 0.00 0.00 0.00 0.00 0.00 0.00 0.00 0.02 0.06 0.16 0.22 0.27 0.28 0.17 0.13 0.19 0.32 0.68 0.58 0.31 0.25 0.22 0.12 0.09 0.09 0.11 0.21 0.21 0.22 0.16 0.19 0.08 0.02 0.01 0.00 0.00 0.01 0.01 0.01
0.00 0.00 0.00 0.00 0.00 0.00 0.00 0.00 0.00 0.00 0.00 0.00 0.01 0.07 0.07 0.13 0.11 0.14 0.23 0.28 0.34 0.56 0.67 0.49 0.38 0.39 0.31 0.21 0.23 0.22 0.29 0.30 0.23 0.20 0.15 0.14 0.07 0.06 0.03 0.02 0.04 0.03 0.02
0.00 0.00 0.00 0.00 0.00 0.00 0.00 0.00 0.00 0.00 0.00 0.00 0.00 0.04 0.10 0.09 0.10 0.15 0.17 0.22 0.30 0.34 0.42 0.39 0.38 0.28 0.27 0.32 0.27 0.26 0.26 0.31 0.32 0.24 0.27 0.23 0.18 0.11 0.09 0.06 0.05 0.06 0.06
0.00 0.00 0.00 0.00 0.00 0.00 0.00 0.00 0.00 0.00 0.00 0.00 0.01 0.01 0.08 0.08 0.06 0.09 0.15 0.17 0.19 0.18 0.24 0.25 0.24 0.24 0.21 0.21 0.29 0.33 0.36 0.34 0.36 0.33 0.31 0.32 0.32 0.25 0.21 0.16 0.10 0.10 0.07
0.00 0.00 0.00 0.00 0.00 0.00 0.00 0.00 0.00 0.00 0.00 0.00 0.00 0.00 0.02 0.09 0.07 0.10 0.15 0.15 0.11 0.08 0.10 0.21 0.23 0.21 0.24 0.28 0.27 0.25 0.23 0.33 0.39 0.40 0.31 0.28 0.29 0.30 0.32 0.34 0.31 0.25 0.15
0.00 0.00 0.00 0.00 0.00 0.00 0.00 0.00 0.00 0.00 0.00 0.00 0.00 0.00 0.00 0.04 0.05 0.06 0.07 0.08 0.11 0.11 0.13 0.16 0.20 0.24 0.23 0.21 0.21 0.21 0.20 0.21 0.27 0.34 0.39 0.32 0.28 0.30 0.31 0.37 0.47 0.39 0.26
0.00 0.00 0.00 0.00 0.00 0.00 0.00 0.00 0.00 0.00 0.00 0.00 0.00 0.00 0.00 0.05 0.05 0.04 0.04 0.06 0.06 0.07 0.09 0.12 0.15 0.17 0.21 0.23 0.26 0.23 0.20 0.21 0.20 0.22 0.30 0.32 0.24 0.21 0.26 0.32 0.51 0.78 0.85
0.00 0.00 0.00 0.00 0.00 0.00 0.00 0.00 0.00 0.00 0.00 0.02 0.02 0.01 0.04 0.04 0.04 0.03 0.03 0.05 0.06 0.06 0.07 0.07 0.08 0.08 0.10 0.14 0.21 0.23 0.26 0.31 0.32 0.35 0.38 0.39 0.38 0.40 0.45 0.52 0.64 0.88 1.10
0.00 0.00 0.00 0.00 0.00 0.00 0.00 0.00 0.00 0.00 0.00 0.01 0.00 0.01 0.03 0.03 0.04 0.04 0.04 0.04 0.04 0.05 0.05 0.05 0.04 0.04 0.03 0.03 0.04 0.05 0.06 0.09 0.09 0.11 0.14 0.17 0.21 0.28 0.32 0.33 0.37 0.47 0.60
0.00 0.00 0.00 0.00 0.00 0.00 0.00 0.00 0.00 0.00 0.01 0.01 0.00 0.01 0.02 0.04 0.05 0.05 0.05 0.06 0.05 0.05 0.04 0.05 0.03 0.02 0.02 0.03 0.02 0.04 0.04 0.05 0.07 0.07 0.08 0.09 0.08 0.10 0.10 0.16 0.23 0.33 0.41
0.00 0.00 0.00 0.00 0.00 0.00 0.02 0.04 0.04 0.01 0.01 0.00 0.01 0.03 0.04 0.06 0.07 0.06 0.06 0.06 0.05 0.04 0.02 0.03 0.03 0.02 0.02 0.03 0.02 0.03 0.03 0.04 0.05 0.07 0.08 0.11 0.14 0.19 0.24 0.29 0.32 0.36 0.35
0.01 0.00 0.00 0.00 0.00 0.01 0.05 0.05 0.04 0.02 0.05 0.05 0.05 0.06 0.06 0.07 0.08 0.08 0.06 0.07 0.07 0.06 0.05 0.04 0.04 0.04 0.05 0.07 0.08 0.09 0.10 0.14 0.16 0.19 0.21 0.25 0.31 0.35 0.37 0.38 0.36 0.32 0.28
0.01 0.00 0.01 0.01 0.01 0.01 0.03 0.04 0.07 0.08 0.08 0.11 0.11 0.09 0.07 0.05 0.05 0.06 0.05 0.05 0.05 0.06 0.06 0.06 0.09 0.11 0.13 0.18 0.21 0.25 0.33 0.36 0.36 0.36 0.37 0.45 0.52 0.50 0.45 0.42 0.38 0.29 0.23
0.02 0.01 0.01 0.00 0.00 0.00 0.01 0.02 0.06 0.10 0.16 0.15 0.10 0.07 0.06 0.06 0.07 0.06 0.06 0.08 0.09 0.11 0.15 0.17 0.13 0.13 0.14 0.30 0.24 0.20 0.23 0.28 0.33 0.41 0.43 0.49 0.50 0.36 0.31 0.26 0.19 0.17 0.30
0.01 0.00 0.00 0.00 0.00 0.00 0.01 0.01 0.03 0.06 0.07 0.06 0.04 0.04 0.07 0.10 0.09 0.07 0.05 0.09 0.23 0.40 0.36 0.38 0.47 0.61 0.68 0.73 0.55 0.42 0.30 0.31 0.31 0.30 0.26 0.20 0.17 0.16 0.11 0.09 0.13 0.30 0.36
0.00 0.00 0.00 0.00 0.00 0.00 0.00 0.01 0.02 0.07 0.16 0.23 0.24 0.20 0.38 0.53 0.37 0.44 0.56 0.63 0.43 0.44 0.56 0.50 0.64 0.70 0.83 0.75 0.58 0.56 0.54 0.47 0.40 0.30 0.20 0.15 0.10 0.06 0.04 0.10 0.34 0.20 0.05
0.01 0.00 0.00 0.00 0.00 0.00 0.00 0.01 0.02 0.04 0.15 0.33 0.58 0.61 0.65 0.67 0.73 1.09 1.03 1.18 1.08 0.85 0.71 0.58 0.54 0.45 0.36 0.26 0.20 0.15 0.14 0.12 0.09 0.05 0.02 0.04 0.03 0.02 0.16 0.27 0.20 0.03 0.00
0.01 0.01 0.00 0.00 0.00 0.00 0.03 0.05 0.04 0.08 0.18 0.26 0.22 0.62 0.78 0.63 0.58 0.63 0.64 0.72 0.50 0.52 0.60 0.53 0.35 0.28 0.20 0.14 0.09 0.08 0.06 0.03 0.01 0.01 0.02 0.02 0.02 0.11 0.36 0.13 0.03 0.02 0.01
0.01 0.01 0.02 0.02 0.04 0.07 0.13 0.25 0.23 0.41 0.54 0.84 0.62 0.66 0.80 0.64 0.47 0.54 0.36 0.35 0.38 0.30 0.21 0.14 0.10 0.05 0.03 0.01 0.00 0.01 0.01 0.01 0.04 0.05 0.01 0.00 0.11 0.29 0.11 0.03 0.01 0.02 0.06
0.23 0.25 0.18 0.14 0.18 0.22 0.37 0.72 0.66 0.65 0.70 0.64 0.69 0.44 0.40 0.30 0.22 0.15 0.14 0.10 0.05 0.03 0.02 0.01 0.00 0.00 0.00 0.00 0.00 0.00 0.01 0.04 0.05 0.03 0.02 0.11 0.22 0.04 0.00 0.00 0.02 0.04 0.03
0.28 0.54 0.49 0.45 0.55 0.41 0.43 0.59 0.46 0.28 0.14 0.17 0.12 0.05 0.02 0.02 0.01 0.01 0.00 0.00 0.00 0.00 0.00 0.00 0.00 0.00 0.00 0.00 0.00 0.00 0.03 0.05 0.05 0.04 0.16 0.14 0.01 0.00 0.00 0.00 0.01 0.01 0.00
0.01 0.02 0.02 0.06 0.14 0.14 0.14 0.18 0.12 0.05 0.01 0.00 0.00 0.00 0.00 0.00 0.00 0.00 0.00 0.00 0.00 0.00 0.00 0.00 0.00 0.00 0.00 0.00 0.00 0.01 0.03 0.03 0.08 0.13 0.10 0.01 0.00 0.00 0.00 0.00 0.00 0.00 0.01
0.04 0.03 0.04 0.03 0.01 0.00 0.00 0.00 0.00 0.00 0.00 0.00 0.00 0.00 0.00 0.00 0.00 0.00 0.00 0.00 0.00 0.00 0.00 0.00 0.00 0.00 0.00 0.00 0.02 0.03 0.03 0.06 0.10 0.04 0.00 0.00 0.00 0.00 0.00 0.00 0.00 0.00 0.01
0.00 0.00 0.01 0.01 0.03 0.03 0.01 0.00 0.00 0.00 0.00 0.00 0.00 0.00 0.00 0.00 0.00 0.00 0.00 0.00 0.00 0.00 0.00 0.00 0.00 0.00 0.01 0.01 0.01 0.02 0.07 0.09 0.03 0.00 0.00 0.01 0.01 0.02 0.01 0.01 0.02 0.01 0.02

GFSMW_prec_precacc_078.txt.gz
Total_Precipitation_Accumulation
0.00 0.00 0.00 0.00 0.02 0.00 0.01 0.01 0.00 0.00 0.04 0.07 0.08 0.16 0.23 0.33 0.21 0.20 0.36 0.26 0.26 0.30 0.24 0.09 0.07 0.08 0.03 0.04 0.02 0.02 0.02 0.01 0.01 0.01 0.00 0.00 0.00 0.00 0.00 0.00 0.00 0.00 0.01
0.00 0.00 0.00 0.00 0.00 0.00 0.00 0.00 0.00 0.00 0.00 0.01 0.02 0.18 0.29 0.31 0.25 0.30 0.24 0.28 0.37 0.47 0.44 0.25 0.21 0.14 0.07 0.04 0.02 0.03 0.11 0.06 0.13 0.13 0.05 0.02 0.00 0.00 0.00 0.00 0.00 0.00 0.01
0.00 0.00 0.00 0.00 0.00 0.00 0.00 0.00 0.00 0.00 0.00 0.02 0.06 0.16 0.22 0.27 0.28 0.17 0.13 0.19 0.32 0.68 0.58 0.31 0.25 0.23 0.12 0.09 0.09 0.11 0.21 0.21 0.22 0.16 0.19 0.08 0.02 0.01 0.00 0.00 0.01 0.01 0.01
0.00 0.00 0.00 0.00 0.00 0.00 0.00 0.00 0.00 0.00 0.00 0.00 0.01 0.07 0.07 0.13 0.11 0.14 0.23 0.28 0.34 0.56 0.67 0.49 0.38 0.39 0.31 0.22 0.23 0.22 0.30 0.30 0.23 0.20 0.15 0.14 0.07 0.07 0.03 0.02 0.04 0.03 0.02
0.00 0.00 0.00 0.00 0.00 0.00 0.00 0.00 0.00 0.00 0.00 0.00 0.00 0.04 0.10 0.09 0.10 0.15 0.17 0.22 0.30 0.34 0.42 0.39 0.38 0.28 0.27 0.32 0.28 0.27 0.26 0.32 0.33 0.25 0.28 0.23 0.18 0.11 0.10 0.06 0.06 0.06 0.06
0.00 0.00 0.00 0.00 0.00 0.00 0.00 0.00 0.00 0.00 0.00 0.00 0.01 0.01 0.08 0.08 0.06 0.09 0.15 0.17 0.19 0.18 0.24 0.25 0.24 0.24 0.21 0.21 0.29 0.33 0.36 0.35 0.37 0.34 0.32 0.33 0.32 0.26 0.21 0.16 0.11 0.11 0.08
0.00 0.00 0.00 0.00 0.00 0.00 0.00 0.00 0.00 0.00 0.00 0.00 0.00 0.00 0.02 0.09 0.07 0.10 0.15 0.15 0.11 0.08 0.10 0.21 0.23 0.21 0.24 0.28 0.27 0.25 0.23 0.33 0.40 0.40 0.31 0.28 0.29 0.30 0.32 0.34 0.31 0.25 0.15
0.00 0.00 0.00 0.00 0.00 0.00 0.00 0.00 0.00 0.00 0.00 0.00 0.00 0.00 0.00 0.04 0.05 0.06 0.07 0.08 0.11 0.11 0.13 0.16 0.20 0.24 0.23 0.21 0.21 0.21 0.20 0.21 0.28 0.34 0.39 0.33 0.29 0.31 0.32 0.37 0.47 0.39 0.26
0.00 0.00 0.00 0.00 0.00 0.00 0.00 0.00 0.00 0.00 0.00 0.00 0.00 0.00 0.00 0.05 0.05 0.04 0.04 0.06 0.06 0.07 0.09 0.12 0.15 0.17 0.21 0.23 0.26 0.23 0.20 0.21 0.20 0.22 0.30 0.32 0.24 0.21 0.26 0.32 0.51 0.78 0.85
0.00 0.00 0.00 0.00 0.00 0.00 0.00 0.00 0.00 0.00 0.00 0.02 0.02 0.01 0.04 0.04 0.04 0.03 0.03 0.05 0.06 0.06 0.07 0.07 0.08 0.08 0.10 0.14 0.21 0.23 0.26 0.31 0.32 0.35 0.38 0.39 0.38 0.40 0.45 0.52 0.64 0.88 1.10
0.00 0.00 0.00 0.00 0.00 0.00 0.00 0.00 0.00 0.00 0.00 0.01 0.00 0.01 0.03 0.03 0.04 0.04 0.04 0.04 0.04 0.05 0.05 0.05 0.04 0.04 0.03 0.03 0.04 0.05 0.06 0.09 0.09 0.11 0.14 0.17 0.21 0.28 0.32 0.33 0.37 0.47 0.60
0.00 0.00 0.00 0.00 0.00 0.00 0.00 0.00 0.00 0.00 0.01 0.01 0.00 0.01 0.02 0.04 0.05 0.05 0.05 0.06 0.05 0.05 0.04 0.05 0.03 0.02 0.02 0.03 0.02 0.04 0.04 0.05 0.07 0.07 0.08 0.09 0.08 0.10 0.10 0.16 0.23 0.33 0.41
0.00 0.00 0.00 0.00 0.00 0.00 0.02 0.04 0.04 0.01 0.01 0.00 0.01 0.03 0.04 0.06 0.07 0.06 0.06 0.06 0.05 0.04 0.02 0.03 0.03 0.02 0.02 0.03 0.02 0.03 0.03 0.04 0.05 0.07 0.08 0.11 0.14 0.19 0.24 0.29 0.32 0.36 0.35
0.01 0.00 0.00 0.00 0.00 0.01 0.05 0.05 0.04 0.02 0.05 0.05 0.05 0.06 0.06 0.07 0.08 0.08 0.06 0.07 0.07 0.06 0.05 0.04 0.04 0.04 0.05 0.07 0.08 0.09 0.10 0.14 0.16 0.19 0.21 0.25 0.31 0.35 0.37 0.38 0.36 0.32 0.28
0.01 0.00 0.01 0.01 0.01 0.01 0.03 0.04 0.07 0.08 0.08 0.11 0.11 0.09 0.07 0.05 0.05 0.06 0.05 0.05 0.05 0.06 0.06 0.06 0.09 0.11 0.13 0.18 0.21 0.25 0.33 0.36 0.36 0.36 0.37 0.45 0.52 0.50 0.45 0.42 0.38 0.29 0.23
0.02 0.01 0.01 0.00 0.00 0.00 0.01 0.02 0.06 0.10 0.16 0.15 0.10 0.07 0.06 0.06 0.07 0.06 0.06 0.08 0.09 0.11 0.15 0.17 0.13 0.13 0.14 0.30 0.24 0.20 0.23 0.28 0.33 0.41 0.43 0.49 0.50 0.36 0.31 0.26 0.19 0.17 0.30
0.01 0.00 0.00 0.00 0.00 0.00 0.01 0.01 0.03 0.06 0.07 0.06 0.04 0.04 0.07 0.10 0.09 0.07 0.05 0.09 0.23 0.40 0.36 0.38 0.47 0.61 0.68 0.73 0.55 0.42 0.30 0.31 0.31 0.30 0.26 0.20 0.17 0.16 0.11 0.09 0.13 0.30 0.36
0.00 0.00 0.00 0.00 0.00 0.00 0.00 0.01 0.02 0.07 0.16 0.23 0.24 0.20 0.38 0.53 0.37 0.44 0.56 0.63 0.43 0.44 0.56 0.50 0.64 0.70 0.83 0.75 0.58 0.56 0.54 0.47 0.40 0.30 0.20 0.15 0.10 0.06 0.04 0.10 0.34 0.20 0.05
0.01 0.00 0.00 0.00 0.00 0.00 0.00 0.01 0.02 0.04 0.15 0.33 0.58 0.61 0.65 0.67 0.73 1.09 1.03 1.18 1.08 0.85 0.71 0.58 0.54 0.45 0.36 0.26 0.20 0.15 0.14 0.12 0.09 0.05 0.02 0.04 0.03 0.02 0.16 0.27 0.20 0.03 0.00
0.01 0.01 0.00 0.00 0.00 0.00 0.03 0.05 0.04 0.08 0.18 0.26 0.22 0.62 0.78 0.63 0.58 0.63 0.64 0.72 0.50 0.52 0.60 0.53 0.35 0.28 0.20 0.14 0.09 0.08 0.06 0.03 0.01 0.01 0.02 0.02 0.02 0.11 0.36 0.13 0.03 0.02 0.01
0.01 0.01 0.02 0.02 0.04 0.07 0.13 0.25 0.23 0.41 0.54 0.84 0.62 0.66 0.80 0.64 0.47 0.54 0.36 0.35 0.38 0.30 0.21 0.14 0.10 0.05 0.03 0.01 0.00 0.01 0.01 0.01 0.04 0.05 0.01 0.00 0.11 0.29 0.11 0.03 0.01 0.02 0.06
0.23 0.25 0.18 0.14 0.18 0.22 0.37 0.72 0.66 0.65 0.70 0.64 0.69 0.44 0.40 0.30 0.22 0.15 0.14 0.10 0.05 0.03 0.02 0.01 0.00 0.00 0.00 0.00 0.00 0.00 0.01 0.04 0.05 0.03 0.02 0.11 0.22 0.04 0.00 0.00 0.02 0.04 0.03
0.28 0.54 0.49 0.45 0.55 0.41 0.43 0.59 0.46 0.28 0.14 0.17 0.12 0.05 0.02 0.02 0.01 0.01 0.00 0.00 0.00 0.00 0.00 0.00 0.00 0.00 0.00 0.00 0.00 0.00 0.03 0.05 0.05 0.04 0.16 0.14 0.01 0.00 0.00 0.00 0.01 0.01 0.00
0.01 0.02 0.02 0.06 0.14 0.14 0.14 0.18 0.12 0.05 0.01 0.00 0.00 0.00 0.00 0.00 0.00 0.00 0.00 0.00 0.00 0.00 0.00 0.00 0.00 0.00 0.00 0.00 0.00 0.01 0.03 0.03 0.08 0.13 0.10 0.01 0.00 0.00 0.00 0.00 0.00 0.00 0.01
0.04 0.03 0.04 0.03 0.01 0.00 0.00 0.01 0.01 0.00 0.00 0.00 0.00 0.00 0.00 0.00 0.00 0.00 0.00 0.00 0.00 0.00 0.00 0.00 0.00 0.00 0.00 0.00 0.02 0.03 0.03 0.06 0.10 0.04 0.00 0.00 0.00 0.00 0.00 0.00 0.00 0.00 0.01
0.00 0.00 0.01 0.01 0.03 0.04 0.06 0.06 0.03 0.01 0.00 0.00 0.00 0.00 0.00 0.00 0.00 0.00 0.00 0.00 0.00 0.00 0.00 0.00 0.00 0.00 0.01 0.01 0.01 0.02 0.07 0.09 0.03 0.00 0.00 0.01 0.01 0.02 0.01 0.01 0.02 0.01 0.02

GFSMW_prec_precacc_081.txt.gz
Total_Precipitation_Accumulation
0.00 0.00 0.00 0.00 0.02 0.01 0.03 0.01 0.00 0.00 0.04 0.07 0.08 0.16 0.23 0.33 0.21 0.20 0.36 0.26 0.26 0.30 0.24 0.09 0.07 0.08 0.03 0.04 0.03 0.03 0.02 0.01 0.02 0.01 0.00 0.00 0.00 0.00 0.00 0.00 0.00 0.00 0.01
0.00 0.00 0.00 0.00 0.00 0.00 0.01 0.00 0.00 0.00 0.00 0.01 0.02 0.18 0.30 0.31 0.25 0.30 0.24 0.28 0.37 0.47 0.44 0.25 0.21 0.15 0.08 0.04 0.02 0.04 0.11 0.06 0.13 0.13 0.06 0.02 0.00 0.00 0.00 0.00 0.00 0.00 0.01
0.00 0.00 0.00 0.00 0.00 0.00 0.00 0.00 0.00 0.00 0.01 0.02 0.07 0.16 0.22 0.27 0.28 0.17 0.13 0.19 0.32 0.68 0.58 0.31 0.25 0.23 0.13 0.09 0.10 0.11 0.21 0.22 0.22 0.16 0.20 0.09 0.03 0.01 0.00 0.00 0.01 0.01 0.01
0.00 0.00 0.00 0.00 0.00 0.00 0.00 0.00 0.00 0.00 0.00 0.00 0.01 0.07 0.07 0.13 0.11 0.14 0.23 0.28 0.34 0.56 0.67 0.49 0.38 0.39 0.31 0.22 0.24 0.22 0.30 0.31 0.24 0.21 0.16 0.15 0.08 0.07 0.03 0.02 0.04 0.03 0.02
0.00 0.00 0.00 0.00 0.00 0.00 0.00 0.00 0.00 0.00 0.00 0.00 0.00 0.04 0.10 0.09 0.10 0.15 0.17 0.22 0.30 0.34 0.42 0.39 0.38 0.28 0.27 0.32 0.28 0.27 0.27 0.33 0.33 0.25 0.28 0.23 0.18 0.12 0.10 0.07 0.06 0.07 0.06
0.00 0.00 0.00 0.00 0.00 0.00 0.00 0.00 0.00 0.00 0.00 0.00 0.01 0.01 0.08 0.08 0.06 0.09 0.15 0.17 0.19 0.18 0.24 0.25 0.24 0.24 0.21 0.21 0.29 0.33 0.36 0.35 0.38 0.35 0.33 0.34 0.33 0.26 0.22 0.17 0.11 0.11 0.08
0.00 0.00 0.00 0.00 0.00 0.00 0.00 0.00 0.00 0.00 0.00 0.00 0.00 0.00 0.02 0.09 0.07 0.10 0.15 0.15 0.11 0.08 0.10 0.21 0.23 0.21 0.24 0.28 0.27 0.25 0.23 0.33 0.40 0.41 0.32 0.30 0.31 0.32 0.33 0.35 0.32 0.26 0.15
0.00 0.00 0.00 0.00 0.00 0.00 0.00 0.00 0.00 0.00 0.00 0.00 0.00 0.00 0.00 0.04 0.05 0.06 0.07 0.08 0.11 0.11 0.13 0.16 0.20 0.24 0.23 0.21 0.21 0.21 0.20 0.22 0.28 0.35 0.40 0.34 0.30 0.32 0.33 0.38 0.47 0.39 0.26
0.00 0.00 0.00 0.00 0.00 0.00 0.00 0.00 0.00 0.00 0.00 0.00 0.00 0.00 0.00 0.05 0.05 0.04 0.04 0.06 0.06 0.07 0.09 0.12 0.15 0.17 0.21 0.23 0.26 0.23 0.20 0.21 0.20 0.22 0.30 0.32 0.24 0.21 0.26 0.32 0.51 0.78 0.85
0.00 0.00 0.00 0.00 0.00 0.00 0.00 0.00 0.00 0.00 0.00 0.02 0.02 0.01 0.04 0.04 0.04 0.03 0.03 0.05 0.06 0.06 0.07 0.07 0.08 0.08 0.10 0.14 0.21 0.23 0.26 0.31 0.32 0.35 0.38 0.39 0.38 0.40 0.45 0.52 0.64 0.88 1.10
0.00 0.00 0.00 0.00 0.00 0.00 0.00 0.00 0.00 0.00 0.00 0.01 0.00 0.01 0.03 0.03 0.04 0.04 0.04 0.04 0.04 0.05 0.05 0.05 0.04 0.04 0.03 0.03 0.04 0.05 0.06 0.09 0.09 0.11 0.14 0.17 0.21 0.28 0.32 0.33 0.37 0.47 0.60
0.00 0.00 0.00 0.00 0.00 0.00 0.00 0.00 0.00 0.00 0.01 0.01 0.00 0.01 0.02 0.04 0.05 0.05 0.05 0.06 0.05 0.05 0.04 0.05 0.03 0.02 0.02 0.03 0.02 0.04 0.04 0.05 0.07 0.07 0.08 0.09 0.08 0.10 0.10 0.16 0.23 0.33 0.41
0.00 0.00 0.00 0.00 0.00 0.00 0.02 0.04 0.04 0.01 0.01 0.00 0.01 0.03 0.04 0.06 0.07 0.06 0.06 0.06 0.05 0.04 0.02 0.03 0.03 0.02 0.02 0.03 0.02 0.03 0.03 0.04 0.05 0.07 0.08 0.11 0.14 0.19 0.24 0.29 0.32 0.36 0.35
0.01 0.00 0.00 0.00 0.00 0.01 0.05 0.05 0.04 0.02 0.05 0.05 0.05 0.06 0.06 0.07 0.08 0.08 0.06 0.07 0.07 0.06 0.05 0.04 0.04 0.04 0.05 0.07 0.08 0.09 0.10 0.14 0.16 0.19 0.21 0.25 0.31 0.35 0.37 0.38 0.36 0.32 0.28
0.01 0.00 0.01 0.01 0.01 0.01 0.03 0.04 0.07 0.08 0.08 0.11 0.11 0.09 0.07 0.05 0.05 0.06 0.05 0.05 0.05 0.06 0.06 0.06 0.09 0.11 0.13 0.18 0.21 0.25 0.33 0.36 0.36 0.36 0.37 0.45 0.52 0.50 0.45 0.42 0.38 0.29 0.23
0.02 0.01 0.01 0.00 0.00 0.00 0.01 0.02 0.06 0.10 0.16 0.15 0.10 0.07 0.06 0.06 0.07 0.06 0.06 0.08 0.09 0.11 0.15 0.17 0.13 0.13 0.14 0.31 0.24 0.20 0.23 0.28 0.33 0.41 0.43 0.49 0.50 0.36 0.31 0.26 0.19 0.17 0.30
0.01 0.00 0.00 0.00 0.00 0.00 0.01 0.01 0.03 0.06 0.07 0.06 0.04 0.04 0.07 0.10 0.09 0.07 0.05 0.09 0.23 0.40 0.36 0.38 0.47 0.61 0.68 0.74 0.55 0.42 0.30 0.31 0.31 0.30 0.26 0.20 0.17 0.16 0.11 0.09 0.13 0.30 0.36
0.00 0.00 0.00 0.00 0.00 0.00 0.00 0.01 0.02 0.07 0.16 0.23 0.24 0.20 0.38 0.53 0.37 0.44 0.56 0.63 0.43 0.44 0.56 0.50 0.64 0.70 0.83 0.75 0.58 0.56 0.54 0.47 0.40 0.30 0.20 0.15 0.10 0.06 0.04 0.10 0.34 0.20 0.05
0.01 0.00 0.00 0.00 0.00 0.00 0.00 0.01 0.02 0.04 0.15 0.33 0.58 0.61 0.65 0.67 0.73 1.09 1.03 1.18 1.08 0.85 0.71 0.58 0.54 0.45 0.36 0.26 0.20 0.15 0.14 0.12 0.09 0.05 0.02 0.04 0.03 0.02 0.16 0.27 0.20 0.03 0.00
0.01 0.01 0.00 0.00 0.00 0.00 0.03 0.05 0.04 0.08 0.18 0.26 0.22 0.62 0.78 0.63 0.58 0.63 0.64 0.72 0.50 0.52 0.60 0.53 0.35 0.28 0.20 0.14 0.09 0.08 0.06 0.03 0.01 0.01 0.02 0.02 0.02 0.11 0.36 0.13 0.03 0.02 0.01
0.01 0.01 0.02 0.02 0.04 0.07 0.13 0.25 0.23 0.41 0.54 0.84 0.62 0.66 0.80 0.64 0.47 0.54 0.36 0.35 0.38 0.30 0.21 0.14 0.10 0.05 0.03 0.01 0.00 0.01 0.01 0.01 0.04 0.05 0.01 0.00 0.11 0.29 0.11 0.03 0.01 0.02 0.06
0.23 0.25 0.18 0.14 0.18 0.22 0.37 0.72 0.66 0.65 0.70 0.64 0.69 0.44 0.40 0.30 0.22 0.15 0.14 0.10 0.05 0.03 0.02 0.01 0.00 0.00 0.00 0.00 0.00 0.00 0.01 0.04 0.05 0.03 0.02 0.11 0.22 0.04 0.00 0.00 0.02 0.04 0.03
0.28 0.54 0.49 0.45 0.55 0.41 0.43 0.59 0.46 0.28 0.14 0.17 0.12 0.05 0.02 0.02 0.01 0.01 0.00 0.00 0.00 0.00 0.00 0.00 0.00 0.00 0.00 0.00 0.00 0.00 0.03 0.05 0.05 0.04 0.16 0.14 0.01 0.00 0.00 0.00 0.01 0.01 0.00
0.01 0.02 0.02 0.06 0.14 0.14 0.14 0.18 0.12 0.06 0.02 0.01 0.00 0.00 0.00 0.00 0.00 0.00 0.00 0.00 0.00 0.00 0.00 0.00 0.00 0.00 0.00 0.00 0.00 0.01 0.03 0.03 0.08 0.13 0.10 0.01 0.00 0.00 0.00 0.00 0.00 0.00 0.01
0.04 0.03 0.04 0.03 0.01 0.00 0.00 0.01 0.01 0.01 0.02 0.01 0.01 0.00 0.00 0.00 0.00 0.00 0.00 0.00 0.00 0.00 0.00 0.00 0.00 0.00 0.00 0.00 0.02 0.03 0.03 0.06 0.10 0.04 0.00 0.00 0.00 0.00 0.00 0.00 0.00 0.00 0.01
0.00 0.00 0.01 0.01 0.03 0.04 0.06 0.06 0.04 0.02 0.02 0.02 0.01 0.00 0.00 0.00 0.00 0.00 0.00 0.00 0.00 0.00 0.00 0.00 0.00 0.00 0.01 0.01 0.01 0.02 0.07 0.09 0.03 0.00 0.00 0.01 0.01 0.02 0.01 0.01 0.02 0.01 0.02

GFSMW_prec_precacc_084.txt.gz
Total_Precipitation_Accumulation
0.00 0.00 0.00 0.01 0.07 0.05 0.10 0.10 0.08 0.04 0.06 0.09 0.10 0.18 0.24 0.33 0.21 0.21 0.37 0.27 0.27 0.30 0.24 0.09 0.07 0.08 0.03 0.04 0.03 0.04 0.03 0.01 0.02 0.02 0.00 0.00 0.00 0.00 0.00 0.00 0.00 0.00 0.01
0.00 0.00 0.00 0.00 0.00 0.05 0.10 0.14 0.07 0.07 0.10 0.05 0.07 0.23 0.31 0.33 0.26 0.31 0.25 0.28 0.38 0.47 0.44 0.25 0.21 0.15 0.08 0.05 0.03 0.05 0.12 0.06 0.13 0.14 0.07 0.03 0.00 0.00 0.00 0.00 0.00 0.00 0.01
0.00 0.00 0.00 0.00 0.00 0.00 0.00 0.02 0.08 0.08 0.19 0.14 0.14 0.27 0.31 0.31 0.30 0.18 0.13 0.19 0.32 0.68 0.58 0.31 0.25 0.23 0.14 0.10 0.10 0.12 0.22 0.22 0.23 0.16 0.21 0.10 0.03 0.01 0.00 0.00 0.01 0.01 0.01
0.00 0.00 0.00 0.00 0.00 0.00 0.00 0.00 0.00 0.03 0.04 0.05 0.11 0.13 0.10 0.15 0.12 0.15 0.23 0.28 0.34 0.56 0.67 0.49 0.38 0.39 0.31 0.22 0.24 0.23 0.31 0.32 0.24 0.21 0.16 0.16 0.09 0.09 0.05 0.02 0.04 0.03 0.02
0.00 0.00 0.00 0.00 0.00 0.00 0.00 0.00 0.00 0.00 0.00 0.00 0.01 0.04 0.10 0.09 0.10 0.15 0.17 0.22 0.30 0.34 0.42 0.39 0.38 0.28 0.27 0.32 0.28 0.27 0.27 0.33 0.34 0.25 0.29 0.24 0.19 0.13 0.13 0.08 0.06 0.07 0.06
0.00 0.00 0.00 0.00 0.00 0.00 0.00 0.00 0.00 0.00 0.00 0.00 0.01 0.01 0.08 0.08 0.06 0.09 0.15 0.17 0.19 0.18 0.24 0.25 0.24 0.24 0.21 0.21 0.29 0.33 0.36 0.35 0.38 0.35 0.34 0.36 0.35 0.28 0.23 0.18 0.12 0.12 0.08
0.00 0.00 0.00 0.00 0.00 0.00 0.00 0.00 0.00 0.00 0.00 0.00 0.00 0.00 0.02 0.09 0.07 0.10 0.15 0.15 0.11 0.08 0.10 0.21 0.23 0.21 0.24 0.28 0.27 0.25 0.23 0.33 0.40 0.42 0.33 0.31 0.33 0.33 0.35 0.36 0.32 0.26 0.15
0.00 0.00 0.00 0.00 0.00 0.00 0.00 0.00 0.00 0.00 0.00 0.00 0.00 0.00 0.00 0.04 0.05 0.06 0.07 0.08 0.11 0.11 0.13 0.16 0.20 0.24 0.23 0.21 0.21 0.21 0.20 0.22 0.28 0.35 0.40 0.34 0.30 0.32 0.33 0.38 0.48 0.40 0.27
0.00 0.00 0.00 0.00 0.00 0.00 0.00 0.00 0.00 0.00 0.00 0.00 0.00 0.00 0.00 0.05 0.05 0.04 0.04 0.06 0.06 0.07 0.09 0.12 0.15 0.17 0.21 0.23 0.26 0.23 0.20 0.21 0.20 0.22 0.30 0.32 0.24 0.21 0.26 0.32 0.51 0.78 0.85
0.00 0.00 0.00 0.00 0.00 0.00 0.00 0.00 0.00 0.00 0.00 0.02 0.02 0.01 0.04 0.04 0.04 0.03 0.03 0.05 0.06 0.06 0.07 0.07 0.08 0.08 0.10 0.14 0.21 0.23 0.26 0.31 0.32 0.35 0.38 0.39 0.38 0.40 0.45 0.52 0.64 0.88 1.10
0.00 0.00 0.00 0.00 0.00 0.00 0.00 0.00 0.00 0.00 0.00 0.01 0.00 0.01 0.03 0.03 0.04 0.04 0.04 0.04 0.04 0.05 0.05 0.05 0.04 0.04 0.03 0.03 0.04 0.05 0.06 0.09 0.09 0.11 0.14 0.17 0.21 0.28 0.32 0.33 0.37 0.47 0.60
0.00 0.00 0.00 0.00 0.00 0.00 0.00 0.00 0.00 0.00 0.01 0.01 0.00 0.01 0.02 0.04 0.05 0.05 0.05 0.06 0.05 0.05 0.04 0.05 0.03 0.02 0.02 0.03 0.02 0.04 0.04 0.05 0.07 0.07 0.08 0.09 0.08 0.10 0.10 0.16 0.23 0.33 0.41
0.00 0.00 0.00 0.00 0.00 0.00 0.02 0.04 0.04 0.01 0.01 0.00 0.01 0.03 0.04 0.06 0.07 0.06 0.06 0.06 0.05 0.04 0.02 0.03 0.03 0.02 0.02 0.03 0.02 0.03 0.03 0.04 0.05 0.07 0.08 0.11 0.14 0.19 0.24 0.29 0.32 0.36 0.35
0.01 0.00 0.00 0.00 0.00 0.01 0.05 0.05 0.04 0.02 0.05 0.05 0.05 0.06 0.06 0.07 0.08 0.08 0.06 0.07 0.07 0.06 0.05 0.04 0.04 0.04 0.05 0.07 0.08 0.09 0.10 0.14 0.16 0.19 0.21 0.25 0.31 0.35 0.37 0.38 0.36 0.32 0.28
0.01 0.00 0.01 0.01 0.01 0.01 0.03 0.04 0.07 0.08 0.08 0.11 0.11 0.09 0.07 0.05 0.05 0.06 0.05 0.05 0.05 0.06 0.06 0.06 0.09 0.11 0.13 0.18 0.21 0.25 0.33 0.36 0.36 0.36 0.37 0.45 0.52 0.50 0.45 0.42 0.38 0.29 0.23
0.02 0.01 0.01 0.00 0.00 0.00 0.01 0.02 0.06 0.10 0.16 0.15 0.10 0.07 0.06 0.06 0.07 0.06 0.06 0.08 0.09 0.11 0.15 0.17 0.13 0.13 0.14 0.31 0.25 0.20 0.23 0.28 0.33 0.41 0.43 0.49 0.50 0.36 0.31 0.26 0.19 0.17 0.30
0.01 0.00 0.00 0.00 0.00 0.00 0.01 0.01 0.03 0.06 0.07 0.06 0.04 0.04 0.07 0.10 0.09 0.07 0.05 0.09 0.23 0.40 0.36 0.38 0.47 0.61 0.68 0.74 0.55 0.42 0.30 0.31 0.31 0.30 0.26 0.20 0.17 0.16 0.11 0.09 0.13 0.30 0.36
0.00 0.00 0.00 0.00 0.00 0.00 0.00 0.01 0.02 0.07 0.16 0.23 0.24 0.20 0.38 0.53 0.37 0.44 0.56 0.63 0.43 0.44 0.56 0.50 0.64 0.70 0.83 0.75 0.58 0.56 0.54 0.47 0.40 0.30 0.20 0.15 0.10 0.06 0.04 0.10 0.34 0.20 0.05
0.01 0.00 0.00 0.00 0.00 0.00 0.00 0.01 0.02 0.04 0.15 0.33 0.58 0.61 0.65 0.67 0.73 1.09 1.03 1.18 1.08 0.85 0.71 0.58 0.54 0.45 0.36 0.26 0.20 0.15 0.14 0.12 0.09 0.05 0.02 0.04 0.03 0.02 0.16 0.27 0.20 0.03 0.00
0.01 0.01 0.00 0.00 0.00 0.00 0.03 0.05 0.04 0.08 0.18 0.26 0.22 0.62 0.78 0.63 0.58 0.63 0.64 0.72 0.50 0.52 0.60 0.53 0.35 0.28 0.20 0.14 0.09 0.08 0.06 0.03 0.01 0.01 0.02 0.02 0.02 0.11 0.36 0.13 0.03 0.02 0.01
0.01 0.01 0.02 0.02 0.04 0.07 0.13 0.25 0.23 0.41 0.54 0.84 0.62 0.66 0.80 0.64 0.47 0.54 0.36 0.35 0.38 0.30 0.21 0.14 0.10 0.05 0.03 0.01 0.00 0.01 0.01 0.01 0.04 0.05 0.01 0.00 0.11 0.29 0.11 0.03 0.01 0.02 0.06
0.23 0.25 0.18 0.14 0.18 0.22 0.37 0.72 0.66 0.65 0.70 0.64 0.69 0.44 0.40 0.30 0.22 0.15 0.14 0.10 0.05 0.03 0.02 0.01 0.00 0.00 0.00 0.00 0.00 0.00 0.01 0.04 0.05 0.03 0.02 0.11 0.22 0.04 0.00 0.00 0.02 0.04 0.03
0.28 0.54 0.49 0.45 0.55 0.41 0.43 0.59 0.46 0.28 0.14 0.17 0.12 0.05 0.02 0.02 0.01 0.01 0.00 0.00 0.00 0.00 0.00 0.00 0.00 0.00 0.00 0.00 0.00 0.00 0.03 0.05 0.05 0.04 0.16 0.14 0.01 0.00 0.00 0.00 0.01 0.01 0.00
0.01 0.02 0.02 0.06 0.14 0.14 0.14 0.18 0.12 0.06 0.02 0.01 0.00 0.00 0.00 0.00 0.00 0.00 0.00 0.00 0.00 0.00 0.00 0.00 0.00 0.00 0.00 0.00 0.00 0.01 0.03 0.03 0.08 0.13 0.10 0.01 0.00 0.00 0.00 0.00 0.00 0.00 0.01
0.04 0.03 0.04 0.03 0.01 0.00 0.00 0.01 0.01 0.01 0.02 0.01 0.01 0.01 0.00 0.00 0.00 0.00 0.00 0.00 0.00 0.00 0.00 0.00 0.00 0.00 0.00 0.00 0.02 0.03 0.03 0.06 0.10 0.04 0.00 0.00 0.00 0.00 0.00 0.00 0.00 0.00 0.01
0.01 0.00 0.01 0.01 0.03 0.04 0.06 0.06 0.04 0.02 0.02 0.02 0.02 0.02 0.02 0.01 0.01 0.00 0.00 0.00 0.00 0.00 0.00 0.00 0.00 0.00 0.01 0.01 0.01 0.02 0.07 0.09 0.03 0.00 0.00 0.01 0.01 0.02 0.01 0.01 0.02 0.01 0.02

GFSMW_prec_precacc_087.txt.gz
Total_Precipitation_Accumulation
0.00 0.00 0.01 0.05 0.13 0.11 0.10 0.10 0.13 0.09 0.07 0.11 0.14 0.23 0.28 0.34 0.22 0.22 0.38 0.27 0.27 0.30 0.24 0.09 0.07 0.08 0.03 0.04 0.03 0.04 0.03 0.01 0.02 0.02 0.01 0.00 0.00 0.00 0.00 0.00 0.00 0.00 0.01
0.00 0.00 0.00 0.00 0.00 0.10 0.19 0.18 0.09 0.22 0.20 0.08 0.12 0.32 0.45 0.42 0.33 0.40 0.31 0.28 0.38 0.47 0.44 0.25 0.21 0.15 0.08 0.05 0.03 0.05 0.12 0.06 0.13 0.14 0.08 0.03 0.00 0.00 0.00 0.00 0.00 0.00 0.01
0.00 0.00 0.00 0.00 0.00 0.01 0.03 0.07 0.12 0.24 0.31 0.32 0.21 0.43 0.46 0.45 0.40 0.25 0.17 0.19 0.32 0.68 0.58 0.31 0.25 0.23 0.14 0.10 0.10 0.12 0.22 0.23 0.23 0.17 0.22 0.11 0.03 0.01 0.00 0.00 0.01 0.01 0.01
0.00 0.00 0.00 0.00 0.00 0.00 0.00 0.00 0.00 0.10 0.11 0.08 0.27 0.29 0.21 0.25 0.22 0.22 0.33 0.35 0.35 0.56 0.67 0.49 0.38 0.39 0.31 0.22 0.24 0.23 0.31 0.32 0.24 0.21 0.16 0.16 0.10 0.10 0.05 0.02 0.04 0.03 0.02
0.00 0.00 0.00 0.00 0.00 0.00 0.00 0.00 0.00 0.05 0.09 0.03 0.07 0.04 0.12 0.09 0.11 0.18 0.21 0.22 0.30 0.34 0.42 0.39 0.38 0.28 0.27 0.32 0.28 0.27 0.27 0.33 0.34 0.25 0.29 0.24 0.19 0.14 0.14 0.08 0.06 0.07 0.06
0.00 0.00 0.00 0.00 0.00 0.00 0.01 0.01 0.00 0.01 0.05 0.03 0.02 0.02 0.08 0.08 0.06 0.10 0.15 0.17 0.19 0.18 0.24 0.25 0.24 0.24 0.21 0.21 0.29 0.33 0.36 0.35 0.38 0.35 0.34 0.36 0.35 0.28 0.23 0.19 0.13 0.12 0.09
0.00 0.00 0.00 0.00 0.00 0.00 0.00 0.00 0.02 0.02 0.02 0.01 0.00 0.00 0.02 0.09 0.07 0.10 0.15 0.15 0.11 0.08 0.10 0.21 0.23 0.21 0.24 0.28 0.27 0.25 0.23 0.33 0.40 0.42 0.33 0.31 0.33 0.34 0.35 0.37 0.33 0.27 0.15
0.00 0.00 0.00 0.00 0.00 0.00 0.00 0.00 0.00 0.00 0.00 0.00 0.00 0.00 0.00 0.04 0.05 0.06 0.07 0.08 0.11 0.11 0.13 0.16 0.20 0.24 0.23 0.21 0.21 0.21 0.20 0.22 0.28 0.35 0.40 0.34 0.30 0.32 0.34 0.39 0.49 0.41 0.27
0.00 0.00 0.00 0.00 0.00 0.00 0.00 0.00 0.00 0.00 0.00 0.00 0.00 0.00 0.00 0.05 0.05 0.04 0.04 0.06 0.06 0.07 0.09 0.12 0.15 0.17 0.21 0.23 0.26 0.23 0.20 0.21 0.20 0.22 0.30 0.32 0.24 0.22 0.27 0.33 0.51 0.78 0.86
0.00 0.00 0.00 0.00 0.00 0.00 0.00 0.00 0.00 0.00 0.00 0.02 0.02 0.01 0.04 0.04 0.04 0.03 0.03 0.05 0.06 0.06 0.07 0.07 0.08 0.08 0.10 0.14 0.21 0.23 0.26 0.31 0.32 0.35 0.38 0.39 0.38 0.40 0.45 0.52 0.64 0.88 1.10
0.00 0.00 0.00 0.00 0.00 0.00 0.00 0.00 0.00 0.00 0.00 0.01 0.00 0.01 0.03 0.03 0.04 0.04 0.04 0.04 0.04 0.05 0.05 0.05 0.04 0.04 0.03 0.03 0.04 0.05 0.06 0.09 0.09 0.11 0.14 0.17 0.21 0.28 0.32 0.33 0.37 0.47 0.60
0.00 0.00 0.00 0.00 0.00 0.00 0.00 0.00 0.00 0.00 0.01 0.01 0.00 0.01 0.02 0.04 0.05 0.05 0.05 0.06 0.05 0.05 0.04 0.05 0.03 0.02 0.02 0.03 0.02 0.04 0.04 0.05 0.07 0.07 0.08 0.09 0.08 0.10 0.10 0.16 0.23 0.33 0.41
0.00 0.00 0.00 0.00 0.00 0.00 0.02 0.04 0.04 0.02 0.01 0.00 0.01 0.03 0.05 0.06 0.07 0.06 0.06 0.06 0.05 0.04 0.02 0.03 0.03 0.02 0.02 0.03 0.02 0.03 0.03 0.04 0.05 0.07 0.08 0.11 0.14 0.19 0.24 0.29 0.32 0.36 0.35
0.01 0.00 0.00 0.00 0.00 0.01 0.05 0.05 0.04 0.02 0.05 0.05 0.05 0.06 0.06 0.07 0.08 0.08 0.06 0.07 0.07 0.06 0.05 0.04 0.04 0.04 0.05 0.07 0.08 0.09 0.10 0.14 0.16 0.19 0.21 0.25 0.31 0.35 0.37 0.38 0.36 0.32 0.28
0.01 0.00 0.01 0.01 0.01 0.01 0.03 0.04 0.07 0.08 0.08 0.11 0.11 0.09 0.07 0.05 0.05 0.06 0.05 0.05 0.05 0.06 0.06 0.06 0.09 0.11 0.13 0.18 0.21 0.25 0.33 0.36 0.36 0.36 0.37 0.45 0.52 0.50 0.45 0.42 0.38 0.29 0.23
0.02 0.01 0.01 0.00 0.00 0.00 0.01 0.02 0.06 0.10 0.16 0.15 0.10 0.07 0.06 0.06 0.07 0.06 0.06 0.08 0.09 0.11 0.15 0.17 0.13 0.13 0.14 0.31 0.25 0.20 0.23 0.28 0.33 0.41 0.43 0.49 0.50 0.36 0.31 0.26 0.19 0.17 0.30
0.01 0.00 0.00 0.00 0.00 0.00 0.01 0.01 0.03 0.06 0.07 0.06 0.04 0.04 0.07 0.10 0.09 0.07 0.05 0.09 0.23 0.40 0.36 0.38 0.47 0.61 0.68 0.74 0.55 0.42 0.30 0.31 0.31 0.30 0.26 0.20 0.17 0.16 0.11 0.09 0.13 0.30 0.36
0.00 0.00 0.00 0.00 0.00 0.00 0.00 0.01 0.02 0.07 0.16 0.23 0.24 0.20 0.38 0.53 0.37 0.44 0.56 0.63 0.43 0.44 0.56 0.50 0.64 0.70 0.83 0.75 0.58 0.56 0.54 0.47 0.40 0.30 0.20 0.15 0.10 0.06 0.04 0.10 0.34 0.20 0.05
0.01 0.00 0.00 0.00 0.00 0.00 0.00 0.01 0.02 0.04 0.15 0.33 0.58 0.61 0.65 0.67 0.73 1.09 1.03 1.18 1.08 0.85 0.71 0.58 0.54 0.45 0.36 0.26 0.20 0.15 0.14 0.12 0.09 0.05 0.02 0.04 0.03 0.02 0.16 0.27 0.20 0.03 0.00
0.01 0.01 0.00 0.00 0.00 0.00 0.03 0.05 0.04 0.08 0.18 0.26 0.22 0.62 0.78 0.63 0.58 0.63 0.64 0.72 0.50 0.52 0.60 0.53 0.35 0.28 0.20 0.14 0.09 0.08 0.06 0.03 0.01 0.01 0.02 0.02 0.02 0.11 0.36 0.13 0.03 0.02 0.01
0.01 0.01 0.02 0.02 0.04 0.07 0.13 0.25 0.23 0.41 0.54 0.84 0.62 0.66 0.80 0.64 0.47 0.54 0.36 0.35 0.38 0.30 0.21 0.14 0.10 0.05 0.03 0.01 0.00 0.01 0.01 0.01 0.04 0.05 0.01 0.00 0.11 0.29 0.11 0.03 0.01 0.02 0.06
0.23 0.25 0.18 0.14 0.18 0.22 0.37 0.72 0.66 0.65 0.70 0.64 0.69 0.44 0.40 0.30 0.22 0.15 0.14 0.10 0.05 0.03 0.02 0.01 0.00 0.00 0.00 0.00 0.00 0.00 0.01 0.04 0.05 0.03 0.02 0.11 0.22 0.04 0.00 0.00 0.02 0.04 0.03
0.28 0.54 0.49 0.45 0.55 0.41 0.43 0.59 0.46 0.28 0.14 0.17 0.12 0.05 0.02 0.02 0.01 0.01 0.00 0.00 0.00 0.00 0.00 0.00 0.00 0.00 0.00 0.00 0.00 0.00 0.03 0.05 0.05 0.04 0.16 0.14 0.01 0.00 0.00 0.00 0.01 0.01 0.00
0.01 0.02 0.02 0.06 0.14 0.14 0.14 0.18 0.12 0.06 0.02 0.01 0.00 0.00 0.00 0.00 0.00 0.00 0.00 0.00 0.00 0.00 0.00 0.00 0.00 0.00 0.00 0.00 0.00 0.01 0.03 0.03 0.08 0.13 0.10 0.01 0.00 0.00 0.00 0.00 0.00 0.00 0.01
0.04 0.03 0.04 0.03 0.01 0.00 0.00 0.01 0.01 0.01 0.02 0.01 0.01 0.01 0.00 0.00 0.00 0.00 0.00 0.00 0.00 0.00 0.00 0.00 0.00 0.00 0.00 0.00 0.02 0.03 0.03 0.06 0.10 0.04 0.00 0.00 0.00 0.00 0.00 0.00 0.00 0.00 0.01
0.01 0.01 0.01 0.02 0.03 0.04 0.06 0.06 0.04 0.02 0.02 0.02 0.02 0.03 0.02 0.01 0.01 0.01 0.02 0.02 0.01 0.00 0.00 0.00 0.00 0.00 0.01 0.01 0.01 0.02 0.07 0.09 0.03 0.00 0.00 0.01 0.01 0.02 0.01 0.01 0.02 0.01 0.02

GFSMW_prec_precacc_090.txt.gz
Total_Precipitation_Accumulation
0.00 0.00 0.03 0.14 0.21 0.15 0.13 0.14 0.16 0.10 0.07 0.11 0.16 0.26 0.29 0.35 0.23 0.23 0.40 0.27 0.27 0.30 0.24 0.09 0.07 0.08 0.03 0.04 0.03 0.04 0.03 0.02 0.02 0.03 0.01 0.00 0.00 0.00 0.00 0.00 0.00 0.00 0.01
0.00 0.00 0.00 0.01 0.05 0.15 0.23 0.23 0.12 0.27 0.20 0.08 0.15 0.35 0.53 0.55 0.44 0.49 0.41 0.31 0.42 0.49 0.44 0.26 0.21 0.15 0.08 0.05 0.03 0.05 0.12 0.07 0.13 0.14 0.08 0.03 0.00 0.00 0.00 0.00 0.00 0.00 0.01
0.00 0.00 0.00 0.00 0.00 0.02 0.04 0.10 0.20 0.33 0.32 0.33 0.22 0.45 0.51 0.54 0.51 0.29 0.19 0.26 0.40 0.71 0.59 0.31 0.25 0.23 0.14 0.10 0.10 0.12 0.23 0.23 0.23 0.17 0.24 0.12 0.03 0.01 0.00 0.00 0.01 0.01 0.01
0.00 0.00 0.00 0.00 0.00 0.00 0.00 0.04 0.04 0.13 0.13 0.11 0.29 0.38 0.29 0.32 0.34 0.39 0.47 0.47 0.44 0.61 0.68 0.50 0.38 0.39 0.31 0.22 0.24 0.23 0.31 0.32 0.24 0.21 0.16 0.16 0.10 0.11 0.05 0.02 0.04 0.03 0.02
0.00 0.00 0.00 0.00 0.00 0.00 0.00 0.01 0.03 0.16 0.17 0.11 0.19 0.14 0.24 0.13 0.14 0.25 0.28 0.28 0.33 0.36 0.42 0.39 0.38 0.28 0.27 0.32 0.28 0.27 0.27 0.33 0.34 0.25 0.29 0.24 0.19 0.14 0.14 0.08 0.06 0.07 0.06
0.00 0.00 0.00 0.00 0.00 0.00 0.01 0.01 0.02 0.06 0.13 0.08 0.14 0.06 0.14 0.11 0.08 0.11 0.17 0.18 0.20 0.18 0.24 0.25 0.24 0.24 0.21 0.21 0.29 0.33 0.36 0.35 0.38 0.35 0.34 0.36 0.35 0.28 0.23 0.20 0.13 0.13 0.09
0.00 0.00 0.00 0.00 0.00 0.00 0.00 0.00 0.02 0.05 0.14 0.13 0.17 0.15 0.14 0.18 0.14 0.16 0.19 0.17 0.12 0.08 0.10 0.21 0.23 0.21 0.24 0.28 0.27 0.25 0.23 0.33 0.40 0.42 0.33 0.31 0.33 0.34 0.36 0.38 0.34 0.27 0.15
0.00 0.00 0.00 0.00 0.00 0.00 0.00 0.00 0.00 0.00 0.02 0.05 0.06 0.07 0.05 0.08 0.08 0.09 0.10 0.10 0.11 0.11 0.13 0.16 0.20 0.24 0.23 0.21 0.21 0.21 0.20 0.22 0.28 0.35 0.40 0.34 0.30 0.32 0.34 0.40 0.50 0.41 0.28
0.00 0.00 0.00 0.00 0.00 0.00 0.00 0.00 0.00 0.00 0.00 0.00 0.01 0.01 0.01 0.05 0.05 0.04 0.04 0.06 0.06 0.07 0.09 0.12 0.15 0.17 0.21 0.23 0.26 0.23 0.20 0.21 0.20 0.22 0.30 0.32 0.24 0.22 0.27 0.33 0.51 0.79 0.86
0.00 0.00 0.00 0.00 0.00 0.00 0.00 0.00 0.00 0.00 0.00 0.02 0.02 0.01 0.04 0.04 0.04 0.03 0.03 0.05 0.06 0.06 0.07 0.07 0.08 0.08 0.10 0.14 0.21 0.23 0.26 0.31 0.32 0.35 0.38 0.39 0.38 0.40 0.45 0.52 0.64 0.88 1.10
0.00 0.00 0.00 0.00 0.00 0.00 0.00 0.00 0.00 0.00 0.00 0.01 0.00 0.01 0.03 0.03 0.04 0.04 0.04 0.04 0.04 0.05 0.05 0.05 0.04 0.04 0.03 0.03 0.04 0.05 0.06 0.09 0.09 0.11 0.14 0.17 0.21 0.28 0.32 0.33 0.37 0.47 0.60
0.00 0.00 0.00 0.00 0.00 0.00 0.00 0.00 0.00 0.01 0.01 0.01 0.00 0.01 0.02 0.04 0.05 0.05 0.05 0.06 0.05 0.05 0.04 0.05 0.03 0.02 0.02 0.03 0.02 0.04 0.04 0.05 0.07 0.07 0.08 0.09 0.08 0.10 0.10 0.16 0.23 0.33 0.41
0.00 0.00 0.00 0.00 0.00 0.00 0.02 0.04 0.04 0.02 0.01 0.01 0.01 0.03 0.05 0.06 0.07 0.07 0.06 0.06 0.05 0.04 0.02 0.03 0.03 0.02 0.02 0.03 0.02 0.03 0.03 0.04 0.05 0.07 0.08 0.11 0.14 0.19 0.24 0.29 0.32 0.36 0.35
0.01 0.00 0.00 0.00 0.00 0.01 0.05 0.05 0.04 0.02 0.05 0.05 0.05 0.06 0.06 0.07 0.08 0.08 0.06 0.07 0.07 0.06 0.05 0.04 0.04 0.04 0.05 0.07 0.08 0.09 0.10 0.14 0.16 0.19 0.21 0.25 0.31 0.35 0.37 0.38 0.36 0.32 0.28
0.01 0.00 0.01 0.01 0.01 0.01 0.03 0.04 0.07 0.08 0.08 0.11 0.11 0.09 0.07 0.05 0.05 0.06 0.05 0.05 0.05 0.06 0.06 0.06 0.09 0.11 0.13 0.18 0.21 0.25 0.33 0.36 0.36 0.36 0.37 0.45 0.53 0.50 0.45 0.42 0.38 0.29 0.23
0.02 0.01 0.01 0.00 0.00 0.00 0.01 0.02 0.06 0.10 0.16 0.15 0.10 0.07 0.06 0.06 0.07 0.06 0.06 0.08 0.09 0.11 0.15 0.17 0.13 0.13 0.14 0.31 0.25 0.20 0.23 0.28 0.33 0.41 0.43 0.49 0.50 0.36 0.31 0.26 0.19 0.17 0.30
0.01 0.00 0.00 0.00 0.00 0.00 0.01 0.01 0.03 0.06 0.07 0.06 0.04 0.04 0.07 0.10 0.09 0.07 0.05 0.09 0.23 0.40 0.36 0.38 0.47 0.61 0.68 0.75 0.56 0.42 0.30 0.31 0.31 0.30 0.26 0.20 0.17 0.16 0.11 0.09 0.13 0.30 0.36
0.00 0.00 0.00 0.00 0.00 0.00 0.00 0.01 0.02 0.07 0.16 0.23 0.24 0.20 0.38 0.53 0.37 0.44 0.56 0.63 0.43 0.44 0.56 0.50 0.64 0.70 0.83 0.75 0.58 0.56 0.54 0.47 0.40 0.30 0.20 0.15 0.10 0.06 0.04 0.10 0.34 0.20 0.05
0.01 0.00 0.00 0.00 0.00 0.00 0.00 0.01 0.02 0.04 0.15 0.33 0.58 0.61 0.65 0.67 0.73 1.09 1.03 1.18 1.08 0.85 0.71 0.58 0.54 0.45 0.36 0.26 0.20 0.15 0.14 0.12 0.09 0.05 0.02 0.04 0.03 0.02 0.16 0.27 0.20 0.03 0.00
0.01 0.01 0.00 0.00 0.00 0.00 0.03 0.05 0.04 0.08 0.18 0.26 0.22 0.62 0.78 0.63 0.58 0.63 0.64 0.72 0.50 0.52 0.60 0.53 0.35 0.29 0.20 0.14 0.09 0.08 0.06 0.03 0.01 0.01 0.02 0.02 0.02 0.11 0.36 0.13 0.03 0.02 0.01
0.01 0.01 0.02 0.02 0.04 0.07 0.13 0.25 0.23 0.41 0.54 0.84 0.62 0.66 0.80 0.64 0.47 0.54 0.36 0.35 0.38 0.30 0.21 0.14 0.10 0.05 0.03 0.01 0.00 0.01 0.01 0.01 0.04 0.05 0.01 0.00 0.11 0.29 0.11 0.03 0.01 0.02 0.06
0.23 0.25 0.18 0.14 0.18 0.22 0.37 0.72 0.66 0.65 0.70 0.64 0.69 0.44 0.40 0.30 0.22 0.15 0.14 0.10 0.05 0.03 0.02 0.01 0.00 0.00 0.00 0.00 0.00 0.00 0.01 0.04 0.05 0.03 0.02 0.11 0.22 0.04 0.00 0.00 0.02 0.04 0.03
0.28 0.54 0.49 0.45 0.55 0.41 0.43 0.59 0.46 0.28 0.14 0.17 0.12 0.05 0.02 0.02 0.01 0.01 0.00 0.00 0.00 0.00 0.00 0.00 0.00 0.00 0.00 0.00 0.00 0.00 0.03 0.05 0.05 0.04 0.16 0.14 0.01 0.00 0.00 0.00 0.01 0.01 0.00
0.01 0.02 0.02 0.06 0.14 0.14 0.14 0.18 0.12 0.06 0.02 0.01 0.00 0.00 0.00 0.00 0.00 0.00 0.00 0.00 0.00 0.00 0.00 0.00 0.00 0.00 0.00 0.00 0.00 0.01 0.03 0.03 0.08 0.13 0.10 0.01 0.00 0.00 0.00 0.00 0.00 0.00 0.01
0.04 0.03 0.04 0.03 0.01 0.00 0.00 0.01 0.01 0.01 0.02 0.01 0.01 0.01 0.00 0.00 0.00 0.00 0.01 0.00 0.00 0.00 0.00 0.00 0.00 0.00 0.00 0.00 0.02 0.03 0.03 0.06 0.10 0.04 0.00 0.00 0.00 0.00 0.00 0.00 0.00 0.00 0.01
0.02 0.01 0.01 0.02 0.03 0.04 0.06 0.06 0.04 0.02 0.02 0.02 0.02 0.03 0.02 0.02 0.02 0.02 0.03 0.05 0.03 0.01 0.00 0.00 0.00 0.00 0.01 0.01 0.01 0.02 0.07 0.09 0.03 0.00 0.00 0.01 0.01 0.02 0.01 0.01 0.02 0.01 0.02

GFSMW_prec_precacc_093.txt.gz
Total_Precipitation_Accumulation
0.01 0.03 0.06 0.29 0.35 0.25 0.27 0.32 0.27 0.19 0.14 0.12 0.17 0.28 0.32 0.39 0.26 0.25 0.41 0.28 0.27 0.30 0.24 0.09 0.07 0.08 0.03 0.04 0.03 0.04 0.03 0.02 0.03 0.04 0.01 0.00 0.00 0.00 0.00 0.00 0.00 0.00 0.01
0.00 0.00 0.00 0.06 0.05 0.20 0.33 0.31 0.15 0.30 0.26 0.16 0.18 0.36 0.55 0.63 0.51 0.51 0.41 0.31 0.42 0.49 0.45 0.26 0.21 0.15 0.08 0.05 0.03 0.06 0.13 0.08 0.13 0.15 0.08 0.03 0.00 0.00 0.00 0.00 0.00 0.00 0.01
0.00 0.00 0.00 0.00 0.00 0.04 0.11 0.20 0.38 0.49 0.44 0.40 0.35 0.55 0.59 0.62 0.61 0.30 0.20 0.30 0.55 0.86 0.74 0.44 0.33 0.26 0.14 0.10 0.10 0.12 0.23 0.23 0.23 0.17 0.24 0.12 0.03 0.01 0.00 0.00 0.01 0.01 0.01
0.00 0.00 0.00 0.00 0.00 0.00 0.04 0.11 0.15 0.27 0.27 0.35 0.44 0.45 0.39 0.37 0.38 0.41 0.50 0.54 0.57 0.81 0.87 0.63 0.47 0.44 0.35 0.23 0.24 0.23 0.31 0.32 0.24 0.21 0.16 0.16 0.11 0.11 0.05 0.02 0.04 0.03 0.02
0.00 0.00 0.00 0.00 0.00 0.00 0.00 0.08 0.17 0.29 0.29 0.26 0.34 0.40 0.45 0.27 0.27 0.37 0.35 0.33 0.37 0.40 0.45 0.40 0.41 0.31 0.30 0.32 0.28 0.27 0.27 0.33 0.34 0.25 0.29 0.24 0.19 0.15 0.15 0.08 0.06 0.07 0.06
0.00 0.00 0.00 0.00 0.00 0.00 0.01 0.02 0.04 0.16 0.26 0.21 0.28 0.33 0.41 0.36 0.30 0.30 0.36 0.31 0.28 0.22 0.26 0.28 0.26 0.25 0.22 0.21 0.29 0.33 0.36 0.35 0.38 0.35 0.34 0.36 0.35 0.28 0.23 0.20 0.13 0.13 0.09
0.00 0.00 0.00 0.00 0.00 0.00 0.00 0.00 0.02 0.08 0.19 0.21 0.32 0.37 0.38 0.42 0.38 0.35 0.37 0.33 0.23 0.16 0.16 0.23 0.24 0.21 0.24 0.28 0.27 0.25 0.23 0.33 0.40 0.42 0.33 0.31 0.33 0.34 0.36 0.39 0.34 0.28 0.16
0.00 0.00 0.00 0.00 0.00 0.00 0.00 0.00 0.00 0.00 0.03 0.08 0.12 0.16 0.16 0.21 0.22 0.21 0.20 0.22 0.18 0.13 0.13 0.16 0.20 0.24 0.23 0.21 0.21 0.21 0.20 0.22 0.28 0.35 0.40 0.34 0.30 0.32 0.34 0.41 0.51 0.42 0.28
0.00 0.00 0.00 0.00 0.00 0.00 0.00 0.00 0.00 0.00 0.00 0.01 0.02 0.04 0.07 0.12 0.11 0.07 0.09 0.11 0.10 0.08 0.09 0.12 0.15 0.17 0.21 0.23 0.26 0.23 0.20 0.21 0.20 0.22 0.30 0.32 0.24 0.22 0.27 0.33 0.51 0.79 0.87
0.00 0.00 0.00 0.00 0.00 0.00 0.00 0.00 0.00 0.00 0.00 0.02 0.02 0.01 0.04 0.06 0.06 0.04 0.04 0.05 0.06 0.06 0.07 0.07 0.08 0.08 0.10 0.14 0.21 0.23 0.26 0.31 0.32 0.35 0.38 0.39 0.38 0.40 0.45 0.52 0.64 0.88 1.11
0.00 0.00 0.00 0.00 0.00 0.00 0.00 0.00 0.00 0.00 0.00 0.01 0.00 0.01 0.03 0.03 0.04 0.04 0.04 0.04 0.04 0.05 0.05 0.05 0.04 0.04 0.03 0.03 0.04 0.05 0.06 0.09 0.09 0.11 0.14 0.17 0.21 0.28 0.32 0.33 0.37 0.47 0.60
0.00 0.00 0.00 0.00 0.00 0.00 0.00 0.00 0.00 0.01 0.01 0.01 0.00 0.01 0.02 0.04 0.05 0.05 0.06 0.07 0.06 0.05 0.04 0.05 0.03 0.02 0.02 0.03 0.02 0.04 0.04 0.05 0.07 0.07 0.08 0.09 0.08 0.10 0.10 0.16 0.23 0.33 0.41
0.00 0.00 0.00 0.00 0.00 0.00 0.02 0.04 0.04 0.02 0.01 0.01 0.01 0.03 0.05 0.06 0.07 0.07 0.06 0.06 0.05 0.04 0.02 0.03 0.03 0.02 0.02 0.03 0.02 0.03 0.03 0.04 0.05 0.07 0.08 0.11 0.14 0.19 0.24 0.29 0.32 0.36 0.35
0.01 0.00 0.00 0.00 0.00 0.01 0.05 0.05 0.04 0.02 0.05 0.05 0.05 0.06 0.06 0.07 0.08 0.08 0.06 0.07 0.07 0.06 0.05 0.04 0.04 0.04 0.05 0.07 0.08 0.09 0.10 0.14 0.16 0.19 0.21 0.25 0.31 0.35 0.37 0.38 0.36 0.32 0.28
0.01 0.00 0.01 0.01 0.01 0.01 0.03 0.04 0.07 0.08 0.08 0.11 0.11 0.09 0.07 0.05 0.05 0.06 0.05 0.05 0.05 0.06 0.06 0.06 0.09 0.11 0.13 0.18 0.21 0.25 0.33 0.36 0.36 0.36 0.37 0.45 0.53 0.51 0.45 0.42 0.38 0.29 0.23
0.02 0.01 0.01 0.00 0.00 0.00 0.01 0.02 0.06 0.10 0.16 0.15 0.10 0.07 0.06 0.06 0.07 0.06 0.06 0.08 0.09 0.11 0.15 0.17 0.13 0.13 0.14 0.31 0.25 0.20 0.23 0.28 0.33 0.41 0.43 0.49 0.50 0.36 0.31 0.26 0.19 0.17 0.30
0.01 0.00 0.00 0.00 0.00 0.00 0.01 0.01 0.03 0.06 0.07 0.06 0.04 0.04 0.07 0.10 0.09 0.07 0.05 0.09 0.23 0.40 0.36 0.38 0.47 0.61 0.68 0.75 0.56 0.43 0.30 0.31 0.31 0.30 0.26 0.20 0.17 0.16 0.11 0.09 0.13 0.30 0.36
0.00 0.00 0.00 0.00 0.00 0.00 0.00 0.01 0.02 0.07 0.16 0.23 0.24 0.20 0.38 0.53 0.37 0.44 0.56 0.63 0.43 0.44 0.56 0.50 0.64 0.70 0.83 0.76 0.58 0.57 0.54 0.47 0.40 0.30 0.20 0.15 0.10 0.06 0.04 0.10 0.34 0.20 0.05
0.01 0.00 0.00 0.00 0.00 0.00 0.00 0.01 0.02 0.04 0.15 0.33 0.58 0.61 0.65 0.67 0.73 1.09 1.03 1.18 1.08 0.85 0.71 0.58 0.54 0.45 0.36 0.26 0.20 0.15 0.14 0.12 0.09 0.05 0.02 0.04 0.03 0.02 0.16 0.27 0.20 0.03 0.00
0.01 0.01 0.00 0.00 0.00 0.00 0.03 0.05 0.04 0.08 0.18 0.26 0.22 0.62 0.78 0.63 0.58 0.63 0.64 0.72 0.50 0.52 0.60 0.53 0.35 0.29 0.20 0.14 0.09 0.08 0.06 0.03 0.01 0.01 0.02 0.02 0.02 0.11 0.36 0.13 0.03 0.02 0.01
0.01 0.01 0.02 0.02 0.04 0.07 0.13 0.25 0.23 0.41 0.54 0.84 0.62 0.66 0.80 0.64 0.47 0.54 0.36 0.35 0.38 0.30 0.21 0.14 0.10 0.05 0.03 0.01 0.01 0.01 0.01 0.01 0.04 0.05 0.01 0.00 0.11 0.29 0.11 0.03 0.01 0.02 0.06
0.23 0.25 0.18 0.14 0.18 0.22 0.37 0.72 0.66 0.65 0.70 0.64 0.69 0.44 0.40 0.30 0.22 0.15 0.14 0.10 0.05 0.03 0.02 0.01 0.00 0.00 0.00 0.00 0.00 0.00 0.01 0.04 0.05 0.03 0.02 0.11 0.22 0.04 0.00 0.00 0.02 0.04 0.03
0.28 0.54 0.49 0.45 0.55 0.41 0.43 0.59 0.46 0.28 0.14 0.17 0.12 0.05 0.02 0.02 0.01 0.01 0.00 0.00 0.00 0.00 0.00 0.00 0.00 0.00 0.00 0.00 0.00 0.00 0.03 0.05 0.05 0.04 0.16 0.14 0.01 0.00 0.00 0.00 0.01 0.01 0.00
0.01 0.02 0.02 0.06 0.14 0.14 0.14 0.18 0.12 0.06 0.02 0.02 0.01 0.01 0.00 0.01 0.00 0.00 0.00 0.00 0.00 0.00 0.00 0.00 0.00 0.00 0.00 0.00 0.00 0.01 0.03 0.03 0.08 0.13 0.10 0.01 0.00 0.00 0.00 0.00 0.00 0.00 0.01
0.04 0.03 0.04 0.03 0.01 0.00 0.00 0.01 0.01 0.01 0.02 0.02 0.03 0.04 0.03 0.02 0.00 0.00 0.01 0.00 0.00 0.01 0.00 0.00 0.00 0.00 0.00 0.00 0.02 0.03 0.03 0.06 0.10 0.04 0.00 0.00 0.00 0.00 0.00 0.00 0.00 0.00 0.01
0.04 0.02 0.02 0.02 0.04 0.05 0.06 0.06 0.04 0.02 0.02 0.02 0.02 0.04 0.04 0.04 0.03 0.02 0.03 0.06 0.04 0.02 0.00 0.00 0.00 0.00 0.01 0.01 0.01 0.02 0.07 0.09 0.03 0.00 0.00 0.01 0.01 0.02 0.01 0.01 0.02 0.01 0.02

GFSMW_prec_precacc_096.txt.gz
Total_Precipitation_Accumulation
0.03 0.09 0.19 0.41 0.52 0.31 0.30 0.33 0.29 0.19 0.15 0.13 0.22 0.31 0.35 0.39 0.26 0.25 0.41 0.28 0.27 0.30 0.24 0.09 0.07 0.08 0.03 0.04 0.03 0.04 0.03 0.03 0.03 0.05 0.01 0.00 0.00 0.00 0.00 0.00 0.00 0.00 0.01
0.00 0.00 0.03 0.29 0.29 0.34 0.36 0.34 0.16 0.33 0.34 0.20 0.20 0.38 0.58 0.68 0.53 0.52 0.41 0.32 0.43 0.49 0.45 0.26 0.22 0.15 0.09 0.05 0.04 0.06 0.14 0.08 0.14 0.15 0.09 0.03 0.00 0.00 0.00 0.00 0.00 0.00 0.01
0.00 0.00 0.00 0.04 0.11 0.20 0.22 0.33 0.62 0.63 0.55 0.55 0.57 0.73 0.85 0.74 0.66 0.33 0.20 0.33 0.59 0.89 0.78 0.52 0.46 0.41 0.24 0.16 0.15 0.14 0.23 0.23 0.23 0.17 0.24 0.12 0.03 0.01 0.00 0.00 0.01 0.01 0.01
0.00 0.00 0.00 0.00 0.02 0.09 0.20 0.25 0.31 0.42 0.49 0.66 0.80 0.73 0.62 0.62 0.50 0.53 0.64 0.68 0.72 1.00 1.07 0.82 0.61 0.51 0.42 0.31 0.28 0.24 0.31 0.32 0.24 0.21 0.16 0.16 0.11 0.11 0.05 0.02 0.04 0.03 0.02
0.00 0.00 0.00 0.00 0.00 0.00 0.01 0.13 0.28 0.41 0.37 0.43 0.53 0.60 0.68 0.47 0.57 0.70 0.68 0.60 0.62 0.65 0.66 0.59 0.53 0.39 0.37 0.41 0.33 0.28 0.27 0.33 0.34 0.25 0.29 0.24 0.19 0.15 0.15 0.08 0.06 0.07 0.06
0.00 0.00 0.00 0.00 0.00 0.00 0.01 0.02 0.04 0.19 0.29 0.28 0.37 0.51 0.62 0.57 0.50 0.54 0.62 0.63 0.56 0.48 0.47 0.43 0.36 0.31 0.24 0.22 0.30 0.33 0.36 0.35 0.38 0.35 0.34 0.36 0.35 0.28 0.23 0.20 0.13 0.13 0.09
0.00 0.00 0.00 0.00 0.00 0.00 0.00 0.00 0.02 0.09 0.20 0.22 0.35 0.42 0.47 0.48 0.47 0.51 0.55 0.58 0.58 0.53 0.45 0.41 0.30 0.23 0.24 0.28 0.27 0.25 0.23 0.33 0.40 0.42 0.33 0.31 0.33 0.34 0.36 0.39 0.34 0.28 0.16
0.00 0.00 0.00 0.00 0.00 0.00 0.00 0.00 0.00 0.00 0.03 0.09 0.13 0.19 0.19 0.24 0.29 0.31 0.33 0.36 0.47 0.55 0.46 0.31 0.26 0.25 0.23 0.21 0.21 0.21 0.20 0.22 0.28 0.35 0.40 0.34 0.30 0.32 0.34 0.41 0.51 0.43 0.29
0.00 0.00 0.00 0.00 0.00 0.00 0.00 0.00 0.00 0.00 0.00 0.01 0.02 0.04 0.08 0.14 0.16 0.14 0.15 0.20 0.20 0.18 0.16 0.17 0.19 0.19 0.21 0.23 0.26 0.23 0.20 0.21 0.20 0.22 0.30 0.32 0.24 0.22 0.27 0.33 0.52 0.80 0.87
0.00 0.00 0.00 0.00 0.00 0.00 0.00 0.00 0.00 0.00 0.00 0.02 0.02 0.01 0.04 0.07 0.07 0.06 0.05 0.06 0.06 0.06 0.07 0.08 0.08 0.08 0.10 0.14 0.21 0.23 0.26 0.31 0.32 0.35 0.38 0.39 0.38 0.40 0.45 0.52 0.64 0.88 1.11
0.00 0.00 0.00 0.00 0.00 0.00 0.00 0.00 0.00 0.00 0.00 0.01 0.00 0.01 0.03 0.03 0.04 0.04 0.04 0.04 0.04 0.05 0.05 0.05 0.04 0.04 0.03 0.03 0.04 0.05 0.06 0.09 0.09 0.11 0.14 0.17 0.21 0.28 0.32 0.33 0.37 0.47 0.60
0.00 0.00 0.00 0.00 0.00 0.00 0.00 0.00 0.00 0.01 0.01 0.01 0.00 0.01 0.02 0.04 0.05 0.05 0.06 0.07 0.06 0.05 0.04 0.05 0.04 0.02 0.02 0.03 0.02 0.04 0.04 0.05 0.07 0.07 0.08 0.09 0.08 0.10 0.10 0.16 0.23 0.33 0.41
0.00 0.00 0.00 0.00 0.00 0.00 0.02 0.04 0.04 0.02 0.01 0.01 0.01 0.03 0.05 0.06 0.07 0.07 0.06 0.06 0.05 0.04 0.02 0.03 0.03 0.02 0.02 0.03 0.02 0.03 0.03 0.04 0.05 0.07 0.08 0.11 0.14 0.19 0.24 0.29 0.32 0.36 0.35
0.01 0.00 0.00 0.00 0.00 0.01 0.05 0.05 0.04 0.02 0.05 0.05 0.05 0.06 0.06 0.07 0.08 0.08 0.06 0.07 0.07 0.06 0.05 0.04 0.04 0.04 0.05 0.07 0.08 0.09 0.10 0.14 0.16 0.19 0.21 0.25 0.31 0.35 0.37 0.38 0.36 0.32 0.28
0.01 0.00 0.01 0.01 0.01 0.01 0.03 0.04 0.07 0.08 0.08 0.11 0.11 0.09 0.07 0.05 0.05 0.06 0.05 0.05 0.05 0.06 0.06 0.07 0.09 0.11 0.13 0.18 0.21 0.25 0.33 0.36 0.36 0.36 0.37 0.45 0.53 0.51 0.45 0.42 0.38 0.29 0.24
0.02 0.01 0.01 0.00 0.00 0.00 0.01 0.02 0.06 0.10 0.16 0.15 0.10 0.07 0.06 0.06 0.07 0.06 0.06 0.08 0.09 0.11 0.15 0.17 0.13 0.13 0.14 0.31 0.25 0.20 0.23 0.28 0.33 0.41 0.43 0.49 0.50 0.37 0.31 0.26 0.19 0.17 0.31
0.01 0.00 0.00 0.00 0.00 0.00 0.01 0.01 0.03 0.06 0.07 0.06 0.04 0.04 0.07 0.10 0.09 0.07 0.05 0.09 0.23 0.40 0.36 0.38 0.47 0.61 0.68 0.75 0.56 0.43 0.30 0.31 0.31 0.30 0.26 0.20 0.17 0.16 0.11 0.09 0.13 0.30 0.36
0.00 0.00 0.00 0.00 0.00 0.00 0.00 0.01 0.02 0.07 0.16 0.23 0.24 0.20 0.38 0.53 0.37 0.44 0.56 0.63 0.43 0.44 0.56 0.50 0.64 0.70 0.83 0.76 0.59 0.57 0.54 0.47 0.40 0.30 0.20 0.15 0.10 0.06 0.04 0.10 0.34 0.20 0.05
0.01 0.00 0.00 0.00 0.00 0.00 0.00 0.01 0.02 0.04 0.15 0.33 0.58 0.61 0.65 0.67 0.73 1.09 1.03 1.18 1.08 0.85 0.71 0.58 0.54 0.45 0.36 0.26 0.20 0.15 0.14 0.12 0.09 0.05 0.02 0.04 0.03 0.02 0.16 0.27 0.20 0.03 0.00
0.01 0.01 0.00 0.00 0.00 0.00 0.03 0.05 0.04 0.08 0.18 0.26 0.22 0.62 0.78 0.63 0.58 0.63 0.64 0.72 0.50 0.52 0.60 0.53 0.35 0.29 0.20 0.14 0.09 0.08 0.06 0.03 0.01 0.01 0.02 0.02 0.02 0.11 0.36 0.13 0.03 0.02 0.01
0.01 0.01 0.02 0.02 0.04 0.07 0.13 0.25 0.23 0.41 0.54 0.84 0.62 0.66 0.80 0.64 0.47 0.54 0.36 0.35 0.38 0.30 0.21 0.14 0.10 0.05 0.03 0.01 0.01 0.01 0.01 0.01 0.04 0.05 0.01 0.00 0.11 0.29 0.11 0.03 0.01 0.03 0.06
0.23 0.25 0.18 0.14 0.18 0.22 0.37 0.72 0.66 0.65 0.70 0.64 0.69 0.44 0.40 0.30 0.22 0.15 0.14 0.10 0.05 0.03 0.02 0.01 0.00 0.00 0.00 0.00 0.00 0.00 0.01 0.04 0.05 0.03 0.02 0.11 0.22 0.04 0.00 0.00 0.02 0.04 0.03
0.28 0.54 0.49 0.45 0.55 0.41 0.43 0.59 0.46 0.28 0.14 0.17 0.12 0.05 0.02 0.02 0.01 0.01 0.00 0.00 0.00 0.00 0.00 0.00 0.00 0.00 0.00 0.00 0.00 0.00 0.03 0.05 0.05 0.04 0.16 0.14 0.01 0.00 0.00 0.00 0.01 0.01 0.00
0.01 0.02 0.02 0.06 0.14 0.14 0.14 0.18 0.12 0.06 0.02 0.02 0.01 0.01 0.01 0.01 0.00 0.00 0.00 0.00 0.00 0.00 0.00 0.00 0.00 0.00 0.00 0.00 0.00 0.01 0.03 0.03 0.08 0.13 0.10 0.01 0.00 0.00 0.00 0.00 0.00 0.00 0.01
0.04 0.03 0.04 0.03 0.01 0.00 0.00 0.01 0.01 0.01 0.02 0.03 0.04 0.05 0.07 0.05 0.02 0.02 0.03 0.02 0.00 0.01 0.00 0.00 0.00 0.00 0.00 0.00 0.02 0.03 0.03 0.06 0.10 0.04 0.00 0.00 0.00 0.00 0.00 0.00 0.00 0.00 0.01
0.06 0.04 0.03 0.03 0.06 0.07 0.06 0.06 0.04 0.02 0.02 0.03 0.05 0.09 0.10 0.15 0.18 0.17 0.15 0.12 0.06 0.02 0.00 0.00 0.00 0.00 0.01 0.01 0.01 0.02 0.07 0.09 0.03 0.00 0.00 0.01 0.01 0.02 0.01 0.01 0.02 0.01 0.02

GFSMW_prec_precacc_099.txt.gz
Total_Precipitation_Accumulation
0.11 0.39 0.54 0.81 0.86 0.47 0.44 0.38 0.30 0.20 0.15 0.13 0.24 0.36 0.39 0.43 0.32 0.29 0.44 0.28 0.27 0.31 0.24 0.09 0.07 0.08 0.03 0.04 0.03 0.04 0.03 0.03 0.03 0.05 0.01 0.00 0.00 0.00 0.00 0.00 0.00 0.00 0.01
0.08 0.11 0.14 0.54 0.61 0.56 0.53 0.46 0.25 0.36 0.35 0.21 0.20 0.41 0.66 0.72 0.53 0.53 0.43 0.41 0.48 0.52 0.46 0.27 0.23 0.15 0.09 0.05 0.04 0.06 0.14 0.09 0.14 0.15 0.09 0.03 0.00 0.00 0.00 0.00 0.00 0.00 0.01
0.03 0.05 0.04 0.13 0.30 0.46 0.34 0.41 0.72 0.69 0.57 0.56 0.58 0.74 0.92 0.84 0.71 0.36 0.30 0.51 0.80 1.07 0.92 0.64 0.55 0.44 0.29 0.24 0.22 0.21 0.27 0.24 0.23 0.17 0.24 0.12 0.03 0.01 0.00 0.00 0.01 0.01 0.01
0.02 0.02 0.03 0.05 0.11 0.21 0.41 0.38 0.56 0.57 0.67 0.90 0.91 0.79 0.75 0.78 0.57 0.55 0.69 0.84 0.90 1.23 1.32 1.06 0.84 0.74 0.64 0.48 0.42 0.33 0.34 0.35 0.25 0.21 0.16 0.16 0.11 0.11 0.05 0.02 0.04 0.03 0.02
0.00 0.00 0.01 0.01 0.03 0.03 0.06 0.29 0.46 0.58 0.51 0.60 0.71 0.74 0.86 0.64 0.75 0.89 0.86 0.77 0.84 0.93 1.04 1.07 0.92 0.86 0.69 0.57 0.42 0.36 0.33 0.36 0.34 0.25 0.29 0.24 0.19 0.15 0.15 0.08 0.06 0.07 0.06
0.00 0.00 0.00 0.00 0.00 0.00 0.01 0.04 0.09 0.25 0.35 0.35 0.44 0.61 0.83 0.78 0.72 0.74 0.79 0.76 0.77 0.74 0.76 0.79 0.85 0.77 0.64 0.44 0.37 0.35 0.37 0.35 0.38 0.35 0.34 0.36 0.35 0.28 0.23 0.20 0.13 0.13 0.09
0.00 0.00 0.00 0.00 0.00 0.00 0.00 0.00 0.02 0.09 0.20 0.24 0.36 0.44 0.53 0.55 0.55 0.58 0.66 0.66 0.68 0.68 0.76 0.90 0.87 0.68 0.47 0.40 0.28 0.25 0.23 0.33 0.40 0.42 0.33 0.31 0.33 0.34 0.36 0.39 0.34 0.28 0.16
0.00 0.00 0.00 0.00 0.00 0.00 0.00 0.00 0.00 0.00 0.03 0.09 0.14 0.21 0.22 0.25 0.30 0.33 0.36 0.40 0.51 0.61 0.66 0.61 0.55 0.44 0.36 0.29 0.27 0.26 0.23 0.22 0.28 0.35 0.40 0.34 0.30 0.32 0.34 0.41 0.51 0.43 0.29
0.00 0.00 0.00 0.00 0.00 0.00 0.00 0.00 0.00 0.00 0.00 0.01 0.02 0.04 0.08 0.14 0.16 0.14 0.15 0.20 0.21 0.22 0.20 0.20 0.22 0.23 0.25 0.25 0.27 0.23 0.20 0.21 0.20 0.22 0.30 0.32 0.24 0.22 0.27 0.33 0.52 0.80 0.87
0.00 0.00 0.00 0.00 0.00 0.00 0.00 0.00 0.00 0.00 0.00 0.02 0.02 0.01 0.04 0.07 0.07 0.06 0.05 0.06 0.06 0.06 0.07 0.08 0.08 0.08 0.10 0.14 0.21 0.23 0.26 0.31 0.32 0.35 0.38 0.39 0.38 0.40 0.45 0.52 0.64 0.88 1.12
0.00 0.00 0.00 0.00 0.00 0.00 0.00 0.00 0.00 0.00 0.00 0.01 0.00 0.01 0.03 0.03 0.04 0.04 0.04 0.04 0.04 0.05 0.05 0.05 0.04 0.04 0.03 0.03 0.04 0.05 0.06 0.09 0.09 0.11 0.14 0.17 0.21 0.28 0.32 0.33 0.37 0.47 0.60
0.00 0.00 0.00 0.00 0.00 0.00 0.00 0.00 0.00 0.01 0.01 0.01 0.00 0.01 0.02 0.04 0.05 0.05 0.06 0.07 0.06 0.05 0.04 0.05 0.04 0.02 0.02 0.03 0.02 0.04 0.04 0.05 0.07 0.07 0.08 0.09 0.08 0.10 0.10 0.16 0.23 0.33 0.41
0.00 0.00 0.00 0.00 0.00 0.00 0.02 0.04 0.04 0.02 0.01 0.01 0.01 0.03 0.05 0.06 0.07 0.07 0.06 0.06 0.05 0.04 0.02 0.03 0.03 0.02 0.02 0.03 0.02 0.03 0.03 0.04 0.05 0.07 0.08 0.11 0.14 0.19 0.24 0.29 0.32 0.36 0.35
0.01 0.00 0.00 0.00 0.00 0.01 0.05 0.05 0.04 0.02 0.05 0.05 0.05 0.06 0.06 0.07 0.08 0.08 0.06 0.07 0.07 0.06 0.05 0.04 0.04 0.04 0.05 0.07 0.08 0.09 0.10 0.14 0.16 0.19 0.21 0.25 0.31 0.35 0.37 0.38 0.36 0.32 0.28
0.01 0.00 0.01 0.01 0.01 0.01 0.03 0.04 0.07 0.08 0.08 0.11 0.11 0.09 0.07 0.05 0.05 0.06 0.05 0.05 0.05 0.06 0.06 0.07 0.09 0.11 0.13 0.18 0.21 0.25 0.33 0.36 0.36 0.36 0.37 0.45 0.53 0.51 0.45 0.42 0.38 0.29 0.24
0.02 0.01 0.01 0.00 0.00 0.00 0.01 0.02 0.06 0.10 0.16 0.15 0.10 0.07 0.06 0.06 0.07 0.06 0.06 0.08 0.09 0.11 0.15 0.17 0.13 0.13 0.14 0.31 0.25 0.20 0.23 0.28 0.33 0.41 0.43 0.49 0.50 0.37 0.31 0.26 0.19 0.17 0.31
0.01 0.00 0.00 0.00 0.00 0.00 0.01 0.01 0.03 0.06 0.07 0.06 0.04 0.04 0.07 0.10 0.09 0.07 0.05 0.09 0.23 0.40 0.36 0.38 0.47 0.61 0.68 0.75 0.56 0.43 0.30 0.31 0.31 0.30 0.26 0.20 0.17 0.16 0.11 0.09 0.13 0.30 0.36
0.00 0.00 0.00 0.00 0.00 0.00 0.00 0.01 0.02 0.07 0.16 0.23 0.24 0.20 0.38 0.53 0.37 0.44 0.56 0.63 0.43 0.44 0.56 0.50 0.64 0.70 0.83 0.76 0.59 0.57 0.54 0.47 0.40 0.30 0.20 0.15 0.10 0.06 0.04 0.10 0.34 0.20 0.05
0.01 0.00 0.00 0.00 0.00 0.00 0.00 0.01 0.02 0.04 0.15 0.33 0.58 0.61 0.65 0.67 0.73 1.09 1.03 1.18 1.08 0.85 0.71 0.58 0.54 0.45 0.36 0.26 0.20 0.15 0.14 0.12 0.09 0.05 0.02 0.04 0.03 0.02 0.16 0.27 0.20 0.03 0.00
0.01 0.01 0.00 0.00 0.00 0.00 0.03 0.05 0.04 0.08 0.18 0.26 0.22 0.62 0.78 0.63 0.58 0.63 0.64 0.72 0.50 0.52 0.60 0.53 0.35 0.29 0.20 0.14 0.09 0.08 0.06 0.03 0.01 0.01 0.02 0.02 0.02 0.11 0.36 0.13 0.03 0.02 0.01
0.01 0.01 0.02 0.02 0.04 0.07 0.13 0.25 0.23 0.41 0.54 0.84 0.62 0.66 0.80 0.64 0.47 0.54 0.36 0.35 0.38 0.30 0.21 0.14 0.10 0.05 0.03 0.01 0.01 0.01 0.01 0.01 0.04 0.05 0.01 0.00 0.11 0.29 0.11 0.03 0.01 0.03 0.06
0.23 0.25 0.18 0.14 0.18 0.22 0.37 0.72 0.66 0.65 0.70 0.64 0.69 0.44 0.40 0.30 0.22 0.15 0.14 0.10 0.05 0.03 0.02 0.01 0.00 0.00 0.00 0.00 0.00 0.00 0.01 0.04 0.05 0.03 0.02 0.11 0.22 0.04 0.00 0.00 0.02 0.04 0.03
0.28 0.54 0.49 0.45 0.55 0.41 0.43 0.59 0.46 0.28 0.14 0.17 0.12 0.05 0.02 0.02 0.01 0.01 0.00 0.00 0.00 0.00 0.00 0.00 0.00 0.00 0.00 0.00 0.00 0.00 0.03 0.05 0.05 0.04 0.16 0.14 0.01 0.00 0.00 0.00 0.01 0.01 0.00
0.01 0.02 0.02 0.06 0.14 0.14 0.14 0.18 0.12 0.06 0.02 0.02 0.01 0.01 0.01 0.01 0.00 0.00 0.00 0.00 0.00 0.00 0.00 0.00 0.00 0.00 0.00 0.00 0.00 0.01 0.03 0.03 0.08 0.13 0.10 0.01 0.00 0.00 0.00 0.00 0.00 0.00 0.01
0.04 0.04 0.04 0.04 0.02 0.00 0.00 0.01 0.01 0.01 0.02 0.03 0.04 0.05 0.07 0.07 0.04 0.02 0.03 0.02 0.01 0.02 0.01 0.00 0.00 0.00 0.00 0.00 0.02 0.03 0.03 0.06 0.10 0.04 0.00 0.00 0.00 0.00 0.00 0.00 0.00 0.00 0.01
0.07 0.06 0.06 0.06 0.08 0.07 0.07 0.06 0.04 0.02 0.02 0.04 0.05 0.09 0.10 0.15 0.22 0.26 0.20 0.19 0.13 0.08 0.04 0.03 0.01 0.01 0.01 0.01 0.01 0.02 0.07 0.09 0.03 0.00 0.00 0.01 0.01 0.02 0.01 0.01 0.02 0.01 0.02

GFSMW_prec_precacc_102.txt.gz
Total_Precipitation_Accumulation
0.32 0.83 1.22 1.56 1.22 0.59 0.46 0.42 0.33 0.21 0.15 0.13 0.24 0.36 0.39 0.43 0.32 0.32 0.50 0.33 0.33 0.33 0.24 0.09 0.07 0.08 0.03 0.04 0.03 0.04 0.03 0.03 0.03 0.06 0.01 0.00 0.00 0.00 0.00 0.00 0.00 0.00 0.01
0.37 0.25 0.51 1.29 1.62 1.01 0.63 0.53 0.31 0.40 0.35 0.21 0.20 0.41 0.67 0.72 0.53 0.53 0.45 0.48 0.58 0.62 0.52 0.29 0.26 0.17 0.09 0.05 0.04 0.06 0.16 0.10 0.14 0.15 0.09 0.03 0.00 0.00 0.00 0.00 0.00 0.00 0.01
0.25 0.20 0.13 0.33 0.68 0.90 0.60 0.54 0.84 0.80 0.59 0.57 0.63 0.80 0.97 0.88 0.73 0.37 0.31 0.57 0.94 1.24 1.10 0.81 0.68 0.50 0.30 0.24 0.26 0.31 0.40 0.31 0.26 0.18 0.24 0.12 0.03 0.01 0.00 0.00 0.01 0.01 0.01
0.07 0.20 0.22 0.25 0.27 0.35 0.55 0.48 0.61 0.65 0.81 0.98 1.05 0.99 0.85 0.84 0.60 0.56 0.70 0.89 0.98 1.35 1.47 1.24 0.99 0.89 0.73 0.59 0.51 0.45 0.45 0.42 0.34 0.26 0.17 0.16 0.11 0.11 0.05 0.02 0.04 0.03 0.02
0.03 0.06 0.13 0.18 0.28 0.21 0.12 0.31 0.50 0.60 0.63 0.91 0.93 0.92 1.06 0.76 0.80 0.91 0.87 0.78 0.85 0.95 1.08 1.25 1.31 1.26 1.47 1.65 1.14 0.62 0.42 0.42 0.40 0.29 0.29 0.24 0.19 0.15 0.15 0.08 0.06 0.07 0.06
0.01 0.01 0.00 0.00 0.02 0.11 0.16 0.15 0.16 0.31 0.50 0.55 0.63 0.73 0.98 1.01 0.92 0.86 0.86 0.81 0.82 0.79 0.81 0.88 1.10 1.28 1.30 1.17 1.09 0.78 0.53 0.40 0.39 0.35 0.34 0.36 0.35 0.28 0.23 0.20 0.13 0.13 0.09
0.00 0.00 0.00 0.00 0.00 0.00 0.01 0.02 0.05 0.12 0.23 0.26 0.46 0.50 0.67 0.75 0.67 0.65 0.74 0.76 0.75 0.75 0.83 0.95 0.92 0.84 0.66 0.55 0.47 0.38 0.32 0.36 0.42 0.42 0.33 0.32 0.33 0.34 0.36 0.39 0.34 0.28 0.16
0.00 0.00 0.00 0.00 0.00 0.00 0.00 0.00 0.00 0.00 0.03 0.09 0.16 0.26 0.26 0.29 0.31 0.35 0.38 0.43 0.55 0.65 0.69 0.65 0.62 0.53 0.42 0.36 0.32 0.30 0.27 0.26 0.29 0.35 0.40 0.34 0.30 0.32 0.34 0.41 0.51 0.43 0.29
0.00 0.00 0.00 0.00 0.00 0.00 0.00 0.00 0.00 0.00 0.00 0.01 0.02 0.04 0.11 0.15 0.16 0.14 0.16 0.21 0.22 0.22 0.20 0.22 0.25 0.25 0.26 0.25 0.27 0.23 0.20 0.21 0.20 0.22 0.30 0.32 0.24 0.22 0.27 0.33 0.52 0.80 0.87
0.00 0.00 0.00 0.00 0.00 0.00 0.00 0.00 0.00 0.00 0.00 0.02 0.02 0.01 0.04 0.07 0.07 0.06 0.05 0.06 0.06 0.06 0.07 0.08 0.09 0.08 0.10 0.14 0.21 0.23 0.26 0.31 0.32 0.35 0.38 0.39 0.38 0.40 0.45 0.52 0.64 0.89 1.12
0.00 0.00 0.00 0.00 0.00 0.00 0.00 0.00 0.00 0.00 0.00 0.01 0.00 0.01 0.03 0.03 0.04 0.04 0.04 0.04 0.04 0.05 0.05 0.05 0.04 0.04 0.03 0.03 0.04 0.05 0.06 0.09 0.09 0.11 0.14 0.17 0.21 0.28 0.32 0.33 0.37 0.47 0.61
0.00 0.00 0.00 0.00 0.00 0.00 0.00 0.00 0.00 0.01 0.01 0.01 0.00 0.01 0.02 0.04 0.05 0.05 0.06 0.07 0.06 0.06 0.04 0.05 0.04 0.02 0.02 0.03 0.02 0.04 0.04 0.05 0.07 0.07 0.08 0.09 0.08 0.10 0.10 0.16 0.23 0.33 0.41
0.00 0.00 0.00 0.00 0.00 0.00 0.02 0.04 0.04 0.02 0.01 0.01 0.01 0.03 0.05 0.06 0.07 0.07 0.06 0.06 0.05 0.05 0.02 0.03 0.03 0.02 0.02 0.03 0.02 0.03 0.03 0.04 0.05 0.07 0.08 0.11 0.14 0.19 0.24 0.29 0.32 0.36 0.35
0.01 0.00 0.00 0.00 0.00 0.01 0.05 0.05 0.04 0.02 0.05 0.05 0.05 0.06 0.06 0.07 0.08 0.08 0.06 0.07 0.07 0.06 0.05 0.04 0.04 0.04 0.05 0.07 0.08 0.09 0.10 0.14 0.16 0.19 0.21 0.25 0.31 0.35 0.37 0.38 0.36 0.32 0.28
0.01 0.00 0.01 0.01 0.01 0.01 0.03 0.04 0.07 0.08 0.08 0.11 0.11 0.09 0.07 0.05 0.05 0.06 0.05 0.05 0.05 0.06 0.06 0.07 0.09 0.11 0.13 0.18 0.21 0.25 0.33 0.36 0.36 0.36 0.37 0.45 0.53 0.51 0.45 0.42 0.38 0.29 0.24
0.02 0.01 0.01 0.00 0.00 0.00 0.01 0.02 0.06 0.10 0.16 0.15 0.10 0.07 0.06 0.06 0.07 0.06 0.06 0.08 0.09 0.11 0.15 0.17 0.13 0.13 0.14 0.31 0.25 0.20 0.23 0.28 0.33 0.41 0.43 0.49 0.50 0.37 0.31 0.26 0.19 0.17 0.31
0.01 0.00 0.00 0.00 0.00 0.00 0.01 0.01 0.03 0.06 0.07 0.06 0.04 0.04 0.07 0.10 0.09 0.07 0.05 0.09 0.23 0.40 0.36 0.38 0.47 0.61 0.68 0.75 0.56 0.43 0.30 0.31 0.31 0.30 0.26 0.20 0.17 0.16 0.11 0.09 0.13 0.30 0.36
0.00 0.00 0.00 0.00 0.00 0.00 0.00 0.01 0.02 0.07 0.16 0.23 0.24 0.20 0.38 0.53 0.37 0.44 0.56 0.63 0.43 0.44 0.56 0.50 0.64 0.70 0.83 0.76 0.59 0.57 0.54 0.47 0.40 0.30 0.20 0.15 0.10 0.06 0.04 0.10 0.34 0.20 0.05
0.01 0.00 0.00 0.00 0.00 0.00 0.00 0.01 0.02 0.04 0.15 0.33 0.58 0.61 0.65 0.67 0.73 1.09 1.03 1.18 1.08 0.85 0.71 0.58 0.54 0.45 0.36 0.26 0.20 0.15 0.14 0.12 0.09 0.05 0.02 0.04 0.03 0.02 0.16 0.27 0.20 0.03 0.00
0.01 0.01 0.00 0.00 0.00 0.00 0.03 0.05 0.04 0.08 0.18 0.26 0.22 0.62 0.78 0.63 0.58 0.63 0.64 0.72 0.50 0.52 0.60 0.53 0.35 0.29 0.20 0.14 0.10 0.08 0.06 0.03 0.01 0.01 0.02 0.02 0.02 0.11 0.36 0.13 0.03 0.02 0.01
0.01 0.01 0.02 0.02 0.04 0.07 0.13 0.25 0.23 0.41 0.54 0.84 0.62 0.66 0.80 0.64 0.47 0.54 0.36 0.35 0.38 0.30 0.21 0.14 0.10 0.05 0.03 0.01 0.01 0.01 0.01 0.01 0.04 0.05 0.01 0.00 0.11 0.29 0.11 0.03 0.01 0.03 0.06
0.23 0.25 0.18 0.14 0.18 0.22 0.37 0.72 0.66 0.65 0.70 0.64 0.69 0.44 0.40 0.30 0.22 0.15 0.14 0.10 0.05 0.03 0.02 0.01 0.00 0.00 0.00 0.00 0.00 0.01 0.01 0.04 0.05 0.03 0.02 0.11 0.22 0.04 0.00 0.00 0.02 0.04 0.03
0.28 0.54 0.49 0.45 0.55 0.41 0.43 0.59 0.46 0.28 0.14 0.17 0.12 0.05 0.02 0.02 0.01 0.01 0.00 0.00 0.00 0.00 0.00 0.00 0.00 0.00 0.00 0.00 0.00 0.00 0.03 0.05 0.05 0.04 0.16 0.14 0.01 0.00 0.00 0.00 0.01 0.01 0.00
0.01 0.02 0.02 0.06 0.14 0.14 0.14 0.18 0.12 0.06 0.02 0.02 0.01 0.01 0.01 0.01 0.00 0.00 0.00 0.00 0.00 0.00 0.00 0.00 0.00 0.00 0.00 0.00 0.00 0.01 0.03 0.03 0.08 0.13 0.10 0.01 0.00 0.00 0.00 0.00 0.00 0.00 0.01
0.04 0.04 0.04 0.04 0.02 0.01 0.01 0.01 0.01 0.01 0.02 0.03 0.04 0.06 0.07 0.07 0.04 0.02 0.03 0.02 0.01 0.02 0.01 0.00 0.00 0.00 0.00 0.00 0.02 0.03 0.03 0.06 0.10 0.04 0.00 0.00 0.00 0.00 0.00 0.00 0.00 0.00 0.01
0.07 0.06 0.07 0.07 0.11 0.13 0.11 0.07 0.05 0.03 0.02 0.04 0.05 0.10 0.11 0.16 0.23 0.30 0.27 0.20 0.14 0.10 0.07 0.06 0.04 0.03 0.02 0.02 0.01 0.02 0.07 0.09 0.03 0.00 0.00 0.01 0.01 0.02 0.01 0.01 0.02 0.01 0.02

GFSMW_prec_precacc_105.txt.gz
Total_Precipitation_Accumulation
0.39 1.10 1.57 1.92 1.45 0.77 0.73 0.67 0.57 0.37 0.23 0.27 0.27 0.36 0.39 0.43 0.32 0.32 0.50 0.33 0.33 0.33 0.24 0.10 0.09 0.10 0.03 0.04 0.03 0.04 0.03 0.03 0.03 0.06 0.01 0.00 0.00 0.00 0.00 0.00 0.00 0.00 0.01
0.53 0.74 1.00 1.88 2.38 1.44 0.89 0.71 0.46 0.49 0.41 0.34 0.32 0.45 0.69 0.77 0.54 0.53 0.45 0.48 0.58 0.62 0.52 0.29 0.31 0.24 0.15 0.08 0.04 0.06 0.17 0.13 0.16 0.16 0.10 0.03 0.00 0.00 0.00 0.00 0.00 0.00 0.01
0.40 0.75 0.66 0.64 1.06 1.67 1.01 0.67 0.95 0.88 0.63 0.65 0.75 0.91 1.08 1.03 0.77 0.40 0.31 0.60 0.95 1.24 1.11 0.87 0.78 0.58 0.41 0.32 0.31 0.35 0.47 0.38 0.34 0.24 0.26 0.12 0.03 0.01 0.00 0.00 0.01 0.01 0.01
0.19 0.51 0.71 0.46 0.45 0.67 1.09 0.74 0.78 0.82 0.91 1.03 1.10 1.07 0.94 0.93 0.69 0.70 0.81 1.03 1.09 1.39 1.51 1.28 1.06 0.97 0.84 0.74 0.76 0.66 0.59 0.54 0.44 0.34 0.21 0.21 0.13 0.11 0.05 0.02 0.04 0.03 0.02
0.09 0.14 0.37 0.55 0.58 0.43 0.57 0.69 0.74 0.74 0.78 0.98 0.97 0.98 1.15 0.80 0.83 0.98 0.94 0.82 0.89 0.99 1.10 1.29 1.42 1.43 1.61 1.82 1.60 1.39 1.06 0.70 0.48 0.32 0.34 0.29 0.22 0.16 0.15 0.08 0.06 0.07 0.06
0.02 0.03 0.09 0.13 0.18 0.29 0.32 0.27 0.26 0.38 0.55 0.70 0.76 0.81 1.07 1.08 1.02 0.98 0.93 0.84 0.85 0.81 0.82 0.90 1.17 1.41 1.43 1.25 1.21 1.04 0.85 0.73 0.62 0.46 0.41 0.40 0.40 0.31 0.24 0.20 0.13 0.13 0.09
0.00 0.01 0.01 0.00 0.00 0.01 0.11 0.16 0.18 0.22 0.32 0.49 0.68 0.58 0.75 0.87 0.85 0.93 1.03 0.93 0.84 0.78 0.87 1.00 0.96 0.91 0.77 0.64 0.52 0.42 0.35 0.40 0.45 0.43 0.34 0.32 0.33 0.34 0.36 0.39 0.34 0.28 0.16
0.00 0.00 0.00 0.00 0.00 0.00 0.00 0.01 0.02 0.05 0.08 0.15 0.35 0.40 0.41 0.44 0.39 0.52 0.57 0.68 0.77 0.79 0.76 0.76 0.76 0.58 0.45 0.39 0.34 0.31 0.27 0.26 0.29 0.35 0.40 0.34 0.30 0.32 0.34 0.41 0.51 0.43 0.29
0.00 0.00 0.00 0.00 0.00 0.00 0.00 0.00 0.00 0.00 0.00 0.01 0.02 0.05 0.13 0.21 0.19 0.20 0.25 0.30 0.26 0.29 0.28 0.27 0.28 0.25 0.26 0.25 0.27 0.23 0.20 0.21 0.20 0.22 0.30 0.32 0.24 0.22 0.27 0.33 0.52 0.80 0.87
0.00 0.00 0.00 0.00 0.00 0.00 0.00 0.00 0.00 0.00 0.00 0.02 0.02 0.01 0.04 0.07 0.08 0.07 0.07 0.08 0.07 0.07 0.09 0.09 0.09 0.09 0.10 0.14 0.21 0.23 0.26 0.31 0.32 0.35 0.38 0.39 0.38 0.40 0.45 0.52 0.64 0.89 1.12
0.00 0.00 0.00 0.00 0.00 0.00 0.00 0.00 0.00 0.00 0.00 0.01 0.00 0.01 0.03 0.03 0.04 0.04 0.04 0.04 0.05 0.06 0.06 0.05 0.04 0.04 0.03 0.03 0.04 0.05 0.06 0.09 0.09 0.11 0.14 0.17 0.21 0.28 0.32 0.33 0.37 0.47 0.61
0.00 0.00 0.00 0.00 0.00 0.00 0.00 0.00 0.00 0.01 0.01 0.01 0.00 0.01 0.02 0.04 0.05 0.05 0.06 0.07 0.06 0.06 0.05 0.05 0.04 0.03 0.03 0.03 0.02 0.04 0.04 0.05 0.07 0.07 0.08 0.09 0.08 0.10 0.10 0.16 0.23 0.33 0.41
0.00 0.00 0.00 0.00 0.00 0.00 0.02 0.04 0.04 0.02 0.01 0.01 0.01 0.03 0.05 0.06 0.07 0.07 0.06 0.06 0.05 0.05 0.02 0.03 0.03 0.03 0.02 0.03 0.02 0.03 0.03 0.04 0.05 0.07 0.08 0.11 0.14 0.19 0.24 0.29 0.32 0.36 0.35
0.01 0.00 0.00 0.00 0.00 0.01 0.05 0.05 0.04 0.02 0.05 0.05 0.05 0.06 0.06 0.07 0.08 0.08 0.06 0.07 0.07 0.07 0.05 0.05 0.05 0.04 0.05 0.07 0.08 0.09 0.10 0.14 0.16 0.19 0.21 0.25 0.31 0.35 0.37 0.38 0.36 0.32 0.28
0.01 0.00 0.01 0.01 0.01 0.01 0.03 0.04 0.07 0.08 0.08 0.11 0.11 0.09 0.07 0.05 0.05 0.06 0.05 0.05 0.06 0.07 0.07 0.08 0.10 0.11 0.13 0.18 0.21 0.25 0.33 0.36 0.36 0.36 0.37 0.45 0.53 0.51 0.45 0.42 0.38 0.29 0.24
0.02 0.01 0.01 0.00 0.00 0.00 0.01 0.02 0.06 0.10 0.16 0.15 0.10 0.07 0.06 0.06 0.07 0.06 0.06 0.08 0.09 0.11 0.15 0.17 0.14 0.13 0.14 0.31 0.25 0.20 0.23 0.28 0.33 0.41 0.43 0.49 0.50 0.37 0.31 0.26 0.19 0.17 0.31
0.01 0.00 0.00 0.00 0.00 0.00 0.01 0.01 0.03 0.06 0.07 0.06 0.04 0.04 0.07 0.10 0.09 0.07 0.05 0.09 0.23 0.40 0.36 0.38 0.47 0.61 0.68 0.75 0.56 0.43 0.30 0.31 0.31 0.30 0.26 0.20 0.17 0.16 0.11 0.09 0.13 0.30 0.36
0.00 0.00 0.00 0.00 0.00 0.00 0.00 0.01 0.02 0.07 0.16 0.23 0.24 0.20 0.38 0.53 0.37 0.44 0.56 0.63 0.43 0.44 0.56 0.50 0.64 0.70 0.83 0.76 0.59 0.57 0.54 0.47 0.40 0.30 0.20 0.15 0.10 0.06 0.04 0.10 0.34 0.20 0.05
0.01 0.00 0.00 0.00 0.00 0.00 0.00 0.01 0.02 0.04 0.15 0.33 0.58 0.61 0.65 0.67 0.73 1.09 1.03 1.18 1.08 0.85 0.71 0.58 0.54 0.45 0.36 0.26 0.20 0.15 0.14 0.12 0.09 0.05 0.02 0.04 0.03 0.02 0.16 0.27 0.20 0.03 0.00
0.01 0.01 0.00 0.00 0.00 0.00 0.03 0.05 0.04 0.08 0.18 0.26 0.22 0.62 0.78 0.63 0.58 0.63 0.64 0.72 0.50 0.52 0.60 0.53 0.35 0.29 0.20 0.14 0.10 0.08 0.06 0.03 0.01 0.01 0.02 0.02 0.02 0.11 0.36 0.13 0.03 0.02 0.01
0.01 0.01 0.02 0.02 0.04 0.07 0.13 0.25 0.23 0.41 0.54 0.84 0.62 0.66 0.80 0.64 0.47 0.54 0.36 0.35 0.38 0.30 0.21 0.14 0.10 0.05 0.03 0.01 0.01 0.01 0.01 0.01 0.04 0.05 0.01 0.00 0.11 0.29 0.11 0.03 0.01 0.03 0.06
0.23 0.25 0.18 0.14 0.18 0.22 0.37 0.73 0.66 0.66 0.70 0.64 0.69 0.44 0.40 0.30 0.22 0.15 0.14 0.10 0.05 0.03 0.02 0.01 0.00 0.00 0.00 0.00 0.00 0.01 0.01 0.04 0.05 0.03 0.02 0.11 0.22 0.04 0.00 0.00 0.02 0.04 0.03
0.28 0.54 0.49 0.45 0.55 0.41 0.44 0.59 0.47 0.29 0.15 0.17 0.12 0.05 0.02 0.02 0.01 0.01 0.00 0.00 0.00 0.00 0.00 0.00 0.00 0.00 0.00 0.00 0.00 0.01 0.04 0.05 0.05 0.04 0.16 0.14 0.01 0.00 0.00 0.00 0.01 0.01 0.00
0.01 0.02 0.02 0.06 0.15 0.15 0.14 0.18 0.12 0.06 0.02 0.02 0.01 0.01 0.01 0.02 0.01 0.01 0.00 0.00 0.00 0.00 0.00 0.00 0.00 0.00 0.00 0.00 0.00 0.01 0.03 0.03 0.08 0.13 0.10 0.01 0.00 0.00 0.00 0.00 0.00 0.00 0.01
0.04 0.04 0.04 0.04 0.03 0.01 0.01 0.01 0.01 0.03 0.05 0.06 0.06 0.07 0.09 0.09 0.06 0.04 0.04 0.02 0.01 0.02 0.01 0.01 0.01 0.01 0.00 0.00 0.02 0.03 0.03 0.06 0.10 0.04 0.00 0.00 0.00 0.00 0.00 0.00 0.00 0.00 0.01
0.07 0.06 0.07 0.07 0.11 0.13 0.11 0.08 0.07 0.08 0.08 0.09 0.08 0.12 0.16 0.22 0.29 0.35 0.29 0.22 0.16 0.12 0.09 0.09 0.08 0.05 0.06 0.05 0.03 0.02 0.07 0.09 0.03 0.00 0.00 0.01 0.01 0.02 0.01 0.01 0.02 0.01 0.02

GFSMW_prec_precacc_108.txt.gz
Total_Precipitation_Accumulation
0.39 1.12 1.62 2.03 1.58 0.86 0.83 0.85 1.00 0.69 0.46 0.40 0.29 0.36 0.40 0.44 0.33 0.33 0.50 0.33 0.33 0.33 0.24 0.10 0.09 0.10 0.04 0.04 0.03 0.04 0.03 0.03 0.03 0.06 0.01 0.00 0.00 0.00 0.00 0.00 0.00 0.00 0.01
0.55 0.83 1.06 2.06 2.69 1.71 1.06 1.07 0.85 0.65 0.55 0.49 0.52 0.57 0.72 0.78 0.55 0.54 0.45 0.48 0.58 0.62 0.52 0.30 0.33 0.26 0.18 0.12 0.05 0.06 0.17 0.13 0.17 0.17 0.12 0.04 0.00 0.00 0.00 0.00 0.00 0.00 0.01
0.45 0.86 0.78 0.95 1.35 2.05 1.29 1.03 1.43 1.09 0.76 0.76 0.83 1.09 1.35 1.19 0.91 0.47 0.35 0.61 0.95 1.25 1.11 0.90 0.83 0.68 0.51 0.46 0.43 0.43 0.52 0.43 0.42 0.37 0.34 0.13 0.03 0.01 0.00 0.00 0.01 0.01 0.01
0.27 0.62 0.89 0.74 0.70 0.86 1.29 0.94 1.14 1.03 1.05 1.09 1.21 1.21 1.16 1.09 0.87 0.94 1.03 1.26 1.34 1.61 1.73 1.46 1.16 1.01 0.84 0.76 0.82 0.82 0.79 0.74 0.62 0.48 0.26 0.22 0.13 0.12 0.05 0.02 0.04 0.03 0.02
0.23 0.25 0.47 0.73 0.75 0.57 1.14 1.16 1.10 0.96 0.95 1.07 1.05 1.10 1.29 0.93 0.91 1.05 0.98 0.87 0.94 1.06 1.19 1.37 1.49 1.45 1.62 1.84 1.63 1.42 1.16 0.97 0.80 0.58 0.48 0.36 0.27 0.18 0.18 0.11 0.07 0.07 0.06
0.16 0.13 0.15 0.18 0.25 0.38 0.63 0.96 0.63 0.54 0.65 0.80 0.80 0.88 1.17 1.24 1.10 1.02 0.99 0.88 0.86 0.82 0.82 0.90 1.17 1.42 1.44 1.28 1.25 1.09 0.91 0.79 0.68 0.54 0.52 0.49 0.41 0.31 0.25 0.20 0.13 0.13 0.09
0.06 0.05 0.02 0.00 0.01 0.05 0.19 0.33 0.31 0.32 0.39 0.53 0.72 0.61 0.81 0.98 0.94 0.96 1.08 0.98 0.85 0.81 0.91 1.03 0.97 0.92 0.78 0.67 0.60 0.53 0.46 0.47 0.46 0.44 0.34 0.32 0.33 0.34 0.36 0.39 0.34 0.28 0.16
0.06 0.03 0.00 0.00 0.00 0.00 0.05 0.12 0.16 0.15 0.13 0.20 0.42 0.49 0.47 0.53 0.49 0.61 0.63 0.73 0.81 0.85 0.81 0.80 0.81 0.68 0.53 0.50 0.47 0.43 0.35 0.28 0.29 0.35 0.40 0.34 0.30 0.32 0.34 0.41 0.51 0.43 0.29
0.03 0.00 0.00 0.00 0.00 0.00 0.00 0.00 0.02 0.05 0.06 0.09 0.15 0.12 0.25 0.27 0.28 0.35 0.39 0.42 0.37 0.42 0.40 0.39 0.43 0.37 0.35 0.30 0.32 0.27 0.21 0.21 0.20 0.22 0.30 0.32 0.24 0.22 0.27 0.33 0.52 0.80 0.87
0.00 0.00 0.00 0.00 0.00 0.00 0.00 0.00 0.00 0.00 0.00 0.03 0.02 0.02 0.11 0.11 0.13 0.18 0.15 0.15 0.11 0.11 0.14 0.15 0.16 0.15 0.14 0.16 0.22 0.23 0.27 0.31 0.32 0.35 0.38 0.39 0.38 0.40 0.45 0.52 0.64 0.89 1.12
0.00 0.00 0.00 0.00 0.00 0.00 0.00 0.00 0.00 0.00 0.00 0.01 0.00 0.01 0.03 0.04 0.04 0.05 0.08 0.07 0.06 0.08 0.07 0.07 0.05 0.04 0.03 0.03 0.04 0.05 0.06 0.09 0.09 0.11 0.14 0.17 0.21 0.28 0.32 0.33 0.37 0.47 0.61
0.00 0.00 0.00 0.00 0.00 0.00 0.00 0.00 0.00 0.01 0.01 0.01 0.00 0.01 0.02 0.04 0.05 0.05 0.06 0.08 0.07 0.07 0.06 0.06 0.04 0.03 0.03 0.03 0.03 0.04 0.04 0.05 0.07 0.07 0.08 0.09 0.08 0.10 0.10 0.16 0.23 0.33 0.41
0.00 0.00 0.00 0.00 0.00 0.00 0.02 0.04 0.04 0.02 0.01 0.01 0.01 0.03 0.05 0.06 0.07 0.07 0.06 0.06 0.05 0.05 0.02 0.04 0.04 0.04 0.03 0.04 0.03 0.03 0.03 0.04 0.05 0.07 0.08 0.11 0.14 0.19 0.24 0.29 0.32 0.36 0.35
0.01 0.00 0.00 0.00 0.00 0.01 0.05 0.05 0.04 0.02 0.05 0.05 0.05 0.06 0.06 0.07 0.08 0.08 0.06 0.07 0.07 0.07 0.05 0.05 0.06 0.05 0.07 0.09 0.09 0.09 0.10 0.14 0.16 0.19 0.21 0.25 0.31 0.35 0.37 0.38 0.36 0.32 0.28
0.01 0.00 0.01 0.01 0.01 0.01 0.03 0.04 0.07 0.08 0.08 0.11 0.11 0.09 0.07 0.05 0.05 0.06 0.05 0.05 0.06 0.07 0.07 0.08 0.12 0.14 0.16 0.21 0.22 0.25 0.33 0.36 0.36 0.36 0.37 0.45 0.53 0.51 0.45 0.42 0.38 0.29 0.24
0.02 0.01 0.01 0.00 0.00 0.00 0.01 0.02 0.06 0.10 0.16 0.15 0.10 0.07 0.06 0.06 0.07 0.06 0.06 0.08 0.09 0.11 0.15 0.18 0.15 0.15 0.17 0.35 0.26 0.20 0.23 0.28 0.33 0.41 0.43 0.49 0.50 0.37 0.31 0.26 0.19 0.17 0.31
0.01 0.00 0.00 0.00 0.00 0.00 0.01 0.01 0.03 0.06 0.07 0.06 0.04 0.04 0.07 0.10 0.09 0.07 0.05 0.09 0.23 0.40 0.36 0.38 0.47 0.61 0.70 0.77 0.57 0.43 0.30 0.31 0.31 0.30 0.26 0.20 0.17 0.16 0.11 0.09 0.13 0.30 0.36
0.00 0.00 0.00 0.00 0.00 0.00 0.00 0.01 0.02 0.07 0.16 0.23 0.24 0.20 0.38 0.53 0.37 0.44 0.56 0.63 0.43 0.44 0.56 0.50 0.64 0.70 0.83 0.76 0.59 0.57 0.54 0.47 0.40 0.30 0.20 0.15 0.10 0.06 0.04 0.10 0.34 0.20 0.05
0.01 0.00 0.00 0.00 0.00 0.00 0.00 0.01 0.02 0.04 0.15 0.33 0.58 0.61 0.65 0.67 0.73 1.09 1.03 1.18 1.08 0.85 0.71 0.58 0.54 0.45 0.36 0.26 0.20 0.15 0.14 0.12 0.09 0.05 0.02 0.04 0.03 0.02 0.16 0.27 0.20 0.03 0.00
0.01 0.01 0.00 0.00 0.00 0.00 0.03 0.05 0.04 0.08 0.18 0.26 0.22 0.62 0.78 0.63 0.58 0.63 0.64 0.72 0.50 0.52 0.60 0.53 0.35 0.29 0.20 0.14 0.10 0.08 0.06 0.03 0.01 0.01 0.02 0.02 0.02 0.11 0.36 0.13 0.03 0.02 0.01
0.01 0.01 0.02 0.02 0.04 0.07 0.13 0.25 0.23 0.41 0.54 0.84 0.62 0.66 0.80 0.64 0.47 0.54 0.36 0.35 0.38 0.30 0.21 0.14 0.10 0.05 0.03 0.01 0.01 0.01 0.01 0.01 0.04 0.05 0.01 0.00 0.11 0.29 0.11 0.03 0.01 0.03 0.06
0.23 0.25 0.18 0.14 0.18 0.22 0.37 0.73 0.67 0.66 0.70 0.64 0.70 0.44 0.40 0.30 0.22 0.15 0.14 0.11 0.05 0.03 0.02 0.01 0.00 0.00 0.00 0.00 0.00 0.01 0.01 0.04 0.05 0.03 0.02 0.11 0.22 0.04 0.00 0.00 0.02 0.04 0.03
0.28 0.54 0.49 0.45 0.55 0.41 0.44 0.59 0.47 0.29 0.15 0.18 0.13 0.06 0.02 0.02 0.01 0.01 0.00 0.00 0.00 0.00 0.00 0.00 0.00 0.00 0.00 0.00 0.00 0.01 0.04 0.05 0.05 0.04 0.16 0.14 0.01 0.00 0.00 0.00 0.01 0.01 0.00
0.01 0.02 0.02 0.06 0.15 0.15 0.14 0.18 0.12 0.06 0.03 0.02 0.01 0.01 0.01 0.03 0.01 0.01 0.01 0.01 0.01 0.01 0.01 0.00 0.00 0.00 0.00 0.00 0.00 0.01 0.03 0.03 0.08 0.13 0.10 0.01 0.00 0.00 0.00 0.00 0.00 0.00 0.01
0.04 0.04 0.04 0.04 0.03 0.01 0.01 0.01 0.01 0.03 0.05 0.06 0.07 0.09 0.10 0.11 0.07 0.04 0.05 0.04 0.02 0.04 0.03 0.02 0.01 0.01 0.00 0.01 0.02 0.04 0.03 0.06 0.10 0.04 0.00 0.00 0.00 0.00 0.00 0.00 0.00 0.00 0.01
0.07 0.06 0.07 0.07 0.11 0.13 0.11 0.08 0.07 0.08 0.09 0.09 0.09 0.15 0.18 0.23 0.30 0.36 0.31 0.26 0.18 0.16 0.11 0.12 0.09 0.06 0.06 0.07 0.08 0.09 0.13 0.13 0.05 0.00 0.00 0.01 0.01 0.02 0.01 0.01 0.02 0.01 0.02

GFSMW_prec_precacc_111.txt.gz
Total_Precipitation_Accumulation
0.39 1.12 1.62 2.05 1.61 0.89 0.86 0.87 1.18 1.33 0.99 0.86 0.72 0.68 0.54 0.52 0.36 0.34 0.50 0.33 0.33 0.33 0.24 0.10 0.09 0.10 0.04 0.04 0.03 0.04 0.03 0.03 0.03 0.06 0.01 0.00 0.00 0.00 0.00 0.00 0.00 0.00 0.01
0.55 0.84 1.07 2.09 2.75 1.81 1.19 1.17 0.95 0.82 0.98 0.78 0.72 0.80 0.89 0.89 0.65 0.59 0.49 0.50 0.59 0.62 0.52 0.30 0.33 0.26 0.18 0.12 0.05 0.06 0.17 0.13 0.17 0.17 0.12 0.04 0.00 0.00 0.00 0.00 0.00 0.00 0.01
0.46 0.87 0.80 1.00 1.39 2.18 1.60 1.34 1.82 1.22 0.94 0.93 0.94 1.21 1.54 1.38 1.03 0.54 0.41 0.65 0.96 1.25 1.11 0.91 0.85 0.69 0.53 0.49 0.45 0.44 0.54 0.44 0.45 0.45 0.42 0.15 0.03 0.01 0.00 0.00 0.01 0.01 0.01
0.32 0.66 0.94 0.78 0.76 0.95 1.45 1.18 1.60 1.38 1.17 1.24 1.34 1.29 1.23 1.23 1.10 1.14 1.13 1.33 1.44 1.70 1.86 1.66 1.38 1.25 1.04 0.92 0.94 0.94 0.92 0.82 0.70 0.61 0.40 0.31 0.16 0.12 0.05 0.02 0.04 0.03 0.02
0.30 0.32 0.56 0.80 0.81 0.63 1.22 1.31 1.34 1.30 1.07 1.18 1.12 1.17 1.34 1.01 0.99 1.16 1.09 0.97 0.99 1.12 1.25 1.47 1.59 1.57 1.77 1.90 1.66 1.45 1.17 0.98 0.82 0.62 0.58 0.51 0.44 0.29 0.20 0.11 0.07 0.07 0.06
0.27 0.23 0.21 0.27 0.31 0.42 0.72 1.24 0.92 0.92 0.81 0.96 0.87 0.92 1.23 1.33 1.18 1.09 1.07 0.97 1.01 0.92 0.89 0.93 1.19 1.45 1.50 1.32 1.25 1.09 0.91 0.79 0.69 0.55 0.56 0.60 0.53 0.37 0.25 0.20 0.13 0.13 0.09
0.27 0.16 0.12 0.10 0.10 0.11 0.31 0.71 0.66 0.65 0.56 0.69 0.86 0.66 0.88 1.09 1.05 1.05 1.19 1.09 0.99 1.00 1.05 1.14 1.05 0.95 0.81 0.70 0.61 0.53 0.47 0.48 0.47 0.45 0.34 0.33 0.37 0.37 0.36 0.39 0.34 0.28 0.16
0.22 0.23 0.18 0.07 0.03 0.04 0.15 0.24 0.26 0.30 0.26 0.25 0.48 0.54 0.50 0.61 0.58 0.66 0.67 0.76 0.85 0.91 0.91 0.91 0.86 0.70 0.54 0.52 0.48 0.45 0.39 0.35 0.34 0.39 0.43 0.34 0.30 0.32 0.35 0.42 0.52 0.43 0.29
0.15 0.11 0.05 0.00 0.00 0.00 0.01 0.02 0.05 0.08 0.08 0.11 0.17 0.16 0.29 0.30 0.31 0.43 0.46 0.48 0.43 0.45 0.44 0.44 0.46 0.42 0.40 0.35 0.38 0.34 0.28 0.27 0.23 0.24 0.31 0.32 0.24 0.22 0.27 0.33 0.52 0.80 0.87
0.03 0.01 0.00 0.00 0.00 0.00 0.00 0.00 0.00 0.01 0.01 0.03 0.03 0.04 0.15 0.22 0.29 0.34 0.26 0.24 0.19 0.17 0.20 0.21 0.23 0.21 0.24 0.24 0.29 0.31 0.30 0.34 0.35 0.37 0.40 0.39 0.38 0.40 0.45 0.52 0.64 0.89 1.12
0.00 0.00 0.00 0.00 0.00 0.00 0.00 0.00 0.00 0.00 0.00 0.01 0.00 0.01 0.03 0.04 0.09 0.14 0.16 0.15 0.13 0.22 0.21 0.16 0.13 0.08 0.06 0.06 0.07 0.07 0.09 0.10 0.11 0.12 0.14 0.17 0.21 0.28 0.32 0.33 0.37 0.47 0.61
0.00 0.00 0.00 0.00 0.00 0.00 0.00 0.00 0.00 0.01 0.01 0.01 0.00 0.01 0.02 0.04 0.05 0.05 0.06 0.08 0.07 0.09 0.08 0.08 0.06 0.04 0.04 0.04 0.03 0.04 0.06 0.07 0.08 0.07 0.08 0.09 0.08 0.10 0.10 0.16 0.23 0.33 0.41
0.00 0.00 0.00 0.00 0.00 0.00 0.02 0.04 0.04 0.02 0.01 0.01 0.01 0.03 0.05 0.06 0.07 0.07 0.06 0.06 0.05 0.05 0.02 0.04 0.04 0.04 0.04 0.04 0.04 0.04 0.04 0.05 0.06 0.07 0.08 0.11 0.14 0.19 0.24 0.29 0.32 0.36 0.35
0.01 0.00 0.00 0.00 0.00 0.01 0.05 0.05 0.04 0.02 0.05 0.05 0.05 0.06 0.06 0.07 0.08 0.08 0.06 0.07 0.07 0.07 0.05 0.05 0.06 0.05 0.07 0.10 0.11 0.11 0.13 0.16 0.17 0.19 0.21 0.25 0.31 0.35 0.37 0.38 0.36 0.32 0.28
0.01 0.00 0.01 0.01 0.01 0.01 0.03 0.04 0.07 0.08 0.08 0.11 0.11 0.09 0.07 0.05 0.05 0.06 0.05 0.05 0.06 0.07 0.07 0.08 0.12 0.14 0.17 0.23 0.26 0.28 0.36 0.38 0.37 0.36 0.37 0.45 0.53 0.51 0.45 0.42 0.38 0.29 0.24
0.02 0.01 0.01 0.00 0.00 0.00 0.01 0.02 0.06 0.10 0.16 0.15 0.10 0.07 0.06 0.06 0.07 0.06 0.06 0.08 0.09 0.11 0.15 0.18 0.15 0.15 0.18 0.38 0.31 0.24 0.25 0.29 0.33 0.41 0.43 0.49 0.50 0.37 0.31 0.26 0.19 0.17 0.31
0.01 0.00 0.00 0.00 0.00 0.00 0.01 0.01 0.03 0.06 0.07 0.06 0.04 0.04 0.07 0.10 0.09 0.07 0.05 0.09 0.23 0.40 0.36 0.38 0.47 0.61 0.70 0.78 0.60 0.48 0.37 0.38 0.33 0.30 0.26 0.20 0.17 0.16 0.11 0.09 0.13 0.30 0.36
0.00 0.00 0.00 0.00 0.00 0.00 0.00 0.01 0.02 0.07 0.16 0.23 0.24 0.20 0.38 0.53 0.37 0.44 0.56 0.63 0.43 0.44 0.56 0.50 0.64 0.70 0.83 0.77 0.60 0.59 0.55 0.52 0.47 0.31 0.20 0.15 0.10 0.06 0.04 0.10 0.34 0.20 0.05
0.01 0.00 0.00 0.00 0.00 0.00 0.00 0.01 0.02 0.04 0.15 0.33 0.58 0.61 0.65 0.67 0.73 1.09 1.03 1.18 1.08 0.85 0.71 0.58 0.54 0.45 0.36 0.26 0.21 0.16 0.14 0.12 0.09 0.05 0.02 0.04 0.03 0.02 0.16 0.27 0.20 0.03 0.00
0.01 0.01 0.00 0.00 0.00 0.00 0.03 0.05 0.04 0.08 0.18 0.26 0.22 0.62 0.78 0.63 0.58 0.63 0.64 0.72 0.50 0.52 0.60 0.53 0.35 0.29 0.20 0.14 0.10 0.09 0.07 0.03 0.01 0.01 0.02 0.02 0.02 0.11 0.36 0.13 0.03 0.02 0.01
0.01 0.01 0.02 0.02 0.04 0.07 0.13 0.25 0.23 0.41 0.54 0.84 0.62 0.66 0.80 0.64 0.47 0.54 0.36 0.35 0.38 0.30 0.21 0.14 0.10 0.05 0.03 0.01 0.01 0.01 0.01 0.01 0.04 0.05 0.01 0.00 0.11 0.29 0.11 0.03 0.01 0.03 0.06
0.23 0.25 0.18 0.14 0.18 0.22 0.37 0.73 0.67 0.66 0.70 0.64 0.70 0.44 0.40 0.30 0.22 0.15 0.14 0.11 0.06 0.04 0.02 0.01 0.00 0.00 0.00 0.00 0.00 0.01 0.01 0.04 0.05 0.03 0.02 0.11 0.22 0.04 0.00 0.00 0.02 0.04 0.03
0.28 0.54 0.49 0.45 0.55 0.41 0.44 0.59 0.47 0.29 0.15 0.18 0.13 0.06 0.03 0.02 0.01 0.01 0.00 0.00 0.00 0.01 0.01 0.01 0.00 0.00 0.00 0.00 0.00 0.01 0.05 0.06 0.05 0.04 0.16 0.14 0.01 0.00 0.00 0.00 0.01 0.01 0.00
0.01 0.02 0.02 0.06 0.15 0.15 0.14 0.18 0.12 0.06 0.03 0.02 0.02 0.01 0.02 0.04 0.01 0.01 0.02 0.02 0.02 0.03 0.03 0.03 0.02 0.01 0.00 0.00 0.00 0.02 0.04 0.04 0.08 0.13 0.11 0.01 0.00 0.00 0.00 0.00 0.00 0.00 0.01
0.04 0.04 0.04 0.04 0.03 0.01 0.01 0.01 0.01 0.03 0.05 0.06 0.07 0.09 0.11 0.11 0.07 0.05 0.06 0.06 0.05 0.07 0.06 0.04 0.04 0.03 0.02 0.02 0.04 0.06 0.06 0.09 0.11 0.04 0.00 0.00 0.00 0.00 0.00 0.00 0.00 0.00 0.01
0.07 0.06 0.07 0.07 0.11 0.13 0.11 0.08 0.07 0.08 0.09 0.09 0.09 0.16 0.18 0.23 0.30 0.36 0.32 0.28 0.20 0.18 0.14 0.15 0.12 0.09 0.10 0.10 0.13 0.16 0.22 0.22 0.13 0.04 0.01 0.02 0.01 0.02 0.01 0.01 0.02 0.01 0.02

GFSMW_prec_precacc_114.txt.gz
Total_Precipitation_Accumulation
0.39 1.12 1.62 2.05 1.61 0.90 0.86 0.87 1.20 1.44 1.30 0.95 0.78 0.77 0.63 0.59 0.37 0.34 0.50 0.34 0.34 0.33 0.24 0.10 0.09 0.10 0.04 0.04 0.03 0.04 0.03 0.03 0.03 0.06 0.01 0.00 0.00 0.00 0.00 0.00 0.00 0.00 0.01
0.55 0.84 1.07 2.09 2.75 1.81 1.19 1.18 0.99 0.86 1.26 1.39 0.90 0.96 0.99 0.98 0.72 0.63 0.49 0.50 0.60 0.62 0.52 0.30 0.33 0.26 0.18 0.12 0.05 0.06 0.17 0.13 0.17 0.17 0.12 0.04 0.00 0.00 0.00 0.00 0.00 0.00 0.01
0.46 0.87 0.80 1.00 1.40 2.19 1.62 1.38 1.92 1.31 1.04 1.66 1.55 1.45 1.79 1.63 1.21 0.70 0.48 0.66 0.97 1.25 1.12 0.91 0.85 0.70 0.54 0.51 0.47 0.48 0.58 0.45 0.45 0.45 0.43 0.16 0.03 0.01 0.00 0.00 0.01 0.01 0.01
0.32 0.67 0.94 0.78 0.77 0.96 1.47 1.19 1.68 1.60 1.39 1.55 2.00 1.66 1.49 1.49 1.30 1.34 1.32 1.48 1.53 1.79 1.91 1.72 1.42 1.27 1.08 1.02 1.08 1.14 1.15 0.98 0.78 0.66 0.42 0.32 0.20 0.16 0.07 0.02 0.05 0.04 0.02
0.31 0.37 0.61 0.86 0.81 0.63 1.22 1.34 1.41 1.45 1.30 1.40 1.43 1.53 1.58 1.25 1.11 1.25 1.25 1.16 1.19 1.27 1.42 1.68 1.78 1.73 1.93 2.05 1.87 1.67 1.37 1.14 0.95 0.68 0.62 0.55 0.48 0.35 0.25 0.13 0.07 0.08 0.06
0.31 0.33 0.31 0.32 0.34 0.43 0.76 1.26 1.02 1.09 0.99 1.19 1.03 1.09 1.45 1.50 1.25 1.11 1.10 1.03 1.11 1.10 1.10 1.09 1.34 1.63 1.68 1.52 1.42 1.18 0.94 0.81 0.71 0.57 0.56 0.60 0.53 0.39 0.27 0.20 0.13 0.13 0.09
0.53 0.52 0.25 0.23 0.26 0.18 0.48 0.89 0.91 1.02 0.88 1.03 1.13 0.88 1.02 1.19 1.14 1.10 1.23 1.12 1.03 1.06 1.23 1.38 1.24 1.08 0.94 0.82 0.68 0.57 0.48 0.49 0.48 0.45 0.34 0.33 0.37 0.39 0.45 0.47 0.37 0.29 0.16
0.78 0.63 0.47 0.41 0.35 0.24 0.37 0.52 0.65 0.80 0.87 0.76 0.80 0.84 0.70 0.71 0.65 0.72 0.75 0.83 0.89 0.94 0.96 1.13 1.15 0.91 0.68 0.63 0.55 0.47 0.40 0.36 0.35 0.39 0.44 0.37 0.31 0.33 0.36 0.47 0.61 0.49 0.31
0.38 0.43 0.29 0.09 0.04 0.03 0.08 0.13 0.20 0.32 0.29 0.27 0.32 0.29 0.45 0.40 0.41 0.53 0.56 0.55 0.48 0.48 0.48 0.49 0.53 0.49 0.48 0.42 0.44 0.41 0.34 0.32 0.28 0.28 0.34 0.34 0.25 0.23 0.28 0.33 0.52 0.82 0.88
0.17 0.09 0.04 0.02 0.00 0.00 0.00 0.00 0.01 0.04 0.05 0.08 0.07 0.11 0.21 0.26 0.34 0.39 0.31 0.30 0.25 0.22 0.26 0.27 0.28 0.27 0.29 0.29 0.34 0.36 0.42 0.51 0.53 0.50 0.47 0.42 0.39 0.41 0.45 0.52 0.64 0.89 1.12
0.04 0.01 0.00 0.00 0.00 0.00 0.00 0.00 0.00 0.00 0.00 0.01 0.01 0.02 0.05 0.07 0.13 0.22 0.25 0.23 0.20 0.29 0.27 0.23 0.20 0.17 0.16 0.16 0.15 0.11 0.10 0.12 0.16 0.24 0.23 0.20 0.23 0.29 0.33 0.34 0.37 0.47 0.61
0.00 0.00 0.00 0.00 0.00 0.00 0.00 0.00 0.00 0.01 0.01 0.01 0.00 0.01 0.02 0.04 0.05 0.05 0.06 0.09 0.08 0.13 0.13 0.16 0.12 0.09 0.10 0.10 0.10 0.10 0.09 0.10 0.12 0.11 0.13 0.14 0.12 0.12 0.12 0.16 0.23 0.33 0.41
0.00 0.00 0.00 0.00 0.00 0.00 0.02 0.04 0.04 0.02 0.01 0.01 0.01 0.03 0.05 0.06 0.07 0.07 0.06 0.06 0.05 0.05 0.02 0.04 0.05 0.05 0.05 0.04 0.04 0.05 0.06 0.06 0.07 0.08 0.11 0.15 0.16 0.20 0.24 0.29 0.32 0.36 0.35
0.01 0.00 0.00 0.00 0.00 0.01 0.05 0.05 0.04 0.02 0.05 0.05 0.05 0.06 0.06 0.07 0.08 0.08 0.06 0.07 0.07 0.07 0.05 0.05 0.06 0.05 0.07 0.10 0.11 0.12 0.15 0.18 0.19 0.21 0.24 0.27 0.31 0.35 0.37 0.38 0.36 0.32 0.28
0.01 0.00 0.01 0.01 0.01 0.01 0.03 0.04 0.07 0.08 0.08 0.11 0.11 0.09 0.07 0.05 0.05 0.06 0.05 0.05 0.06 0.07 0.07 0.08 0.12 0.14 0.17 0.23 0.26 0.29 0.38 0.40 0.41 0.39 0.39 0.46 0.54 0.51 0.45 0.42 0.38 0.29 0.24
0.02 0.01 0.01 0.00 0.00 0.00 0.01 0.02 0.06 0.10 0.16 0.15 0.10 0.07 0.06 0.06 0.07 0.06 0.06 0.08 0.09 0.11 0.15 0.18 0.15 0.15 0.18 0.39 0.31 0.25 0.25 0.29 0.35 0.43 0.44 0.50 0.51 0.37 0.31 0.26 0.19 0.17 0.31
0.01 0.00 0.00 0.00 0.00 0.00 0.01 0.01 0.03 0.06 0.07 0.06 0.04 0.04 0.07 0.10 0.09 0.07 0.05 0.09 0.23 0.40 0.36 0.38 0.47 0.61 0.70 0.79 0.61 0.50 0.38 0.40 0.37 0.33 0.28 0.21 0.17 0.16 0.11 0.09 0.13 0.30 0.36
0.00 0.00 0.00 0.00 0.00 0.00 0.00 0.01 0.02 0.07 0.16 0.23 0.24 0.20 0.38 0.53 0.37 0.44 0.56 0.63 0.43 0.44 0.56 0.50 0.64 0.70 0.83 0.77 0.61 0.61 0.57 0.55 0.54 0.43 0.29 0.20 0.13 0.07 0.05 0.10 0.34 0.20 0.05
0.01 0.00 0.00 0.00 0.00 0.00 0.00 0.01 0.02 0.04 0.15 0.33 0.58 0.61 0.65 0.67 0.73 1.09 1.03 1.18 1.08 0.85 0.71 0.58 0.54 0.45 0.36 0.26 0.21 0.17 0.15 0.16 0.14 0.12 0.09 0.10 0.10 0.10 0.21 0.28 0.20 0.03 0.00
0.01 0.01 0.00 0.00 0.00 0.00 0.03 0.05 0.04 0.08 0.18 0.26 0.22 0.62 0.78 0.63 0.58 0.63 0.64 0.72 0.50 0.52 0.60 0.53 0.35 0.29 0.20 0.14 0.10 0.09 0.07 0.06 0.04 0.05 0.06 0.06 0.04 0.13 0.40 0.13 0.03 0.02 0.01
0.01 0.01 0.02 0.02 0.04 0.07 0.13 0.25 0.23 0.41 0.54 0.84 0.62 0.66 0.80 0.64 0.47 0.54 0.36 0.36 0.38 0.30 0.21 0.14 0.10 0.05 0.03 0.01 0.01 0.01 0.01 0.02 0.05 0.07 0.05 0.04 0.15 0.31 0.14 0.05 0.01 0.03 0.06
0.23 0.25 0.18 0.14 0.18 0.22 0.37 0.73 0.67 0.66 0.70 0.64 0.70 0.44 0.40 0.30 0.22 0.15 0.14 0.11 0.06 0.04 0.02 0.01 0.00 0.00 0.00 0.00 0.00 0.01 0.02 0.05 0.06 0.05 0.04 0.14 0.30 0.11 0.04 0.02 0.02 0.04 0.03
0.28 0.54 0.49 0.45 0.55 0.41 0.44 0.59 0.47 0.29 0.15 0.18 0.13 0.06 0.03 0.02 0.01 0.01 0.00 0.00 0.01 0.01 0.02 0.02 0.01 0.00 0.00 0.00 0.01 0.01 0.06 0.07 0.06 0.05 0.18 0.20 0.12 0.08 0.08 0.06 0.02 0.01 0.00
0.01 0.02 0.02 0.06 0.15 0.15 0.14 0.18 0.12 0.06 0.03 0.02 0.02 0.02 0.02 0.04 0.01 0.02 0.02 0.02 0.02 0.03 0.03 0.04 0.04 0.02 0.01 0.00 0.00 0.03 0.05 0.05 0.10 0.16 0.14 0.06 0.08 0.08 0.05 0.04 0.03 0.00 0.01
0.04 0.04 0.04 0.04 0.03 0.01 0.01 0.01 0.01 0.03 0.05 0.06 0.07 0.09 0.11 0.12 0.07 0.05 0.06 0.07 0.06 0.08 0.07 0.05 0.05 0.05 0.05 0.03 0.05 0.08 0.09 0.11 0.13 0.07 0.03 0.13 0.11 0.03 0.02 0.02 0.03 0.01 0.01
0.07 0.06 0.07 0.07 0.11 0.13 0.11 0.08 0.07 0.08 0.09 0.09 0.09 0.16 0.18 0.23 0.31 0.37 0.32 0.29 0.22 0.20 0.16 0.17 0.15 0.12 0.14 0.12 0.13 0.17 0.26 0.27 0.21 0.12 0.10 0.08 0.08 0.06 0.02 0.03 0.04 0.03 0.02

GFSMW_prec_precacc_117.txt.gz
Total_Precipitation_Accumulation
0.39 1.12 1.62 2.05 1.61 0.90 0.86 0.87 1.20 1.44 1.30 0.95 0.80 0.78 0.63 0.59 0.38 0.36 0.52 0.35 0.49 0.51 0.33 0.10 0.09 0.10 0.04 0.04 0.03 0.04 0.03 0.03 0.03 0.06 0.01 0.00 0.00 0.00 0.00 0.00 0.00 0.00 0.01
0.55 0.84 1.07 2.09 2.75 1.81 1.19 1.18 0.99 0.86 1.26 1.39 0.92 0.99 1.00 0.99 0.73 0.64 0.50 0.52 0.62 0.73 0.69 0.32 0.33 0.26 0.18 0.12 0.05 0.06 0.17 0.13 0.17 0.17 0.12 0.04 0.00 0.00 0.00 0.00 0.00 0.00 0.01
0.46 0.87 0.81 1.00 1.40 2.19 1.62 1.38 1.92 1.31 1.04 1.66 1.63 1.49 1.81 1.66 1.26 0.76 0.53 0.69 1.01 1.29 1.16 0.95 0.85 0.70 0.54 0.51 0.47 0.48 0.58 0.45 0.45 0.45 0.43 0.16 0.03 0.01 0.00 0.00 0.01 0.01 0.01
0.32 0.67 0.95 0.79 0.77 0.96 1.47 1.20 1.68 1.60 1.39 1.55 2.20 1.96 1.56 1.54 1.34 1.38 1.39 1.56 1.62 1.85 1.96 1.76 1.44 1.27 1.08 1.03 1.09 1.16 1.18 1.01 0.80 0.69 0.43 0.33 0.21 0.16 0.07 0.02 0.05 0.04 0.02
0.31 0.37 0.61 0.88 0.82 0.63 1.22 1.34 1.42 1.45 1.30 1.40 1.64 2.24 2.10 1.45 1.20 1.30 1.33 1.27 1.32 1.40 1.55 1.74 1.80 1.74 1.93 2.05 1.89 1.74 1.48 1.27 1.08 0.83 0.76 0.67 0.56 0.39 0.26 0.13 0.07 0.08 0.06
0.31 0.35 0.40 0.43 0.42 0.44 0.77 1.26 1.03 1.09 0.99 1.21 1.15 1.55 2.15 1.88 1.53 1.31 1.22 1.11 1.21 1.23 1.28 1.32 1.53 1.78 1.81 1.65 1.57 1.36 1.10 0.95 0.83 0.68 0.67 0.70 0.58 0.42 0.29 0.21 0.13 0.13 0.09
0.57 0.66 0.45 0.37 0.33 0.24 0.63 1.01 0.94 1.06 0.89 1.09 1.24 1.05 1.41 1.61 1.49 1.37 1.44 1.21 1.09 1.12 1.28 1.51 1.43 1.28 1.14 1.01 0.87 0.75 0.59 0.57 0.55 0.53 0.42 0.39 0.40 0.40 0.47 0.48 0.38 0.29 0.16
1.01 1.19 0.95 0.70 0.68 0.50 0.67 0.76 0.71 1.00 1.05 0.97 1.04 1.13 1.02 0.97 0.90 0.94 0.93 1.00 0.99 1.04 1.01 1.16 1.21 1.04 0.85 0.83 0.72 0.61 0.50 0.42 0.39 0.43 0.47 0.39 0.33 0.34 0.36 0.48 0.63 0.53 0.32
0.72 0.72 0.53 0.32 0.25 0.29 0.35 0.35 0.47 0.74 0.76 0.66 0.61 0.55 0.79 0.63 0.62 0.72 0.73 0.70 0.61 0.59 0.56 0.54 0.58 0.58 0.59 0.61 0.64 0.60 0.47 0.42 0.36 0.33 0.37 0.37 0.27 0.24 0.29 0.34 0.53 0.84 0.91
0.42 0.25 0.15 0.09 0.03 0.03 0.03 0.06 0.10 0.13 0.20 0.24 0.16 0.28 0.35 0.44 0.49 0.52 0.44 0.40 0.36 0.32 0.32 0.31 0.30 0.30 0.35 0.36 0.46 0.50 0.52 0.58 0.59 0.54 0.53 0.50 0.46 0.47 0.51 0.57 0.67 0.91 1.16
0.08 0.04 0.01 0.00 0.00 0.00 0.00 0.00 0.00 0.00 0.00 0.01 0.01 0.05 0.13 0.13 0.16 0.26 0.31 0.29 0.24 0.32 0.30 0.26 0.23 0.20 0.19 0.20 0.22 0.20 0.17 0.18 0.20 0.28 0.36 0.39 0.39 0.42 0.44 0.44 0.41 0.51 0.66
0.00 0.00 0.00 0.00 0.00 0.00 0.00 0.00 0.00 0.01 0.01 0.01 0.00 0.01 0.02 0.04 0.05 0.05 0.06 0.09 0.09 0.13 0.14 0.19 0.15 0.11 0.12 0.14 0.17 0.21 0.23 0.23 0.18 0.15 0.18 0.21 0.22 0.27 0.28 0.26 0.28 0.36 0.44
0.00 0.00 0.00 0.00 0.00 0.00 0.02 0.04 0.04 0.02 0.01 0.01 0.01 0.03 0.05 0.06 0.07 0.07 0.06 0.06 0.05 0.05 0.03 0.05 0.05 0.05 0.05 0.05 0.06 0.08 0.09 0.11 0.12 0.13 0.14 0.17 0.21 0.30 0.36 0.38 0.39 0.45 0.42
0.01 0.00 0.00 0.00 0.00 0.01 0.05 0.05 0.04 0.02 0.05 0.05 0.05 0.06 0.06 0.07 0.08 0.08 0.06 0.07 0.07 0.07 0.05 0.05 0.06 0.06 0.07 0.10 0.12 0.13 0.16 0.19 0.21 0.23 0.26 0.29 0.35 0.40 0.45 0.52 0.56 0.46 0.31
0.01 0.00 0.01 0.01 0.01 0.01 0.03 0.04 0.07 0.08 0.08 0.11 0.11 0.09 0.07 0.05 0.05 0.06 0.05 0.05 0.06 0.07 0.07 0.08 0.12 0.14 0.17 0.23 0.26 0.29 0.39 0.41 0.42 0.41 0.41 0.47 0.57 0.56 0.49 0.45 0.44 0.39 0.29
0.02 0.01 0.01 0.00 0.00 0.00 0.01 0.02 0.06 0.10 0.16 0.15 0.10 0.07 0.06 0.06 0.07 0.06 0.06 0.08 0.09 0.11 0.15 0.18 0.15 0.15 0.18 0.39 0.32 0.25 0.26 0.30 0.36 0.45 0.47 0.53 0.57 0.41 0.34 0.28 0.20 0.19 0.31
0.01 0.00 0.00 0.00 0.00 0.00 0.01 0.01 0.03 0.06 0.07 0.06 0.04 0.04 0.07 0.10 0.09 0.07 0.05 0.09 0.23 0.40 0.36 0.38 0.47 0.61 0.70 0.79 0.61 0.50 0.38 0.40 0.37 0.35 0.31 0.26 0.23 0.24 0.17 0.14 0.16 0.30 0.36
0.00 0.00 0.00 0.00 0.00 0.00 0.00 0.01 0.02 0.07 0.16 0.23 0.24 0.20 0.38 0.53 0.37 0.44 0.56 0.63 0.43 0.44 0.56 0.50 0.64 0.70 0.83 0.77 0.61 0.61 0.57 0.55 0.55 0.45 0.33 0.27 0.20 0.14 0.11 0.15 0.37 0.20 0.05
0.01 0.00 0.00 0.00 0.00 0.00 0.00 0.01 0.02 0.04 0.15 0.33 0.58 0.61 0.65 0.67 0.73 1.09 1.03 1.18 1.08 0.85 0.71 0.58 0.54 0.45 0.36 0.26 0.21 0.17 0.15 0.16 0.15 0.14 0.13 0.18 0.19 0.24 0.39 0.40 0.28 0.08 0.04
0.01 0.01 0.00 0.00 0.00 0.00 0.03 0.05 0.04 0.08 0.18 0.26 0.22 0.62 0.78 0.63 0.58 0.63 0.64 0.72 0.50 0.52 0.60 0.53 0.35 0.29 0.20 0.14 0.10 0.09 0.07 0.06 0.04 0.05 0.08 0.12 0.10 0.22 0.56 0.36 0.24 0.16 0.11
0.01 0.01 0.02 0.02 0.04 0.07 0.13 0.25 0.23 0.41 0.54 0.84 0.62 0.66 0.80 0.64 0.47 0.54 0.36 0.36 0.38 0.30 0.21 0.14 0.10 0.05 0.03 0.01 0.01 0.01 0.01 0.02 0.05 0.07 0.05 0.06 0.20 0.38 0.23 0.19 0.19 0.18 0.21
0.23 0.25 0.18 0.14 0.18 0.22 0.37 0.73 0.67 0.66 0.70 0.64 0.70 0.44 0.40 0.30 0.22 0.15 0.14 0.11 0.06 0.04 0.02 0.01 0.01 0.00 0.00 0.01 0.00 0.01 0.02 0.05 0.06 0.05 0.04 0.15 0.34 0.17 0.13 0.10 0.15 0.23 0.18
0.28 0.54 0.49 0.45 0.55 0.41 0.44 0.59 0.47 0.29 0.15 0.18 0.13 0.06 0.03 0.02 0.01 0.01 0.00 0.00 0.01 0.01 0.02 0.02 0.01 0.01 0.01 0.01 0.01 0.01 0.06 0.07 0.06 0.05 0.18 0.21 0.15 0.13 0.14 0.17 0.16 0.13 0.11
0.01 0.02 0.02 0.06 0.15 0.15 0.14 0.18 0.12 0.06 0.03 0.02 0.02 0.02 0.02 0.04 0.01 0.02 0.02 0.02 0.02 0.03 0.03 0.04 0.04 0.03 0.02 0.01 0.01 0.03 0.05 0.05 0.10 0.16 0.15 0.08 0.14 0.21 0.19 0.17 0.18 0.18 0.08
0.04 0.04 0.04 0.04 0.03 0.01 0.01 0.01 0.01 0.03 0.05 0.06 0.07 0.09 0.11 0.12 0.07 0.05 0.06 0.07 0.06 0.08 0.08 0.06 0.06 0.06 0.05 0.04 0.07 0.10 0.10 0.12 0.15 0.10 0.04 0.16 0.16 0.13 0.16 0.16 0.15 0.11 0.10
0.07 0.06 0.07 0.07 0.11 0.13 0.11 0.08 0.07 0.08 0.09 0.09 0.09 0.16 0.18 0.23 0.31 0.37 0.32 0.29 0.22 0.20 0.16 0.18 0.17 0.14 0.16 0.15 0.17 0.20 0.29 0.30 0.26 0.19 0.12 0.10 0.11 0.13 0.09 0.07 0.10 0.13 0.13

GFSMW_prec_precacc_120.txt.gz
Total_Precipitation_Accumulation
0.39 1.12 1.62 2.05 1.61 0.90 0.86 0.87 1.20 1.44 1.30 0.95 0.80 0.78 0.63 0.59 0.38 0.36 0.52 0.35 0.50 0.53 0.43 0.32 0.35 0.28 0.09 0.05 0.03 0.04 0.03 0.03 0.03 0.06 0.01 0.00 0.00 0.00 0.00 0.00 0.00 0.00 0.01
0.55 0.84 1.07 2.09 2.75 1.81 1.19 1.18 0.99 0.86 1.26 1.39 0.92 0.99 1.00 0.99 0.73 0.64 0.50 0.52 0.62 0.74 0.73 0.41 0.44 0.38 0.21 0.12 0.05 0.06 0.17 0.13 0.17 0.17 0.12 0.04 0.00 0.00 0.00 0.00 0.00 0.00 0.01
0.46 0.87 0.81 1.00 1.40 2.19 1.62 1.38 1.92 1.31 1.04 1.66 1.63 1.49 1.82 1.66 1.27 0.77 0.55 0.72 1.02 1.31 1.19 1.06 0.91 0.72 0.56 0.53 0.47 0.48 0.58 0.45 0.45 0.45 0.43 0.16 0.03 0.01 0.00 0.00 0.01 0.01 0.01
0.32 0.67 0.95 0.79 0.77 0.97 1.47 1.20 1.68 1.60 1.39 1.56 2.20 1.96 1.57 1.55 1.36 1.39 1.40 1.59 1.70 1.95 2.02 1.88 1.61 1.35 1.11 1.03 1.09 1.17 1.18 1.01 0.80 0.69 0.43 0.33 0.21 0.16 0.07 0.02 0.05 0.04 0.02
0.33 0.37 0.61 0.91 0.87 0.66 1.24 1.35 1.42 1.45 1.30 1.40 1.64 2.24 2.12 1.48 1.21 1.32 1.36 1.34 1.40 1.62 1.83 1.93 2.04 1.97 2.05 2.10 1.91 1.74 1.48 1.27 1.08 0.84 0.77 0.69 0.58 0.40 0.26 0.13 0.07 0.08 0.06
0.38 0.44 0.49 0.48 0.45 0.46 0.78 1.26 1.03 1.09 0.99 1.21 1.15 1.55 2.21 2.11 1.63 1.36 1.28 1.24 1.38 1.41 1.62 1.78 1.88 2.08 1.99 1.75 1.63 1.41 1.16 1.01 0.91 0.76 0.74 0.75 0.65 0.47 0.33 0.23 0.14 0.13 0.10
0.64 0.73 0.52 0.44 0.38 0.26 0.65 1.01 0.94 1.06 0.89 1.10 1.24 1.06 1.47 2.02 2.04 1.78 1.70 1.51 1.35 1.35 1.46 1.76 1.73 1.56 1.40 1.20 1.04 0.93 0.78 0.73 0.68 0.64 0.51 0.50 0.50 0.45 0.50 0.52 0.39 0.29 0.16
1.03 1.27 1.30 0.99 0.78 0.60 0.83 0.87 0.73 1.05 1.07 1.05 1.10 1.19 1.17 1.15 1.16 1.25 1.21 1.28 1.32 1.27 1.15 1.24 1.34 1.21 1.03 0.99 0.86 0.74 0.63 0.55 0.49 0.50 0.52 0.44 0.37 0.37 0.39 0.51 0.67 0.56 0.33
0.88 0.96 0.90 0.56 0.41 0.66 0.93 0.73 0.69 0.97 0.89 0.85 0.80 0.88 1.03 0.79 0.70 0.82 0.82 0.83 0.80 0.84 0.81 0.69 0.70 0.70 0.74 0.76 0.80 0.77 0.63 0.57 0.48 0.43 0.44 0.40 0.29 0.26 0.32 0.37 0.56 0.87 0.94
0.75 0.56 0.38 0.20 0.19 0.40 0.39 0.34 0.27 0.33 0.35 0.33 0.24 0.41 0.50 0.58 0.56 0.59 0.56 0.52 0.48 0.46 0.48 0.44 0.42 0.41 0.45 0.46 0.57 0.62 0.66 0.83 0.88 0.77 0.71 0.63 0.53 0.50 0.54 0.60 0.71 0.96 1.24
0.14 0.06 0.01 0.00 0.01 0.01 0.00 0.01 0.01 0.04 0.03 0.02 0.03 0.08 0.18 0.17 0.22 0.29 0.36 0.36 0.30 0.36 0.35 0.31 0.25 0.23 0.22 0.24 0.27 0.26 0.24 0.27 0.29 0.37 0.50 0.53 0.49 0.51 0.53 0.52 0.55 0.66 0.84
0.00 0.00 0.00 0.00 0.00 0.00 0.00 0.00 0.00 0.01 0.01 0.01 0.00 0.01 0.02 0.04 0.05 0.05 0.06 0.09 0.09 0.15 0.18 0.26 0.22 0.18 0.17 0.18 0.22 0.26 0.28 0.31 0.32 0.29 0.37 0.40 0.37 0.43 0.40 0.44 0.45 0.47 0.54
0.00 0.00 0.00 0.00 0.00 0.00 0.02 0.04 0.04 0.02 0.01 0.01 0.01 0.03 0.05 0.06 0.07 0.07 0.06 0.06 0.05 0.05 0.03 0.05 0.06 0.07 0.07 0.08 0.12 0.17 0.20 0.23 0.22 0.21 0.25 0.28 0.34 0.45 0.46 0.50 0.53 0.57 0.58
0.01 0.00 0.00 0.00 0.00 0.01 0.05 0.05 0.04 0.02 0.05 0.05 0.05 0.06 0.06 0.07 0.08 0.08 0.06 0.07 0.07 0.07 0.05 0.05 0.06 0.06 0.07 0.10 0.12 0.13 0.16 0.21 0.26 0.32 0.39 0.42 0.47 0.46 0.49 0.61 0.65 0.61 0.57
0.01 0.00 0.01 0.01 0.01 0.01 0.03 0.04 0.07 0.08 0.08 0.11 0.11 0.09 0.07 0.05 0.05 0.06 0.05 0.05 0.06 0.07 0.07 0.08 0.12 0.14 0.17 0.23 0.26 0.30 0.39 0.42 0.42 0.41 0.41 0.49 0.64 0.67 0.57 0.50 0.47 0.49 0.51
0.02 0.01 0.01 0.00 0.00 0.00 0.01 0.02 0.06 0.10 0.16 0.15 0.10 0.07 0.06 0.06 0.07 0.06 0.06 0.08 0.09 0.11 0.15 0.18 0.15 0.15 0.18 0.39 0.32 0.25 0.26 0.31 0.37 0.45 0.47 0.54 0.59 0.43 0.41 0.38 0.30 0.28 0.43
0.01 0.00 0.00 0.00 0.00 0.00 0.01 0.01 0.03 0.06 0.07 0.06 0.04 0.04 0.07 0.10 0.09 0.07 0.05 0.09 0.23 0.40 0.36 0.38 0.47 0.61 0.70 0.79 0.61 0.50 0.38 0.40 0.37 0.35 0.31 0.26 0.25 0.29 0.21 0.24 0.29 0.42 0.47
0.00 0.00 0.00 0.00 0.00 0.00 0.00 0.01 0.02 0.07 0.16 0.23 0.24 0.20 0.38 0.53 0.37 0.44 0.56 0.63 0.43 0.44 0.56 0.50 0.64 0.70 0.83 0.77 0.61 0.61 0.57 0.55 0.55 0.45 0.33 0.27 0.20 0.17 0.17 0.24 0.51 0.34 0.24
0.01 0.00 0.00 0.00 0.00 0.00 0.00 0.01 0.02 0.04 0.15 0.33 0.58 0.61 0.65 0.67 0.73 1.09 1.03 1.18 1.08 0.85 0.71 0.58 0.54 0.45 0.36 0.26 0.21 0.17 0.15 0.16 0.15 0.14 0.14 0.18 0.20 0.26 0.45 0.49 0.40 0.26 0.29
0.01 0.01 0.00 0.00 0.00 0.00 0.03 0.05 0.04 0.08 0.18 0.26 0.22 0.62 0.78 0.63 0.58 0.63 0.64 0.72 0.50 0.52 0.60 0.53 0.35 0.29 0.20 0.14 0.10 0.09 0.07 0.06 0.05 0.05 0.08 0.13 0.11 0.25 0.60 0.39 0.31 0.31 0.26
0.01 0.01 0.02 0.02 0.04 0.07 0.13 0.25 0.23 0.41 0.54 0.84 0.62 0.66 0.80 0.64 0.47 0.54 0.36 0.36 0.38 0.30 0.21 0.14 0.10 0.05 0.03 0.01 0.01 0.01 0.02 0.02 0.06 0.08 0.05 0.07 0.21 0.40 0.26 0.23 0.21 0.27 0.37
0.23 0.25 0.18 0.14 0.18 0.22 0.37 0.73 0.67 0.66 0.70 0.64 0.70 0.44 0.40 0.30 0.22 0.15 0.14 0.11 0.06 0.04 0.02 0.01 0.01 0.00 0.00 0.01 0.01 0.01 0.02 0.06 0.07 0.05 0.05 0.16 0.35 0.19 0.16 0.15 0.17 0.26 0.27
0.28 0.54 0.49 0.45 0.55 0.41 0.44 0.59 0.47 0.29 0.15 0.18 0.13 0.06 0.03 0.02 0.01 0.01 0.00 0.00 0.01 0.01 0.02 0.02 0.02 0.01 0.01 0.01 0.01 0.01 0.06 0.08 0.08 0.07 0.20 0.22 0.16 0.15 0.19 0.23 0.24 0.18 0.14
0.01 0.02 0.02 0.06 0.15 0.15 0.14 0.18 0.12 0.06 0.03 0.02 0.02 0.02 0.02 0.04 0.01 0.02 0.02 0.02 0.02 0.03 0.04 0.04 0.04 0.03 0.02 0.02 0.01 0.04 0.06 0.07 0.12 0.18 0.18 0.11 0.15 0.22 0.25 0.31 0.31 0.24 0.14
0.04 0.04 0.04 0.04 0.03 0.01 0.01 0.01 0.01 0.03 0.05 0.06 0.07 0.09 0.11 0.12 0.07 0.05 0.06 0.07 0.06 0.08 0.08 0.08 0.10 0.10 0.09 0.05 0.08 0.11 0.11 0.13 0.17 0.15 0.09 0.19 0.19 0.16 0.21 0.22 0.22 0.16 0.20
0.07 0.06 0.07 0.07 0.11 0.13 0.11 0.08 0.07 0.08 0.09 0.09 0.09 0.16 0.18 0.23 0.31 0.37 0.32 0.29 0.22 0.20 0.16 0.18 0.18 0.16 0.18 0.17 0.20 0.22 0.30 0.31 0.30 0.26 0.17 0.14 0.14 0.17 0.13 0.10 0.17 0.19 0.20

GFSMW_prec_precacc_123.txt.gz
Total_Precipitation_Accumulation
0.39 1.12 1.62 2.05 1.61 0.90 0.86 0.87 1.20 1.44 1.30 0.95 0.80 0.78 0.63 0.59 0.38 0.36 0.52 0.35 0.50 0.53 0.43 0.33 0.37 0.41 0.38 0.37 0.30 0.23 0.09 0.04 0.04 0.06 0.01 0.00 0.00 0.00 0.00 0.00 0.00 0.00 0.01
0.55 0.84 1.07 2.09 2.75 1.81 1.19 1.18 0.99 0.86 1.26 1.39 0.92 0.99 1.00 0.99 0.73 0.64 0.50 0.52 0.62 0.74 0.73 0.41 0.45 0.40 0.30 0.25 0.27 0.24 0.21 0.16 0.18 0.18 0.12 0.04 0.00 0.00 0.00 0.00 0.00 0.00 0.01
0.46 0.87 0.81 1.00 1.40 2.19 1.62 1.38 1.92 1.31 1.04 1.66 1.63 1.49 1.82 1.66 1.27 0.77 0.55 0.72 1.02 1.31 1.20 1.07 0.92 0.74 0.61 0.58 0.53 0.56 0.62 0.46 0.45 0.46 0.43 0.16 0.03 0.01 0.00 0.00 0.01 0.01 0.01
0.32 0.67 0.95 0.79 0.77 0.97 1.47 1.20 1.68 1.60 1.39 1.56 2.20 1.96 1.57 1.55 1.36 1.39 1.40 1.59 1.70 1.95 2.03 1.90 1.63 1.38 1.13 1.06 1.12 1.21 1.23 1.05 0.82 0.69 0.44 0.33 0.21 0.16 0.07 0.02 0.05 0.04 0.02
0.36 0.39 0.62 0.93 0.89 0.68 1.25 1.36 1.42 1.45 1.30 1.40 1.64 2.25 2.12 1.48 1.21 1.32 1.36 1.34 1.41 1.63 1.86 1.97 2.08 2.00 2.10 2.14 1.93 1.76 1.51 1.30 1.11 0.85 0.79 0.70 0.58 0.40 0.26 0.13 0.07 0.08 0.08
0.42 0.50 0.61 0.59 0.50 0.47 0.78 1.26 1.03 1.09 0.99 1.21 1.15 1.55 2.21 2.11 1.63 1.36 1.28 1.25 1.40 1.42 1.65 1.88 2.02 2.22 2.08 1.84 1.72 1.48 1.22 1.05 0.94 0.78 0.78 0.79 0.67 0.48 0.37 0.25 0.15 0.16 0.13
0.71 0.82 0.59 0.49 0.40 0.27 0.65 1.01 0.94 1.06 0.89 1.10 1.24 1.06 1.47 2.02 2.05 1.89 1.82 1.64 1.48 1.52 1.61 1.96 2.07 1.90 1.71 1.42 1.20 1.09 0.93 0.88 0.79 0.74 0.61 0.61 0.63 0.58 0.63 0.64 0.48 0.37 0.21
1.13 1.33 1.49 1.15 0.82 0.67 0.90 0.89 0.74 1.08 1.09 1.06 1.11 1.19 1.18 1.16 1.20 1.36 1.41 1.51 1.53 1.51 1.45 1.61 1.72 1.70 1.50 1.38 1.09 0.89 0.74 0.67 0.62 0.62 0.64 0.54 0.48 0.49 0.52 0.62 0.78 0.66 0.42
0.99 1.20 1.31 0.83 0.63 1.06 1.30 0.98 0.82 1.05 0.93 0.89 0.83 0.96 1.16 0.94 0.77 0.88 0.87 0.89 0.87 0.94 0.97 0.90 0.91 0.88 0.93 1.01 1.09 1.01 0.79 0.72 0.61 0.54 0.54 0.50 0.37 0.35 0.41 0.48 0.69 1.00 1.05
1.02 0.76 0.51 0.31 0.34 0.55 0.51 0.68 0.59 0.46 0.41 0.48 0.33 0.55 0.66 0.72 0.60 0.63 0.61 0.54 0.53 0.52 0.59 0.62 0.64 0.65 0.67 0.67 0.78 0.84 0.86 1.05 1.09 0.99 0.94 0.85 0.71 0.67 0.69 0.74 0.84 1.10 1.41
0.16 0.07 0.02 0.02 0.02 0.01 0.01 0.05 0.13 0.14 0.09 0.05 0.11 0.16 0.25 0.23 0.25 0.31 0.37 0.37 0.33 0.40 0.37 0.34 0.31 0.28 0.25 0.29 0.35 0.35 0.30 0.33 0.35 0.45 0.60 0.65 0.60 0.66 0.68 0.66 0.66 0.77 0.96
0.00 0.00 0.00 0.00 0.00 0.00 0.00 0.00 0.00 0.01 0.01 0.01 0.00 0.01 0.03 0.05 0.05 0.05 0.06 0.09 0.09 0.15 0.18 0.27 0.23 0.21 0.22 0.24 0.28 0.31 0.33 0.36 0.35 0.31 0.39 0.44 0.42 0.53 0.53 0.58 0.59 0.60 0.65
0.00 0.00 0.00 0.00 0.00 0.00 0.02 0.04 0.04 0.02 0.01 0.01 0.01 0.03 0.05 0.06 0.07 0.07 0.06 0.06 0.05 0.05 0.03 0.05 0.06 0.07 0.08 0.10 0.15 0.23 0.28 0.33 0.36 0.37 0.40 0.38 0.43 0.52 0.52 0.61 0.70 0.76 0.75
0.01 0.00 0.00 0.00 0.00 0.01 0.05 0.05 0.04 0.02 0.05 0.05 0.05 0.06 0.06 0.07 0.08 0.08 0.06 0.07 0.07 0.07 0.05 0.05 0.06 0.06 0.07 0.10 0.12 0.13 0.16 0.21 0.27 0.35 0.46 0.53 0.65 0.66 0.66 0.77 0.81 0.78 0.74
0.01 0.00 0.01 0.01 0.01 0.01 0.03 0.04 0.07 0.08 0.08 0.11 0.11 0.09 0.07 0.05 0.05 0.06 0.05 0.05 0.06 0.07 0.07 0.08 0.12 0.14 0.17 0.23 0.26 0.30 0.39 0.42 0.42 0.41 0.42 0.49 0.64 0.69 0.64 0.62 0.59 0.61 0.64
0.02 0.01 0.01 0.00 0.00 0.00 0.01 0.02 0.06 0.10 0.16 0.15 0.10 0.07 0.06 0.06 0.07 0.06 0.06 0.08 0.09 0.11 0.15 0.18 0.15 0.15 0.18 0.39 0.32 0.25 0.26 0.31 0.37 0.45 0.47 0.54 0.59 0.44 0.41 0.40 0.36 0.36 0.54
0.01 0.00 0.00 0.00 0.00 0.00 0.01 0.01 0.03 0.06 0.07 0.06 0.04 0.04 0.07 0.10 0.09 0.07 0.05 0.09 0.23 0.40 0.36 0.38 0.47 0.61 0.70 0.79 0.61 0.50 0.38 0.40 0.37 0.35 0.31 0.27 0.25 0.29 0.21 0.24 0.29 0.44 0.52
0.00 0.00 0.00 0.00 0.00 0.00 0.00 0.01 0.02 0.07 0.16 0.23 0.24 0.20 0.38 0.53 0.37 0.44 0.56 0.63 0.43 0.44 0.56 0.50 0.64 0.70 0.83 0.77 0.61 0.61 0.57 0.55 0.55 0.45 0.33 0.28 0.21 0.17 0.18 0.24 0.51 0.35 0.25
0.01 0.00 0.00 0.00 0.00 0.00 0.00 0.01 0.02 0.04 0.15 0.33 0.58 0.61 0.65 0.67 0.73 1.09 1.03 1.18 1.08 0.85 0.71 0.58 0.54 0.45 0.36 0.26 0.21 0.17 0.15 0.16 0.15 0.14 0.14 0.18 0.20 0.27 0.46 0.50 0.40 0.28 0.31
0.01 0.01 0.00 0.00 0.00 0.00 0.03 0.05 0.04 0.08 0.18 0.26 0.22 0.62 0.78 0.63 0.58 0.63 0.64 0.72 0.50 0.52 0.60 0.53 0.35 0.29 0.20 0.14 0.10 0.09 0.07 0.06 0.05 0.06 0.08 0.14 0.11 0.26 0.61 0.41 0.33 0.34 0.29
0.01 0.01 0.02 0.02 0.04 0.07 0.13 0.25 0.23 0.41 0.54 0.84 0.62 0.66 0.80 0.64 0.47 0.54 0.36 0.36 0.38 0.30 0.21 0.14 0.10 0.05 0.03 0.01 0.01 0.01 0.02 0.02 0.06 0.08 0.06 0.07 0.23 0.41 0.27 0.25 0.24 0.31 0.42
0.23 0.25 0.18 0.14 0.18 0.22 0.37 0.73 0.67 0.66 0.70 0.64 0.70 0.44 0.40 0.30 0.22 0.15 0.14 0.11 0.06 0.04 0.02 0.01 0.01 0.00 0.00 0.01 0.01 0.01 0.02 0.06 0.07 0.05 0.06 0.17 0.39 0.21 0.17 0.15 0.20 0.35 0.36
0.28 0.54 0.49 0.45 0.55 0.41 0.44 0.59 0.47 0.29 0.15 0.18 0.13 0.06 0.03 0.02 0.01 0.01 0.00 0.00 0.01 0.01 0.02 0.02 0.02 0.01 0.01 0.01 0.01 0.02 0.06 0.08 0.08 0.07 0.21 0.24 0.19 0.17 0.20 0.24 0.28 0.28 0.22
0.01 0.02 0.02 0.06 0.15 0.15 0.14 0.18 0.12 0.06 0.03 0.02 0.02 0.02 0.02 0.04 0.01 0.02 0.02 0.02 0.02 0.03 0.04 0.04 0.04 0.03 0.02 0.02 0.01 0.04 0.06 0.07 0.12 0.19 0.19 0.14 0.18 0.24 0.27 0.32 0.35 0.31 0.19
0.04 0.04 0.04 0.04 0.03 0.01 0.01 0.01 0.01 0.03 0.05 0.06 0.07 0.09 0.11 0.12 0.07 0.05 0.06 0.07 0.06 0.08 0.08 0.08 0.10 0.11 0.10 0.06 0.09 0.12 0.12 0.14 0.18 0.16 0.09 0.20 0.22 0.18 0.22 0.24 0.24 0.22 0.29
0.07 0.06 0.07 0.07 0.11 0.13 0.11 0.08 0.07 0.08 0.09 0.09 0.09 0.16 0.18 0.23 0.31 0.37 0.32 0.29 0.22 0.20 0.16 0.18 0.18 0.16 0.18 0.18 0.22 0.24 0.31 0.33 0.31 0.28 0.18 0.15 0.16 0.18 0.14 0.11 0.19 0.25 0.33

GFSMW_prec_precacc_126.txt.gz
Total_Precipitation_Accumulation
0.39 1.12 1.62 2.05 1.61 0.90 0.86 0.87 1.20 1.44 1.30 0.95 0.80 0.78 0.63 0.59 0.38 0.36 0.52 0.35 0.50 0.53 0.43 0.33 0.37 0.41 0.38 0.38 0.31 0.30 0.34 0.34 0.19 0.13 0.02 0.00 0.00 0.00 0.00 0.00 0.00 0.00 0.01
0.55 0.84 1.07 2.09 2.75 1.81 1.19 1.18 0.99 0.86 1.26 1.39 0.92 0.99 1.00 0.99 0.73 0.64 0.50 0.52 0.62 0.74 0.73 0.42 0.45 0.41 0.31 0.26 0.28 0.31 0.34 0.26 0.29 0.28 0.17 0.06 0.00 0.00 0.00 0.00 0.00 0.00 0.01
0.46 0.87 0.81 1.00 1.40 2.19 1.62 1.38 1.92 1.31 1.04 1.66 1.63 1.49 1.82 1.66 1.28 0.77 0.55 0.72 1.02 1.31 1.20 1.07 0.92 0.74 0.62 0.59 0.53 0.58 0.71 0.60 0.60 0.58 0.52 0.18 0.04 0.01 0.00 0.00 0.01 0.01 0.01
0.32 0.67 0.95 0.79 0.77 0.97 1.47 1.20 1.68 1.60 1.39 1.56 2.20 1.96 1.57 1.56 1.36 1.39 1.40 1.59 1.70 1.95 2.03 1.90 1.64 1.39 1.15 1.08 1.14 1.22 1.24 1.07 0.86 0.74 0.50 0.38 0.22 0.17 0.07 0.02 0.05 0.04 0.02
0.36 0.40 0.62 0.94 0.90 0.68 1.25 1.36 1.42 1.45 1.31 1.41 1.64 2.25 2.12 1.48 1.21 1.32 1.36 1.34 1.41 1.64 1.86 1.98 2.10 2.02 2.13 2.18 1.97 1.79 1.54 1.33 1.14 0.88 0.81 0.74 0.65 0.43 0.28 0.13 0.07 0.08 0.08
0.44 0.51 0.64 0.62 0.54 0.48 0.78 1.26 1.03 1.09 0.99 1.22 1.16 1.56 2.21 2.12 1.64 1.36 1.28 1.25 1.41 1.43 1.66 1.88 2.03 2.26 2.14 1.89 1.77 1.58 1.33 1.11 0.97 0.82 0.81 0.82 0.71 0.52 0.42 0.30 0.18 0.19 0.15
0.80 0.95 0.72 0.54 0.43 0.29 0.65 1.01 0.94 1.06 0.89 1.10 1.24 1.06 1.48 2.03 2.07 1.90 1.84 1.65 1.51 1.55 1.63 1.98 2.10 1.94 1.76 1.50 1.30 1.18 1.03 1.00 0.91 0.83 0.68 0.67 0.71 0.66 0.74 0.79 0.60 0.46 0.29
1.29 1.46 1.73 1.30 0.93 0.73 0.90 0.89 0.74 1.08 1.09 1.06 1.11 1.20 1.20 1.19 1.23 1.40 1.47 1.56 1.55 1.53 1.46 1.63 1.82 1.86 1.67 1.58 1.29 1.06 0.88 0.77 0.72 0.73 0.76 0.67 0.61 0.62 0.65 0.78 0.95 0.82 0.52
1.03 1.27 1.41 1.02 0.75 1.23 1.42 1.04 0.85 1.05 0.94 0.90 0.83 0.98 1.18 0.97 0.80 0.93 0.90 0.92 0.89 0.95 1.01 0.94 0.98 1.04 1.13 1.31 1.37 1.21 0.94 0.84 0.70 0.61 0.62 0.60 0.47 0.44 0.49 0.57 0.80 1.14 1.23
1.04 0.78 0.54 0.34 0.41 0.60 0.58 0.82 0.74 0.48 0.46 0.56 0.37 0.60 0.74 0.82 0.75 0.73 0.63 0.55 0.53 0.55 0.62 0.67 0.73 0.76 0.82 0.85 0.92 0.95 0.94 1.11 1.15 1.06 1.02 0.92 0.76 0.71 0.74 0.79 0.91 1.19 1.53
0.17 0.08 0.03 0.02 0.03 0.02 0.04 0.10 0.21 0.22 0.27 0.30 0.24 0.33 0.46 0.34 0.32 0.32 0.38 0.38 0.33 0.41 0.37 0.34 0.31 0.30 0.28 0.33 0.41 0.41 0.37 0.41 0.40 0.47 0.62 0.66 0.61 0.67 0.70 0.70 0.74 0.88 1.11
0.00 0.01 0.01 0.00 0.00 0.01 0.00 0.00 0.00 0.01 0.01 0.01 0.04 0.07 0.09 0.06 0.06 0.06 0.06 0.09 0.09 0.15 0.18 0.27 0.23 0.21 0.23 0.24 0.29 0.33 0.36 0.41 0.41 0.36 0.44 0.48 0.44 0.56 0.55 0.60 0.62 0.63 0.70
0.00 0.00 0.00 0.00 0.00 0.00 0.02 0.04 0.04 0.02 0.01 0.01 0.01 0.03 0.05 0.06 0.07 0.07 0.06 0.06 0.05 0.05 0.03 0.05 0.06 0.07 0.08 0.10 0.15 0.23 0.30 0.36 0.39 0.40 0.43 0.42 0.50 0.62 0.62 0.70 0.78 0.81 0.78
0.01 0.00 0.00 0.00 0.00 0.01 0.05 0.05 0.04 0.02 0.05 0.05 0.05 0.06 0.06 0.07 0.08 0.08 0.06 0.07 0.07 0.07 0.05 0.05 0.06 0.06 0.07 0.10 0.12 0.13 0.16 0.21 0.27 0.35 0.46 0.54 0.67 0.70 0.73 0.90 0.97 0.96 0.98
0.01 0.00 0.01 0.01 0.01 0.01 0.03 0.04 0.07 0.08 0.08 0.11 0.11 0.09 0.07 0.05 0.05 0.06 0.05 0.05 0.06 0.07 0.07 0.08 0.12 0.14 0.17 0.23 0.26 0.30 0.39 0.42 0.42 0.41 0.42 0.49 0.65 0.70 0.64 0.64 0.64 0.71 0.85
0.02 0.01 0.01 0.00 0.00 0.00 0.01 0.02 0.06 0.10 0.16 0.15 0.10 0.07 0.06 0.06 0.07 0.06 0.06 0.08 0.09 0.11 0.15 0.18 0.15 0.15 0.18 0.39 0.32 0.25 0.26 0.31 0.37 0.45 0.47 0.54 0.59 0.44 0.41 0.40 0.36 0.37 0.58
0.01 0.00 0.00 0.00 0.00 0.00 0.01 0.01 0.03 0.06 0.07 0.06 0.04 0.04 0.07 0.10 0.09 0.07 0.05 0.09 0.23 0.40 0.36 0.38 0.47 0.61 0.70 0.79 0.61 0.50 0.38 0.40 0.37 0.35 0.31 0.27 0.25 0.30 0.21 0.24 0.30 0.45 0.53
0.00 0.00 0.00 0.00 0.00 0.00 0.00 0.01 0.02 0.07 0.16 0.23 0.24 0.20 0.38 0.53 0.37 0.44 0.56 0.63 0.43 0.44 0.56 0.50 0.64 0.70 0.83 0.77 0.61 0.61 0.57 0.55 0.55 0.45 0.33 0.28 0.21 0.17 0.18 0.25 0.52 0.35 0.26
0.01 0.00 0.00 0.00 0.00 0.00 0.00 0.01 0.02 0.04 0.15 0.33 0.58 0.61 0.65 0.67 0.73 1.09 1.03 1.18 1.08 0.85 0.71 0.58 0.54 0.45 0.36 0.26 0.21 0.17 0.15 0.16 0.15 0.14 0.14 0.18 0.20 0.27 0.46 0.51 0.41 0.28 0.32
0.01 0.01 0.00 0.00 0.00 0.00 0.03 0.05 0.04 0.08 0.18 0.26 0.22 0.62 0.78 0.63 0.58 0.63 0.64 0.72 0.50 0.52 0.60 0.53 0.35 0.29 0.20 0.14 0.10 0.09 0.07 0.06 0.05 0.06 0.08 0.14 0.12 0.26 0.62 0.42 0.34 0.35 0.29
0.01 0.01 0.02 0.02 0.04 0.07 0.13 0.25 0.23 0.41 0.54 0.84 0.62 0.66 0.80 0.64 0.47 0.54 0.36 0.36 0.38 0.30 0.21 0.14 0.10 0.05 0.03 0.01 0.01 0.01 0.02 0.02 0.06 0.08 0.06 0.07 0.23 0.42 0.28 0.26 0.26 0.32 0.44
0.23 0.25 0.18 0.14 0.18 0.22 0.37 0.73 0.67 0.66 0.70 0.64 0.70 0.44 0.40 0.30 0.22 0.15 0.14 0.11 0.06 0.04 0.02 0.01 0.01 0.00 0.00 0.01 0.01 0.01 0.03 0.06 0.07 0.05 0.06 0.17 0.39 0.21 0.18 0.16 0.21 0.36 0.39
0.28 0.54 0.49 0.45 0.55 0.41 0.44 0.59 0.47 0.29 0.15 0.18 0.13 0.06 0.03 0.02 0.01 0.01 0.00 0.00 0.01 0.01 0.02 0.02 0.02 0.01 0.01 0.01 0.01 0.02 0.07 0.09 0.09 0.08 0.22 0.25 0.19 0.18 0.22 0.26 0.28 0.29 0.24
0.01 0.02 0.02 0.06 0.15 0.15 0.14 0.18 0.12 0.06 0.03 0.02 0.02 0.02 0.02 0.04 0.01 0.02 0.02 0.02 0.02 0.03 0.04 0.04 0.05 0.03 0.02 0.02 0.02 0.04 0.07 0.08 0.13 0.20 0.20 0.14 0.18 0.25 0.27 0.33 0.36 0.32 0.22
0.04 0.04 0.04 0.04 0.03 0.01 0.01 0.01 0.01 0.03 0.05 0.06 0.07 0.09 0.11 0.12 0.07 0.05 0.06 0.07 0.06 0.09 0.08 0.08 0.10 0.12 0.11 0.06 0.10 0.13 0.13 0.15 0.19 0.17 0.10 0.21 0.22 0.18 0.22 0.24 0.25 0.22 0.31
0.07 0.06 0.07 0.07 0.11 0.13 0.11 0.08 0.07 0.08 0.09 0.09 0.09 0.16 0.18 0.23 0.31 0.37 0.32 0.29 0.22 0.20 0.16 0.18 0.18 0.16 0.19 0.18 0.23 0.25 0.32 0.33 0.32 0.29 0.18 0.15 0.16 0.19 0.14 0.12 0.20 0.26 0.37

GFSMW_prec_precacc_129.txt.gz
Total_Precipitation_Accumulation
0.39 1.12 1.62 2.05 1.61 0.90 0.86 0.87 1.20 1.44 1.30 0.95 0.80 0.78 0.63 0.59 0.38 0.36 0.52 0.35 0.50 0.53 0.43 0.33 0.37 0.41 0.38 0.38 0.32 0.31 0.36 0.38 0.33 0.37 0.24 0.10 0.03 0.00 0.00 0.00 0.00 0.00 0.01
0.55 0.84 1.07 2.09 2.75 1.81 1.19 1.18 0.99 0.86 1.26 1.39 0.92 0.99 1.00 0.99 0.73 0.64 0.50 0.52 0.62 0.74 0.73 0.42 0.45 0.41 0.31 0.26 0.29 0.32 0.37 0.27 0.31 0.32 0.24 0.12 0.02 0.01 0.00 0.00 0.00 0.00 0.01
0.46 0.87 0.81 1.00 1.40 2.19 1.62 1.38 1.92 1.31 1.04 1.66 1.63 1.49 1.83 1.67 1.28 0.77 0.55 0.72 1.02 1.31 1.20 1.07 0.92 0.75 0.62 0.60 0.54 0.59 0.73 0.62 0.62 0.61 0.56 0.22 0.06 0.02 0.00 0.00 0.01 0.01 0.01
0.33 0.67 0.95 0.79 0.77 0.97 1.47 1.20 1.68 1.60 1.39 1.56 2.20 1.97 1.59 1.56 1.36 1.39 1.40 1.59 1.70 1.95 2.03 1.90 1.64 1.39 1.16 1.09 1.15 1.23 1.25 1.10 0.90 0.77 0.52 0.39 0.24 0.18 0.08 0.03 0.05 0.04 0.02
0.37 0.40 0.63 0.94 0.90 0.68 1.25 1.36 1.43 1.46 1.31 1.41 1.65 2.27 2.14 1.49 1.21 1.32 1.36 1.34 1.41 1.64 1.86 1.98 2.10 2.03 2.15 2.19 1.99 1.82 1.57 1.36 1.17 0.90 0.83 0.76 0.68 0.46 0.31 0.15 0.08 0.08 0.08
0.46 0.53 0.65 0.63 0.54 0.49 0.79 1.26 1.03 1.10 0.99 1.22 1.17 1.56 2.23 2.12 1.64 1.36 1.28 1.25 1.41 1.43 1.66 1.89 2.03 2.26 2.14 1.90 1.77 1.59 1.37 1.17 1.04 0.88 0.85 0.84 0.72 0.53 0.44 0.31 0.18 0.21 0.15
0.86 1.01 0.81 0.63 0.50 0.31 0.66 1.02 0.94 1.06 0.91 1.13 1.27 1.09 1.51 2.04 2.07 1.91 1.84 1.66 1.51 1.56 1.63 1.98 2.10 1.96 1.79 1.52 1.33 1.23 1.10 1.12 1.11 1.12 0.99 0.91 0.84 0.71 0.78 0.84 0.62 0.47 0.31
1.32 1.52 1.83 1.43 1.05 0.78 0.91 0.90 0.75 1.09 1.11 1.08 1.15 1.24 1.25 1.24 1.26 1.40 1.47 1.56 1.56 1.54 1.47 1.63 1.82 1.86 1.71 1.64 1.33 1.10 0.94 0.83 0.77 0.78 0.82 0.76 0.67 0.66 0.69 0.81 0.99 0.90 0.59
1.04 1.27 1.43 1.08 0.83 1.25 1.45 1.06 0.86 1.07 0.96 0.91 0.84 0.98 1.20 0.99 0.81 0.93 0.91 0.94 0.94 0.98 1.01 0.94 0.98 1.05 1.13 1.32 1.38 1.27 1.04 0.91 0.76 0.65 0.65 0.62 0.49 0.47 0.54 0.62 0.87 1.28 1.39
1.04 0.78 0.54 0.36 0.47 0.61 0.60 0.85 0.75 0.49 0.46 0.57 0.38 0.60 0.74 0.83 0.77 0.78 0.68 0.59 0.56 0.55 0.62 0.67 0.73 0.77 0.84 0.88 0.96 1.01 0.98 1.15 1.18 1.10 1.06 0.96 0.79 0.73 0.76 0.83 0.98 1.29 1.65
0.17 0.08 0.03 0.03 0.03 0.03 0.06 0.15 0.26 0.25 0.29 0.32 0.26 0.35 0.49 0.39 0.38 0.46 0.51 0.50 0.41 0.42 0.38 0.35 0.31 0.30 0.28 0.33 0.41 0.42 0.40 0.44 0.43 0.50 0.65 0.69 0.63 0.70 0.72 0.71 0.75 0.90 1.14
0.00 0.01 0.01 0.01 0.01 0.01 0.01 0.01 0.01 0.02 0.02 0.03 0.07 0.14 0.22 0.25 0.20 0.19 0.16 0.13 0.11 0.15 0.18 0.27 0.23 0.21 0.23 0.24 0.29 0.33 0.36 0.41 0.41 0.37 0.45 0.49 0.46 0.58 0.58 0.65 0.68 0.71 0.77
0.00 0.00 0.00 0.00 0.00 0.00 0.02 0.04 0.04 0.02 0.01 0.01 0.02 0.04 0.06 0.07 0.07 0.07 0.06 0.06 0.05 0.05 0.03 0.05 0.06 0.07 0.08 0.10 0.15 0.23 0.30 0.36 0.39 0.40 0.43 0.42 0.50 0.63 0.64 0.73 0.83 0.90 0.91
0.01 0.00 0.00 0.00 0.00 0.01 0.05 0.05 0.04 0.02 0.05 0.05 0.05 0.06 0.06 0.07 0.08 0.08 0.06 0.07 0.07 0.07 0.05 0.05 0.06 0.06 0.07 0.10 0.12 0.13 0.16 0.21 0.27 0.35 0.46 0.54 0.67 0.70 0.74 0.91 0.99 1.00 1.05
0.01 0.00 0.01 0.01 0.01 0.01 0.03 0.04 0.07 0.08 0.08 0.11 0.11 0.09 0.07 0.05 0.05 0.06 0.05 0.05 0.06 0.07 0.07 0.08 0.12 0.14 0.17 0.23 0.26 0.30 0.39 0.42 0.42 0.41 0.42 0.49 0.65 0.70 0.64 0.64 0.64 0.72 0.87
0.02 0.01 0.01 0.00 0.00 0.00 0.01 0.02 0.06 0.10 0.16 0.15 0.10 0.07 0.06 0.06 0.07 0.06 0.06 0.08 0.09 0.11 0.15 0.18 0.15 0.15 0.18 0.39 0.32 0.25 0.26 0.31 0.37 0.45 0.47 0.54 0.59 0.44 0.41 0.40 0.36 0.37 0.59
0.01 0.00 0.00 0.00 0.00 0.00 0.01 0.01 0.03 0.06 0.07 0.06 0.04 0.04 0.07 0.10 0.09 0.07 0.05 0.09 0.23 0.40 0.36 0.38 0.47 0.61 0.70 0.79 0.61 0.50 0.38 0.40 0.37 0.35 0.31 0.27 0.25 0.30 0.21 0.24 0.30 0.45 0.53
0.00 0.00 0.00 0.00 0.00 0.00 0.00 0.01 0.02 0.07 0.16 0.23 0.24 0.20 0.38 0.53 0.37 0.44 0.56 0.63 0.43 0.44 0.56 0.50 0.64 0.70 0.83 0.77 0.61 0.61 0.57 0.55 0.55 0.45 0.33 0.28 0.21 0.17 0.18 0.25 0.52 0.35 0.26
0.01 0.00 0.00 0.00 0.00 0.00 0.00 0.01 0.02 0.04 0.15 0.33 0.58 0.61 0.65 0.67 0.73 1.09 1.03 1.18 1.08 0.85 0.71 0.58 0.54 0.45 0.36 0.26 0.21 0.17 0.15 0.16 0.15 0.14 0.14 0.18 0.20 0.27 0.47 0.51 0.41 0.28 0.32
0.01 0.01 0.00 0.00 0.00 0.00 0.03 0.05 0.04 0.08 0.18 0.26 0.22 0.62 0.78 0.63 0.58 0.63 0.64 0.72 0.50 0.52 0.60 0.53 0.35 0.29 0.20 0.14 0.10 0.09 0.07 0.06 0.05 0.06 0.08 0.14 0.12 0.26 0.62 0.43 0.35 0.35 0.29
0.01 0.01 0.02 0.02 0.04 0.07 0.13 0.25 0.23 0.41 0.54 0.84 0.62 0.66 0.80 0.64 0.47 0.54 0.36 0.36 0.38 0.30 0.21 0.14 0.10 0.05 0.03 0.01 0.01 0.01 0.02 0.02 0.06 0.08 0.06 0.07 0.23 0.42 0.28 0.27 0.26 0.32 0.44
0.23 0.25 0.18 0.14 0.18 0.22 0.37 0.73 0.67 0.66 0.70 0.64 0.70 0.44 0.40 0.30 0.22 0.15 0.14 0.11 0.06 0.04 0.02 0.01 0.01 0.00 0.00 0.01 0.01 0.02 0.03 0.07 0.08 0.06 0.06 0.17 0.40 0.22 0.19 0.17 0.22 0.37 0.40
0.28 0.54 0.49 0.45 0.55 0.41 0.44 0.59 0.47 0.29 0.15 0.18 0.13 0.06 0.03 0.02 0.01 0.01 0.00 0.00 0.01 0.01 0.02 0.02 0.02 0.01 0.01 0.01 0.01 0.02 0.07 0.09 0.09 0.08 0.22 0.26 0.20 0.18 0.22 0.26 0.29 0.29 0.24
0.01 0.02 0.02 0.06 0.15 0.15 0.14 0.18 0.12 0.06 0.03 0.02 0.02 0.02 0.02 0.04 0.01 0.02 0.02 0.02 0.02 0.03 0.04 0.04 0.05 0.03 0.02 0.02 0.02 0.04 0.07 0.08 0.13 0.20 0.20 0.15 0.19 0.26 0.28 0.34 0.36 0.32 0.23
0.04 0.04 0.04 0.04 0.03 0.01 0.01 0.01 0.01 0.03 0.05 0.06 0.07 0.09 0.11 0.12 0.07 0.05 0.06 0.07 0.06 0.09 0.08 0.08 0.11 0.12 0.11 0.06 0.11 0.14 0.14 0.16 0.20 0.18 0.10 0.21 0.22 0.18 0.22 0.24 0.25 0.22 0.31
0.07 0.06 0.07 0.07 0.11 0.13 0.11 0.08 0.07 0.08 0.09 0.09 0.09 0.16 0.18 0.23 0.31 0.37 0.32 0.29 0.22 0.20 0.16 0.18 0.18 0.16 0.19 0.19 0.23 0.26 0.33 0.34 0.33 0.29 0.18 0.15 0.16 0.19 0.14 0.12 0.20 0.26 0.38

GFSMW_prec_precacc_132.txt.gz
Total_Precipitation_Accumulation
0.39 1.12 1.62 2.05 1.61 0.90 0.86 0.87 1.20 1.44 1.30 0.95 0.80 0.78 0.63 0.60 0.39 0.36 0.52 0.35 0.50 0.53 0.43 0.33 0.37 0.41 0.38 0.38 0.32 0.32 0.38 0.39 0.35 0.41 0.27 0.12 0.06 0.03 0.01 0.00 0.00 0.00 0.01
0.55 0.84 1.07 2.09 2.75 1.81 1.19 1.18 0.99 0.86 1.26 1.39 0.92 0.99 1.01 1.02 0.75 0.64 0.50 0.52 0.62 0.74 0.73 0.42 0.45 0.41 0.31 0.26 0.29 0.32 0.37 0.29 0.32 0.33 0.26 0.14 0.04 0.02 0.01 0.00 0.00 0.00 0.01
0.46 0.87 0.81 1.00 1.40 2.19 1.62 1.38 1.92 1.31 1.04 1.66 1.63 1.49 1.83 1.70 1.34 0.79 0.55 0.72 1.02 1.31 1.20 1.07 0.92 0.75 0.62 0.60 0.54 0.59 0.73 0.62 0.62 0.62 0.58 0.24 0.08 0.02 0.01 0.01 0.01 0.01 0.01
0.33 0.67 0.95 0.79 0.77 0.97 1.47 1.20 1.68 1.60 1.39 1.56 2.20 1.97 1.60 1.61 1.45 1.46 1.43 1.59 1.70 1.95 2.03 1.90 1.64 1.39 1.16 1.09 1.15 1.23 1.26 1.12 0.91 0.79 0.54 0.40 0.25 0.19 0.09 0.03 0.05 0.04 0.02
0.37 0.40 0.63 0.94 0.90 0.68 1.25 1.36 1.43 1.46 1.31 1.41 1.65 2.27 2.16 1.55 1.29 1.39 1.40 1.35 1.41 1.64 1.86 1.98 2.10 2.03 2.15 2.19 2.00 1.83 1.58 1.39 1.20 0.92 0.84 0.78 0.71 0.50 0.35 0.17 0.08 0.09 0.08
0.46 0.53 0.65 0.64 0.54 0.49 0.79 1.27 1.03 1.12 1.03 1.23 1.17 1.57 2.26 2.18 1.69 1.41 1.33 1.28 1.44 1.43 1.66 1.89 2.03 2.26 2.15 1.90 1.78 1.60 1.38 1.21 1.08 0.92 0.88 0.86 0.73 0.54 0.47 0.34 0.21 0.23 0.16
0.86 1.01 0.82 0.64 0.52 0.35 0.73 1.05 0.94 1.07 0.93 1.20 1.31 1.13 1.56 2.13 2.15 1.97 1.88 1.69 1.53 1.56 1.63 1.98 2.10 1.96 1.79 1.53 1.34 1.24 1.11 1.13 1.12 1.13 1.02 0.96 0.95 0.84 0.91 0.97 0.72 0.53 0.32
1.32 1.52 1.83 1.43 1.07 0.81 0.98 0.93 0.77 1.11 1.11 1.12 1.22 1.30 1.32 1.33 1.35 1.45 1.52 1.59 1.57 1.54 1.47 1.63 1.82 1.86 1.71 1.66 1.38 1.17 1.01 0.91 0.84 0.86 0.95 0.94 0.84 0.79 0.81 0.91 1.09 0.99 0.64
1.04 1.27 1.43 1.09 0.83 1.26 1.48 1.08 0.88 1.10 0.98 0.92 0.84 1.00 1.24 1.03 0.85 0.94 0.92 0.94 0.94 0.99 1.02 0.94 0.98 1.05 1.13 1.32 1.40 1.29 1.05 0.94 0.85 0.78 0.74 0.69 0.55 0.55 0.66 0.77 1.03 1.40 1.44
1.04 0.78 0.54 0.37 0.48 0.62 0.62 0.86 0.75 0.50 0.48 0.59 0.39 0.61 0.74 0.83 0.77 0.78 0.68 0.59 0.56 0.56 0.63 0.68 0.74 0.78 0.85 0.89 0.98 1.06 1.01 1.17 1.20 1.12 1.07 0.97 0.80 0.74 0.78 0.84 0.99 1.31 1.67
0.17 0.08 0.03 0.03 0.04 0.05 0.09 0.19 0.28 0.26 0.30 0.33 0.26 0.36 0.50 0.39 0.38 0.46 0.51 0.52 0.43 0.47 0.42 0.38 0.35 0.32 0.30 0.34 0.41 0.42 0.40 0.44 0.43 0.50 0.66 0.70 0.65 0.72 0.75 0.74 0.78 0.93 1.18
0.00 0.01 0.01 0.01 0.01 0.01 0.02 0.02 0.03 0.02 0.02 0.04 0.09 0.15 0.23 0.27 0.21 0.21 0.25 0.20 0.16 0.21 0.30 0.30 0.24 0.21 0.23 0.24 0.29 0.33 0.36 0.41 0.41 0.37 0.45 0.50 0.46 0.59 0.60 0.67 0.70 0.74 0.81
0.00 0.00 0.00 0.00 0.00 0.00 0.02 0.04 0.04 0.02 0.02 0.02 0.05 0.08 0.08 0.10 0.08 0.10 0.09 0.08 0.08 0.08 0.04 0.05 0.06 0.07 0.08 0.10 0.15 0.23 0.30 0.36 0.39 0.40 0.43 0.42 0.50 0.63 0.64 0.74 0.84 0.92 0.92
0.01 0.00 0.00 0.00 0.00 0.01 0.05 0.05 0.04 0.02 0.05 0.05 0.05 0.06 0.06 0.07 0.08 0.08 0.06 0.07 0.07 0.07 0.05 0.05 0.06 0.06 0.07 0.10 0.12 0.13 0.16 0.21 0.27 0.35 0.46 0.54 0.67 0.70 0.74 0.91 0.99 1.00 1.05
0.01 0.00 0.01 0.01 0.01 0.01 0.03 0.04 0.07 0.08 0.08 0.11 0.11 0.09 0.07 0.05 0.05 0.06 0.05 0.05 0.06 0.07 0.07 0.08 0.12 0.14 0.17 0.23 0.26 0.30 0.39 0.42 0.42 0.41 0.42 0.49 0.65 0.70 0.64 0.64 0.64 0.72 0.87
0.02 0.01 0.01 0.00 0.00 0.00 0.01 0.02 0.06 0.10 0.16 0.15 0.10 0.07 0.06 0.06 0.07 0.06 0.06 0.08 0.09 0.11 0.15 0.18 0.15 0.15 0.18 0.39 0.32 0.25 0.26 0.31 0.37 0.45 0.47 0.54 0.59 0.44 0.41 0.40 0.36 0.37 0.59
0.01 0.00 0.00 0.00 0.00 0.00 0.01 0.01 0.03 0.06 0.07 0.06 0.04 0.04 0.07 0.10 0.09 0.07 0.05 0.09 0.23 0.40 0.36 0.38 0.47 0.61 0.70 0.79 0.61 0.50 0.38 0.40 0.37 0.35 0.31 0.27 0.25 0.30 0.21 0.24 0.30 0.45 0.53
0.00 0.00 0.00 0.00 0.00 0.00 0.00 0.01 0.02 0.07 0.16 0.23 0.24 0.20 0.38 0.53 0.37 0.44 0.56 0.63 0.43 0.44 0.56 0.50 0.64 0.70 0.83 0.77 0.61 0.61 0.57 0.55 0.55 0.45 0.33 0.28 0.21 0.17 0.18 0.25 0.52 0.35 0.26
0.01 0.00 0.00 0.00 0.00 0.00 0.00 0.01 0.02 0.04 0.15 0.33 0.58 0.61 0.65 0.67 0.73 1.09 1.03 1.18 1.08 0.85 0.71 0.58 0.54 0.45 0.36 0.26 0.21 0.17 0.15 0.16 0.15 0.14 0.14 0.18 0.20 0.27 0.47 0.51 0.41 0.28 0.32
0.01 0.01 0.00 0.00 0.00 0.00 0.03 0.05 0.04 0.08 0.18 0.26 0.22 0.62 0.78 0.63 0.58 0.63 0.64 0.72 0.50 0.52 0.60 0.53 0.35 0.29 0.20 0.14 0.10 0.09 0.07 0.06 0.05 0.06 0.08 0.14 0.12 0.26 0.62 0.43 0.35 0.35 0.29
0.01 0.01 0.02 0.02 0.04 0.07 0.13 0.25 0.23 0.41 0.54 0.84 0.62 0.66 0.80 0.64 0.47 0.54 0.36 0.36 0.38 0.30 0.21 0.14 0.10 0.05 0.03 0.01 0.01 0.01 0.02 0.02 0.06 0.08 0.06 0.07 0.24 0.42 0.29 0.27 0.27 0.33 0.45
0.23 0.25 0.18 0.14 0.18 0.22 0.37 0.73 0.67 0.66 0.70 0.64 0.70 0.44 0.40 0.30 0.22 0.15 0.14 0.11 0.06 0.04 0.02 0.01 0.01 0.00 0.00 0.01 0.01 0.02 0.03 0.07 0.08 0.06 0.06 0.17 0.40 0.22 0.19 0.17 0.22 0.38 0.41
0.28 0.54 0.49 0.45 0.55 0.41 0.44 0.59 0.47 0.29 0.15 0.18 0.13 0.06 0.03 0.02 0.01 0.01 0.00 0.00 0.01 0.01 0.02 0.02 0.02 0.01 0.01 0.01 0.01 0.02 0.07 0.09 0.09 0.08 0.22 0.26 0.20 0.18 0.22 0.26 0.29 0.31 0.25
0.01 0.02 0.02 0.06 0.15 0.15 0.14 0.18 0.12 0.06 0.03 0.02 0.02 0.02 0.02 0.04 0.01 0.02 0.02 0.02 0.02 0.03 0.04 0.04 0.05 0.03 0.02 0.02 0.02 0.04 0.07 0.08 0.13 0.20 0.20 0.15 0.19 0.26 0.28 0.34 0.37 0.33 0.23
0.04 0.04 0.04 0.04 0.03 0.01 0.01 0.01 0.01 0.03 0.05 0.06 0.07 0.09 0.11 0.12 0.07 0.05 0.06 0.07 0.06 0.09 0.08 0.08 0.11 0.12 0.11 0.06 0.11 0.14 0.14 0.16 0.20 0.18 0.10 0.21 0.22 0.18 0.22 0.24 0.25 0.22 0.31
0.07 0.06 0.07 0.07 0.11 0.13 0.11 0.08 0.07 0.08 0.09 0.09 0.09 0.16 0.18 0.23 0.31 0.37 0.32 0.29 0.22 0.20 0.16 0.18 0.18 0.16 0.19 0.19 0.24 0.26 0.33 0.34 0.33 0.29 0.18 0.15 0.17 0.19 0.14 0.12 0.20 0.26 0.39

GFSMW_prec_precacc_135.txt.gz
Total_Precipitation_Accumulation
0.39 1.12 1.62 2.05 1.61 0.90 0.86 0.87 1.20 1.44 1.30 0.95 0.80 0.78 0.63 0.60 0.42 0.41 0.56 0.37 0.50 0.53 0.43 0.33 0.37 0.41 0.38 0.38 0.32 0.32 0.38 0.39 0.35 0.42 0.28 0.13 0.07 0.05 0.01 0.00 0.00 0.00 0.01
0.55 0.84 1.07 2.09 2.75 1.81 1.19 1.18 0.99 0.86 1.26 1.39 0.92 0.99 1.01 1.02 0.76 0.70 0.60 0.60 0.69 0.78 0.74 0.42 0.45 0.41 0.31 0.26 0.29 0.32 0.37 0.29 0.33 0.34 0.27 0.15 0.04 0.02 0.01 0.01 0.00 0.00 0.01
0.46 0.87 0.81 1.00 1.40 2.19 1.62 1.38 1.92 1.31 1.04 1.66 1.63 1.49 1.83 1.71 1.36 0.83 0.60 0.78 1.08 1.36 1.24 1.08 0.92 0.75 0.62 0.60 0.54 0.59 0.73 0.62 0.62 0.62 0.60 0.25 0.08 0.02 0.01 0.01 0.01 0.01 0.01
0.33 0.67 0.95 0.79 0.77 0.97 1.47 1.20 1.68 1.60 1.39 1.56 2.20 1.97 1.60 1.61 1.45 1.49 1.51 1.67 1.74 2.01 2.07 1.91 1.64 1.39 1.16 1.09 1.15 1.23 1.26 1.12 0.92 0.80 0.55 0.40 0.25 0.20 0.10 0.03 0.05 0.04 0.02
0.37 0.40 0.63 0.94 0.90 0.68 1.25 1.36 1.43 1.46 1.31 1.41 1.65 2.27 2.16 1.55 1.30 1.43 1.50 1.51 1.51 1.70 1.89 2.00 2.10 2.03 2.15 2.19 2.00 1.83 1.59 1.40 1.21 0.93 0.86 0.79 0.73 0.53 0.38 0.18 0.09 0.09 0.08
0.46 0.53 0.65 0.64 0.54 0.49 0.79 1.27 1.03 1.12 1.03 1.23 1.17 1.57 2.26 2.18 1.71 1.48 1.42 1.40 1.55 1.53 1.70 1.90 2.03 2.26 2.15 1.90 1.79 1.61 1.39 1.22 1.10 0.94 0.91 0.89 0.76 0.56 0.48 0.35 0.21 0.24 0.17
0.86 1.01 0.82 0.64 0.52 0.35 0.73 1.05 0.95 1.07 0.93 1.21 1.36 1.15 1.56 2.15 2.18 2.06 2.06 1.88 1.66 1.60 1.67 2.00 2.11 1.96 1.79 1.53 1.34 1.24 1.12 1.14 1.14 1.15 1.04 0.99 0.97 0.88 0.96 1.03 0.78 0.63 0.38
1.32 1.52 1.83 1.43 1.07 0.81 0.98 0.93 0.77 1.11 1.11 1.14 1.26 1.35 1.34 1.35 1.37 1.50 1.63 1.72 1.63 1.56 1.47 1.64 1.82 1.86 1.71 1.66 1.38 1.18 1.03 0.95 0.95 0.99 1.13 1.13 1.02 1.00 1.08 1.22 1.31 1.14 0.71
1.04 1.27 1.43 1.09 0.83 1.26 1.48 1.08 0.88 1.10 1.00 0.92 0.85 1.02 1.25 1.05 0.88 1.00 0.96 0.98 0.95 0.99 1.02 0.94 0.98 1.05 1.13 1.32 1.40 1.30 1.07 0.97 0.91 0.88 0.93 0.94 0.83 0.80 0.85 0.92 1.18 1.54 1.53
1.04 0.78 0.54 0.37 0.48 0.62 0.62 0.86 0.75 0.51 0.49 0.59 0.39 0.61 0.74 0.84 0.77 0.80 0.71 0.60 0.56 0.56 0.63 0.68 0.74 0.78 0.85 0.89 0.98 1.07 1.06 1.24 1.29 1.20 1.16 1.03 0.82 0.78 0.81 0.87 1.01 1.32 1.68
0.17 0.08 0.03 0.03 0.04 0.05 0.09 0.20 0.29 0.26 0.30 0.34 0.27 0.36 0.50 0.39 0.38 0.46 0.51 0.52 0.43 0.47 0.42 0.38 0.35 0.33 0.31 0.34 0.42 0.42 0.40 0.45 0.44 0.51 0.68 0.72 0.65 0.72 0.75 0.75 0.79 0.94 1.21
0.00 0.01 0.01 0.01 0.01 0.01 0.02 0.02 0.03 0.03 0.04 0.05 0.09 0.15 0.23 0.27 0.21 0.21 0.25 0.20 0.16 0.21 0.32 0.34 0.25 0.22 0.23 0.24 0.29 0.33 0.36 0.41 0.41 0.37 0.45 0.50 0.46 0.59 0.60 0.67 0.71 0.74 0.82
0.00 0.00 0.00 0.00 0.00 0.00 0.02 0.04 0.04 0.02 0.02 0.02 0.06 0.08 0.08 0.10 0.08 0.10 0.09 0.09 0.08 0.08 0.05 0.05 0.06 0.07 0.08 0.10 0.15 0.23 0.30 0.36 0.39 0.40 0.43 0.42 0.50 0.63 0.64 0.74 0.84 0.92 0.92
0.01 0.00 0.00 0.00 0.00 0.01 0.05 0.05 0.04 0.02 0.05 0.05 0.05 0.06 0.06 0.07 0.08 0.08 0.06 0.07 0.07 0.07 0.05 0.05 0.06 0.06 0.07 0.10 0.12 0.13 0.16 0.21 0.27 0.35 0.46 0.54 0.67 0.70 0.74 0.91 0.99 1.00 1.05
0.01 0.00 0.01 0.01 0.01 0.01 0.03 0.04 0.07 0.08 0.08 0.11 0.11 0.09 0.07 0.05 0.05 0.06 0.05 0.05 0.06 0.07 0.07 0.08 0.12 0.14 0.17 0.23 0.26 0.30 0.39 0.42 0.42 0.41 0.42 0.49 0.65 0.70 0.64 0.64 0.64 0.72 0.87
0.02 0.01 0.01 0.00 0.00 0.00 0.01 0.02 0.06 0.10 0.16 0.15 0.10 0.07 0.06 0.06 0.07 0.06 0.06 0.08 0.09 0.11 0.15 0.18 0.15 0.15 0.18 0.39 0.32 0.25 0.26 0.31 0.37 0.45 0.47 0.54 0.59 0.44 0.41 0.40 0.36 0.37 0.59
0.01 0.00 0.00 0.00 0.00 0.00 0.01 0.01 0.03 0.06 0.07 0.06 0.04 0.04 0.07 0.10 0.09 0.07 0.05 0.09 0.23 0.40 0.36 0.38 0.47 0.61 0.70 0.79 0.61 0.50 0.38 0.40 0.37 0.35 0.31 0.27 0.25 0.30 0.21 0.24 0.30 0.45 0.53
0.00 0.00 0.00 0.00 0.00 0.00 0.00 0.01 0.02 0.07 0.16 0.23 0.24 0.20 0.38 0.53 0.37 0.44 0.56 0.63 0.43 0.44 0.56 0.50 0.64 0.70 0.83 0.77 0.61 0.61 0.57 0.55 0.55 0.45 0.33 0.28 0.21 0.17 0.18 0.25 0.52 0.35 0.26
0.01 0.00 0.00 0.00 0.00 0.00 0.00 0.01 0.02 0.04 0.15 0.33 0.58 0.61 0.65 0.67 0.73 1.09 1.03 1.18 1.08 0.85 0.71 0.58 0.54 0.45 0.36 0.26 0.21 0.17 0.15 0.16 0.15 0.14 0.14 0.18 0.20 0.27 0.47 0.51 0.41 0.28 0.32
0.01 0.01 0.00 0.00 0.00 0.00 0.03 0.05 0.04 0.08 0.18 0.26 0.22 0.62 0.78 0.63 0.58 0.63 0.64 0.72 0.50 0.52 0.60 0.53 0.35 0.29 0.20 0.14 0.10 0.09 0.07 0.06 0.05 0.06 0.08 0.14 0.12 0.26 0.63 0.43 0.35 0.35 0.29
0.01 0.01 0.02 0.02 0.04 0.07 0.13 0.25 0.23 0.41 0.54 0.84 0.62 0.66 0.80 0.64 0.47 0.54 0.36 0.36 0.38 0.30 0.21 0.14 0.10 0.05 0.03 0.01 0.01 0.01 0.02 0.02 0.06 0.08 0.06 0.07 0.24 0.42 0.29 0.28 0.27 0.33 0.46
0.23 0.25 0.18 0.14 0.18 0.22 0.37 0.73 0.67 0.66 0.70 0.64 0.70 0.44 0.40 0.30 0.22 0.15 0.14 0.11 0.06 0.04 0.02 0.01 0.01 0.00 0.00 0.01 0.01 0.02 0.03 0.08 0.08 0.06 0.06 0.17 0.40 0.22 0.19 0.17 0.23 0.38 0.43
0.28 0.54 0.49 0.45 0.55 0.41 0.44 0.59 0.47 0.29 0.15 0.18 0.13 0.06 0.03 0.02 0.01 0.01 0.00 0.00 0.01 0.01 0.02 0.02 0.02 0.01 0.01 0.01 0.01 0.02 0.07 0.10 0.10 0.08 0.23 0.27 0.21 0.19 0.22 0.27 0.30 0.31 0.26
0.01 0.02 0.02 0.06 0.15 0.15 0.14 0.18 0.12 0.06 0.03 0.02 0.02 0.02 0.02 0.04 0.01 0.02 0.02 0.02 0.02 0.03 0.04 0.04 0.05 0.03 0.02 0.02 0.02 0.04 0.07 0.08 0.13 0.20 0.21 0.15 0.19 0.26 0.28 0.34 0.37 0.33 0.24
0.04 0.04 0.04 0.04 0.03 0.01 0.01 0.01 0.01 0.03 0.05 0.06 0.07 0.09 0.11 0.12 0.07 0.05 0.06 0.07 0.06 0.09 0.08 0.08 0.11 0.12 0.11 0.06 0.11 0.14 0.14 0.16 0.20 0.18 0.10 0.21 0.22 0.18 0.22 0.24 0.25 0.22 0.32
0.07 0.06 0.07 0.07 0.11 0.13 0.11 0.08 0.07 0.08 0.09 0.09 0.09 0.16 0.18 0.23 0.31 0.37 0.32 0.29 0.22 0.20 0.16 0.18 0.18 0.16 0.19 0.20 0.24 0.26 0.33 0.34 0.33 0.29 0.18 0.15 0.17 0.20 0.15 0.13 0.20 0.26 0.40